<?xml version="1.0" encoding="UTF-8" standalone="no" ?>
<gpx xmlns="http://www.topografix.com/GPX/1/1" xmlns:xsi="http://www.w3.org/2001/XMLSchema-instance" xsi:schemaLocation="http://www.topografix.com/GPX/1/1 http://www.topografix.com/GPX/1/1/gpx.xsd" version="1.1" creator="VisuGPX - https://www.visugpx.com">
  <metadata>
    <name>Cime de Pal</name>
    <desc><![CDATA[Cime de Pal (aller-Retour depuis Estenc)-28/06/15- Merci Barbara]]></desc>
  </metadata>
  <trk>
    <name><![CDATA[CIME DE PAL 2806151]]></name>
    <trkseg>
      <trkpt lat="44.23432" lon="6.75506">
        <ele>1737.24</ele>
        <time>2015-06-28T07:28:30Z</time>
      </trkpt>
      <trkpt lat="44.23431" lon="6.75504">
        <ele>1735.8</ele>
        <time>2015-06-28T07:28:43Z</time>
      </trkpt>
      <trkpt lat="44.2343" lon="6.75505">
        <ele>1739.16</ele>
        <time>2015-06-28T07:28:44Z</time>
      </trkpt>
      <trkpt lat="44.2343" lon="6.75505">
        <ele>1737.72</ele>
        <time>2015-06-28T07:28:45Z</time>
      </trkpt>
      <trkpt lat="44.23418" lon="6.75514">
        <ele>1738.2</ele>
        <time>2015-06-28T07:29:05Z</time>
      </trkpt>
      <trkpt lat="44.23405" lon="6.75523">
        <ele>1738.2</ele>
        <time>2015-06-28T07:29:22Z</time>
      </trkpt>
      <trkpt lat="44.23403" lon="6.75529">
        <ele>1742.05</ele>
        <time>2015-06-28T07:29:27Z</time>
      </trkpt>
      <trkpt lat="44.23401" lon="6.75533">
        <ele>1745.41</ele>
        <time>2015-06-28T07:29:29Z</time>
      </trkpt>
      <trkpt lat="44.23401" lon="6.75532">
        <ele>1748.78</ele>
        <time>2015-06-28T07:29:31Z</time>
      </trkpt>
      <trkpt lat="44.234" lon="6.75532">
        <ele>1751.18</ele>
        <time>2015-06-28T07:29:32Z</time>
      </trkpt>
      <trkpt lat="44.23399" lon="6.75532">
        <ele>1752.62</ele>
        <time>2015-06-28T07:29:34Z</time>
      </trkpt>
      <trkpt lat="44.23398" lon="6.7553">
        <ele>1756.95</ele>
        <time>2015-06-28T07:29:36Z</time>
      </trkpt>
      <trkpt lat="44.23397" lon="6.7553">
        <ele>1759.83</ele>
        <time>2015-06-28T07:29:38Z</time>
      </trkpt>
      <trkpt lat="44.23397" lon="6.7553">
        <ele>1759.83</ele>
        <time>2015-06-28T07:29:39Z</time>
      </trkpt>
      <trkpt lat="44.23394" lon="6.7553">
        <ele>1763.2</ele>
        <time>2015-06-28T07:29:42Z</time>
      </trkpt>
      <trkpt lat="44.23391" lon="6.75531">
        <ele>1766.56</ele>
        <time>2015-06-28T07:29:45Z</time>
      </trkpt>
      <trkpt lat="44.23388" lon="6.75533">
        <ele>1769.92</ele>
        <time>2015-06-28T07:29:48Z</time>
      </trkpt>
      <trkpt lat="44.23385" lon="6.75535">
        <ele>1773.29</ele>
        <time>2015-06-28T07:29:51Z</time>
      </trkpt>
      <trkpt lat="44.23381" lon="6.75538">
        <ele>1776.17</ele>
        <time>2015-06-28T07:29:55Z</time>
      </trkpt>
      <trkpt lat="44.23381" lon="6.75538">
        <ele>1779.06</ele>
        <time>2015-06-28T07:30:00Z</time>
      </trkpt>
      <trkpt lat="44.23379" lon="6.75536">
        <ele>1781.94</ele>
        <time>2015-06-28T07:30:05Z</time>
      </trkpt>
      <trkpt lat="44.2337" lon="6.75539">
        <ele>1785.31</ele>
        <time>2015-06-28T07:30:14Z</time>
      </trkpt>
      <trkpt lat="44.23358" lon="6.75542">
        <ele>1788.19</ele>
        <time>2015-06-28T07:30:26Z</time>
      </trkpt>
      <trkpt lat="44.2335" lon="6.75546">
        <ele>1790.11</ele>
        <time>2015-06-28T07:30:39Z</time>
      </trkpt>
      <trkpt lat="44.23346" lon="6.75546">
        <ele>1789.63</ele>
        <time>2015-06-28T07:30:55Z</time>
      </trkpt>
      <trkpt lat="44.23346" lon="6.75547">
        <ele>1789.63</ele>
        <time>2015-06-28T07:30:56Z</time>
      </trkpt>
      <trkpt lat="44.23329" lon="6.75552">
        <ele>1789.63</ele>
        <time>2015-06-28T07:31:12Z</time>
      </trkpt>
      <trkpt lat="44.23316" lon="6.75571">
        <ele>1788.19</ele>
        <time>2015-06-28T07:31:26Z</time>
      </trkpt>
      <trkpt lat="44.23296" lon="6.75571">
        <ele>1787.71</ele>
        <time>2015-06-28T07:31:42Z</time>
      </trkpt>
      <trkpt lat="44.23289" lon="6.75569">
        <ele>1787.71</ele>
        <time>2015-06-28T07:31:47Z</time>
      </trkpt>
      <trkpt lat="44.23279" lon="6.7557">
        <ele>1787.23</ele>
        <time>2015-06-28T07:31:54Z</time>
      </trkpt>
      <trkpt lat="44.23266" lon="6.7558">
        <ele>1785.79</ele>
        <time>2015-06-28T07:32:10Z</time>
      </trkpt>
      <trkpt lat="44.23261" lon="6.756">
        <ele>1784.82</ele>
        <time>2015-06-28T07:32:24Z</time>
      </trkpt>
      <trkpt lat="44.2326" lon="6.75624">
        <ele>1783.86</ele>
        <time>2015-06-28T07:32:38Z</time>
      </trkpt>
      <trkpt lat="44.23262" lon="6.75644">
        <ele>1782.9</ele>
        <time>2015-06-28T07:32:48Z</time>
      </trkpt>
      <trkpt lat="44.23267" lon="6.75658">
        <ele>1782.42</ele>
        <time>2015-06-28T07:33:01Z</time>
      </trkpt>
      <trkpt lat="44.23268" lon="6.75659">
        <ele>1782.42</ele>
        <time>2015-06-28T07:33:02Z</time>
      </trkpt>
      <trkpt lat="44.23272" lon="6.75665">
        <ele>1782.42</ele>
        <time>2015-06-28T07:33:09Z</time>
      </trkpt>
      <trkpt lat="44.23274" lon="6.75666">
        <ele>1782.42</ele>
        <time>2015-06-28T07:33:11Z</time>
      </trkpt>
      <trkpt lat="44.2328" lon="6.75666">
        <ele>1783.86</ele>
        <time>2015-06-28T07:33:17Z</time>
      </trkpt>
      <trkpt lat="44.23282" lon="6.75671">
        <ele>1784.34</ele>
        <time>2015-06-28T07:33:29Z</time>
      </trkpt>
      <trkpt lat="44.23299" lon="6.75676">
        <ele>1783.86</ele>
        <time>2015-06-28T07:33:43Z</time>
      </trkpt>
      <trkpt lat="44.23311" lon="6.7569">
        <ele>1785.31</ele>
        <time>2015-06-28T07:33:57Z</time>
      </trkpt>
      <trkpt lat="44.23318" lon="6.75695">
        <ele>1786.27</ele>
        <time>2015-06-28T07:34:09Z</time>
      </trkpt>
      <trkpt lat="44.2333" lon="6.75698">
        <ele>1788.19</ele>
        <time>2015-06-28T07:34:21Z</time>
      </trkpt>
      <trkpt lat="44.23342" lon="6.75701">
        <ele>1788.67</ele>
        <time>2015-06-28T07:34:33Z</time>
      </trkpt>
      <trkpt lat="44.23347" lon="6.75704">
        <ele>1789.15</ele>
        <time>2015-06-28T07:34:36Z</time>
      </trkpt>
      <trkpt lat="44.23358" lon="6.75709">
        <ele>1788.67</ele>
        <time>2015-06-28T07:34:45Z</time>
      </trkpt>
      <trkpt lat="44.23363" lon="6.75727">
        <ele>1788.67</ele>
        <time>2015-06-28T07:34:58Z</time>
      </trkpt>
      <trkpt lat="44.23363" lon="6.75734">
        <ele>1789.15</ele>
        <time>2015-06-28T07:35:01Z</time>
      </trkpt>
      <trkpt lat="44.23359" lon="6.75765">
        <ele>1790.59</ele>
        <time>2015-06-28T07:35:16Z</time>
      </trkpt>
      <trkpt lat="44.23357" lon="6.75782">
        <ele>1792.03</ele>
        <time>2015-06-28T07:35:28Z</time>
      </trkpt>
      <trkpt lat="44.23353" lon="6.75799">
        <ele>1792.52</ele>
        <time>2015-06-28T07:35:41Z</time>
      </trkpt>
      <trkpt lat="44.2335" lon="6.75815">
        <ele>1793</ele>
        <time>2015-06-28T07:35:51Z</time>
      </trkpt>
      <trkpt lat="44.23348" lon="6.75835">
        <ele>1795.4</ele>
        <time>2015-06-28T07:36:05Z</time>
      </trkpt>
      <trkpt lat="44.23346" lon="6.75845">
        <ele>1795.88</ele>
        <time>2015-06-28T07:36:12Z</time>
      </trkpt>
      <trkpt lat="44.23341" lon="6.75851">
        <ele>1796.36</ele>
        <time>2015-06-28T07:36:28Z</time>
      </trkpt>
      <trkpt lat="44.2334" lon="6.75855">
        <ele>1796.84</ele>
        <time>2015-06-28T07:36:32Z</time>
      </trkpt>
      <trkpt lat="44.23336" lon="6.75866">
        <ele>1797.32</ele>
        <time>2015-06-28T07:36:45Z</time>
      </trkpt>
      <trkpt lat="44.23329" lon="6.75879">
        <ele>1798.76</ele>
        <time>2015-06-28T07:36:57Z</time>
      </trkpt>
      <trkpt lat="44.23319" lon="6.75894">
        <ele>1800.69</ele>
        <time>2015-06-28T07:37:14Z</time>
      </trkpt>
      <trkpt lat="44.23311" lon="6.75906">
        <ele>1802.13</ele>
        <time>2015-06-28T07:37:29Z</time>
      </trkpt>
      <trkpt lat="44.23304" lon="6.75916">
        <ele>1803.57</ele>
        <time>2015-06-28T07:37:41Z</time>
      </trkpt>
      <trkpt lat="44.23297" lon="6.75925">
        <ele>1804.53</ele>
        <time>2015-06-28T07:37:52Z</time>
      </trkpt>
      <trkpt lat="44.2329" lon="6.75932">
        <ele>1805.49</ele>
        <time>2015-06-28T07:38:05Z</time>
      </trkpt>
      <trkpt lat="44.2328" lon="6.75946">
        <ele>1806.45</ele>
        <time>2015-06-28T07:38:18Z</time>
      </trkpt>
      <trkpt lat="44.23269" lon="6.75958">
        <ele>1808.86</ele>
        <time>2015-06-28T07:38:30Z</time>
      </trkpt>
      <trkpt lat="44.23253" lon="6.75971">
        <ele>1810.78</ele>
        <time>2015-06-28T07:38:45Z</time>
      </trkpt>
      <trkpt lat="44.2324" lon="6.7598">
        <ele>1812.7</ele>
        <time>2015-06-28T07:39:00Z</time>
      </trkpt>
      <trkpt lat="44.23226" lon="6.75992">
        <ele>1812.7</ele>
        <time>2015-06-28T07:39:13Z</time>
      </trkpt>
      <trkpt lat="44.23212" lon="6.76005">
        <ele>1813.18</ele>
        <time>2015-06-28T07:39:27Z</time>
      </trkpt>
      <trkpt lat="44.23204" lon="6.76013">
        <ele>1814.15</ele>
        <time>2015-06-28T07:39:35Z</time>
      </trkpt>
      <trkpt lat="44.23191" lon="6.76025">
        <ele>1814.63</ele>
        <time>2015-06-28T07:39:48Z</time>
      </trkpt>
      <trkpt lat="44.23178" lon="6.7604">
        <ele>1815.11</ele>
        <time>2015-06-28T07:40:00Z</time>
      </trkpt>
      <trkpt lat="44.23173" lon="6.76049">
        <ele>1815.11</ele>
        <time>2015-06-28T07:40:06Z</time>
      </trkpt>
      <trkpt lat="44.23163" lon="6.76072">
        <ele>1816.07</ele>
        <time>2015-06-28T07:40:22Z</time>
      </trkpt>
      <trkpt lat="44.23156" lon="6.76091">
        <ele>1816.55</ele>
        <time>2015-06-28T07:40:36Z</time>
      </trkpt>
      <trkpt lat="44.23152" lon="6.76108">
        <ele>1817.51</ele>
        <time>2015-06-28T07:40:47Z</time>
      </trkpt>
      <trkpt lat="44.23156" lon="6.76124">
        <ele>1817.99</ele>
        <time>2015-06-28T07:40:57Z</time>
      </trkpt>
      <trkpt lat="44.23158" lon="6.76126">
        <ele>1817.99</ele>
        <time>2015-06-28T07:40:59Z</time>
      </trkpt>
      <trkpt lat="44.23166" lon="6.76146">
        <ele>1818.95</ele>
        <time>2015-06-28T07:41:13Z</time>
      </trkpt>
      <trkpt lat="44.23168" lon="6.76149">
        <ele>1819.43</ele>
        <time>2015-06-28T07:41:15Z</time>
      </trkpt>
      <trkpt lat="44.23176" lon="6.76163">
        <ele>1820.39</ele>
        <time>2015-06-28T07:41:27Z</time>
      </trkpt>
      <trkpt lat="44.23184" lon="6.76181">
        <ele>1821.35</ele>
        <time>2015-06-28T07:41:39Z</time>
      </trkpt>
      <trkpt lat="44.23192" lon="6.76199">
        <ele>1822.32</ele>
        <time>2015-06-28T07:41:53Z</time>
      </trkpt>
      <trkpt lat="44.23195" lon="6.76203">
        <ele>1822.8</ele>
        <time>2015-06-28T07:41:58Z</time>
      </trkpt>
      <trkpt lat="44.23205" lon="6.76217">
        <ele>1823.76</ele>
        <time>2015-06-28T07:42:15Z</time>
      </trkpt>
      <trkpt lat="44.2321" lon="6.76226">
        <ele>1824.24</ele>
        <time>2015-06-28T07:42:30Z</time>
      </trkpt>
      <trkpt lat="44.2321" lon="6.76234">
        <ele>1824.72</ele>
        <time>2015-06-28T07:42:37Z</time>
      </trkpt>
      <trkpt lat="44.23208" lon="6.76252">
        <ele>1825.68</ele>
        <time>2015-06-28T07:42:49Z</time>
      </trkpt>
      <trkpt lat="44.232" lon="6.76268">
        <ele>1826.16</ele>
        <time>2015-06-28T07:43:03Z</time>
      </trkpt>
      <trkpt lat="44.23192" lon="6.76284">
        <ele>1826.64</ele>
        <time>2015-06-28T07:43:19Z</time>
      </trkpt>
      <trkpt lat="44.23181" lon="6.76293">
        <ele>1826.64</ele>
        <time>2015-06-28T07:43:50Z</time>
      </trkpt>
      <trkpt lat="44.23179" lon="6.76304">
        <ele>1827.6</ele>
        <time>2015-06-28T07:44:00Z</time>
      </trkpt>
      <trkpt lat="44.23183" lon="6.76307">
        <ele>1828.08</ele>
        <time>2015-06-28T07:44:25Z</time>
      </trkpt>
      <trkpt lat="44.23167" lon="6.76315">
        <ele>1829.05</ele>
        <time>2015-06-28T07:44:38Z</time>
      </trkpt>
      <trkpt lat="44.23164" lon="6.76318">
        <ele>1829.53</ele>
        <time>2015-06-28T07:44:40Z</time>
      </trkpt>
      <trkpt lat="44.23159" lon="6.76328">
        <ele>1830.01</ele>
        <time>2015-06-28T07:44:46Z</time>
      </trkpt>
      <trkpt lat="44.23144" lon="6.76342">
        <ele>1831.45</ele>
        <time>2015-06-28T07:45:00Z</time>
      </trkpt>
      <trkpt lat="44.23143" lon="6.76343">
        <ele>1831.93</ele>
        <time>2015-06-28T07:45:02Z</time>
      </trkpt>
      <trkpt lat="44.23142" lon="6.76349">
        <ele>1831.93</ele>
        <time>2015-06-28T07:45:15Z</time>
      </trkpt>
      <trkpt lat="44.23138" lon="6.76349">
        <ele>1831.93</ele>
        <time>2015-06-28T07:45:43Z</time>
      </trkpt>
      <trkpt lat="44.23135" lon="6.76359">
        <ele>1832.89</ele>
        <time>2015-06-28T07:45:55Z</time>
      </trkpt>
      <trkpt lat="44.23137" lon="6.76369">
        <ele>1834.81</ele>
        <time>2015-06-28T07:46:05Z</time>
      </trkpt>
      <trkpt lat="44.23137" lon="6.76376">
        <ele>1836.74</ele>
        <time>2015-06-28T07:46:13Z</time>
      </trkpt>
      <trkpt lat="44.2314" lon="6.76381">
        <ele>1838.18</ele>
        <time>2015-06-28T07:46:27Z</time>
      </trkpt>
      <trkpt lat="44.23141" lon="6.76388">
        <ele>1840.1</ele>
        <time>2015-06-28T07:46:40Z</time>
      </trkpt>
      <trkpt lat="44.23141" lon="6.76394">
        <ele>1842.02</ele>
        <time>2015-06-28T07:46:51Z</time>
      </trkpt>
      <trkpt lat="44.23139" lon="6.76402">
        <ele>1842.98</ele>
        <time>2015-06-28T07:47:02Z</time>
      </trkpt>
      <trkpt lat="44.2314" lon="6.7641">
        <ele>1845.39</ele>
        <time>2015-06-28T07:47:12Z</time>
      </trkpt>
      <trkpt lat="44.23141" lon="6.76414">
        <ele>1847.31</ele>
        <time>2015-06-28T07:47:19Z</time>
      </trkpt>
      <trkpt lat="44.23142" lon="6.7642">
        <ele>1848.75</ele>
        <time>2015-06-28T07:47:29Z</time>
      </trkpt>
      <trkpt lat="44.23142" lon="6.7643">
        <ele>1850.68</ele>
        <time>2015-06-28T07:47:40Z</time>
      </trkpt>
      <trkpt lat="44.23142" lon="6.76431">
        <ele>1850.68</ele>
        <time>2015-06-28T07:47:41Z</time>
      </trkpt>
      <trkpt lat="44.23142" lon="6.76439">
        <ele>1852.6</ele>
        <time>2015-06-28T07:47:52Z</time>
      </trkpt>
      <trkpt lat="44.23144" lon="6.76447">
        <ele>1855</ele>
        <time>2015-06-28T07:48:03Z</time>
      </trkpt>
      <trkpt lat="44.23143" lon="6.76456">
        <ele>1856.44</ele>
        <time>2015-06-28T07:48:13Z</time>
      </trkpt>
      <trkpt lat="44.23147" lon="6.76463">
        <ele>1857.89</ele>
        <time>2015-06-28T07:48:24Z</time>
      </trkpt>
      <trkpt lat="44.23147" lon="6.76473">
        <ele>1859.81</ele>
        <time>2015-06-28T07:48:35Z</time>
      </trkpt>
      <trkpt lat="44.23147" lon="6.76479">
        <ele>1860.77</ele>
        <time>2015-06-28T07:48:45Z</time>
      </trkpt>
      <trkpt lat="44.23147" lon="6.76484">
        <ele>1861.73</ele>
        <time>2015-06-28T07:48:57Z</time>
      </trkpt>
      <trkpt lat="44.23147" lon="6.7649">
        <ele>1863.65</ele>
        <time>2015-06-28T07:49:07Z</time>
      </trkpt>
      <trkpt lat="44.23144" lon="6.76496">
        <ele>1864.61</ele>
        <time>2015-06-28T07:49:17Z</time>
      </trkpt>
      <trkpt lat="44.23143" lon="6.76502">
        <ele>1867.5</ele>
        <time>2015-06-28T07:49:29Z</time>
      </trkpt>
      <trkpt lat="44.23142" lon="6.7651">
        <ele>1869.42</ele>
        <time>2015-06-28T07:49:40Z</time>
      </trkpt>
      <trkpt lat="44.23142" lon="6.76517">
        <ele>1871.34</ele>
        <time>2015-06-28T07:49:50Z</time>
      </trkpt>
      <trkpt lat="44.2314" lon="6.76525">
        <ele>1873.75</ele>
        <time>2015-06-28T07:50:00Z</time>
      </trkpt>
      <trkpt lat="44.23137" lon="6.76528">
        <ele>1875.67</ele>
        <time>2015-06-28T07:50:12Z</time>
      </trkpt>
      <trkpt lat="44.23135" lon="6.76533">
        <ele>1875.67</ele>
        <time>2015-06-28T07:50:22Z</time>
      </trkpt>
      <trkpt lat="44.23131" lon="6.7654">
        <ele>1875.67</ele>
        <time>2015-06-28T07:50:35Z</time>
      </trkpt>
      <trkpt lat="44.23129" lon="6.76544">
        <ele>1876.63</ele>
        <time>2015-06-28T07:50:43Z</time>
      </trkpt>
      <trkpt lat="44.23129" lon="6.76548">
        <ele>1876.63</ele>
        <time>2015-06-28T07:50:48Z</time>
      </trkpt>
      <trkpt lat="44.23128" lon="6.76551">
        <ele>1878.07</ele>
        <time>2015-06-28T07:50:54Z</time>
      </trkpt>
      <trkpt lat="44.23126" lon="6.76557">
        <ele>1879.51</ele>
        <time>2015-06-28T07:51:05Z</time>
      </trkpt>
      <trkpt lat="44.23121" lon="6.76564">
        <ele>1881.92</ele>
        <time>2015-06-28T07:51:16Z</time>
      </trkpt>
      <trkpt lat="44.23118" lon="6.7657">
        <ele>1884.8</ele>
        <time>2015-06-28T07:51:28Z</time>
      </trkpt>
      <trkpt lat="44.2312" lon="6.76571">
        <ele>1884.8</ele>
        <time>2015-06-28T07:51:52Z</time>
      </trkpt>
      <trkpt lat="44.23119" lon="6.76578">
        <ele>1886.72</ele>
        <time>2015-06-28T07:52:04Z</time>
      </trkpt>
      <trkpt lat="44.2312" lon="6.7658">
        <ele>1887.21</ele>
        <time>2015-06-28T07:52:06Z</time>
      </trkpt>
      <trkpt lat="44.23123" lon="6.76584">
        <ele>1888.65</ele>
        <time>2015-06-28T07:52:21Z</time>
      </trkpt>
      <trkpt lat="44.23126" lon="6.7658">
        <ele>1888.65</ele>
        <time>2015-06-28T07:52:46Z</time>
      </trkpt>
      <trkpt lat="44.23125" lon="6.7659">
        <ele>1890.09</ele>
        <time>2015-06-28T07:52:59Z</time>
      </trkpt>
      <trkpt lat="44.23121" lon="6.76597">
        <ele>1891.05</ele>
        <time>2015-06-28T07:53:08Z</time>
      </trkpt>
      <trkpt lat="44.23121" lon="6.76606">
        <ele>1891.53</ele>
        <time>2015-06-28T07:53:21Z</time>
      </trkpt>
      <trkpt lat="44.23121" lon="6.76615">
        <ele>1893.93</ele>
        <time>2015-06-28T07:53:35Z</time>
      </trkpt>
      <trkpt lat="44.23119" lon="6.76618">
        <ele>1895.86</ele>
        <time>2015-06-28T07:53:47Z</time>
      </trkpt>
      <trkpt lat="44.23117" lon="6.76623">
        <ele>1897.3</ele>
        <time>2015-06-28T07:54:01Z</time>
      </trkpt>
      <trkpt lat="44.23119" lon="6.7663">
        <ele>1898.74</ele>
        <time>2015-06-28T07:54:13Z</time>
      </trkpt>
      <trkpt lat="44.23118" lon="6.76639">
        <ele>1900.66</ele>
        <time>2015-06-28T07:54:24Z</time>
      </trkpt>
      <trkpt lat="44.23125" lon="6.7665">
        <ele>1901.14</ele>
        <time>2015-06-28T07:54:40Z</time>
      </trkpt>
      <trkpt lat="44.23133" lon="6.76653">
        <ele>1903.07</ele>
        <time>2015-06-28T07:54:54Z</time>
      </trkpt>
      <trkpt lat="44.23136" lon="6.76658">
        <ele>1905.47</ele>
        <time>2015-06-28T07:55:09Z</time>
      </trkpt>
      <trkpt lat="44.23132" lon="6.7666">
        <ele>1906.91</ele>
        <time>2015-06-28T07:55:24Z</time>
      </trkpt>
      <trkpt lat="44.23133" lon="6.76664">
        <ele>1908.83</ele>
        <time>2015-06-28T07:55:37Z</time>
      </trkpt>
      <trkpt lat="44.23135" lon="6.76669">
        <ele>1909.8</ele>
        <time>2015-06-28T07:55:52Z</time>
      </trkpt>
      <trkpt lat="44.23134" lon="6.76673">
        <ele>1911.24</ele>
        <time>2015-06-28T07:56:05Z</time>
      </trkpt>
      <trkpt lat="44.23133" lon="6.7668">
        <ele>1913.64</ele>
        <time>2015-06-28T07:56:17Z</time>
      </trkpt>
      <trkpt lat="44.23131" lon="6.76685">
        <ele>1915.08</ele>
        <time>2015-06-28T07:56:28Z</time>
      </trkpt>
      <trkpt lat="44.2313" lon="6.76691">
        <ele>1917.49</ele>
        <time>2015-06-28T07:56:41Z</time>
      </trkpt>
      <trkpt lat="44.23127" lon="6.76698">
        <ele>1919.41</ele>
        <time>2015-06-28T07:56:52Z</time>
      </trkpt>
      <trkpt lat="44.23125" lon="6.76701">
        <ele>1920.85</ele>
        <time>2015-06-28T07:57:03Z</time>
      </trkpt>
      <trkpt lat="44.23122" lon="6.76704">
        <ele>1922.77</ele>
        <time>2015-06-28T07:57:13Z</time>
      </trkpt>
      <trkpt lat="44.23123" lon="6.76709">
        <ele>1924.22</ele>
        <time>2015-06-28T07:57:23Z</time>
      </trkpt>
      <trkpt lat="44.23125" lon="6.76715">
        <ele>1925.66</ele>
        <time>2015-06-28T07:57:36Z</time>
      </trkpt>
      <trkpt lat="44.23123" lon="6.76721">
        <ele>1927.1</ele>
        <time>2015-06-28T07:57:49Z</time>
      </trkpt>
      <trkpt lat="44.23119" lon="6.76726">
        <ele>1929.02</ele>
        <time>2015-06-28T07:58:01Z</time>
      </trkpt>
      <trkpt lat="44.23115" lon="6.76729">
        <ele>1930.46</ele>
        <time>2015-06-28T07:58:13Z</time>
      </trkpt>
      <trkpt lat="44.23114" lon="6.76732">
        <ele>1931.43</ele>
        <time>2015-06-28T07:58:23Z</time>
      </trkpt>
      <trkpt lat="44.23111" lon="6.76736">
        <ele>1933.35</ele>
        <time>2015-06-28T07:58:35Z</time>
      </trkpt>
      <trkpt lat="44.23109" lon="6.76744">
        <ele>1934.31</ele>
        <time>2015-06-28T07:58:47Z</time>
      </trkpt>
      <trkpt lat="44.2311" lon="6.76751">
        <ele>1935.75</ele>
        <time>2015-06-28T07:58:58Z</time>
      </trkpt>
      <trkpt lat="44.23112" lon="6.76757">
        <ele>1937.19</ele>
        <time>2015-06-28T07:59:09Z</time>
      </trkpt>
      <trkpt lat="44.23115" lon="6.76756">
        <ele>1937.19</ele>
        <time>2015-06-28T07:59:21Z</time>
      </trkpt>
      <trkpt lat="44.23118" lon="6.76761">
        <ele>1939.12</ele>
        <time>2015-06-28T07:59:37Z</time>
      </trkpt>
      <trkpt lat="44.23114" lon="6.76765">
        <ele>1939.6</ele>
        <time>2015-06-28T07:59:52Z</time>
      </trkpt>
      <trkpt lat="44.23112" lon="6.76769">
        <ele>1940.08</ele>
        <time>2015-06-28T08:00:09Z</time>
      </trkpt>
      <trkpt lat="44.23113" lon="6.76775">
        <ele>1942.48</ele>
        <time>2015-06-28T08:00:16Z</time>
      </trkpt>
      <trkpt lat="44.23112" lon="6.7678">
        <ele>1944.4</ele>
        <time>2015-06-28T08:00:27Z</time>
      </trkpt>
      <trkpt lat="44.23112" lon="6.76784">
        <ele>1947.29</ele>
        <time>2015-06-28T08:00:42Z</time>
      </trkpt>
      <trkpt lat="44.2311" lon="6.76787">
        <ele>1948.73</ele>
        <time>2015-06-28T08:00:55Z</time>
      </trkpt>
      <trkpt lat="44.23112" lon="6.76792">
        <ele>1950.65</ele>
        <time>2015-06-28T08:01:08Z</time>
      </trkpt>
      <trkpt lat="44.23107" lon="6.76795">
        <ele>1952.09</ele>
        <time>2015-06-28T08:01:19Z</time>
      </trkpt>
      <trkpt lat="44.23108" lon="6.76798">
        <ele>1954.5</ele>
        <time>2015-06-28T08:01:29Z</time>
      </trkpt>
      <trkpt lat="44.23106" lon="6.76806">
        <ele>1955.94</ele>
        <time>2015-06-28T08:01:42Z</time>
      </trkpt>
      <trkpt lat="44.23113" lon="6.76815">
        <ele>1956.42</ele>
        <time>2015-06-28T08:01:55Z</time>
      </trkpt>
      <trkpt lat="44.23115" lon="6.76813">
        <ele>1956.42</ele>
        <time>2015-06-28T08:02:13Z</time>
      </trkpt>
      <trkpt lat="44.23114" lon="6.76811">
        <ele>1957.38</ele>
        <time>2015-06-28T08:02:34Z</time>
      </trkpt>
      <trkpt lat="44.23113" lon="6.76813">
        <ele>1957.38</ele>
        <time>2015-06-28T08:03:03Z</time>
      </trkpt>
      <trkpt lat="44.23114" lon="6.76809">
        <ele>1956.42</ele>
        <time>2015-06-28T08:03:29Z</time>
      </trkpt>
      <trkpt lat="44.23114" lon="6.76812">
        <ele>1956.42</ele>
        <time>2015-06-28T08:03:49Z</time>
      </trkpt>
      <trkpt lat="44.23115" lon="6.7681">
        <ele>1956.42</ele>
        <time>2015-06-28T08:04:09Z</time>
      </trkpt>
      <trkpt lat="44.23116" lon="6.76814">
        <ele>1956.42</ele>
        <time>2015-06-28T08:04:36Z</time>
      </trkpt>
      <trkpt lat="44.23115" lon="6.76814">
        <ele>1956.42</ele>
        <time>2015-06-28T08:04:58Z</time>
      </trkpt>
      <trkpt lat="44.23114" lon="6.76812">
        <ele>1956.42</ele>
        <time>2015-06-28T08:05:24Z</time>
      </trkpt>
      <trkpt lat="44.23115" lon="6.76813">
        <ele>1956.42</ele>
        <time>2015-06-28T08:05:49Z</time>
      </trkpt>
      <trkpt lat="44.23114" lon="6.76812">
        <ele>1952.09</ele>
        <time>2015-06-28T08:06:06Z</time>
      </trkpt>
      <trkpt lat="44.23114" lon="6.76812">
        <ele>1961.23</ele>
        <time>2015-06-28T08:06:07Z</time>
      </trkpt>
      <trkpt lat="44.23115" lon="6.76812">
        <ele>1958.82</ele>
        <time>2015-06-28T08:06:08Z</time>
      </trkpt>
      <trkpt lat="44.23116" lon="6.76814">
        <ele>1957.86</ele>
        <time>2015-06-28T08:06:10Z</time>
      </trkpt>
      <trkpt lat="44.23112" lon="6.76817">
        <ele>1959.3</ele>
        <time>2015-06-28T08:06:23Z</time>
      </trkpt>
      <trkpt lat="44.23107" lon="6.76819">
        <ele>1961.23</ele>
        <time>2015-06-28T08:06:35Z</time>
      </trkpt>
      <trkpt lat="44.23103" lon="6.76821">
        <ele>1963.15</ele>
        <time>2015-06-28T08:06:47Z</time>
      </trkpt>
      <trkpt lat="44.231" lon="6.76824">
        <ele>1964.11</ele>
        <time>2015-06-28T08:07:01Z</time>
      </trkpt>
      <trkpt lat="44.23096" lon="6.76827">
        <ele>1966.03</ele>
        <time>2015-06-28T08:07:12Z</time>
      </trkpt>
      <trkpt lat="44.23093" lon="6.76832">
        <ele>1968.44</ele>
        <time>2015-06-28T08:07:24Z</time>
      </trkpt>
      <trkpt lat="44.23091" lon="6.76834">
        <ele>1968.44</ele>
        <time>2015-06-28T08:07:32Z</time>
      </trkpt>
      <trkpt lat="44.23088" lon="6.76838">
        <ele>1970.84</ele>
        <time>2015-06-28T08:07:45Z</time>
      </trkpt>
      <trkpt lat="44.23084" lon="6.76843">
        <ele>1973.72</ele>
        <time>2015-06-28T08:07:57Z</time>
      </trkpt>
      <trkpt lat="44.23081" lon="6.76849">
        <ele>1976.13</ele>
        <time>2015-06-28T08:08:07Z</time>
      </trkpt>
      <trkpt lat="44.23076" lon="6.76855">
        <ele>1977.57</ele>
        <time>2015-06-28T08:08:21Z</time>
      </trkpt>
      <trkpt lat="44.23071" lon="6.76855">
        <ele>1978.05</ele>
        <time>2015-06-28T08:08:37Z</time>
      </trkpt>
      <trkpt lat="44.23071" lon="6.76854">
        <ele>1979.01</ele>
        <time>2015-06-28T08:08:51Z</time>
      </trkpt>
      <trkpt lat="44.23067" lon="6.76857">
        <ele>1979.49</ele>
        <time>2015-06-28T08:09:05Z</time>
      </trkpt>
      <trkpt lat="44.23063" lon="6.76861">
        <ele>1981.41</ele>
        <time>2015-06-28T08:09:15Z</time>
      </trkpt>
      <trkpt lat="44.23057" lon="6.76862">
        <ele>1982.38</ele>
        <time>2015-06-28T08:09:27Z</time>
      </trkpt>
      <trkpt lat="44.23055" lon="6.76861">
        <ele>1982.86</ele>
        <time>2015-06-28T08:09:48Z</time>
      </trkpt>
      <trkpt lat="44.23051" lon="6.76855">
        <ele>1984.78</ele>
        <time>2015-06-28T08:10:01Z</time>
      </trkpt>
      <trkpt lat="44.23046" lon="6.76853">
        <ele>1987.18</ele>
        <time>2015-06-28T08:10:13Z</time>
      </trkpt>
      <trkpt lat="44.23041" lon="6.76851">
        <ele>1989.59</ele>
        <time>2015-06-28T08:10:26Z</time>
      </trkpt>
      <trkpt lat="44.23033" lon="6.7685">
        <ele>1991.51</ele>
        <time>2015-06-28T08:10:38Z</time>
      </trkpt>
      <trkpt lat="44.23035" lon="6.76851">
        <ele>1992.47</ele>
        <time>2015-06-28T08:10:58Z</time>
      </trkpt>
      <trkpt lat="44.23037" lon="6.76854">
        <ele>1992.47</ele>
        <time>2015-06-28T08:11:15Z</time>
      </trkpt>
      <trkpt lat="44.23031" lon="6.76856">
        <ele>1992.95</ele>
        <time>2015-06-28T08:11:40Z</time>
      </trkpt>
      <trkpt lat="44.23029" lon="6.76858">
        <ele>1993.91</ele>
        <time>2015-06-28T08:11:57Z</time>
      </trkpt>
      <trkpt lat="44.23028" lon="6.76867">
        <ele>1994.87</ele>
        <time>2015-06-28T08:12:09Z</time>
      </trkpt>
      <trkpt lat="44.23032" lon="6.76883">
        <ele>1994.87</ele>
        <time>2015-06-28T08:12:22Z</time>
      </trkpt>
      <trkpt lat="44.23029" lon="6.76888">
        <ele>1994.87</ele>
        <time>2015-06-28T08:12:37Z</time>
      </trkpt>
      <trkpt lat="44.23026" lon="6.76902">
        <ele>1995.83</ele>
        <time>2015-06-28T08:12:54Z</time>
      </trkpt>
      <trkpt lat="44.23024" lon="6.76913">
        <ele>1996.8</ele>
        <time>2015-06-28T08:13:01Z</time>
      </trkpt>
      <trkpt lat="44.23017" lon="6.76919">
        <ele>1998.72</ele>
        <time>2015-06-28T08:13:13Z</time>
      </trkpt>
      <trkpt lat="44.23016" lon="6.76918">
        <ele>1999.2</ele>
        <time>2015-06-28T08:13:16Z</time>
      </trkpt>
      <trkpt lat="44.2301" lon="6.76919">
        <ele>2001.12</ele>
        <time>2015-06-28T08:13:27Z</time>
      </trkpt>
      <trkpt lat="44.23003" lon="6.76922">
        <ele>2003.04</ele>
        <time>2015-06-28T08:13:38Z</time>
      </trkpt>
      <trkpt lat="44.23003" lon="6.76921">
        <ele>2002.56</ele>
        <time>2015-06-28T08:13:51Z</time>
      </trkpt>
      <trkpt lat="44.23001" lon="6.76919">
        <ele>2003.04</ele>
        <time>2015-06-28T08:14:12Z</time>
      </trkpt>
      <trkpt lat="44.22998" lon="6.76921">
        <ele>2003.04</ele>
        <time>2015-06-28T08:14:17Z</time>
      </trkpt>
      <trkpt lat="44.22994" lon="6.76928">
        <ele>2003.04</ele>
        <time>2015-06-28T08:14:22Z</time>
      </trkpt>
      <trkpt lat="44.22988" lon="6.76943">
        <ele>2004.49</ele>
        <time>2015-06-28T08:14:34Z</time>
      </trkpt>
      <trkpt lat="44.22983" lon="6.76954">
        <ele>2005.45</ele>
        <time>2015-06-28T08:14:46Z</time>
      </trkpt>
      <trkpt lat="44.22976" lon="6.76961">
        <ele>2007.37</ele>
        <time>2015-06-28T08:14:58Z</time>
      </trkpt>
      <trkpt lat="44.22972" lon="6.76965">
        <ele>2009.29</ele>
        <time>2015-06-28T08:15:11Z</time>
      </trkpt>
      <trkpt lat="44.22968" lon="6.76975">
        <ele>2010.73</ele>
        <time>2015-06-28T08:15:24Z</time>
      </trkpt>
      <trkpt lat="44.22963" lon="6.76982">
        <ele>2012.66</ele>
        <time>2015-06-28T08:15:38Z</time>
      </trkpt>
      <trkpt lat="44.22962" lon="6.7699">
        <ele>2013.14</ele>
        <time>2015-06-28T08:15:51Z</time>
      </trkpt>
      <trkpt lat="44.22956" lon="6.76995">
        <ele>2013.14</ele>
        <time>2015-06-28T08:16:00Z</time>
      </trkpt>
      <trkpt lat="44.22954" lon="6.76997">
        <ele>2013.14</ele>
        <time>2015-06-28T08:16:02Z</time>
      </trkpt>
      <trkpt lat="44.22949" lon="6.77017">
        <ele>2014.58</ele>
        <time>2015-06-28T08:16:17Z</time>
      </trkpt>
      <trkpt lat="44.22946" lon="6.77027">
        <ele>2016.5</ele>
        <time>2015-06-28T08:16:29Z</time>
      </trkpt>
      <trkpt lat="44.22946" lon="6.77028">
        <ele>2016.98</ele>
        <time>2015-06-28T08:16:42Z</time>
      </trkpt>
      <trkpt lat="44.22943" lon="6.77021">
        <ele>2018.43</ele>
        <time>2015-06-28T08:16:57Z</time>
      </trkpt>
      <trkpt lat="44.22936" lon="6.77023">
        <ele>2019.87</ele>
        <time>2015-06-28T08:17:11Z</time>
      </trkpt>
      <trkpt lat="44.22931" lon="6.77016">
        <ele>2021.31</ele>
        <time>2015-06-28T08:17:27Z</time>
      </trkpt>
      <trkpt lat="44.22928" lon="6.77011">
        <ele>2023.23</ele>
        <time>2015-06-28T08:17:39Z</time>
      </trkpt>
      <trkpt lat="44.22927" lon="6.77009">
        <ele>2023.23</ele>
        <time>2015-06-28T08:17:57Z</time>
      </trkpt>
      <trkpt lat="44.22927" lon="6.77011">
        <ele>2023.23</ele>
        <time>2015-06-28T08:18:17Z</time>
      </trkpt>
      <trkpt lat="44.22929" lon="6.77011">
        <ele>2019.87</ele>
        <time>2015-06-28T08:18:34Z</time>
      </trkpt>
      <trkpt lat="44.22928" lon="6.77012">
        <ele>2024.67</ele>
        <time>2015-06-28T08:18:35Z</time>
      </trkpt>
      <trkpt lat="44.22928" lon="6.7701">
        <ele>2023.71</ele>
        <time>2015-06-28T08:18:52Z</time>
      </trkpt>
      <trkpt lat="44.22925" lon="6.7701">
        <ele>2024.19</ele>
        <time>2015-06-28T08:19:14Z</time>
      </trkpt>
      <trkpt lat="44.22925" lon="6.77011">
        <ele>2024.19</ele>
        <time>2015-06-28T08:19:15Z</time>
      </trkpt>
      <trkpt lat="44.22919" lon="6.77028">
        <ele>2027.08</ele>
        <time>2015-06-28T08:19:28Z</time>
      </trkpt>
      <trkpt lat="44.22913" lon="6.77038">
        <ele>2030.44</ele>
        <time>2015-06-28T08:19:40Z</time>
      </trkpt>
      <trkpt lat="44.22912" lon="6.77045">
        <ele>2031.88</ele>
        <time>2015-06-28T08:19:47Z</time>
      </trkpt>
      <trkpt lat="44.22914" lon="6.77058">
        <ele>2034.29</ele>
        <time>2015-06-28T08:20:00Z</time>
      </trkpt>
      <trkpt lat="44.22913" lon="6.77069">
        <ele>2036.21</ele>
        <time>2015-06-28T08:20:07Z</time>
      </trkpt>
      <trkpt lat="44.22911" lon="6.77077">
        <ele>2037.65</ele>
        <time>2015-06-28T08:20:16Z</time>
      </trkpt>
      <trkpt lat="44.22904" lon="6.77078">
        <ele>2040.05</ele>
        <time>2015-06-28T08:20:28Z</time>
      </trkpt>
      <trkpt lat="44.22899" lon="6.77079">
        <ele>2041.98</ele>
        <time>2015-06-28T08:20:42Z</time>
      </trkpt>
      <trkpt lat="44.22895" lon="6.77077">
        <ele>2044.38</ele>
        <time>2015-06-28T08:20:54Z</time>
      </trkpt>
      <trkpt lat="44.2289" lon="6.77077">
        <ele>2045.82</ele>
        <time>2015-06-28T08:21:05Z</time>
      </trkpt>
      <trkpt lat="44.22884" lon="6.77073">
        <ele>2046.78</ele>
        <time>2015-06-28T08:21:17Z</time>
      </trkpt>
      <trkpt lat="44.22885" lon="6.7707">
        <ele>2047.26</ele>
        <time>2015-06-28T08:21:22Z</time>
      </trkpt>
      <trkpt lat="44.22881" lon="6.77066">
        <ele>2047.75</ele>
        <time>2015-06-28T08:21:30Z</time>
      </trkpt>
      <trkpt lat="44.22875" lon="6.77071">
        <ele>2049.67</ele>
        <time>2015-06-28T08:21:40Z</time>
      </trkpt>
      <trkpt lat="44.22875" lon="6.77075">
        <ele>2049.19</ele>
        <time>2015-06-28T08:21:51Z</time>
      </trkpt>
      <trkpt lat="44.22876" lon="6.77076">
        <ele>2049.67</ele>
        <time>2015-06-28T08:22:05Z</time>
      </trkpt>
      <trkpt lat="44.22875" lon="6.77076">
        <ele>2048.71</ele>
        <time>2015-06-28T08:22:07Z</time>
      </trkpt>
      <trkpt lat="44.22876" lon="6.77075">
        <ele>2050.63</ele>
        <time>2015-06-28T08:22:13Z</time>
      </trkpt>
      <trkpt lat="44.22877" lon="6.77076">
        <ele>2048.23</ele>
        <time>2015-06-28T08:22:15Z</time>
      </trkpt>
      <trkpt lat="44.22878" lon="6.77078">
        <ele>2050.15</ele>
        <time>2015-06-28T08:22:17Z</time>
      </trkpt>
      <trkpt lat="44.22871" lon="6.77074">
        <ele>2050.15</ele>
        <time>2015-06-28T08:22:28Z</time>
      </trkpt>
      <trkpt lat="44.22869" lon="6.77074">
        <ele>2051.11</ele>
        <time>2015-06-28T08:22:30Z</time>
      </trkpt>
      <trkpt lat="44.22866" lon="6.77076">
        <ele>2052.07</ele>
        <time>2015-06-28T08:22:33Z</time>
      </trkpt>
      <trkpt lat="44.22864" lon="6.77084">
        <ele>2052.55</ele>
        <time>2015-06-28T08:22:39Z</time>
      </trkpt>
      <trkpt lat="44.22868" lon="6.77097">
        <ele>2054.96</ele>
        <time>2015-06-28T08:22:51Z</time>
      </trkpt>
      <trkpt lat="44.22867" lon="6.77096">
        <ele>2055.44</ele>
        <time>2015-06-28T08:22:53Z</time>
      </trkpt>
      <trkpt lat="44.22862" lon="6.77096">
        <ele>2056.4</ele>
        <time>2015-06-28T08:22:59Z</time>
      </trkpt>
      <trkpt lat="44.22857" lon="6.77092">
        <ele>2057.84</ele>
        <time>2015-06-28T08:23:07Z</time>
      </trkpt>
      <trkpt lat="44.22853" lon="6.77095">
        <ele>2059.28</ele>
        <time>2015-06-28T08:23:12Z</time>
      </trkpt>
      <trkpt lat="44.22849" lon="6.77093">
        <ele>2060.24</ele>
        <time>2015-06-28T08:23:16Z</time>
      </trkpt>
      <trkpt lat="44.22847" lon="6.77088">
        <ele>2061.68</ele>
        <time>2015-06-28T08:23:22Z</time>
      </trkpt>
      <trkpt lat="44.22842" lon="6.77081">
        <ele>2063.13</ele>
        <time>2015-06-28T08:23:30Z</time>
      </trkpt>
      <trkpt lat="44.2284" lon="6.77084">
        <ele>2064.09</ele>
        <time>2015-06-28T08:23:33Z</time>
      </trkpt>
      <trkpt lat="44.22838" lon="6.77092">
        <ele>2065.05</ele>
        <time>2015-06-28T08:23:39Z</time>
      </trkpt>
      <trkpt lat="44.22835" lon="6.77091">
        <ele>2066.01</ele>
        <time>2015-06-28T08:23:43Z</time>
      </trkpt>
      <trkpt lat="44.22832" lon="6.77084">
        <ele>2066.97</ele>
        <time>2015-06-28T08:23:49Z</time>
      </trkpt>
      <trkpt lat="44.22829" lon="6.7708">
        <ele>2069.38</ele>
        <time>2015-06-28T08:23:55Z</time>
      </trkpt>
      <trkpt lat="44.22824" lon="6.77082">
        <ele>2069.86</ele>
        <time>2015-06-28T08:24:01Z</time>
      </trkpt>
      <trkpt lat="44.22821" lon="6.77093">
        <ele>2071.78</ele>
        <time>2015-06-28T08:24:08Z</time>
      </trkpt>
      <trkpt lat="44.2282" lon="6.77101">
        <ele>2072.26</ele>
        <time>2015-06-28T08:24:12Z</time>
      </trkpt>
      <trkpt lat="44.22819" lon="6.7711">
        <ele>2072.74</ele>
        <time>2015-06-28T08:24:17Z</time>
      </trkpt>
      <trkpt lat="44.22828" lon="6.7712">
        <ele>2074.18</ele>
        <time>2015-06-28T08:24:28Z</time>
      </trkpt>
      <trkpt lat="44.22828" lon="6.77123">
        <ele>2074.18</ele>
        <time>2015-06-28T08:24:46Z</time>
      </trkpt>
      <trkpt lat="44.22825" lon="6.7712">
        <ele>2074.18</ele>
        <time>2015-06-28T08:25:11Z</time>
      </trkpt>
      <trkpt lat="44.22826" lon="6.7712">
        <ele>2074.66</ele>
        <time>2015-06-28T08:25:28Z</time>
      </trkpt>
      <trkpt lat="44.22826" lon="6.77119">
        <ele>2074.66</ele>
        <time>2015-06-28T08:25:52Z</time>
      </trkpt>
      <trkpt lat="44.22829" lon="6.77129">
        <ele>2075.62</ele>
        <time>2015-06-28T08:26:06Z</time>
      </trkpt>
      <trkpt lat="44.22826" lon="6.77138">
        <ele>2077.07</ele>
        <time>2015-06-28T08:26:17Z</time>
      </trkpt>
      <trkpt lat="44.22819" lon="6.77141">
        <ele>2078.99</ele>
        <time>2015-06-28T08:26:29Z</time>
      </trkpt>
      <trkpt lat="44.22812" lon="6.77142">
        <ele>2080.91</ele>
        <time>2015-06-28T08:26:40Z</time>
      </trkpt>
      <trkpt lat="44.22807" lon="6.77153">
        <ele>2082.83</ele>
        <time>2015-06-28T08:26:54Z</time>
      </trkpt>
      <trkpt lat="44.22803" lon="6.77165">
        <ele>2084.76</ele>
        <time>2015-06-28T08:27:08Z</time>
      </trkpt>
      <trkpt lat="44.22801" lon="6.7717">
        <ele>2085.72</ele>
        <time>2015-06-28T08:27:16Z</time>
      </trkpt>
      <trkpt lat="44.22802" lon="6.77187">
        <ele>2086.2</ele>
        <time>2015-06-28T08:27:30Z</time>
      </trkpt>
      <trkpt lat="44.22799" lon="6.77197">
        <ele>2086.68</ele>
        <time>2015-06-28T08:27:43Z</time>
      </trkpt>
      <trkpt lat="44.22798" lon="6.77199">
        <ele>2086.68</ele>
        <time>2015-06-28T08:27:45Z</time>
      </trkpt>
      <trkpt lat="44.22789" lon="6.77207">
        <ele>2087.16</ele>
        <time>2015-06-28T08:27:59Z</time>
      </trkpt>
      <trkpt lat="44.22786" lon="6.77214">
        <ele>2087.64</ele>
        <time>2015-06-28T08:28:13Z</time>
      </trkpt>
      <trkpt lat="44.22777" lon="6.77221">
        <ele>2089.08</ele>
        <time>2015-06-28T08:28:25Z</time>
      </trkpt>
      <trkpt lat="44.22767" lon="6.77231">
        <ele>2087.64</ele>
        <time>2015-06-28T08:28:38Z</time>
      </trkpt>
      <trkpt lat="44.22765" lon="6.77237">
        <ele>2088.12</ele>
        <time>2015-06-28T08:28:46Z</time>
      </trkpt>
      <trkpt lat="44.22757" lon="6.77249">
        <ele>2088.12</ele>
        <time>2015-06-28T08:28:57Z</time>
      </trkpt>
      <trkpt lat="44.22756" lon="6.77253">
        <ele>2088.12</ele>
        <time>2015-06-28T08:29:00Z</time>
      </trkpt>
      <trkpt lat="44.22758" lon="6.77257">
        <ele>2088.12</ele>
        <time>2015-06-28T08:29:05Z</time>
      </trkpt>
      <trkpt lat="44.22755" lon="6.77261">
        <ele>2088.12</ele>
        <time>2015-06-28T08:29:08Z</time>
      </trkpt>
      <trkpt lat="44.2275" lon="6.77267">
        <ele>2089.56</ele>
        <time>2015-06-28T08:29:14Z</time>
      </trkpt>
      <trkpt lat="44.22747" lon="6.77274">
        <ele>2089.56</ele>
        <time>2015-06-28T08:29:18Z</time>
      </trkpt>
      <trkpt lat="44.22743" lon="6.77294">
        <ele>2091</ele>
        <time>2015-06-28T08:29:31Z</time>
      </trkpt>
      <trkpt lat="44.2274" lon="6.77303">
        <ele>2091.97</ele>
        <time>2015-06-28T08:29:38Z</time>
      </trkpt>
      <trkpt lat="44.22739" lon="6.77309">
        <ele>2091.97</ele>
        <time>2015-06-28T08:29:43Z</time>
      </trkpt>
      <trkpt lat="44.22737" lon="6.77315">
        <ele>2092.45</ele>
        <time>2015-06-28T08:29:47Z</time>
      </trkpt>
      <trkpt lat="44.22736" lon="6.77321">
        <ele>2092.93</ele>
        <time>2015-06-28T08:29:51Z</time>
      </trkpt>
      <trkpt lat="44.2273" lon="6.77338">
        <ele>2094.37</ele>
        <time>2015-06-28T08:30:05Z</time>
      </trkpt>
      <trkpt lat="44.22727" lon="6.77348">
        <ele>2095.33</ele>
        <time>2015-06-28T08:30:17Z</time>
      </trkpt>
      <trkpt lat="44.22727" lon="6.77353">
        <ele>2095.81</ele>
        <time>2015-06-28T08:30:29Z</time>
      </trkpt>
      <trkpt lat="44.22727" lon="6.77364">
        <ele>2096.29</ele>
        <time>2015-06-28T08:30:35Z</time>
      </trkpt>
      <trkpt lat="44.22723" lon="6.77374">
        <ele>2096.77</ele>
        <time>2015-06-28T08:30:41Z</time>
      </trkpt>
      <trkpt lat="44.2272" lon="6.77387">
        <ele>2097.73</ele>
        <time>2015-06-28T08:30:51Z</time>
      </trkpt>
      <trkpt lat="44.22718" lon="6.77391">
        <ele>2098.21</ele>
        <time>2015-06-28T08:30:54Z</time>
      </trkpt>
      <trkpt lat="44.22713" lon="6.77405">
        <ele>2099.18</ele>
        <time>2015-06-28T08:31:08Z</time>
      </trkpt>
      <trkpt lat="44.22713" lon="6.77409">
        <ele>2099.18</ele>
        <time>2015-06-28T08:31:11Z</time>
      </trkpt>
      <trkpt lat="44.22712" lon="6.77422">
        <ele>2100.14</ele>
        <time>2015-06-28T08:31:24Z</time>
      </trkpt>
      <trkpt lat="44.22713" lon="6.77433">
        <ele>2101.1</ele>
        <time>2015-06-28T08:31:36Z</time>
      </trkpt>
      <trkpt lat="44.22713" lon="6.77433">
        <ele>2101.1</ele>
        <time>2015-06-28T08:31:44Z</time>
      </trkpt>
      <trkpt lat="44.22716" lon="6.77438">
        <ele>2101.58</ele>
        <time>2015-06-28T08:31:49Z</time>
      </trkpt>
      <trkpt lat="44.22717" lon="6.77448">
        <ele>2101.58</ele>
        <time>2015-06-28T08:31:55Z</time>
      </trkpt>
      <trkpt lat="44.22715" lon="6.77465">
        <ele>2103.5</ele>
        <time>2015-06-28T08:32:08Z</time>
      </trkpt>
      <trkpt lat="44.2271" lon="6.7748">
        <ele>2103.98</ele>
        <time>2015-06-28T08:32:22Z</time>
      </trkpt>
      <trkpt lat="44.22708" lon="6.77485">
        <ele>2104.46</ele>
        <time>2015-06-28T08:32:26Z</time>
      </trkpt>
      <trkpt lat="44.22706" lon="6.77497">
        <ele>2105.91</ele>
        <time>2015-06-28T08:32:39Z</time>
      </trkpt>
      <trkpt lat="44.22701" lon="6.77505">
        <ele>2106.87</ele>
        <time>2015-06-28T08:32:54Z</time>
      </trkpt>
      <trkpt lat="44.22702" lon="6.77504">
        <ele>2106.87</ele>
        <time>2015-06-28T08:33:03Z</time>
      </trkpt>
      <trkpt lat="44.22692" lon="6.77522">
        <ele>2107.83</ele>
        <time>2015-06-28T08:33:18Z</time>
      </trkpt>
      <trkpt lat="44.22691" lon="6.77528">
        <ele>2108.31</ele>
        <time>2015-06-28T08:33:22Z</time>
      </trkpt>
      <trkpt lat="44.22688" lon="6.77539">
        <ele>2109.27</ele>
        <time>2015-06-28T08:33:35Z</time>
      </trkpt>
      <trkpt lat="44.22689" lon="6.77542">
        <ele>2109.27</ele>
        <time>2015-06-28T08:33:41Z</time>
      </trkpt>
      <trkpt lat="44.22688" lon="6.77545">
        <ele>2109.75</ele>
        <time>2015-06-28T08:33:43Z</time>
      </trkpt>
      <trkpt lat="44.22684" lon="6.7755">
        <ele>2111.19</ele>
        <time>2015-06-28T08:33:47Z</time>
      </trkpt>
      <trkpt lat="44.22677" lon="6.77556">
        <ele>2110.23</ele>
        <time>2015-06-28T08:33:54Z</time>
      </trkpt>
      <trkpt lat="44.22673" lon="6.77564">
        <ele>2111.67</ele>
        <time>2015-06-28T08:34:03Z</time>
      </trkpt>
      <trkpt lat="44.22666" lon="6.77573">
        <ele>2111.67</ele>
        <time>2015-06-28T08:34:17Z</time>
      </trkpt>
      <trkpt lat="44.22666" lon="6.77576">
        <ele>2111.67</ele>
        <time>2015-06-28T08:34:20Z</time>
      </trkpt>
      <trkpt lat="44.22663" lon="6.77581">
        <ele>2112.63</ele>
        <time>2015-06-28T08:34:33Z</time>
      </trkpt>
      <trkpt lat="44.22663" lon="6.77583">
        <ele>2112.63</ele>
        <time>2015-06-28T08:34:35Z</time>
      </trkpt>
      <trkpt lat="44.22656" lon="6.77598">
        <ele>2114.56</ele>
        <time>2015-06-28T08:34:48Z</time>
      </trkpt>
      <trkpt lat="44.22653" lon="6.77602">
        <ele>2115.52</ele>
        <time>2015-06-28T08:34:59Z</time>
      </trkpt>
      <trkpt lat="44.2265" lon="6.77608">
        <ele>2115.52</ele>
        <time>2015-06-28T08:35:16Z</time>
      </trkpt>
      <trkpt lat="44.22649" lon="6.77616">
        <ele>2116</ele>
        <time>2015-06-28T08:35:31Z</time>
      </trkpt>
      <trkpt lat="44.22644" lon="6.77622">
        <ele>2116</ele>
        <time>2015-06-28T08:35:51Z</time>
      </trkpt>
      <trkpt lat="44.22639" lon="6.77638">
        <ele>2116.96</ele>
        <time>2015-06-28T08:36:04Z</time>
      </trkpt>
      <trkpt lat="44.22632" lon="6.77652">
        <ele>2117.92</ele>
        <time>2015-06-28T08:36:16Z</time>
      </trkpt>
      <trkpt lat="44.22629" lon="6.7766">
        <ele>2118.4</ele>
        <time>2015-06-28T08:36:28Z</time>
      </trkpt>
      <trkpt lat="44.22628" lon="6.77658">
        <ele>2118.4</ele>
        <time>2015-06-28T08:36:42Z</time>
      </trkpt>
      <trkpt lat="44.22627" lon="6.77659">
        <ele>2118.4</ele>
        <time>2015-06-28T08:36:45Z</time>
      </trkpt>
      <trkpt lat="44.22627" lon="6.77664">
        <ele>2118.4</ele>
        <time>2015-06-28T08:36:49Z</time>
      </trkpt>
      <trkpt lat="44.22616" lon="6.77683">
        <ele>2119.36</ele>
        <time>2015-06-28T08:37:03Z</time>
      </trkpt>
      <trkpt lat="44.22611" lon="6.77695">
        <ele>2120.81</ele>
        <time>2015-06-28T08:37:12Z</time>
      </trkpt>
      <trkpt lat="44.22601" lon="6.77715">
        <ele>2120.81</ele>
        <time>2015-06-28T08:37:28Z</time>
      </trkpt>
      <trkpt lat="44.22602" lon="6.77736">
        <ele>2121.77</ele>
        <time>2015-06-28T08:37:42Z</time>
      </trkpt>
      <trkpt lat="44.22604" lon="6.77742">
        <ele>2121.77</ele>
        <time>2015-06-28T08:37:57Z</time>
      </trkpt>
      <trkpt lat="44.22605" lon="6.7774">
        <ele>2121.77</ele>
        <time>2015-06-28T08:38:15Z</time>
      </trkpt>
      <trkpt lat="44.22604" lon="6.77741">
        <ele>2121.77</ele>
        <time>2015-06-28T08:38:41Z</time>
      </trkpt>
      <trkpt lat="44.22603" lon="6.77743">
        <ele>2121.77</ele>
        <time>2015-06-28T08:38:53Z</time>
      </trkpt>
      <trkpt lat="44.22604" lon="6.7775">
        <ele>2123.69</ele>
        <time>2015-06-28T08:39:06Z</time>
      </trkpt>
      <trkpt lat="44.22602" lon="6.77757">
        <ele>2124.65</ele>
        <time>2015-06-28T08:39:12Z</time>
      </trkpt>
      <trkpt lat="44.22601" lon="6.7776">
        <ele>2124.65</ele>
        <time>2015-06-28T08:39:14Z</time>
      </trkpt>
      <trkpt lat="44.22605" lon="6.77776">
        <ele>2127.53</ele>
        <time>2015-06-28T08:39:28Z</time>
      </trkpt>
      <trkpt lat="44.22607" lon="6.7778">
        <ele>2128.5</ele>
        <time>2015-06-28T08:39:31Z</time>
      </trkpt>
      <trkpt lat="44.22608" lon="6.77782">
        <ele>2128.5</ele>
        <time>2015-06-28T08:39:33Z</time>
      </trkpt>
      <trkpt lat="44.2261" lon="6.77798">
        <ele>2128.98</ele>
        <time>2015-06-28T08:39:42Z</time>
      </trkpt>
      <trkpt lat="44.22605" lon="6.77809">
        <ele>2128.98</ele>
        <time>2015-06-28T08:39:50Z</time>
      </trkpt>
      <trkpt lat="44.22605" lon="6.77821">
        <ele>2129.94</ele>
        <time>2015-06-28T08:40:03Z</time>
      </trkpt>
      <trkpt lat="44.22603" lon="6.77823">
        <ele>2130.42</ele>
        <time>2015-06-28T08:40:17Z</time>
      </trkpt>
      <trkpt lat="44.22601" lon="6.77823">
        <ele>2130.42</ele>
        <time>2015-06-28T08:40:44Z</time>
      </trkpt>
      <trkpt lat="44.22601" lon="6.77823">
        <ele>2130.9</ele>
        <time>2015-06-28T08:41:07Z</time>
      </trkpt>
      <trkpt lat="44.22603" lon="6.77821">
        <ele>2130.9</ele>
        <time>2015-06-28T08:41:20Z</time>
      </trkpt>
      <trkpt lat="44.22599" lon="6.7782">
        <ele>2130.9</ele>
        <time>2015-06-28T08:41:33Z</time>
      </trkpt>
      <trkpt lat="44.22603" lon="6.77822">
        <ele>2130.9</ele>
        <time>2015-06-28T08:41:47Z</time>
      </trkpt>
      <trkpt lat="44.22596" lon="6.77819">
        <ele>2130.9</ele>
        <time>2015-06-28T08:42:02Z</time>
      </trkpt>
      <trkpt lat="44.22595" lon="6.77817">
        <ele>2129.46</ele>
        <time>2015-06-28T08:42:10Z</time>
      </trkpt>
      <trkpt lat="44.22599" lon="6.77817">
        <ele>2128.5</ele>
        <time>2015-06-28T08:42:28Z</time>
      </trkpt>
      <trkpt lat="44.226" lon="6.77818">
        <ele>2129.94</ele>
        <time>2015-06-28T08:42:52Z</time>
      </trkpt>
      <trkpt lat="44.22601" lon="6.77818">
        <ele>2128.5</ele>
        <time>2015-06-28T08:43:11Z</time>
      </trkpt>
      <trkpt lat="44.226" lon="6.77818">
        <ele>2129.94</ele>
        <time>2015-06-28T08:43:13Z</time>
      </trkpt>
      <trkpt lat="44.22598" lon="6.77818">
        <ele>2128.5</ele>
        <time>2015-06-28T08:43:21Z</time>
      </trkpt>
      <trkpt lat="44.22598" lon="6.77817">
        <ele>2129.94</ele>
        <time>2015-06-28T08:43:23Z</time>
      </trkpt>
      <trkpt lat="44.22599" lon="6.77818">
        <ele>2129.94</ele>
        <time>2015-06-28T08:43:39Z</time>
      </trkpt>
      <trkpt lat="44.22604" lon="6.77821">
        <ele>2131.38</ele>
        <time>2015-06-28T08:43:47Z</time>
      </trkpt>
      <trkpt lat="44.22602" lon="6.77823">
        <ele>2131.86</ele>
        <time>2015-06-28T08:44:06Z</time>
      </trkpt>
      <trkpt lat="44.22601" lon="6.77823">
        <ele>2131.86</ele>
        <time>2015-06-28T08:44:29Z</time>
      </trkpt>
      <trkpt lat="44.22598" lon="6.77825">
        <ele>2131.86</ele>
        <time>2015-06-28T08:44:43Z</time>
      </trkpt>
      <trkpt lat="44.226" lon="6.77825">
        <ele>2132.82</ele>
        <time>2015-06-28T08:45:01Z</time>
      </trkpt>
      <trkpt lat="44.22597" lon="6.77832">
        <ele>2133.3</ele>
        <time>2015-06-28T08:45:11Z</time>
      </trkpt>
      <trkpt lat="44.22593" lon="6.77834">
        <ele>2136.19</ele>
        <time>2015-06-28T08:45:25Z</time>
      </trkpt>
      <trkpt lat="44.22587" lon="6.77833">
        <ele>2137.63</ele>
        <time>2015-06-28T08:45:37Z</time>
      </trkpt>
      <trkpt lat="44.22586" lon="6.77833">
        <ele>2139.07</ele>
        <time>2015-06-28T08:45:38Z</time>
      </trkpt>
      <trkpt lat="44.22579" lon="6.77835">
        <ele>2140.51</ele>
        <time>2015-06-28T08:45:50Z</time>
      </trkpt>
      <trkpt lat="44.22579" lon="6.77836">
        <ele>2140.99</ele>
        <time>2015-06-28T08:46:16Z</time>
      </trkpt>
      <trkpt lat="44.22579" lon="6.77842">
        <ele>2143.4</ele>
        <time>2015-06-28T08:46:27Z</time>
      </trkpt>
      <trkpt lat="44.22572" lon="6.77842">
        <ele>2144.84</ele>
        <time>2015-06-28T08:46:39Z</time>
      </trkpt>
      <trkpt lat="44.22569" lon="6.77848">
        <ele>2146.28</ele>
        <time>2015-06-28T08:46:48Z</time>
      </trkpt>
      <trkpt lat="44.22571" lon="6.77855">
        <ele>2147.72</ele>
        <time>2015-06-28T08:46:58Z</time>
      </trkpt>
      <trkpt lat="44.22574" lon="6.77864">
        <ele>2150.61</ele>
        <time>2015-06-28T08:47:10Z</time>
      </trkpt>
      <trkpt lat="44.2257" lon="6.77867">
        <ele>2151.57</ele>
        <time>2015-06-28T08:47:19Z</time>
      </trkpt>
      <trkpt lat="44.2256" lon="6.77865">
        <ele>2154.45</ele>
        <time>2015-06-28T08:47:30Z</time>
      </trkpt>
      <trkpt lat="44.2256" lon="6.77865">
        <ele>2154.45</ele>
        <time>2015-06-28T08:47:31Z</time>
      </trkpt>
      <trkpt lat="44.22556" lon="6.77865">
        <ele>2155.41</ele>
        <time>2015-06-28T08:47:36Z</time>
      </trkpt>
      <trkpt lat="44.22551" lon="6.77863">
        <ele>2157.34</ele>
        <time>2015-06-28T08:47:47Z</time>
      </trkpt>
      <trkpt lat="44.22549" lon="6.77861">
        <ele>2158.3</ele>
        <time>2015-06-28T08:48:01Z</time>
      </trkpt>
      <trkpt lat="44.22544" lon="6.77863">
        <ele>2159.26</ele>
        <time>2015-06-28T08:48:16Z</time>
      </trkpt>
      <trkpt lat="44.22542" lon="6.77868">
        <ele>2160.7</ele>
        <time>2015-06-28T08:48:30Z</time>
      </trkpt>
      <trkpt lat="44.2254" lon="6.7787">
        <ele>2161.66</ele>
        <time>2015-06-28T08:48:45Z</time>
      </trkpt>
      <trkpt lat="44.22536" lon="6.77874">
        <ele>2163.1</ele>
        <time>2015-06-28T08:48:57Z</time>
      </trkpt>
      <trkpt lat="44.22535" lon="6.77879">
        <ele>2164.55</ele>
        <time>2015-06-28T08:49:09Z</time>
      </trkpt>
      <trkpt lat="44.22533" lon="6.77882">
        <ele>2164.55</ele>
        <time>2015-06-28T08:49:23Z</time>
      </trkpt>
      <trkpt lat="44.22526" lon="6.77884">
        <ele>2166.95</ele>
        <time>2015-06-28T08:49:35Z</time>
      </trkpt>
      <trkpt lat="44.22526" lon="6.77882">
        <ele>2166.95</ele>
        <time>2015-06-28T08:49:51Z</time>
      </trkpt>
      <trkpt lat="44.22524" lon="6.77887">
        <ele>2167.91</ele>
        <time>2015-06-28T08:50:14Z</time>
      </trkpt>
      <trkpt lat="44.22524" lon="6.77891">
        <ele>2168.39</ele>
        <time>2015-06-28T08:50:32Z</time>
      </trkpt>
      <trkpt lat="44.22522" lon="6.77894">
        <ele>2169.83</ele>
        <time>2015-06-28T08:50:45Z</time>
      </trkpt>
      <trkpt lat="44.22518" lon="6.77897">
        <ele>2170.31</ele>
        <time>2015-06-28T08:50:58Z</time>
      </trkpt>
      <trkpt lat="44.22517" lon="6.77899">
        <ele>2171.27</ele>
        <time>2015-06-28T08:51:20Z</time>
      </trkpt>
      <trkpt lat="44.22518" lon="6.77899">
        <ele>2171.27</ele>
        <time>2015-06-28T08:51:36Z</time>
      </trkpt>
      <trkpt lat="44.22523" lon="6.779">
        <ele>2171.76</ele>
        <time>2015-06-28T08:52:13Z</time>
      </trkpt>
      <trkpt lat="44.22516" lon="6.77895">
        <ele>2173.68</ele>
        <time>2015-06-28T08:52:26Z</time>
      </trkpt>
      <trkpt lat="44.22517" lon="6.77889">
        <ele>2175.12</ele>
        <time>2015-06-28T08:52:43Z</time>
      </trkpt>
      <trkpt lat="44.22517" lon="6.77885">
        <ele>2177.04</ele>
        <time>2015-06-28T08:53:01Z</time>
      </trkpt>
      <trkpt lat="44.22517" lon="6.77886">
        <ele>2178</ele>
        <time>2015-06-28T08:53:16Z</time>
      </trkpt>
      <trkpt lat="44.22514" lon="6.77888">
        <ele>2178</ele>
        <time>2015-06-28T08:53:36Z</time>
      </trkpt>
      <trkpt lat="44.22513" lon="6.77888">
        <ele>2178.48</ele>
        <time>2015-06-28T08:53:37Z</time>
      </trkpt>
      <trkpt lat="44.22511" lon="6.77888">
        <ele>2177.04</ele>
        <time>2015-06-28T08:53:39Z</time>
      </trkpt>
      <trkpt lat="44.22506" lon="6.77892">
        <ele>2178.48</ele>
        <time>2015-06-28T08:53:47Z</time>
      </trkpt>
      <trkpt lat="44.22506" lon="6.77894">
        <ele>2178.48</ele>
        <time>2015-06-28T08:53:49Z</time>
      </trkpt>
      <trkpt lat="44.22503" lon="6.77899">
        <ele>2178.97</ele>
        <time>2015-06-28T08:53:55Z</time>
      </trkpt>
      <trkpt lat="44.22501" lon="6.77909">
        <ele>2179.45</ele>
        <time>2015-06-28T08:54:08Z</time>
      </trkpt>
      <trkpt lat="44.22505" lon="6.77915">
        <ele>2176.56</ele>
        <time>2015-06-28T08:54:16Z</time>
      </trkpt>
      <trkpt lat="44.22509" lon="6.77925">
        <ele>2175.12</ele>
        <time>2015-06-28T08:54:28Z</time>
      </trkpt>
      <trkpt lat="44.22508" lon="6.77935">
        <ele>2175.6</ele>
        <time>2015-06-28T08:54:41Z</time>
      </trkpt>
      <trkpt lat="44.2251" lon="6.77938">
        <ele>2175.6</ele>
        <time>2015-06-28T08:55:03Z</time>
      </trkpt>
      <trkpt lat="44.22505" lon="6.77943">
        <ele>2176.56</ele>
        <time>2015-06-28T08:55:18Z</time>
      </trkpt>
      <trkpt lat="44.22497" lon="6.77948">
        <ele>2178.97</ele>
        <time>2015-06-28T08:55:30Z</time>
      </trkpt>
      <trkpt lat="44.22495" lon="6.7795">
        <ele>2179.45</ele>
        <time>2015-06-28T08:55:33Z</time>
      </trkpt>
      <trkpt lat="44.22487" lon="6.7795">
        <ele>2180.89</ele>
        <time>2015-06-28T08:55:44Z</time>
      </trkpt>
      <trkpt lat="44.22485" lon="6.7795">
        <ele>2181.85</ele>
        <time>2015-06-28T08:55:58Z</time>
      </trkpt>
      <trkpt lat="44.22486" lon="6.77952">
        <ele>2182.33</ele>
        <time>2015-06-28T08:56:08Z</time>
      </trkpt>
      <trkpt lat="44.22482" lon="6.77955">
        <ele>2182.81</ele>
        <time>2015-06-28T08:56:14Z</time>
      </trkpt>
      <trkpt lat="44.22479" lon="6.77955">
        <ele>2183.29</ele>
        <time>2015-06-28T08:56:17Z</time>
      </trkpt>
      <trkpt lat="44.22474" lon="6.77956">
        <ele>2185.21</ele>
        <time>2015-06-28T08:56:25Z</time>
      </trkpt>
      <trkpt lat="44.22472" lon="6.77956">
        <ele>2185.21</ele>
        <time>2015-06-28T08:56:28Z</time>
      </trkpt>
      <trkpt lat="44.2247" lon="6.77962">
        <ele>2186.66</ele>
        <time>2015-06-28T08:56:35Z</time>
      </trkpt>
      <trkpt lat="44.22464" lon="6.77977">
        <ele>2189.06</ele>
        <time>2015-06-28T08:56:48Z</time>
      </trkpt>
      <trkpt lat="44.22458" lon="6.77987">
        <ele>2191.46</ele>
        <time>2015-06-28T08:57:00Z</time>
      </trkpt>
      <trkpt lat="44.22454" lon="6.77994">
        <ele>2193.39</ele>
        <time>2015-06-28T08:57:12Z</time>
      </trkpt>
      <trkpt lat="44.22452" lon="6.77999">
        <ele>2193.87</ele>
        <time>2015-06-28T08:57:30Z</time>
      </trkpt>
      <trkpt lat="44.22447" lon="6.78006">
        <ele>2196.27</ele>
        <time>2015-06-28T08:57:41Z</time>
      </trkpt>
      <trkpt lat="44.22445" lon="6.78008">
        <ele>2197.23</ele>
        <time>2015-06-28T08:57:44Z</time>
      </trkpt>
      <trkpt lat="44.22439" lon="6.78012">
        <ele>2199.63</ele>
        <time>2015-06-28T08:57:57Z</time>
      </trkpt>
      <trkpt lat="44.22437" lon="6.78014">
        <ele>2199.63</ele>
        <time>2015-06-28T08:58:00Z</time>
      </trkpt>
      <trkpt lat="44.2243" lon="6.78021">
        <ele>2202.52</ele>
        <time>2015-06-28T08:58:13Z</time>
      </trkpt>
      <trkpt lat="44.22428" lon="6.78031">
        <ele>2204.92</ele>
        <time>2015-06-28T08:58:28Z</time>
      </trkpt>
      <trkpt lat="44.22422" lon="6.78032">
        <ele>2206.84</ele>
        <time>2015-06-28T08:58:41Z</time>
      </trkpt>
      <trkpt lat="44.22416" lon="6.78042">
        <ele>2208.29</ele>
        <time>2015-06-28T08:58:55Z</time>
      </trkpt>
      <trkpt lat="44.22411" lon="6.78048">
        <ele>2210.21</ele>
        <time>2015-06-28T08:59:03Z</time>
      </trkpt>
      <trkpt lat="44.22398" lon="6.7806">
        <ele>2213.57</ele>
        <time>2015-06-28T08:59:17Z</time>
      </trkpt>
      <trkpt lat="44.22397" lon="6.78061">
        <ele>2213.57</ele>
        <time>2015-06-28T08:59:18Z</time>
      </trkpt>
      <trkpt lat="44.22391" lon="6.78063">
        <ele>2215.5</ele>
        <time>2015-06-28T08:59:25Z</time>
      </trkpt>
      <trkpt lat="44.22388" lon="6.78077">
        <ele>2216.94</ele>
        <time>2015-06-28T08:59:34Z</time>
      </trkpt>
      <trkpt lat="44.22379" lon="6.7808">
        <ele>2219.34</ele>
        <time>2015-06-28T08:59:43Z</time>
      </trkpt>
      <trkpt lat="44.22377" lon="6.78083">
        <ele>2219.82</ele>
        <time>2015-06-28T08:59:46Z</time>
      </trkpt>
      <trkpt lat="44.2237" lon="6.78094">
        <ele>2221.26</ele>
        <time>2015-06-28T08:59:58Z</time>
      </trkpt>
      <trkpt lat="44.22367" lon="6.78104">
        <ele>2222.22</ele>
        <time>2015-06-28T09:00:06Z</time>
      </trkpt>
      <trkpt lat="44.22355" lon="6.78116">
        <ele>2223.19</ele>
        <time>2015-06-28T09:00:19Z</time>
      </trkpt>
      <trkpt lat="44.22351" lon="6.78129">
        <ele>2225.11</ele>
        <time>2015-06-28T09:00:31Z</time>
      </trkpt>
      <trkpt lat="44.22347" lon="6.78139">
        <ele>2227.03</ele>
        <time>2015-06-28T09:00:43Z</time>
      </trkpt>
      <trkpt lat="44.22344" lon="6.7814">
        <ele>2227.51</ele>
        <time>2015-06-28T09:00:57Z</time>
      </trkpt>
      <trkpt lat="44.22334" lon="6.78144">
        <ele>2228.47</ele>
        <time>2015-06-28T09:01:11Z</time>
      </trkpt>
      <trkpt lat="44.2233" lon="6.78143">
        <ele>2228.47</ele>
        <time>2015-06-28T09:01:24Z</time>
      </trkpt>
      <trkpt lat="44.22325" lon="6.78143">
        <ele>2228.47</ele>
        <time>2015-06-28T09:01:36Z</time>
      </trkpt>
      <trkpt lat="44.22325" lon="6.78147">
        <ele>2228.95</ele>
        <time>2015-06-28T09:01:51Z</time>
      </trkpt>
      <trkpt lat="44.22323" lon="6.78147">
        <ele>2228.95</ele>
        <time>2015-06-28T09:02:04Z</time>
      </trkpt>
      <trkpt lat="44.22324" lon="6.78146">
        <ele>2228.95</ele>
        <time>2015-06-28T09:02:16Z</time>
      </trkpt>
      <trkpt lat="44.22326" lon="6.78147">
        <ele>2228.95</ele>
        <time>2015-06-28T09:02:30Z</time>
      </trkpt>
      <trkpt lat="44.22325" lon="6.78146">
        <ele>2229.43</ele>
        <time>2015-06-28T09:02:56Z</time>
      </trkpt>
      <trkpt lat="44.22327" lon="6.78146">
        <ele>2229.92</ele>
        <time>2015-06-28T09:03:13Z</time>
      </trkpt>
      <trkpt lat="44.22328" lon="6.78147">
        <ele>2230.4</ele>
        <time>2015-06-28T09:03:39Z</time>
      </trkpt>
      <trkpt lat="44.22328" lon="6.78146">
        <ele>2229.43</ele>
        <time>2015-06-28T09:04:03Z</time>
      </trkpt>
      <trkpt lat="44.22325" lon="6.78146">
        <ele>2228.95</ele>
        <time>2015-06-28T09:04:22Z</time>
      </trkpt>
      <trkpt lat="44.22325" lon="6.78146">
        <ele>2229.92</ele>
        <time>2015-06-28T09:04:36Z</time>
      </trkpt>
      <trkpt lat="44.22326" lon="6.78147">
        <ele>2228.95</ele>
        <time>2015-06-28T09:04:41Z</time>
      </trkpt>
      <trkpt lat="44.22326" lon="6.78146">
        <ele>2228.95</ele>
        <time>2015-06-28T09:05:01Z</time>
      </trkpt>
      <trkpt lat="44.22327" lon="6.78147">
        <ele>2230.4</ele>
        <time>2015-06-28T09:05:27Z</time>
      </trkpt>
      <trkpt lat="44.22325" lon="6.78146">
        <ele>2230.88</ele>
        <time>2015-06-28T09:05:45Z</time>
      </trkpt>
      <trkpt lat="44.22325" lon="6.78145">
        <ele>2230.88</ele>
        <time>2015-06-28T09:06:00Z</time>
      </trkpt>
      <trkpt lat="44.22326" lon="6.78144">
        <ele>2230.88</ele>
        <time>2015-06-28T09:06:22Z</time>
      </trkpt>
      <trkpt lat="44.22324" lon="6.78144">
        <ele>2230.88</ele>
        <time>2015-06-28T09:06:40Z</time>
      </trkpt>
      <trkpt lat="44.22322" lon="6.78151">
        <ele>2229.92</ele>
        <time>2015-06-28T09:07:00Z</time>
      </trkpt>
      <trkpt lat="44.22321" lon="6.78151">
        <ele>2229.92</ele>
        <time>2015-06-28T09:07:09Z</time>
      </trkpt>
      <trkpt lat="44.22318" lon="6.78158">
        <ele>2228.47</ele>
        <time>2015-06-28T09:07:15Z</time>
      </trkpt>
      <trkpt lat="44.22315" lon="6.78162">
        <ele>2227.99</ele>
        <time>2015-06-28T09:07:19Z</time>
      </trkpt>
      <trkpt lat="44.22307" lon="6.78173">
        <ele>2227.03</ele>
        <time>2015-06-28T09:07:30Z</time>
      </trkpt>
      <trkpt lat="44.22304" lon="6.78176">
        <ele>2227.03</ele>
        <time>2015-06-28T09:07:33Z</time>
      </trkpt>
      <trkpt lat="44.22296" lon="6.78187">
        <ele>2226.55</ele>
        <time>2015-06-28T09:07:45Z</time>
      </trkpt>
      <trkpt lat="44.22292" lon="6.78196">
        <ele>2225.59</ele>
        <time>2015-06-28T09:07:54Z</time>
      </trkpt>
      <trkpt lat="44.22288" lon="6.78198">
        <ele>2226.07</ele>
        <time>2015-06-28T09:07:57Z</time>
      </trkpt>
      <trkpt lat="44.22281" lon="6.78201">
        <ele>2224.63</ele>
        <time>2015-06-28T09:08:05Z</time>
      </trkpt>
      <trkpt lat="44.22274" lon="6.78212">
        <ele>2224.63</ele>
        <time>2015-06-28T09:08:17Z</time>
      </trkpt>
      <trkpt lat="44.22276" lon="6.78218">
        <ele>2224.63</ele>
        <time>2015-06-28T09:08:22Z</time>
      </trkpt>
      <trkpt lat="44.22278" lon="6.78223">
        <ele>2224.63</ele>
        <time>2015-06-28T09:08:26Z</time>
      </trkpt>
      <trkpt lat="44.22281" lon="6.78228">
        <ele>2224.63</ele>
        <time>2015-06-28T09:08:31Z</time>
      </trkpt>
      <trkpt lat="44.22286" lon="6.78244">
        <ele>2224.63</ele>
        <time>2015-06-28T09:08:42Z</time>
      </trkpt>
      <trkpt lat="44.22287" lon="6.78248">
        <ele>2226.07</ele>
        <time>2015-06-28T09:08:45Z</time>
      </trkpt>
      <trkpt lat="44.22287" lon="6.78254">
        <ele>2226.55</ele>
        <time>2015-06-28T09:08:49Z</time>
      </trkpt>
      <trkpt lat="44.22289" lon="6.78266">
        <ele>2227.99</ele>
        <time>2015-06-28T09:09:01Z</time>
      </trkpt>
      <trkpt lat="44.22292" lon="6.78278">
        <ele>2229.92</ele>
        <time>2015-06-28T09:09:12Z</time>
      </trkpt>
      <trkpt lat="44.22293" lon="6.78282">
        <ele>2231.36</ele>
        <time>2015-06-28T09:09:15Z</time>
      </trkpt>
      <trkpt lat="44.22294" lon="6.78285">
        <ele>2231.84</ele>
        <time>2015-06-28T09:09:19Z</time>
      </trkpt>
      <trkpt lat="44.22294" lon="6.78288">
        <ele>2232.32</ele>
        <time>2015-06-28T09:09:21Z</time>
      </trkpt>
      <trkpt lat="44.22291" lon="6.78299">
        <ele>2233.76</ele>
        <time>2015-06-28T09:09:31Z</time>
      </trkpt>
      <trkpt lat="44.22291" lon="6.78302">
        <ele>2233.76</ele>
        <time>2015-06-28T09:09:33Z</time>
      </trkpt>
      <trkpt lat="44.22292" lon="6.78312">
        <ele>2233.76</ele>
        <time>2015-06-28T09:09:39Z</time>
      </trkpt>
      <trkpt lat="44.22289" lon="6.78325">
        <ele>2234.72</ele>
        <time>2015-06-28T09:09:49Z</time>
      </trkpt>
      <trkpt lat="44.22288" lon="6.78341">
        <ele>2236.16</ele>
        <time>2015-06-28T09:10:02Z</time>
      </trkpt>
      <trkpt lat="44.22286" lon="6.78354">
        <ele>2237.13</ele>
        <time>2015-06-28T09:10:15Z</time>
      </trkpt>
      <trkpt lat="44.22286" lon="6.78366">
        <ele>2238.57</ele>
        <time>2015-06-28T09:10:26Z</time>
      </trkpt>
      <trkpt lat="44.22285" lon="6.78381">
        <ele>2240.01</ele>
        <time>2015-06-28T09:10:36Z</time>
      </trkpt>
      <trkpt lat="44.22287" lon="6.78384">
        <ele>2240.49</ele>
        <time>2015-06-28T09:10:39Z</time>
      </trkpt>
      <trkpt lat="44.22294" lon="6.78372">
        <ele>2242.41</ele>
        <time>2015-06-28T09:10:47Z</time>
      </trkpt>
      <trkpt lat="44.223" lon="6.7836">
        <ele>2242.89</ele>
        <time>2015-06-28T09:10:56Z</time>
      </trkpt>
      <trkpt lat="44.22308" lon="6.78344">
        <ele>2244.33</ele>
        <time>2015-06-28T09:11:08Z</time>
      </trkpt>
      <trkpt lat="44.22318" lon="6.78331">
        <ele>2246.26</ele>
        <time>2015-06-28T09:11:20Z</time>
      </trkpt>
      <trkpt lat="44.22323" lon="6.78321">
        <ele>2247.22</ele>
        <time>2015-06-28T09:11:34Z</time>
      </trkpt>
      <trkpt lat="44.22328" lon="6.78315">
        <ele>2247.7</ele>
        <time>2015-06-28T09:11:42Z</time>
      </trkpt>
      <trkpt lat="44.22328" lon="6.78313">
        <ele>2248.18</ele>
        <time>2015-06-28T09:11:44Z</time>
      </trkpt>
      <trkpt lat="44.22333" lon="6.78306">
        <ele>2248.66</ele>
        <time>2015-06-28T09:11:52Z</time>
      </trkpt>
      <trkpt lat="44.22334" lon="6.78301">
        <ele>2249.62</ele>
        <time>2015-06-28T09:11:56Z</time>
      </trkpt>
      <trkpt lat="44.22339" lon="6.78298">
        <ele>2251.06</ele>
        <time>2015-06-28T09:12:03Z</time>
      </trkpt>
      <trkpt lat="44.22348" lon="6.78304">
        <ele>2253.47</ele>
        <time>2015-06-28T09:12:17Z</time>
      </trkpt>
      <trkpt lat="44.2235" lon="6.78311">
        <ele>2254.43</ele>
        <time>2015-06-28T09:12:23Z</time>
      </trkpt>
      <trkpt lat="44.22348" lon="6.78323">
        <ele>2256.35</ele>
        <time>2015-06-28T09:12:35Z</time>
      </trkpt>
      <trkpt lat="44.22345" lon="6.78327">
        <ele>2257.31</ele>
        <time>2015-06-28T09:12:41Z</time>
      </trkpt>
      <trkpt lat="44.22349" lon="6.78332">
        <ele>2259.24</ele>
        <time>2015-06-28T09:12:52Z</time>
      </trkpt>
      <trkpt lat="44.2235" lon="6.78331">
        <ele>2259.24</ele>
        <time>2015-06-28T09:12:54Z</time>
      </trkpt>
      <trkpt lat="44.22349" lon="6.78342">
        <ele>2261.16</ele>
        <time>2015-06-28T09:13:06Z</time>
      </trkpt>
      <trkpt lat="44.22349" lon="6.78349">
        <ele>2262.6</ele>
        <time>2015-06-28T09:13:13Z</time>
      </trkpt>
      <trkpt lat="44.2235" lon="6.78365">
        <ele>2265.48</ele>
        <time>2015-06-28T09:13:26Z</time>
      </trkpt>
      <trkpt lat="44.22352" lon="6.78374">
        <ele>2266.45</ele>
        <time>2015-06-28T09:13:37Z</time>
      </trkpt>
      <trkpt lat="44.22352" lon="6.78377">
        <ele>2266.45</ele>
        <time>2015-06-28T09:13:40Z</time>
      </trkpt>
      <trkpt lat="44.22356" lon="6.78381">
        <ele>2267.41</ele>
        <time>2015-06-28T09:13:44Z</time>
      </trkpt>
      <trkpt lat="44.22358" lon="6.78381">
        <ele>2267.89</ele>
        <time>2015-06-28T09:13:47Z</time>
      </trkpt>
      <trkpt lat="44.2236" lon="6.78376">
        <ele>2268.85</ele>
        <time>2015-06-28T09:13:51Z</time>
      </trkpt>
      <trkpt lat="44.2236" lon="6.78367">
        <ele>2269.81</ele>
        <time>2015-06-28T09:13:57Z</time>
      </trkpt>
      <trkpt lat="44.2237" lon="6.78357">
        <ele>2272.21</ele>
        <time>2015-06-28T09:14:12Z</time>
      </trkpt>
      <trkpt lat="44.22372" lon="6.78362">
        <ele>2273.17</ele>
        <time>2015-06-28T09:14:16Z</time>
      </trkpt>
      <trkpt lat="44.22372" lon="6.78371">
        <ele>2274.14</ele>
        <time>2015-06-28T09:14:22Z</time>
      </trkpt>
      <trkpt lat="44.22373" lon="6.78378">
        <ele>2274.62</ele>
        <time>2015-06-28T09:14:27Z</time>
      </trkpt>
      <trkpt lat="44.2238" lon="6.78371">
        <ele>2277.98</ele>
        <time>2015-06-28T09:14:38Z</time>
      </trkpt>
      <trkpt lat="44.22384" lon="6.78373">
        <ele>2278.94</ele>
        <time>2015-06-28T09:14:46Z</time>
      </trkpt>
      <trkpt lat="44.22389" lon="6.78376">
        <ele>2280.87</ele>
        <time>2015-06-28T09:14:53Z</time>
      </trkpt>
      <trkpt lat="44.22394" lon="6.78364">
        <ele>2283.27</ele>
        <time>2015-06-28T09:15:03Z</time>
      </trkpt>
      <trkpt lat="44.22395" lon="6.7836">
        <ele>2284.23</ele>
        <time>2015-06-28T09:15:06Z</time>
      </trkpt>
      <trkpt lat="44.22397" lon="6.78361">
        <ele>2284.23</ele>
        <time>2015-06-28T09:15:08Z</time>
      </trkpt>
      <trkpt lat="44.22403" lon="6.78378">
        <ele>2287.59</ele>
        <time>2015-06-28T09:15:22Z</time>
      </trkpt>
      <trkpt lat="44.22409" lon="6.78391">
        <ele>2289.52</ele>
        <time>2015-06-28T09:15:34Z</time>
      </trkpt>
      <trkpt lat="44.22419" lon="6.78397">
        <ele>2290.48</ele>
        <time>2015-06-28T09:15:45Z</time>
      </trkpt>
      <trkpt lat="44.2242" lon="6.78399">
        <ele>2290.48</ele>
        <time>2015-06-28T09:15:47Z</time>
      </trkpt>
      <trkpt lat="44.22418" lon="6.78409">
        <ele>2291.44</ele>
        <time>2015-06-28T09:15:54Z</time>
      </trkpt>
      <trkpt lat="44.22417" lon="6.7842">
        <ele>2293.36</ele>
        <time>2015-06-28T09:16:02Z</time>
      </trkpt>
      <trkpt lat="44.22416" lon="6.78438">
        <ele>2295.77</ele>
        <time>2015-06-28T09:16:15Z</time>
      </trkpt>
      <trkpt lat="44.22415" lon="6.78456">
        <ele>2298.17</ele>
        <time>2015-06-28T09:16:27Z</time>
      </trkpt>
      <trkpt lat="44.22416" lon="6.78468">
        <ele>2300.09</ele>
        <time>2015-06-28T09:16:36Z</time>
      </trkpt>
      <trkpt lat="44.22421" lon="6.78478">
        <ele>2304.42</ele>
        <time>2015-06-28T09:16:49Z</time>
      </trkpt>
      <trkpt lat="44.22423" lon="6.78495">
        <ele>2306.82</ele>
        <time>2015-06-28T09:17:05Z</time>
      </trkpt>
      <trkpt lat="44.22419" lon="6.78503">
        <ele>2307.78</ele>
        <time>2015-06-28T09:17:18Z</time>
      </trkpt>
      <trkpt lat="44.22421" lon="6.78501">
        <ele>2308.26</ele>
        <time>2015-06-28T09:17:44Z</time>
      </trkpt>
      <trkpt lat="44.22423" lon="6.78505">
        <ele>2308.74</ele>
        <time>2015-06-28T09:17:59Z</time>
      </trkpt>
      <trkpt lat="44.22423" lon="6.78513">
        <ele>2310.67</ele>
        <time>2015-06-28T09:18:05Z</time>
      </trkpt>
      <trkpt lat="44.22422" lon="6.78522">
        <ele>2313.55</ele>
        <time>2015-06-28T09:18:12Z</time>
      </trkpt>
      <trkpt lat="44.2242" lon="6.78528">
        <ele>2314.51</ele>
        <time>2015-06-28T09:18:17Z</time>
      </trkpt>
      <trkpt lat="44.22419" lon="6.78532">
        <ele>2315.47</ele>
        <time>2015-06-28T09:18:20Z</time>
      </trkpt>
      <trkpt lat="44.22411" lon="6.78549">
        <ele>2316.91</ele>
        <time>2015-06-28T09:18:34Z</time>
      </trkpt>
      <trkpt lat="44.22409" lon="6.78553">
        <ele>2317.88</ele>
        <time>2015-06-28T09:18:46Z</time>
      </trkpt>
      <trkpt lat="44.22408" lon="6.78563">
        <ele>2319.32</ele>
        <time>2015-06-28T09:18:56Z</time>
      </trkpt>
      <trkpt lat="44.22406" lon="6.78579">
        <ele>2320.28</ele>
        <time>2015-06-28T09:19:09Z</time>
      </trkpt>
      <trkpt lat="44.22406" lon="6.78581">
        <ele>2320.28</ele>
        <time>2015-06-28T09:19:10Z</time>
      </trkpt>
      <trkpt lat="44.22401" lon="6.78594">
        <ele>2320.76</ele>
        <time>2015-06-28T09:19:20Z</time>
      </trkpt>
      <trkpt lat="44.22396" lon="6.78612">
        <ele>2321.24</ele>
        <time>2015-06-28T09:19:32Z</time>
      </trkpt>
      <trkpt lat="44.2239" lon="6.78632">
        <ele>2321.24</ele>
        <time>2015-06-28T09:19:46Z</time>
      </trkpt>
      <trkpt lat="44.22384" lon="6.7865">
        <ele>2322.68</ele>
        <time>2015-06-28T09:19:59Z</time>
      </trkpt>
      <trkpt lat="44.22382" lon="6.78659">
        <ele>2323.16</ele>
        <time>2015-06-28T09:20:11Z</time>
      </trkpt>
      <trkpt lat="44.2238" lon="6.78664">
        <ele>2323.64</ele>
        <time>2015-06-28T09:20:16Z</time>
      </trkpt>
      <trkpt lat="44.22376" lon="6.78668">
        <ele>2323.64</ele>
        <time>2015-06-28T09:20:21Z</time>
      </trkpt>
      <trkpt lat="44.22371" lon="6.78673">
        <ele>2323.64</ele>
        <time>2015-06-28T09:20:26Z</time>
      </trkpt>
      <trkpt lat="44.22361" lon="6.78685">
        <ele>2324.12</ele>
        <time>2015-06-28T09:20:40Z</time>
      </trkpt>
      <trkpt lat="44.22356" lon="6.78692">
        <ele>2324.12</ele>
        <time>2015-06-28T09:20:48Z</time>
      </trkpt>
      <trkpt lat="44.22347" lon="6.78697">
        <ele>2324.12</ele>
        <time>2015-06-28T09:21:00Z</time>
      </trkpt>
      <trkpt lat="44.22346" lon="6.78698">
        <ele>2324.12</ele>
        <time>2015-06-28T09:21:01Z</time>
      </trkpt>
      <trkpt lat="44.22338" lon="6.78706">
        <ele>2325.57</ele>
        <time>2015-06-28T09:21:13Z</time>
      </trkpt>
      <trkpt lat="44.22329" lon="6.78718">
        <ele>2327.01</ele>
        <time>2015-06-28T09:21:25Z</time>
      </trkpt>
      <trkpt lat="44.22329" lon="6.78718">
        <ele>2327.49</ele>
        <time>2015-06-28T09:21:26Z</time>
      </trkpt>
      <trkpt lat="44.22326" lon="6.78728">
        <ele>2328.93</ele>
        <time>2015-06-28T09:21:35Z</time>
      </trkpt>
      <trkpt lat="44.22322" lon="6.78732">
        <ele>2329.41</ele>
        <time>2015-06-28T09:21:39Z</time>
      </trkpt>
      <trkpt lat="44.22311" lon="6.78737">
        <ele>2331.33</ele>
        <time>2015-06-28T09:21:51Z</time>
      </trkpt>
      <trkpt lat="44.22301" lon="6.78737">
        <ele>2331.81</ele>
        <time>2015-06-28T09:22:03Z</time>
      </trkpt>
      <trkpt lat="44.22299" lon="6.78736">
        <ele>2331.81</ele>
        <time>2015-06-28T09:22:07Z</time>
      </trkpt>
      <trkpt lat="44.22291" lon="6.78721">
        <ele>2328.93</ele>
        <time>2015-06-28T09:22:21Z</time>
      </trkpt>
      <trkpt lat="44.22284" lon="6.78713">
        <ele>2326.05</ele>
        <time>2015-06-28T09:22:35Z</time>
      </trkpt>
      <trkpt lat="44.22277" lon="6.78712">
        <ele>2323.64</ele>
        <time>2015-06-28T09:22:49Z</time>
      </trkpt>
      <trkpt lat="44.22275" lon="6.78709">
        <ele>2322.68</ele>
        <time>2015-06-28T09:23:02Z</time>
      </trkpt>
      <trkpt lat="44.22277" lon="6.78708">
        <ele>2322.68</ele>
        <time>2015-06-28T09:23:26Z</time>
      </trkpt>
      <trkpt lat="44.22284" lon="6.78705">
        <ele>2324.12</ele>
        <time>2015-06-28T09:23:38Z</time>
      </trkpt>
      <trkpt lat="44.22282" lon="6.78708">
        <ele>2324.12</ele>
        <time>2015-06-28T09:23:51Z</time>
      </trkpt>
      <trkpt lat="44.22281" lon="6.78718">
        <ele>2325.57</ele>
        <time>2015-06-28T09:24:05Z</time>
      </trkpt>
      <trkpt lat="44.2228" lon="6.78724">
        <ele>2325.57</ele>
        <time>2015-06-28T09:24:14Z</time>
      </trkpt>
      <trkpt lat="44.22277" lon="6.78728">
        <ele>2324.12</ele>
        <time>2015-06-28T09:24:20Z</time>
      </trkpt>
      <trkpt lat="44.22274" lon="6.78732">
        <ele>2325.57</ele>
        <time>2015-06-28T09:24:27Z</time>
      </trkpt>
      <trkpt lat="44.22273" lon="6.78744">
        <ele>2327.49</ele>
        <time>2015-06-28T09:24:40Z</time>
      </trkpt>
      <trkpt lat="44.22273" lon="6.78746">
        <ele>2327.97</ele>
        <time>2015-06-28T09:24:42Z</time>
      </trkpt>
      <trkpt lat="44.22275" lon="6.78755">
        <ele>2329.41</ele>
        <time>2015-06-28T09:24:55Z</time>
      </trkpt>
      <trkpt lat="44.22275" lon="6.78757">
        <ele>2329.89</ele>
        <time>2015-06-28T09:25:10Z</time>
      </trkpt>
      <trkpt lat="44.22272" lon="6.78765">
        <ele>2331.33</ele>
        <time>2015-06-28T09:25:21Z</time>
      </trkpt>
      <trkpt lat="44.22275" lon="6.78764">
        <ele>2331.33</ele>
        <time>2015-06-28T09:25:44Z</time>
      </trkpt>
      <trkpt lat="44.22275" lon="6.78769">
        <ele>2332.78</ele>
        <time>2015-06-28T09:26:04Z</time>
      </trkpt>
      <trkpt lat="44.22277" lon="6.78772">
        <ele>2334.7</ele>
        <time>2015-06-28T09:26:08Z</time>
      </trkpt>
      <trkpt lat="44.22282" lon="6.7878">
        <ele>2336.14</ele>
        <time>2015-06-28T09:26:21Z</time>
      </trkpt>
      <trkpt lat="44.22286" lon="6.78786">
        <ele>2338.06</ele>
        <time>2015-06-28T09:26:30Z</time>
      </trkpt>
      <trkpt lat="44.22285" lon="6.78789">
        <ele>2338.54</ele>
        <time>2015-06-28T09:26:33Z</time>
      </trkpt>
      <trkpt lat="44.22287" lon="6.78797">
        <ele>2340.47</ele>
        <time>2015-06-28T09:26:47Z</time>
      </trkpt>
      <trkpt lat="44.22289" lon="6.78806">
        <ele>2342.87</ele>
        <time>2015-06-28T09:26:59Z</time>
      </trkpt>
      <trkpt lat="44.22291" lon="6.78809">
        <ele>2343.83</ele>
        <time>2015-06-28T09:27:03Z</time>
      </trkpt>
      <trkpt lat="44.22295" lon="6.78813">
        <ele>2344.79</ele>
        <time>2015-06-28T09:27:17Z</time>
      </trkpt>
      <trkpt lat="44.22293" lon="6.78819">
        <ele>2344.79</ele>
        <time>2015-06-28T09:27:34Z</time>
      </trkpt>
      <trkpt lat="44.22292" lon="6.78823">
        <ele>2345.75</ele>
        <time>2015-06-28T09:27:49Z</time>
      </trkpt>
      <trkpt lat="44.22291" lon="6.78824">
        <ele>2345.75</ele>
        <time>2015-06-28T09:28:04Z</time>
      </trkpt>
      <trkpt lat="44.2229" lon="6.78826">
        <ele>2345.75</ele>
        <time>2015-06-28T09:28:06Z</time>
      </trkpt>
      <trkpt lat="44.22286" lon="6.78834">
        <ele>2347.2</ele>
        <time>2015-06-28T09:28:18Z</time>
      </trkpt>
      <trkpt lat="44.22285" lon="6.78833">
        <ele>2347.2</ele>
        <time>2015-06-28T09:28:31Z</time>
      </trkpt>
      <trkpt lat="44.22282" lon="6.78841">
        <ele>2348.64</ele>
        <time>2015-06-28T09:28:42Z</time>
      </trkpt>
      <trkpt lat="44.22281" lon="6.78842">
        <ele>2348.64</ele>
        <time>2015-06-28T09:28:43Z</time>
      </trkpt>
      <trkpt lat="44.22278" lon="6.78848">
        <ele>2349.6</ele>
        <time>2015-06-28T09:28:49Z</time>
      </trkpt>
      <trkpt lat="44.22276" lon="6.78851">
        <ele>2350.08</ele>
        <time>2015-06-28T09:28:52Z</time>
      </trkpt>
      <trkpt lat="44.22274" lon="6.78855">
        <ele>2350.56</ele>
        <time>2015-06-28T09:28:56Z</time>
      </trkpt>
      <trkpt lat="44.22272" lon="6.78859">
        <ele>2351.04</ele>
        <time>2015-06-28T09:29:13Z</time>
      </trkpt>
      <trkpt lat="44.22272" lon="6.78859">
        <ele>2351.04</ele>
        <time>2015-06-28T09:29:14Z</time>
      </trkpt>
      <trkpt lat="44.2227" lon="6.78861">
        <ele>2351.04</ele>
        <time>2015-06-28T09:29:16Z</time>
      </trkpt>
      <trkpt lat="44.22268" lon="6.78867">
        <ele>2352.48</ele>
        <time>2015-06-28T09:29:29Z</time>
      </trkpt>
      <trkpt lat="44.22267" lon="6.78871">
        <ele>2352.48</ele>
        <time>2015-06-28T09:29:33Z</time>
      </trkpt>
      <trkpt lat="44.22266" lon="6.78879">
        <ele>2352.48</ele>
        <time>2015-06-28T09:29:40Z</time>
      </trkpt>
      <trkpt lat="44.22255" lon="6.78884">
        <ele>2352.48</ele>
        <time>2015-06-28T09:29:53Z</time>
      </trkpt>
      <trkpt lat="44.22256" lon="6.78885">
        <ele>2351.52</ele>
        <time>2015-06-28T09:30:06Z</time>
      </trkpt>
      <trkpt lat="44.22258" lon="6.78892">
        <ele>2351.52</ele>
        <time>2015-06-28T09:30:11Z</time>
      </trkpt>
      <trkpt lat="44.22257" lon="6.78898">
        <ele>2352.48</ele>
        <time>2015-06-28T09:30:15Z</time>
      </trkpt>
      <trkpt lat="44.22258" lon="6.78904">
        <ele>2352.96</ele>
        <time>2015-06-28T09:30:29Z</time>
      </trkpt>
      <trkpt lat="44.22259" lon="6.78905">
        <ele>2352.96</ele>
        <time>2015-06-28T09:30:48Z</time>
      </trkpt>
      <trkpt lat="44.22261" lon="6.78906">
        <ele>2353.44</ele>
        <time>2015-06-28T09:31:03Z</time>
      </trkpt>
      <trkpt lat="44.22268" lon="6.78927">
        <ele>2355.37</ele>
        <time>2015-06-28T09:31:16Z</time>
      </trkpt>
      <trkpt lat="44.22269" lon="6.78927">
        <ele>2355.37</ele>
        <time>2015-06-28T09:31:17Z</time>
      </trkpt>
      <trkpt lat="44.22272" lon="6.78933">
        <ele>2355.85</ele>
        <time>2015-06-28T09:31:21Z</time>
      </trkpt>
      <trkpt lat="44.22279" lon="6.78943">
        <ele>2355.85</ele>
        <time>2015-06-28T09:31:28Z</time>
      </trkpt>
      <trkpt lat="44.22273" lon="6.78966">
        <ele>2356.33</ele>
        <time>2015-06-28T09:31:42Z</time>
      </trkpt>
      <trkpt lat="44.22267" lon="6.78974">
        <ele>2356.81</ele>
        <time>2015-06-28T09:31:49Z</time>
      </trkpt>
      <trkpt lat="44.22266" lon="6.78995">
        <ele>2358.25</ele>
        <time>2015-06-28T09:32:01Z</time>
      </trkpt>
      <trkpt lat="44.22267" lon="6.7902">
        <ele>2359.21</ele>
        <time>2015-06-28T09:32:14Z</time>
      </trkpt>
      <trkpt lat="44.22266" lon="6.79024">
        <ele>2359.21</ele>
        <time>2015-06-28T09:32:17Z</time>
      </trkpt>
      <trkpt lat="44.22261" lon="6.79037">
        <ele>2359.69</ele>
        <time>2015-06-28T09:32:31Z</time>
      </trkpt>
      <trkpt lat="44.22258" lon="6.79044">
        <ele>2359.69</ele>
        <time>2015-06-28T09:32:37Z</time>
      </trkpt>
      <trkpt lat="44.22262" lon="6.79052">
        <ele>2359.69</ele>
        <time>2015-06-28T09:32:42Z</time>
      </trkpt>
      <trkpt lat="44.22265" lon="6.79055">
        <ele>2358.25</ele>
        <time>2015-06-28T09:32:55Z</time>
      </trkpt>
      <trkpt lat="44.22265" lon="6.79056">
        <ele>2358.25</ele>
        <time>2015-06-28T09:33:06Z</time>
      </trkpt>
      <trkpt lat="44.22265" lon="6.79057">
        <ele>2358.25</ele>
        <time>2015-06-28T09:33:08Z</time>
      </trkpt>
      <trkpt lat="44.2226" lon="6.79059">
        <ele>2358.25</ele>
        <time>2015-06-28T09:33:12Z</time>
      </trkpt>
      <trkpt lat="44.22259" lon="6.79068">
        <ele>2358.25</ele>
        <time>2015-06-28T09:33:18Z</time>
      </trkpt>
      <trkpt lat="44.22261" lon="6.79071">
        <ele>2358.25</ele>
        <time>2015-06-28T09:33:29Z</time>
      </trkpt>
      <trkpt lat="44.22251" lon="6.79087">
        <ele>2358.73</ele>
        <time>2015-06-28T09:33:42Z</time>
      </trkpt>
      <trkpt lat="44.22251" lon="6.79087">
        <ele>2358.73</ele>
        <time>2015-06-28T09:33:51Z</time>
      </trkpt>
      <trkpt lat="44.22252" lon="6.7909">
        <ele>2358.73</ele>
        <time>2015-06-28T09:33:53Z</time>
      </trkpt>
      <trkpt lat="44.22253" lon="6.79093">
        <ele>2358.73</ele>
        <time>2015-06-28T09:33:55Z</time>
      </trkpt>
      <trkpt lat="44.22254" lon="6.79098">
        <ele>2358.73</ele>
        <time>2015-06-28T09:33:58Z</time>
      </trkpt>
      <trkpt lat="44.22255" lon="6.79107">
        <ele>2359.69</ele>
        <time>2015-06-28T09:34:06Z</time>
      </trkpt>
      <trkpt lat="44.22255" lon="6.79107">
        <ele>2360.17</ele>
        <time>2015-06-28T09:34:23Z</time>
      </trkpt>
      <trkpt lat="44.22252" lon="6.79115">
        <ele>2360.17</ele>
        <time>2015-06-28T09:34:29Z</time>
      </trkpt>
      <trkpt lat="44.2225" lon="6.79117">
        <ele>2360.17</ele>
        <time>2015-06-28T09:34:31Z</time>
      </trkpt>
      <trkpt lat="44.22246" lon="6.79138">
        <ele>2360.65</ele>
        <time>2015-06-28T09:34:44Z</time>
      </trkpt>
      <trkpt lat="44.22245" lon="6.79159">
        <ele>2361.14</ele>
        <time>2015-06-28T09:34:56Z</time>
      </trkpt>
      <trkpt lat="44.22244" lon="6.79167">
        <ele>2361.62</ele>
        <time>2015-06-28T09:35:00Z</time>
      </trkpt>
      <trkpt lat="44.22244" lon="6.79172">
        <ele>2361.62</ele>
        <time>2015-06-28T09:35:03Z</time>
      </trkpt>
      <trkpt lat="44.22241" lon="6.79181">
        <ele>2362.1</ele>
        <time>2015-06-28T09:35:10Z</time>
      </trkpt>
      <trkpt lat="44.22241" lon="6.79197">
        <ele>2363.06</ele>
        <time>2015-06-28T09:35:19Z</time>
      </trkpt>
      <trkpt lat="44.22244" lon="6.79214">
        <ele>2364.02</ele>
        <time>2015-06-28T09:35:31Z</time>
      </trkpt>
      <trkpt lat="44.22246" lon="6.79231">
        <ele>2364.98</ele>
        <time>2015-06-28T09:35:42Z</time>
      </trkpt>
      <trkpt lat="44.22245" lon="6.79249">
        <ele>2366.42</ele>
        <time>2015-06-28T09:35:53Z</time>
      </trkpt>
      <trkpt lat="44.22249" lon="6.79275">
        <ele>2368.83</ele>
        <time>2015-06-28T09:36:09Z</time>
      </trkpt>
      <trkpt lat="44.22251" lon="6.793">
        <ele>2370.75</ele>
        <time>2015-06-28T09:36:24Z</time>
      </trkpt>
      <trkpt lat="44.22252" lon="6.79304">
        <ele>2371.23</ele>
        <time>2015-06-28T09:36:27Z</time>
      </trkpt>
      <trkpt lat="44.22252" lon="6.79324">
        <ele>2373.15</ele>
        <time>2015-06-28T09:36:42Z</time>
      </trkpt>
      <trkpt lat="44.22251" lon="6.79332">
        <ele>2374.11</ele>
        <time>2015-06-28T09:36:47Z</time>
      </trkpt>
      <trkpt lat="44.22251" lon="6.79345">
        <ele>2376.04</ele>
        <time>2015-06-28T09:36:58Z</time>
      </trkpt>
      <trkpt lat="44.22253" lon="6.79359">
        <ele>2377.48</ele>
        <time>2015-06-28T09:37:11Z</time>
      </trkpt>
      <trkpt lat="44.22253" lon="6.7936">
        <ele>2377.96</ele>
        <time>2015-06-28T09:37:12Z</time>
      </trkpt>
      <trkpt lat="44.22253" lon="6.79373">
        <ele>2378.92</ele>
        <time>2015-06-28T09:37:23Z</time>
      </trkpt>
      <trkpt lat="44.22252" lon="6.79394">
        <ele>2380.84</ele>
        <time>2015-06-28T09:37:38Z</time>
      </trkpt>
      <trkpt lat="44.2225" lon="6.79399">
        <ele>2380.84</ele>
        <time>2015-06-28T09:37:42Z</time>
      </trkpt>
      <trkpt lat="44.2225" lon="6.79408">
        <ele>2381.8</ele>
        <time>2015-06-28T09:37:55Z</time>
      </trkpt>
      <trkpt lat="44.22248" lon="6.79418">
        <ele>2382.28</ele>
        <time>2015-06-28T09:38:03Z</time>
      </trkpt>
      <trkpt lat="44.22247" lon="6.7942">
        <ele>2382.28</ele>
        <time>2015-06-28T09:38:05Z</time>
      </trkpt>
      <trkpt lat="44.22242" lon="6.79439">
        <ele>2383.25</ele>
        <time>2015-06-28T09:38:18Z</time>
      </trkpt>
      <trkpt lat="44.22238" lon="6.79462">
        <ele>2384.21</ele>
        <time>2015-06-28T09:38:32Z</time>
      </trkpt>
      <trkpt lat="44.22234" lon="6.79483">
        <ele>2385.17</ele>
        <time>2015-06-28T09:38:44Z</time>
      </trkpt>
      <trkpt lat="44.22233" lon="6.79494">
        <ele>2386.13</ele>
        <time>2015-06-28T09:38:51Z</time>
      </trkpt>
      <trkpt lat="44.22233" lon="6.79503">
        <ele>2386.61</ele>
        <time>2015-06-28T09:38:56Z</time>
      </trkpt>
      <trkpt lat="44.22233" lon="6.7951">
        <ele>2387.09</ele>
        <time>2015-06-28T09:39:00Z</time>
      </trkpt>
      <trkpt lat="44.22231" lon="6.79531">
        <ele>2389.97</ele>
        <time>2015-06-28T09:39:14Z</time>
      </trkpt>
      <trkpt lat="44.22232" lon="6.79537">
        <ele>2390.46</ele>
        <time>2015-06-28T09:39:18Z</time>
      </trkpt>
      <trkpt lat="44.22231" lon="6.79544">
        <ele>2390.46</ele>
        <time>2015-06-28T09:39:22Z</time>
      </trkpt>
      <trkpt lat="44.2223" lon="6.79547">
        <ele>2391.42</ele>
        <time>2015-06-28T09:39:25Z</time>
      </trkpt>
      <trkpt lat="44.22226" lon="6.79554">
        <ele>2391.42</ele>
        <time>2015-06-28T09:39:30Z</time>
      </trkpt>
      <trkpt lat="44.22215" lon="6.7957">
        <ele>2393.34</ele>
        <time>2015-06-28T09:39:44Z</time>
      </trkpt>
      <trkpt lat="44.2221" lon="6.79587">
        <ele>2394.78</ele>
        <time>2015-06-28T09:39:57Z</time>
      </trkpt>
      <trkpt lat="44.22211" lon="6.79594">
        <ele>2395.74</ele>
        <time>2015-06-28T09:40:06Z</time>
      </trkpt>
      <trkpt lat="44.22215" lon="6.79612">
        <ele>2396.22</ele>
        <time>2015-06-28T09:40:19Z</time>
      </trkpt>
      <trkpt lat="44.22216" lon="6.79618">
        <ele>2397.18</ele>
        <time>2015-06-28T09:40:23Z</time>
      </trkpt>
      <trkpt lat="44.22219" lon="6.79623">
        <ele>2397.18</ele>
        <time>2015-06-28T09:40:27Z</time>
      </trkpt>
      <trkpt lat="44.22219" lon="6.79647">
        <ele>2400.07</ele>
        <time>2015-06-28T09:40:41Z</time>
      </trkpt>
      <trkpt lat="44.22217" lon="6.79661">
        <ele>2402.47</ele>
        <time>2015-06-28T09:40:54Z</time>
      </trkpt>
      <trkpt lat="44.22217" lon="6.79661">
        <ele>2402.47</ele>
        <time>2015-06-28T09:40:58Z</time>
      </trkpt>
      <trkpt lat="44.22218" lon="6.79664">
        <ele>2402.47</ele>
        <time>2015-06-28T09:41:00Z</time>
      </trkpt>
      <trkpt lat="44.22216" lon="6.79679">
        <ele>2403.91</ele>
        <time>2015-06-28T09:41:13Z</time>
      </trkpt>
      <trkpt lat="44.22214" lon="6.79695">
        <ele>2406.32</ele>
        <time>2015-06-28T09:41:26Z</time>
      </trkpt>
      <trkpt lat="44.22213" lon="6.79712">
        <ele>2408.72</ele>
        <time>2015-06-28T09:41:40Z</time>
      </trkpt>
      <trkpt lat="44.22211" lon="6.79716">
        <ele>2409.2</ele>
        <time>2015-06-28T09:41:57Z</time>
      </trkpt>
      <trkpt lat="44.22212" lon="6.79729">
        <ele>2410.16</ele>
        <time>2015-06-28T09:42:11Z</time>
      </trkpt>
      <trkpt lat="44.22211" lon="6.79739">
        <ele>2411.6</ele>
        <time>2015-06-28T09:42:25Z</time>
      </trkpt>
      <trkpt lat="44.22208" lon="6.79744">
        <ele>2412.57</ele>
        <time>2015-06-28T09:42:38Z</time>
      </trkpt>
      <trkpt lat="44.22209" lon="6.79748">
        <ele>2414.01</ele>
        <time>2015-06-28T09:42:50Z</time>
      </trkpt>
      <trkpt lat="44.22207" lon="6.79755">
        <ele>2414.01</ele>
        <time>2015-06-28T09:43:03Z</time>
      </trkpt>
      <trkpt lat="44.22205" lon="6.79758">
        <ele>2414.49</ele>
        <time>2015-06-28T09:43:25Z</time>
      </trkpt>
      <trkpt lat="44.22199" lon="6.79762">
        <ele>2414.49</ele>
        <time>2015-06-28T09:43:38Z</time>
      </trkpt>
      <trkpt lat="44.22203" lon="6.79762">
        <ele>2414.97</ele>
        <time>2015-06-28T09:44:00Z</time>
      </trkpt>
      <trkpt lat="44.22199" lon="6.79772">
        <ele>2415.45</ele>
        <time>2015-06-28T09:44:15Z</time>
      </trkpt>
      <trkpt lat="44.22197" lon="6.79776">
        <ele>2415.45</ele>
        <time>2015-06-28T09:44:20Z</time>
      </trkpt>
      <trkpt lat="44.22191" lon="6.79785">
        <ele>2415.45</ele>
        <time>2015-06-28T09:44:31Z</time>
      </trkpt>
      <trkpt lat="44.2219" lon="6.79788">
        <ele>2415.93</ele>
        <time>2015-06-28T09:44:46Z</time>
      </trkpt>
      <trkpt lat="44.22192" lon="6.79791">
        <ele>2416.41</ele>
        <time>2015-06-28T09:44:49Z</time>
      </trkpt>
      <trkpt lat="44.22199" lon="6.798">
        <ele>2418.33</ele>
        <time>2015-06-28T09:44:59Z</time>
      </trkpt>
      <trkpt lat="44.22204" lon="6.79813">
        <ele>2420.26</ele>
        <time>2015-06-28T09:45:12Z</time>
      </trkpt>
      <trkpt lat="44.22202" lon="6.79812">
        <ele>2420.74</ele>
        <time>2015-06-28T09:45:27Z</time>
      </trkpt>
      <trkpt lat="44.22199" lon="6.79814">
        <ele>2421.7</ele>
        <time>2015-06-28T09:45:45Z</time>
      </trkpt>
      <trkpt lat="44.22201" lon="6.79819">
        <ele>2421.7</ele>
        <time>2015-06-28T09:46:06Z</time>
      </trkpt>
      <trkpt lat="44.22203" lon="6.79824">
        <ele>2422.18</ele>
        <time>2015-06-28T09:46:10Z</time>
      </trkpt>
      <trkpt lat="44.22205" lon="6.79831">
        <ele>2422.66</ele>
        <time>2015-06-28T09:46:15Z</time>
      </trkpt>
      <trkpt lat="44.22205" lon="6.79835">
        <ele>2422.66</ele>
        <time>2015-06-28T09:46:17Z</time>
      </trkpt>
      <trkpt lat="44.22204" lon="6.79855">
        <ele>2424.58</ele>
        <time>2015-06-28T09:46:31Z</time>
      </trkpt>
      <trkpt lat="44.22201" lon="6.79859">
        <ele>2425.54</ele>
        <time>2015-06-28T09:46:35Z</time>
      </trkpt>
      <trkpt lat="44.22203" lon="6.79878">
        <ele>2426.5</ele>
        <time>2015-06-28T09:46:47Z</time>
      </trkpt>
      <trkpt lat="44.22204" lon="6.79889">
        <ele>2427.47</ele>
        <time>2015-06-28T09:46:53Z</time>
      </trkpt>
      <trkpt lat="44.22203" lon="6.79891">
        <ele>2428.91</ele>
        <time>2015-06-28T09:46:55Z</time>
      </trkpt>
      <trkpt lat="44.22201" lon="6.79891">
        <ele>2428.91</ele>
        <time>2015-06-28T09:47:07Z</time>
      </trkpt>
      <trkpt lat="44.22204" lon="6.7991">
        <ele>2430.35</ele>
        <time>2015-06-28T09:47:20Z</time>
      </trkpt>
      <trkpt lat="44.22206" lon="6.79916">
        <ele>2431.31</ele>
        <time>2015-06-28T09:47:28Z</time>
      </trkpt>
      <trkpt lat="44.22206" lon="6.79922">
        <ele>2431.79</ele>
        <time>2015-06-28T09:47:32Z</time>
      </trkpt>
      <trkpt lat="44.22208" lon="6.79927">
        <ele>2432.27</ele>
        <time>2015-06-28T09:47:36Z</time>
      </trkpt>
      <trkpt lat="44.22209" lon="6.79938">
        <ele>2433.71</ele>
        <time>2015-06-28T09:47:43Z</time>
      </trkpt>
      <trkpt lat="44.22209" lon="6.79959">
        <ele>2435.64</ele>
        <time>2015-06-28T09:47:56Z</time>
      </trkpt>
      <trkpt lat="44.22209" lon="6.79976">
        <ele>2437.08</ele>
        <time>2015-06-28T09:48:08Z</time>
      </trkpt>
      <trkpt lat="44.22206" lon="6.7999">
        <ele>2437.56</ele>
        <time>2015-06-28T09:48:19Z</time>
      </trkpt>
      <trkpt lat="44.22205" lon="6.79991">
        <ele>2437.56</ele>
        <time>2015-06-28T09:48:21Z</time>
      </trkpt>
      <trkpt lat="44.22203" lon="6.79999">
        <ele>2438.04</ele>
        <time>2015-06-28T09:48:26Z</time>
      </trkpt>
      <trkpt lat="44.22202" lon="6.80004">
        <ele>2438.52</ele>
        <time>2015-06-28T09:48:30Z</time>
      </trkpt>
      <trkpt lat="44.22196" lon="6.8003">
        <ele>2439.96</ele>
        <time>2015-06-28T09:48:47Z</time>
      </trkpt>
      <trkpt lat="44.22189" lon="6.80056">
        <ele>2441.41</ele>
        <time>2015-06-28T09:49:04Z</time>
      </trkpt>
      <trkpt lat="44.22183" lon="6.80076">
        <ele>2442.37</ele>
        <time>2015-06-28T09:49:17Z</time>
      </trkpt>
      <trkpt lat="44.22177" lon="6.80098">
        <ele>2443.33</ele>
        <time>2015-06-28T09:49:31Z</time>
      </trkpt>
      <trkpt lat="44.22176" lon="6.80099">
        <ele>2443.33</ele>
        <time>2015-06-28T09:49:32Z</time>
      </trkpt>
      <trkpt lat="44.22171" lon="6.80121">
        <ele>2444.29</ele>
        <time>2015-06-28T09:49:48Z</time>
      </trkpt>
      <trkpt lat="44.22167" lon="6.80148">
        <ele>2446.21</ele>
        <time>2015-06-28T09:50:05Z</time>
      </trkpt>
      <trkpt lat="44.22167" lon="6.80149">
        <ele>2446.69</ele>
        <time>2015-06-28T09:50:19Z</time>
      </trkpt>
      <trkpt lat="44.22167" lon="6.80162">
        <ele>2446.69</ele>
        <time>2015-06-28T09:50:32Z</time>
      </trkpt>
      <trkpt lat="44.22163" lon="6.80186">
        <ele>2447.65</ele>
        <time>2015-06-28T09:50:45Z</time>
      </trkpt>
      <trkpt lat="44.2216" lon="6.80212">
        <ele>2449.58</ele>
        <time>2015-06-28T09:50:57Z</time>
      </trkpt>
      <trkpt lat="44.22162" lon="6.80214">
        <ele>2449.58</ele>
        <time>2015-06-28T09:51:05Z</time>
      </trkpt>
      <trkpt lat="44.2216" lon="6.80218">
        <ele>2449.58</ele>
        <time>2015-06-28T09:51:11Z</time>
      </trkpt>
      <trkpt lat="44.2216" lon="6.8022">
        <ele>2449.58</ele>
        <time>2015-06-28T09:51:12Z</time>
      </trkpt>
      <trkpt lat="44.2216" lon="6.8024">
        <ele>2449.58</ele>
        <time>2015-06-28T09:51:25Z</time>
      </trkpt>
      <trkpt lat="44.2216" lon="6.80241">
        <ele>2449.58</ele>
        <time>2015-06-28T09:51:26Z</time>
      </trkpt>
      <trkpt lat="44.2216" lon="6.80252">
        <ele>2449.58</ele>
        <time>2015-06-28T09:51:32Z</time>
      </trkpt>
      <trkpt lat="44.22159" lon="6.80254">
        <ele>2449.58</ele>
        <time>2015-06-28T09:51:33Z</time>
      </trkpt>
      <trkpt lat="44.22159" lon="6.80256">
        <ele>2449.58</ele>
        <time>2015-06-28T09:51:34Z</time>
      </trkpt>
      <trkpt lat="44.22156" lon="6.80285">
        <ele>2451.5</ele>
        <time>2015-06-28T09:51:49Z</time>
      </trkpt>
      <trkpt lat="44.22151" lon="6.80309">
        <ele>2452.46</ele>
        <time>2015-06-28T09:52:02Z</time>
      </trkpt>
      <trkpt lat="44.22149" lon="6.80333">
        <ele>2454.38</ele>
        <time>2015-06-28T09:52:15Z</time>
      </trkpt>
      <trkpt lat="44.22148" lon="6.80344">
        <ele>2454.38</ele>
        <time>2015-06-28T09:52:21Z</time>
      </trkpt>
      <trkpt lat="44.22148" lon="6.80346">
        <ele>2454.38</ele>
        <time>2015-06-28T09:52:22Z</time>
      </trkpt>
      <trkpt lat="44.22145" lon="6.80359">
        <ele>2455.82</ele>
        <time>2015-06-28T09:52:30Z</time>
      </trkpt>
      <trkpt lat="44.22145" lon="6.80361">
        <ele>2455.82</ele>
        <time>2015-06-28T09:52:31Z</time>
      </trkpt>
      <trkpt lat="44.22145" lon="6.80363">
        <ele>2455.82</ele>
        <time>2015-06-28T09:52:32Z</time>
      </trkpt>
      <trkpt lat="44.22144" lon="6.80366">
        <ele>2456.79</ele>
        <time>2015-06-28T09:52:34Z</time>
      </trkpt>
      <trkpt lat="44.22143" lon="6.80378">
        <ele>2457.27</ele>
        <time>2015-06-28T09:52:46Z</time>
      </trkpt>
      <trkpt lat="44.22143" lon="6.80395">
        <ele>2458.71</ele>
        <time>2015-06-28T09:52:58Z</time>
      </trkpt>
      <trkpt lat="44.2214" lon="6.80411">
        <ele>2459.67</ele>
        <time>2015-06-28T09:53:09Z</time>
      </trkpt>
      <trkpt lat="44.2214" lon="6.80412">
        <ele>2459.67</ele>
        <time>2015-06-28T09:53:10Z</time>
      </trkpt>
      <trkpt lat="44.22139" lon="6.80414">
        <ele>2459.67</ele>
        <time>2015-06-28T09:53:11Z</time>
      </trkpt>
      <trkpt lat="44.22139" lon="6.80415">
        <ele>2460.15</ele>
        <time>2015-06-28T09:53:12Z</time>
      </trkpt>
      <trkpt lat="44.22138" lon="6.80417">
        <ele>2460.15</ele>
        <time>2015-06-28T09:53:13Z</time>
      </trkpt>
      <trkpt lat="44.22135" lon="6.80434">
        <ele>2461.11</ele>
        <time>2015-06-28T09:53:24Z</time>
      </trkpt>
      <trkpt lat="44.22136" lon="6.80451">
        <ele>2461.59</ele>
        <time>2015-06-28T09:53:34Z</time>
      </trkpt>
      <trkpt lat="44.22136" lon="6.80453">
        <ele>2461.59</ele>
        <time>2015-06-28T09:53:35Z</time>
      </trkpt>
      <trkpt lat="44.22135" lon="6.8046">
        <ele>2462.55</ele>
        <time>2015-06-28T09:53:40Z</time>
      </trkpt>
      <trkpt lat="44.22135" lon="6.80462">
        <ele>2462.55</ele>
        <time>2015-06-28T09:53:41Z</time>
      </trkpt>
      <trkpt lat="44.22134" lon="6.80465">
        <ele>2462.55</ele>
        <time>2015-06-28T09:53:50Z</time>
      </trkpt>
      <trkpt lat="44.22134" lon="6.80467">
        <ele>2462.55</ele>
        <time>2015-06-28T09:53:51Z</time>
      </trkpt>
      <trkpt lat="44.22136" lon="6.80477">
        <ele>2462.55</ele>
        <time>2015-06-28T09:53:58Z</time>
      </trkpt>
      <trkpt lat="44.22136" lon="6.80479">
        <ele>2463.52</ele>
        <time>2015-06-28T09:53:59Z</time>
      </trkpt>
      <trkpt lat="44.22136" lon="6.8048">
        <ele>2463.52</ele>
        <time>2015-06-28T09:54:00Z</time>
      </trkpt>
      <trkpt lat="44.22138" lon="6.80486">
        <ele>2464</ele>
        <time>2015-06-28T09:54:04Z</time>
      </trkpt>
      <trkpt lat="44.22136" lon="6.80503">
        <ele>2464.48</ele>
        <time>2015-06-28T09:54:16Z</time>
      </trkpt>
      <trkpt lat="44.22135" lon="6.80511">
        <ele>2464.96</ele>
        <time>2015-06-28T09:54:28Z</time>
      </trkpt>
      <trkpt lat="44.22136" lon="6.80521">
        <ele>2465.92</ele>
        <time>2015-06-28T09:54:44Z</time>
      </trkpt>
      <trkpt lat="44.22136" lon="6.80519">
        <ele>2466.4</ele>
        <time>2015-06-28T09:55:04Z</time>
      </trkpt>
      <trkpt lat="44.22137" lon="6.80537">
        <ele>2466.88</ele>
        <time>2015-06-28T09:55:17Z</time>
      </trkpt>
      <trkpt lat="44.22144" lon="6.80552">
        <ele>2468.32</ele>
        <time>2015-06-28T09:55:28Z</time>
      </trkpt>
      <trkpt lat="44.22144" lon="6.80553">
        <ele>2468.32</ele>
        <time>2015-06-28T09:55:29Z</time>
      </trkpt>
      <trkpt lat="44.22145" lon="6.80554">
        <ele>2468.32</ele>
        <time>2015-06-28T09:55:30Z</time>
      </trkpt>
      <trkpt lat="44.22145" lon="6.80556">
        <ele>2468.32</ele>
        <time>2015-06-28T09:55:31Z</time>
      </trkpt>
      <trkpt lat="44.22145" lon="6.80558">
        <ele>2468.8</ele>
        <time>2015-06-28T09:55:32Z</time>
      </trkpt>
      <trkpt lat="44.22142" lon="6.80583">
        <ele>2469.76</ele>
        <time>2015-06-28T09:55:45Z</time>
      </trkpt>
      <trkpt lat="44.22136" lon="6.80607">
        <ele>2471.69</ele>
        <time>2015-06-28T09:55:59Z</time>
      </trkpt>
      <trkpt lat="44.22135" lon="6.80613">
        <ele>2472.17</ele>
        <time>2015-06-28T09:56:03Z</time>
      </trkpt>
      <trkpt lat="44.22133" lon="6.80627">
        <ele>2475.53</ele>
        <time>2015-06-28T09:56:11Z</time>
      </trkpt>
      <trkpt lat="44.2213" lon="6.80636">
        <ele>2477.45</ele>
        <time>2015-06-28T09:56:18Z</time>
      </trkpt>
      <trkpt lat="44.22129" lon="6.80643">
        <ele>2478.9</ele>
        <time>2015-06-28T09:56:25Z</time>
      </trkpt>
      <trkpt lat="44.22124" lon="6.80652">
        <ele>2481.3</ele>
        <time>2015-06-28T09:56:36Z</time>
      </trkpt>
      <trkpt lat="44.22123" lon="6.80662">
        <ele>2482.26</ele>
        <time>2015-06-28T09:56:46Z</time>
      </trkpt>
      <trkpt lat="44.22117" lon="6.80672">
        <ele>2484.18</ele>
        <time>2015-06-28T09:56:59Z</time>
      </trkpt>
      <trkpt lat="44.22113" lon="6.80676">
        <ele>2485.15</ele>
        <time>2015-06-28T09:57:14Z</time>
      </trkpt>
      <trkpt lat="44.22112" lon="6.80678">
        <ele>2485.63</ele>
        <time>2015-06-28T09:57:16Z</time>
      </trkpt>
      <trkpt lat="44.22108" lon="6.80686">
        <ele>2487.07</ele>
        <time>2015-06-28T09:57:27Z</time>
      </trkpt>
      <trkpt lat="44.221" lon="6.80685">
        <ele>2488.51</ele>
        <time>2015-06-28T09:57:40Z</time>
      </trkpt>
      <trkpt lat="44.22099" lon="6.80687">
        <ele>2488.99</ele>
        <time>2015-06-28T09:57:43Z</time>
      </trkpt>
      <trkpt lat="44.22095" lon="6.80696">
        <ele>2489.95</ele>
        <time>2015-06-28T09:57:54Z</time>
      </trkpt>
      <trkpt lat="44.2209" lon="6.80702">
        <ele>2491.39</ele>
        <time>2015-06-28T09:58:03Z</time>
      </trkpt>
      <trkpt lat="44.22089" lon="6.80703">
        <ele>2491.39</ele>
        <time>2015-06-28T09:58:04Z</time>
      </trkpt>
      <trkpt lat="44.22088" lon="6.80705">
        <ele>2491.87</ele>
        <time>2015-06-28T09:58:06Z</time>
      </trkpt>
      <trkpt lat="44.22087" lon="6.80706">
        <ele>2491.87</ele>
        <time>2015-06-28T09:58:07Z</time>
      </trkpt>
      <trkpt lat="44.22086" lon="6.80706">
        <ele>2491.87</ele>
        <time>2015-06-28T09:58:08Z</time>
      </trkpt>
      <trkpt lat="44.22082" lon="6.8071">
        <ele>2492.36</ele>
        <time>2015-06-28T09:58:13Z</time>
      </trkpt>
      <trkpt lat="44.22078" lon="6.80712">
        <ele>2492.84</ele>
        <time>2015-06-28T09:58:17Z</time>
      </trkpt>
      <trkpt lat="44.22076" lon="6.80713">
        <ele>2493.32</ele>
        <time>2015-06-28T09:58:20Z</time>
      </trkpt>
      <trkpt lat="44.22073" lon="6.80716">
        <ele>2493.8</ele>
        <time>2015-06-28T09:58:24Z</time>
      </trkpt>
      <trkpt lat="44.22071" lon="6.80717">
        <ele>2493.8</ele>
        <time>2015-06-28T09:58:25Z</time>
      </trkpt>
      <trkpt lat="44.22067" lon="6.8072">
        <ele>2494.76</ele>
        <time>2015-06-28T09:58:30Z</time>
      </trkpt>
      <trkpt lat="44.22066" lon="6.80722">
        <ele>2495.24</ele>
        <time>2015-06-28T09:58:32Z</time>
      </trkpt>
      <trkpt lat="44.22066" lon="6.80724">
        <ele>2495.24</ele>
        <time>2015-06-28T09:58:33Z</time>
      </trkpt>
      <trkpt lat="44.22067" lon="6.80725">
        <ele>2495.24</ele>
        <time>2015-06-28T09:58:34Z</time>
      </trkpt>
      <trkpt lat="44.22067" lon="6.80727">
        <ele>2495.24</ele>
        <time>2015-06-28T09:58:35Z</time>
      </trkpt>
      <trkpt lat="44.22067" lon="6.8073">
        <ele>2495.24</ele>
        <time>2015-06-28T09:58:37Z</time>
      </trkpt>
      <trkpt lat="44.22067" lon="6.80732">
        <ele>2495.24</ele>
        <time>2015-06-28T09:58:38Z</time>
      </trkpt>
      <trkpt lat="44.22067" lon="6.80734">
        <ele>2495.72</ele>
        <time>2015-06-28T09:58:39Z</time>
      </trkpt>
      <trkpt lat="44.2207" lon="6.80758">
        <ele>2497.64</ele>
        <time>2015-06-28T09:58:54Z</time>
      </trkpt>
      <trkpt lat="44.22076" lon="6.80776">
        <ele>2499.08</ele>
        <time>2015-06-28T09:59:06Z</time>
      </trkpt>
      <trkpt lat="44.22078" lon="6.80781">
        <ele>2499.57</ele>
        <time>2015-06-28T09:59:09Z</time>
      </trkpt>
      <trkpt lat="44.22077" lon="6.80786">
        <ele>2499.57</ele>
        <time>2015-06-28T09:59:12Z</time>
      </trkpt>
      <trkpt lat="44.22082" lon="6.80811">
        <ele>2499.57</ele>
        <time>2015-06-28T09:59:26Z</time>
      </trkpt>
      <trkpt lat="44.22083" lon="6.8082">
        <ele>2500.05</ele>
        <time>2015-06-28T09:59:32Z</time>
      </trkpt>
      <trkpt lat="44.22083" lon="6.80825">
        <ele>2501.49</ele>
        <time>2015-06-28T09:59:36Z</time>
      </trkpt>
      <trkpt lat="44.22084" lon="6.80844">
        <ele>2502.93</ele>
        <time>2015-06-28T09:59:50Z</time>
      </trkpt>
      <trkpt lat="44.22084" lon="6.80851">
        <ele>2503.89</ele>
        <time>2015-06-28T09:59:55Z</time>
      </trkpt>
      <trkpt lat="44.22083" lon="6.80853">
        <ele>2504.85</ele>
        <time>2015-06-28T09:59:57Z</time>
      </trkpt>
      <trkpt lat="44.2208" lon="6.80873">
        <ele>2503.89</ele>
        <time>2015-06-28T10:00:10Z</time>
      </trkpt>
      <trkpt lat="44.22077" lon="6.80891">
        <ele>2504.85</ele>
        <time>2015-06-28T10:00:21Z</time>
      </trkpt>
      <trkpt lat="44.22076" lon="6.80902">
        <ele>2504.85</ele>
        <time>2015-06-28T10:00:28Z</time>
      </trkpt>
      <trkpt lat="44.22082" lon="6.8092">
        <ele>2506.77</ele>
        <time>2015-06-28T10:00:41Z</time>
      </trkpt>
      <trkpt lat="44.22083" lon="6.80923">
        <ele>2507.26</ele>
        <time>2015-06-28T10:00:44Z</time>
      </trkpt>
      <trkpt lat="44.22084" lon="6.80925">
        <ele>2508.7</ele>
        <time>2015-06-28T10:00:47Z</time>
      </trkpt>
      <trkpt lat="44.22084" lon="6.80928">
        <ele>2509.66</ele>
        <time>2015-06-28T10:00:50Z</time>
      </trkpt>
      <trkpt lat="44.22088" lon="6.80936">
        <ele>2512.06</ele>
        <time>2015-06-28T10:00:58Z</time>
      </trkpt>
      <trkpt lat="44.22091" lon="6.80946">
        <ele>2513.98</ele>
        <time>2015-06-28T10:01:11Z</time>
      </trkpt>
      <trkpt lat="44.22092" lon="6.80957">
        <ele>2516.39</ele>
        <time>2015-06-28T10:01:23Z</time>
      </trkpt>
      <trkpt lat="44.22092" lon="6.80966">
        <ele>2518.79</ele>
        <time>2015-06-28T10:01:34Z</time>
      </trkpt>
      <trkpt lat="44.22092" lon="6.80973">
        <ele>2520.71</ele>
        <time>2015-06-28T10:01:42Z</time>
      </trkpt>
      <trkpt lat="44.22095" lon="6.80982">
        <ele>2524.08</ele>
        <time>2015-06-28T10:01:54Z</time>
      </trkpt>
      <trkpt lat="44.22095" lon="6.80983">
        <ele>2524.08</ele>
        <time>2015-06-28T10:01:55Z</time>
      </trkpt>
      <trkpt lat="44.22092" lon="6.80985">
        <ele>2525.04</ele>
        <time>2015-06-28T10:02:04Z</time>
      </trkpt>
      <trkpt lat="44.22091" lon="6.80987">
        <ele>2525.04</ele>
        <time>2015-06-28T10:02:08Z</time>
      </trkpt>
      <trkpt lat="44.22089" lon="6.80989">
        <ele>2523.6</ele>
        <time>2015-06-28T10:02:11Z</time>
      </trkpt>
      <trkpt lat="44.22085" lon="6.80994">
        <ele>2525.52</ele>
        <time>2015-06-28T10:02:23Z</time>
      </trkpt>
      <trkpt lat="44.22084" lon="6.80996">
        <ele>2525.52</ele>
        <time>2015-06-28T10:02:51Z</time>
      </trkpt>
      <trkpt lat="44.22083" lon="6.80999">
        <ele>2523.6</ele>
        <time>2015-06-28T10:03:14Z</time>
      </trkpt>
      <trkpt lat="44.22082" lon="6.80999">
        <ele>2523.6</ele>
        <time>2015-06-28T10:03:15Z</time>
      </trkpt>
      <trkpt lat="44.22079" lon="6.81002">
        <ele>2522.16</ele>
        <time>2015-06-28T10:03:21Z</time>
      </trkpt>
      <trkpt lat="44.22078" lon="6.81002">
        <ele>2522.16</ele>
        <time>2015-06-28T10:03:23Z</time>
      </trkpt>
      <trkpt lat="44.22073" lon="6.81008">
        <ele>2521.68</ele>
        <time>2015-06-28T10:03:35Z</time>
      </trkpt>
      <trkpt lat="44.22072" lon="6.81012">
        <ele>2523.6</ele>
        <time>2015-06-28T10:03:48Z</time>
      </trkpt>
      <trkpt lat="44.22072" lon="6.81013">
        <ele>2522.16</ele>
        <time>2015-06-28T10:03:53Z</time>
      </trkpt>
      <trkpt lat="44.22073" lon="6.81014">
        <ele>2521.68</ele>
        <time>2015-06-28T10:04:21Z</time>
      </trkpt>
      <trkpt lat="44.22072" lon="6.81018">
        <ele>2521.19</ele>
        <time>2015-06-28T10:04:39Z</time>
      </trkpt>
      <trkpt lat="44.22074" lon="6.81022">
        <ele>2521.19</ele>
        <time>2015-06-28T10:04:51Z</time>
      </trkpt>
      <trkpt lat="44.22074" lon="6.81022">
        <ele>2521.19</ele>
        <time>2015-06-28T10:04:52Z</time>
      </trkpt>
      <trkpt lat="44.22082" lon="6.81023">
        <ele>2520.23</ele>
        <time>2015-06-28T10:05:07Z</time>
      </trkpt>
      <trkpt lat="44.22083" lon="6.81026">
        <ele>2519.75</ele>
        <time>2015-06-28T10:05:26Z</time>
      </trkpt>
      <trkpt lat="44.22084" lon="6.81025">
        <ele>2519.75</ele>
        <time>2015-06-28T10:05:42Z</time>
      </trkpt>
      <trkpt lat="44.22086" lon="6.8103">
        <ele>2520.23</ele>
        <time>2015-06-28T10:06:00Z</time>
      </trkpt>
      <trkpt lat="44.22083" lon="6.81027">
        <ele>2519.75</ele>
        <time>2015-06-28T10:06:26Z</time>
      </trkpt>
      <trkpt lat="44.2208" lon="6.81027">
        <ele>2519.75</ele>
        <time>2015-06-28T10:06:38Z</time>
      </trkpt>
      <trkpt lat="44.22078" lon="6.81024">
        <ele>2519.75</ele>
        <time>2015-06-28T10:06:53Z</time>
      </trkpt>
      <trkpt lat="44.22078" lon="6.81024">
        <ele>2519.75</ele>
        <time>2015-06-28T10:07:09Z</time>
      </trkpt>
      <trkpt lat="44.2208" lon="6.81025">
        <ele>2520.23</ele>
        <time>2015-06-28T10:07:27Z</time>
      </trkpt>
      <trkpt lat="44.22081" lon="6.81025">
        <ele>2520.23</ele>
        <time>2015-06-28T10:07:56Z</time>
      </trkpt>
      <trkpt lat="44.22078" lon="6.81031">
        <ele>2520.23</ele>
        <time>2015-06-28T10:08:04Z</time>
      </trkpt>
      <trkpt lat="44.22076" lon="6.81046">
        <ele>2520.23</ele>
        <time>2015-06-28T10:08:18Z</time>
      </trkpt>
      <trkpt lat="44.22078" lon="6.81045">
        <ele>2520.23</ele>
        <time>2015-06-28T10:08:46Z</time>
      </trkpt>
      <trkpt lat="44.22076" lon="6.8104">
        <ele>2520.23</ele>
        <time>2015-06-28T10:08:50Z</time>
      </trkpt>
      <trkpt lat="44.22075" lon="6.81029">
        <ele>2520.23</ele>
        <time>2015-06-28T10:09:03Z</time>
      </trkpt>
      <trkpt lat="44.22076" lon="6.81028">
        <ele>2520.71</ele>
        <time>2015-06-28T10:09:19Z</time>
      </trkpt>
      <trkpt lat="44.22077" lon="6.81032">
        <ele>2517.35</ele>
        <time>2015-06-28T10:09:42Z</time>
      </trkpt>
      <trkpt lat="44.22077" lon="6.81032">
        <ele>2525.52</ele>
        <time>2015-06-28T10:09:43Z</time>
      </trkpt>
      <trkpt lat="44.22077" lon="6.81031">
        <ele>2520.71</ele>
        <time>2015-06-28T10:09:44Z</time>
      </trkpt>
      <trkpt lat="44.22078" lon="6.81032">
        <ele>2520.71</ele>
        <time>2015-06-28T10:10:08Z</time>
      </trkpt>
      <trkpt lat="44.22078" lon="6.81034">
        <ele>2521.19</ele>
        <time>2015-06-28T10:10:36Z</time>
      </trkpt>
      <trkpt lat="44.22078" lon="6.81032">
        <ele>2521.19</ele>
        <time>2015-06-28T10:11:07Z</time>
      </trkpt>
      <trkpt lat="44.22078" lon="6.81031">
        <ele>2522.16</ele>
        <time>2015-06-28T10:11:29Z</time>
      </trkpt>
      <trkpt lat="44.22078" lon="6.81026">
        <ele>2522.16</ele>
        <time>2015-06-28T10:11:47Z</time>
      </trkpt>
      <trkpt lat="44.22077" lon="6.81024">
        <ele>2521.19</ele>
        <time>2015-06-28T10:12:10Z</time>
      </trkpt>
      <trkpt lat="44.22077" lon="6.81025">
        <ele>2524.08</ele>
        <time>2015-06-28T10:12:11Z</time>
      </trkpt>
      <trkpt lat="44.22075" lon="6.81029">
        <ele>2522.64</ele>
        <time>2015-06-28T10:12:30Z</time>
      </trkpt>
      <trkpt lat="44.22074" lon="6.81027">
        <ele>2524.08</ele>
        <time>2015-06-28T10:12:33Z</time>
      </trkpt>
      <trkpt lat="44.22073" lon="6.81026">
        <ele>2524.08</ele>
        <time>2015-06-28T10:12:34Z</time>
      </trkpt>
      <trkpt lat="44.22066" lon="6.81019">
        <ele>2524.08</ele>
        <time>2015-06-28T10:12:47Z</time>
      </trkpt>
      <trkpt lat="44.22064" lon="6.81016">
        <ele>2525.04</ele>
        <time>2015-06-28T10:12:59Z</time>
      </trkpt>
      <trkpt lat="44.22065" lon="6.8102">
        <ele>2525.04</ele>
        <time>2015-06-28T10:13:21Z</time>
      </trkpt>
      <trkpt lat="44.22066" lon="6.81024">
        <ele>2525.04</ele>
        <time>2015-06-28T10:13:38Z</time>
      </trkpt>
      <trkpt lat="44.22069" lon="6.81026">
        <ele>2524.08</ele>
        <time>2015-06-28T10:14:01Z</time>
      </trkpt>
      <trkpt lat="44.22068" lon="6.81028">
        <ele>2524.08</ele>
        <time>2015-06-28T10:14:19Z</time>
      </trkpt>
      <trkpt lat="44.22055" lon="6.81037">
        <ele>2523.6</ele>
        <time>2015-06-28T10:14:33Z</time>
      </trkpt>
      <trkpt lat="44.2205" lon="6.81041">
        <ele>2524.56</ele>
        <time>2015-06-28T10:14:46Z</time>
      </trkpt>
      <trkpt lat="44.22049" lon="6.81042">
        <ele>2525.52</ele>
        <time>2015-06-28T10:15:01Z</time>
      </trkpt>
      <trkpt lat="44.22045" lon="6.81045">
        <ele>2526</ele>
        <time>2015-06-28T10:15:18Z</time>
      </trkpt>
      <trkpt lat="44.22038" lon="6.81052">
        <ele>2527.92</ele>
        <time>2015-06-28T10:15:32Z</time>
      </trkpt>
      <trkpt lat="44.22036" lon="6.81058">
        <ele>2529.37</ele>
        <time>2015-06-28T10:15:44Z</time>
      </trkpt>
      <trkpt lat="44.22034" lon="6.81063">
        <ele>2532.25</ele>
        <time>2015-06-28T10:15:55Z</time>
      </trkpt>
      <trkpt lat="44.22029" lon="6.81064">
        <ele>2532.73</ele>
        <time>2015-06-28T10:16:08Z</time>
      </trkpt>
      <trkpt lat="44.22029" lon="6.81069">
        <ele>2533.69</ele>
        <time>2015-06-28T10:16:19Z</time>
      </trkpt>
      <trkpt lat="44.22027" lon="6.81072">
        <ele>2535.13</ele>
        <time>2015-06-28T10:16:33Z</time>
      </trkpt>
      <trkpt lat="44.22021" lon="6.8107">
        <ele>2535.61</ele>
        <time>2015-06-28T10:16:52Z</time>
      </trkpt>
      <trkpt lat="44.22017" lon="6.81074">
        <ele>2537.06</ele>
        <time>2015-06-28T10:17:04Z</time>
      </trkpt>
      <trkpt lat="44.22016" lon="6.81074">
        <ele>2535.61</ele>
        <time>2015-06-28T10:17:07Z</time>
      </trkpt>
      <trkpt lat="44.2201" lon="6.81077">
        <ele>2534.17</ele>
        <time>2015-06-28T10:17:19Z</time>
      </trkpt>
      <trkpt lat="44.22006" lon="6.8108">
        <ele>2533.69</ele>
        <time>2015-06-28T10:17:30Z</time>
      </trkpt>
      <trkpt lat="44.22" lon="6.81079">
        <ele>2532.25</ele>
        <time>2015-06-28T10:17:43Z</time>
      </trkpt>
      <trkpt lat="44.21993" lon="6.8108">
        <ele>2530.81</ele>
        <time>2015-06-28T10:17:54Z</time>
      </trkpt>
      <trkpt lat="44.21985" lon="6.81085">
        <ele>2531.77</ele>
        <time>2015-06-28T10:18:07Z</time>
      </trkpt>
      <trkpt lat="44.21979" lon="6.81086">
        <ele>2532.73</ele>
        <time>2015-06-28T10:18:19Z</time>
      </trkpt>
      <trkpt lat="44.21979" lon="6.81086">
        <ele>2530.81</ele>
        <time>2015-06-28T10:18:24Z</time>
      </trkpt>
      <trkpt lat="44.21979" lon="6.81085">
        <ele>2535.61</ele>
        <time>2015-06-28T10:18:25Z</time>
      </trkpt>
      <trkpt lat="44.21979" lon="6.81085">
        <ele>2529.37</ele>
        <time>2015-06-28T10:18:26Z</time>
      </trkpt>
      <trkpt lat="44.21979" lon="6.81085">
        <ele>2533.69</ele>
        <time>2015-06-28T10:18:28Z</time>
      </trkpt>
      <trkpt lat="44.21978" lon="6.81085">
        <ele>2522.16</ele>
        <time>2015-06-28T10:18:29Z</time>
      </trkpt>
      <trkpt lat="44.21978" lon="6.81084">
        <ele>2533.21</ele>
        <time>2015-06-28T10:18:30Z</time>
      </trkpt>
      <trkpt lat="44.21978" lon="6.81084">
        <ele>2541.86</ele>
        <time>2015-06-28T10:18:31Z</time>
      </trkpt>
      <trkpt lat="44.21978" lon="6.81084">
        <ele>2539.94</ele>
        <time>2015-06-28T10:18:32Z</time>
      </trkpt>
      <trkpt lat="44.21978" lon="6.81084">
        <ele>2529.37</ele>
        <time>2015-06-28T10:18:33Z</time>
      </trkpt>
      <trkpt lat="44.21979" lon="6.81085">
        <ele>2534.65</ele>
        <time>2015-06-28T10:18:34Z</time>
      </trkpt>
      <trkpt lat="44.21978" lon="6.81084">
        <ele>2532.73</ele>
        <time>2015-06-28T10:18:40Z</time>
      </trkpt>
      <trkpt lat="44.21978" lon="6.81084">
        <ele>2534.17</ele>
        <time>2015-06-28T10:18:46Z</time>
      </trkpt>
      <trkpt lat="44.21977" lon="6.81083">
        <ele>2542.34</ele>
        <time>2015-06-28T10:18:53Z</time>
      </trkpt>
      <trkpt lat="44.21977" lon="6.81084">
        <ele>2534.17</ele>
        <time>2015-06-28T10:18:54Z</time>
      </trkpt>
      <trkpt lat="44.21977" lon="6.81084">
        <ele>2533.21</ele>
        <time>2015-06-28T10:18:56Z</time>
      </trkpt>
      <trkpt lat="44.21978" lon="6.81084">
        <ele>2533.21</ele>
        <time>2015-06-28T10:19:19Z</time>
      </trkpt>
      <trkpt lat="44.21976" lon="6.81082">
        <ele>2533.69</ele>
        <time>2015-06-28T10:19:45Z</time>
      </trkpt>
      <trkpt lat="44.21975" lon="6.81083">
        <ele>2533.69</ele>
        <time>2015-06-28T10:19:51Z</time>
      </trkpt>
      <trkpt lat="44.21973" lon="6.81084">
        <ele>2533.69</ele>
        <time>2015-06-28T10:19:53Z</time>
      </trkpt>
      <trkpt lat="44.21965" lon="6.81088">
        <ele>2534.65</ele>
        <time>2015-06-28T10:20:05Z</time>
      </trkpt>
      <trkpt lat="44.2196" lon="6.8109">
        <ele>2536.1</ele>
        <time>2015-06-28T10:20:11Z</time>
      </trkpt>
      <trkpt lat="44.21953" lon="6.8109">
        <ele>2537.06</ele>
        <time>2015-06-28T10:20:24Z</time>
      </trkpt>
      <trkpt lat="44.21946" lon="6.81093">
        <ele>2537.54</ele>
        <time>2015-06-28T10:20:56Z</time>
      </trkpt>
      <trkpt lat="44.21939" lon="6.81101">
        <ele>2540.42</ele>
        <time>2015-06-28T10:21:08Z</time>
      </trkpt>
      <trkpt lat="44.21938" lon="6.81102">
        <ele>2540.42</ele>
        <time>2015-06-28T10:21:09Z</time>
      </trkpt>
      <trkpt lat="44.21937" lon="6.81104">
        <ele>2541.38</ele>
        <time>2015-06-28T10:21:12Z</time>
      </trkpt>
      <trkpt lat="44.21928" lon="6.81112">
        <ele>2543.79</ele>
        <time>2015-06-28T10:21:23Z</time>
      </trkpt>
      <trkpt lat="44.21924" lon="6.81115">
        <ele>2544.27</ele>
        <time>2015-06-28T10:21:27Z</time>
      </trkpt>
      <trkpt lat="44.21922" lon="6.81117">
        <ele>2544.75</ele>
        <time>2015-06-28T10:21:30Z</time>
      </trkpt>
      <trkpt lat="44.21913" lon="6.81124">
        <ele>2546.19</ele>
        <time>2015-06-28T10:21:43Z</time>
      </trkpt>
      <trkpt lat="44.21906" lon="6.81131">
        <ele>2546.67</ele>
        <time>2015-06-28T10:21:54Z</time>
      </trkpt>
      <trkpt lat="44.21914" lon="6.81135">
        <ele>2548.59</ele>
        <time>2015-06-28T10:22:04Z</time>
      </trkpt>
      <trkpt lat="44.21928" lon="6.81138">
        <ele>2550.03</ele>
        <time>2015-06-28T10:22:17Z</time>
      </trkpt>
      <trkpt lat="44.21936" lon="6.8114">
        <ele>2552.44</ele>
        <time>2015-06-28T10:22:31Z</time>
      </trkpt>
      <trkpt lat="44.21936" lon="6.81141">
        <ele>2552.44</ele>
        <time>2015-06-28T10:22:32Z</time>
      </trkpt>
      <trkpt lat="44.21935" lon="6.81141">
        <ele>2552.44</ele>
        <time>2015-06-28T10:22:34Z</time>
      </trkpt>
      <trkpt lat="44.21932" lon="6.81142">
        <ele>2552.92</ele>
        <time>2015-06-28T10:22:37Z</time>
      </trkpt>
      <trkpt lat="44.21929" lon="6.81143">
        <ele>2553.4</ele>
        <time>2015-06-28T10:22:41Z</time>
      </trkpt>
      <trkpt lat="44.2192" lon="6.81151">
        <ele>2554.36</ele>
        <time>2015-06-28T10:22:54Z</time>
      </trkpt>
      <trkpt lat="44.21919" lon="6.81153">
        <ele>2554.84</ele>
        <time>2015-06-28T10:22:57Z</time>
      </trkpt>
      <trkpt lat="44.21916" lon="6.81157">
        <ele>2555.8</ele>
        <time>2015-06-28T10:23:02Z</time>
      </trkpt>
      <trkpt lat="44.21909" lon="6.81166">
        <ele>2557.73</ele>
        <time>2015-06-28T10:23:14Z</time>
      </trkpt>
      <trkpt lat="44.21907" lon="6.81166">
        <ele>2558.21</ele>
        <time>2015-06-28T10:23:16Z</time>
      </trkpt>
      <trkpt lat="44.21903" lon="6.81169">
        <ele>2558.69</ele>
        <time>2015-06-28T10:23:22Z</time>
      </trkpt>
      <trkpt lat="44.21901" lon="6.81172">
        <ele>2559.17</ele>
        <time>2015-06-28T10:23:25Z</time>
      </trkpt>
      <trkpt lat="44.21898" lon="6.81174">
        <ele>2559.65</ele>
        <time>2015-06-28T10:23:28Z</time>
      </trkpt>
      <trkpt lat="44.21891" lon="6.81182">
        <ele>2561.57</ele>
        <time>2015-06-28T10:23:39Z</time>
      </trkpt>
      <trkpt lat="44.21883" lon="6.81185">
        <ele>2563.49</ele>
        <time>2015-06-28T10:23:50Z</time>
      </trkpt>
      <trkpt lat="44.21876" lon="6.81191">
        <ele>2564.93</ele>
        <time>2015-06-28T10:24:01Z</time>
      </trkpt>
      <trkpt lat="44.21866" lon="6.81197">
        <ele>2566.38</ele>
        <time>2015-06-28T10:24:13Z</time>
      </trkpt>
      <trkpt lat="44.21856" lon="6.812">
        <ele>2567.82</ele>
        <time>2015-06-28T10:24:24Z</time>
      </trkpt>
      <trkpt lat="44.21854" lon="6.81201">
        <ele>2567.82</ele>
        <time>2015-06-28T10:24:26Z</time>
      </trkpt>
      <trkpt lat="44.21845" lon="6.81206">
        <ele>2568.78</ele>
        <time>2015-06-28T10:24:38Z</time>
      </trkpt>
      <trkpt lat="44.21838" lon="6.8121">
        <ele>2570.7</ele>
        <time>2015-06-28T10:24:50Z</time>
      </trkpt>
      <trkpt lat="44.21833" lon="6.81214">
        <ele>2572.14</ele>
        <time>2015-06-28T10:24:59Z</time>
      </trkpt>
      <trkpt lat="44.21822" lon="6.81218">
        <ele>2573.11</ele>
        <time>2015-06-28T10:25:12Z</time>
      </trkpt>
      <trkpt lat="44.21817" lon="6.81221">
        <ele>2574.55</ele>
        <time>2015-06-28T10:25:23Z</time>
      </trkpt>
      <trkpt lat="44.21813" lon="6.81227">
        <ele>2576.47</ele>
        <time>2015-06-28T10:25:34Z</time>
      </trkpt>
      <trkpt lat="44.21811" lon="6.81232">
        <ele>2577.91</ele>
        <time>2015-06-28T10:25:44Z</time>
      </trkpt>
      <trkpt lat="44.21804" lon="6.81236">
        <ele>2579.84</ele>
        <time>2015-06-28T10:25:56Z</time>
      </trkpt>
      <trkpt lat="44.21793" lon="6.81236">
        <ele>2581.28</ele>
        <time>2015-06-28T10:26:10Z</time>
      </trkpt>
      <trkpt lat="44.21792" lon="6.81236">
        <ele>2581.28</ele>
        <time>2015-06-28T10:26:11Z</time>
      </trkpt>
      <trkpt lat="44.21782" lon="6.81239">
        <ele>2583.2</ele>
        <time>2015-06-28T10:26:26Z</time>
      </trkpt>
      <trkpt lat="44.21773" lon="6.81244">
        <ele>2585.6</ele>
        <time>2015-06-28T10:26:38Z</time>
      </trkpt>
      <trkpt lat="44.21765" lon="6.81246">
        <ele>2586.56</ele>
        <time>2015-06-28T10:26:50Z</time>
      </trkpt>
      <trkpt lat="44.21758" lon="6.81243">
        <ele>2588.49</ele>
        <time>2015-06-28T10:27:03Z</time>
      </trkpt>
      <trkpt lat="44.21753" lon="6.81247">
        <ele>2588.49</ele>
        <time>2015-06-28T10:27:21Z</time>
      </trkpt>
      <trkpt lat="44.21751" lon="6.81251">
        <ele>2589.45</ele>
        <time>2015-06-28T10:27:40Z</time>
      </trkpt>
      <trkpt lat="44.21746" lon="6.81254">
        <ele>2589.93</ele>
        <time>2015-06-28T10:27:52Z</time>
      </trkpt>
      <trkpt lat="44.21739" lon="6.81253">
        <ele>2591.85</ele>
        <time>2015-06-28T10:28:03Z</time>
      </trkpt>
      <trkpt lat="44.21729" lon="6.81256">
        <ele>2593.77</ele>
        <time>2015-06-28T10:28:16Z</time>
      </trkpt>
      <trkpt lat="44.21719" lon="6.81259">
        <ele>2595.22</ele>
        <time>2015-06-28T10:28:28Z</time>
      </trkpt>
      <trkpt lat="44.21712" lon="6.8126">
        <ele>2596.18</ele>
        <time>2015-06-28T10:28:38Z</time>
      </trkpt>
      <trkpt lat="44.21705" lon="6.81263">
        <ele>2598.1</ele>
        <time>2015-06-28T10:28:50Z</time>
      </trkpt>
      <trkpt lat="44.21698" lon="6.81267">
        <ele>2600.98</ele>
        <time>2015-06-28T10:29:04Z</time>
      </trkpt>
      <trkpt lat="44.21691" lon="6.81268">
        <ele>2603.87</ele>
        <time>2015-06-28T10:29:17Z</time>
      </trkpt>
      <trkpt lat="44.2168" lon="6.81266">
        <ele>2604.83</ele>
        <time>2015-06-28T10:29:31Z</time>
      </trkpt>
      <trkpt lat="44.21677" lon="6.81268">
        <ele>2607.71</ele>
        <time>2015-06-28T10:29:44Z</time>
      </trkpt>
      <trkpt lat="44.21677" lon="6.81268">
        <ele>2607.71</ele>
        <time>2015-06-28T10:29:45Z</time>
      </trkpt>
      <trkpt lat="44.21677" lon="6.81268">
        <ele>2605.79</ele>
        <time>2015-06-28T10:29:47Z</time>
      </trkpt>
      <trkpt lat="44.21677" lon="6.81266">
        <ele>2606.75</ele>
        <time>2015-06-28T10:29:53Z</time>
      </trkpt>
      <trkpt lat="44.21669" lon="6.81268">
        <ele>2606.75</ele>
        <time>2015-06-28T10:30:11Z</time>
      </trkpt>
      <trkpt lat="44.21668" lon="6.81268">
        <ele>2608.19</ele>
        <time>2015-06-28T10:30:16Z</time>
      </trkpt>
      <trkpt lat="44.21664" lon="6.81268">
        <ele>2608.67</ele>
        <time>2015-06-28T10:30:32Z</time>
      </trkpt>
      <trkpt lat="44.21657" lon="6.81266">
        <ele>2609.64</ele>
        <time>2015-06-28T10:30:46Z</time>
      </trkpt>
      <trkpt lat="44.21654" lon="6.81267">
        <ele>2610.12</ele>
        <time>2015-06-28T10:31:05Z</time>
      </trkpt>
      <trkpt lat="44.21655" lon="6.81265">
        <ele>2610.12</ele>
        <time>2015-06-28T10:31:26Z</time>
      </trkpt>
      <trkpt lat="44.21657" lon="6.81262">
        <ele>2610.12</ele>
        <time>2015-06-28T10:31:54Z</time>
      </trkpt>
      <trkpt lat="44.21657" lon="6.81266">
        <ele>2610.12</ele>
        <time>2015-06-28T10:32:20Z</time>
      </trkpt>
      <trkpt lat="44.21654" lon="6.81267">
        <ele>2610.12</ele>
        <time>2015-06-28T10:32:43Z</time>
      </trkpt>
      <trkpt lat="44.21651" lon="6.81269">
        <ele>2610.6</ele>
        <time>2015-06-28T10:32:47Z</time>
      </trkpt>
      <trkpt lat="44.21641" lon="6.81272">
        <ele>2611.56</ele>
        <time>2015-06-28T10:32:58Z</time>
      </trkpt>
      <trkpt lat="44.21635" lon="6.81276">
        <ele>2612.04</ele>
        <time>2015-06-28T10:33:09Z</time>
      </trkpt>
      <trkpt lat="44.21627" lon="6.81278">
        <ele>2612.52</ele>
        <time>2015-06-28T10:33:16Z</time>
      </trkpt>
      <trkpt lat="44.21619" lon="6.81281">
        <ele>2613.48</ele>
        <time>2015-06-28T10:33:29Z</time>
      </trkpt>
      <trkpt lat="44.21611" lon="6.81288">
        <ele>2615.88</ele>
        <time>2015-06-28T10:33:41Z</time>
      </trkpt>
      <trkpt lat="44.2161" lon="6.81289">
        <ele>2616.37</ele>
        <time>2015-06-28T10:33:44Z</time>
      </trkpt>
      <trkpt lat="44.21603" lon="6.81286">
        <ele>2616.85</ele>
        <time>2015-06-28T10:33:57Z</time>
      </trkpt>
      <trkpt lat="44.21603" lon="6.81301">
        <ele>2617.81</ele>
        <time>2015-06-28T10:34:20Z</time>
      </trkpt>
      <trkpt lat="44.21594" lon="6.8131">
        <ele>2620.21</ele>
        <time>2015-06-28T10:34:34Z</time>
      </trkpt>
      <trkpt lat="44.21587" lon="6.81314">
        <ele>2621.65</ele>
        <time>2015-06-28T10:34:46Z</time>
      </trkpt>
      <trkpt lat="44.2158" lon="6.8132">
        <ele>2622.61</ele>
        <time>2015-06-28T10:34:57Z</time>
      </trkpt>
      <trkpt lat="44.21572" lon="6.81324">
        <ele>2624.06</ele>
        <time>2015-06-28T10:35:08Z</time>
      </trkpt>
      <trkpt lat="44.21569" lon="6.81326">
        <ele>2624.54</ele>
        <time>2015-06-28T10:35:13Z</time>
      </trkpt>
      <trkpt lat="44.21568" lon="6.81326">
        <ele>2625.02</ele>
        <time>2015-06-28T10:35:15Z</time>
      </trkpt>
      <trkpt lat="44.2156" lon="6.81332">
        <ele>2625.98</ele>
        <time>2015-06-28T10:35:27Z</time>
      </trkpt>
      <trkpt lat="44.21548" lon="6.81336">
        <ele>2628.38</ele>
        <time>2015-06-28T10:35:41Z</time>
      </trkpt>
      <trkpt lat="44.21541" lon="6.81334">
        <ele>2628.38</ele>
        <time>2015-06-28T10:35:55Z</time>
      </trkpt>
      <trkpt lat="44.21537" lon="6.81337">
        <ele>2628.86</ele>
        <time>2015-06-28T10:36:07Z</time>
      </trkpt>
      <trkpt lat="44.21531" lon="6.81342">
        <ele>2630.3</ele>
        <time>2015-06-28T10:36:18Z</time>
      </trkpt>
      <trkpt lat="44.21523" lon="6.8135">
        <ele>2631.27</ele>
        <time>2015-06-28T10:36:30Z</time>
      </trkpt>
      <trkpt lat="44.21512" lon="6.81358">
        <ele>2632.71</ele>
        <time>2015-06-28T10:36:43Z</time>
      </trkpt>
      <trkpt lat="44.21507" lon="6.81361">
        <ele>2633.67</ele>
        <time>2015-06-28T10:37:03Z</time>
      </trkpt>
      <trkpt lat="44.21505" lon="6.81368">
        <ele>2634.15</ele>
        <time>2015-06-28T10:37:18Z</time>
      </trkpt>
      <trkpt lat="44.21495" lon="6.81376">
        <ele>2634.15</ele>
        <time>2015-06-28T10:37:31Z</time>
      </trkpt>
      <trkpt lat="44.21493" lon="6.81376">
        <ele>2633.19</ele>
        <time>2015-06-28T10:37:33Z</time>
      </trkpt>
      <trkpt lat="44.21487" lon="6.8137">
        <ele>2630.79</ele>
        <time>2015-06-28T10:37:38Z</time>
      </trkpt>
      <trkpt lat="44.21486" lon="6.81366">
        <ele>2630.79</ele>
        <time>2015-06-28T10:37:56Z</time>
      </trkpt>
      <trkpt lat="44.21485" lon="6.81366">
        <ele>2630.79</ele>
        <time>2015-06-28T10:37:59Z</time>
      </trkpt>
      <trkpt lat="44.21479" lon="6.81367">
        <ele>2629.82</ele>
        <time>2015-06-28T10:38:15Z</time>
      </trkpt>
      <trkpt lat="44.21477" lon="6.81368">
        <ele>2629.34</ele>
        <time>2015-06-28T10:38:26Z</time>
      </trkpt>
      <trkpt lat="44.21475" lon="6.81372">
        <ele>2629.82</ele>
        <time>2015-06-28T10:38:32Z</time>
      </trkpt>
      <trkpt lat="44.21474" lon="6.81369">
        <ele>2629.82</ele>
        <time>2015-06-28T10:38:44Z</time>
      </trkpt>
      <trkpt lat="44.21477" lon="6.81375">
        <ele>2629.82</ele>
        <time>2015-06-28T10:38:59Z</time>
      </trkpt>
      <trkpt lat="44.21477" lon="6.81377">
        <ele>2629.82</ele>
        <time>2015-06-28T10:39:15Z</time>
      </trkpt>
      <trkpt lat="44.2148" lon="6.81378">
        <ele>2629.82</ele>
        <time>2015-06-28T10:39:46Z</time>
      </trkpt>
      <trkpt lat="44.21477" lon="6.81384">
        <ele>2628.86</ele>
        <time>2015-06-28T10:39:53Z</time>
      </trkpt>
      <trkpt lat="44.21481" lon="6.81395">
        <ele>2626.94</ele>
        <time>2015-06-28T10:40:06Z</time>
      </trkpt>
      <trkpt lat="44.21481" lon="6.81398">
        <ele>2626.94</ele>
        <time>2015-06-28T10:40:12Z</time>
      </trkpt>
      <trkpt lat="44.21482" lon="6.81402">
        <ele>2626.94</ele>
        <time>2015-06-28T10:40:15Z</time>
      </trkpt>
      <trkpt lat="44.21482" lon="6.81408">
        <ele>2625.5</ele>
        <time>2015-06-28T10:40:30Z</time>
      </trkpt>
      <trkpt lat="44.21482" lon="6.81418">
        <ele>2625.02</ele>
        <time>2015-06-28T10:40:50Z</time>
      </trkpt>
      <trkpt lat="44.21483" lon="6.81433">
        <ele>2622.61</ele>
        <time>2015-06-28T10:41:02Z</time>
      </trkpt>
      <trkpt lat="44.21482" lon="6.81457">
        <ele>2620.69</ele>
        <time>2015-06-28T10:41:15Z</time>
      </trkpt>
      <trkpt lat="44.21482" lon="6.81466">
        <ele>2618.77</ele>
        <time>2015-06-28T10:41:21Z</time>
      </trkpt>
      <trkpt lat="44.21485" lon="6.81482">
        <ele>2617.33</ele>
        <time>2015-06-28T10:41:34Z</time>
      </trkpt>
      <trkpt lat="44.21485" lon="6.81486">
        <ele>2615.88</ele>
        <time>2015-06-28T10:41:50Z</time>
      </trkpt>
      <trkpt lat="44.21488" lon="6.81494">
        <ele>2615.88</ele>
        <time>2015-06-28T10:41:57Z</time>
      </trkpt>
      <trkpt lat="44.21488" lon="6.81511">
        <ele>2614.44</ele>
        <time>2015-06-28T10:42:08Z</time>
      </trkpt>
      <trkpt lat="44.21491" lon="6.81525">
        <ele>2613</ele>
        <time>2015-06-28T10:42:16Z</time>
      </trkpt>
      <trkpt lat="44.21487" lon="6.81548">
        <ele>2610.12</ele>
        <time>2015-06-28T10:42:30Z</time>
      </trkpt>
      <trkpt lat="44.21486" lon="6.81558">
        <ele>2609.16</ele>
        <time>2015-06-28T10:42:35Z</time>
      </trkpt>
      <trkpt lat="44.21484" lon="6.81567">
        <ele>2607.23</ele>
        <time>2015-06-28T10:42:41Z</time>
      </trkpt>
      <trkpt lat="44.21482" lon="6.81583">
        <ele>2605.31</ele>
        <time>2015-06-28T10:42:50Z</time>
      </trkpt>
      <trkpt lat="44.2148" lon="6.81599">
        <ele>2603.39</ele>
        <time>2015-06-28T10:43:01Z</time>
      </trkpt>
      <trkpt lat="44.21481" lon="6.81601">
        <ele>2602.91</ele>
        <time>2015-06-28T10:43:03Z</time>
      </trkpt>
      <trkpt lat="44.2148" lon="6.81608">
        <ele>2601.95</ele>
        <time>2015-06-28T10:43:08Z</time>
      </trkpt>
      <trkpt lat="44.21483" lon="6.81626">
        <ele>2600.02</ele>
        <time>2015-06-28T10:43:21Z</time>
      </trkpt>
      <trkpt lat="44.21484" lon="6.81633">
        <ele>2599.54</ele>
        <time>2015-06-28T10:43:25Z</time>
      </trkpt>
      <trkpt lat="44.21483" lon="6.81645">
        <ele>2598.1</ele>
        <time>2015-06-28T10:43:34Z</time>
      </trkpt>
      <trkpt lat="44.21484" lon="6.81651">
        <ele>2597.62</ele>
        <time>2015-06-28T10:43:41Z</time>
      </trkpt>
      <trkpt lat="44.21484" lon="6.81653">
        <ele>2597.14</ele>
        <time>2015-06-28T10:43:42Z</time>
      </trkpt>
      <trkpt lat="44.21484" lon="6.81656">
        <ele>2596.66</ele>
        <time>2015-06-28T10:43:45Z</time>
      </trkpt>
      <trkpt lat="44.21486" lon="6.81662">
        <ele>2596.18</ele>
        <time>2015-06-28T10:43:49Z</time>
      </trkpt>
      <trkpt lat="44.21486" lon="6.81665">
        <ele>2595.22</ele>
        <time>2015-06-28T10:43:53Z</time>
      </trkpt>
      <trkpt lat="44.21485" lon="6.81667">
        <ele>2594.74</ele>
        <time>2015-06-28T10:43:56Z</time>
      </trkpt>
      <trkpt lat="44.21485" lon="6.81672">
        <ele>2593.77</ele>
        <time>2015-06-28T10:44:03Z</time>
      </trkpt>
      <trkpt lat="44.21482" lon="6.81678">
        <ele>2592.81</ele>
        <time>2015-06-28T10:44:10Z</time>
      </trkpt>
      <trkpt lat="44.2148" lon="6.8169">
        <ele>2589.45</ele>
        <time>2015-06-28T10:44:21Z</time>
      </trkpt>
      <trkpt lat="44.21481" lon="6.81693">
        <ele>2589.45</ele>
        <time>2015-06-28T10:44:31Z</time>
      </trkpt>
      <trkpt lat="44.2148" lon="6.81696">
        <ele>2588.49</ele>
        <time>2015-06-28T10:44:46Z</time>
      </trkpt>
      <trkpt lat="44.21479" lon="6.81701">
        <ele>2588.01</ele>
        <time>2015-06-28T10:44:51Z</time>
      </trkpt>
      <trkpt lat="44.2148" lon="6.81705">
        <ele>2588.01</ele>
        <time>2015-06-28T10:44:53Z</time>
      </trkpt>
      <trkpt lat="44.21475" lon="6.81716">
        <ele>2586.08</ele>
        <time>2015-06-28T10:45:04Z</time>
      </trkpt>
      <trkpt lat="44.21476" lon="6.81725">
        <ele>2585.6</ele>
        <time>2015-06-28T10:45:13Z</time>
      </trkpt>
      <trkpt lat="44.21476" lon="6.81726">
        <ele>2585.6</ele>
        <time>2015-06-28T10:45:14Z</time>
      </trkpt>
      <trkpt lat="44.21475" lon="6.81728">
        <ele>2585.6</ele>
        <time>2015-06-28T10:45:15Z</time>
      </trkpt>
      <trkpt lat="44.21475" lon="6.8173">
        <ele>2585.6</ele>
        <time>2015-06-28T10:45:16Z</time>
      </trkpt>
      <trkpt lat="44.21475" lon="6.81731">
        <ele>2585.12</ele>
        <time>2015-06-28T10:45:17Z</time>
      </trkpt>
      <trkpt lat="44.21473" lon="6.81739">
        <ele>2584.16</ele>
        <time>2015-06-28T10:45:22Z</time>
      </trkpt>
      <trkpt lat="44.21473" lon="6.81741">
        <ele>2584.16</ele>
        <time>2015-06-28T10:45:23Z</time>
      </trkpt>
      <trkpt lat="44.21473" lon="6.81742">
        <ele>2584.16</ele>
        <time>2015-06-28T10:45:24Z</time>
      </trkpt>
      <trkpt lat="44.21472" lon="6.81744">
        <ele>2584.16</ele>
        <time>2015-06-28T10:45:25Z</time>
      </trkpt>
      <trkpt lat="44.21472" lon="6.81745">
        <ele>2584.16</ele>
        <time>2015-06-28T10:45:26Z</time>
      </trkpt>
      <trkpt lat="44.21472" lon="6.81747">
        <ele>2583.68</ele>
        <time>2015-06-28T10:45:27Z</time>
      </trkpt>
      <trkpt lat="44.21471" lon="6.81748">
        <ele>2583.2</ele>
        <time>2015-06-28T10:45:28Z</time>
      </trkpt>
      <trkpt lat="44.21469" lon="6.81757">
        <ele>2581.76</ele>
        <time>2015-06-28T10:45:39Z</time>
      </trkpt>
      <trkpt lat="44.2147" lon="6.81767">
        <ele>2580.8</ele>
        <time>2015-06-28T10:45:59Z</time>
      </trkpt>
      <trkpt lat="44.21472" lon="6.81777">
        <ele>2580.32</ele>
        <time>2015-06-28T10:46:11Z</time>
      </trkpt>
      <trkpt lat="44.21469" lon="6.81781">
        <ele>2578.87</ele>
        <time>2015-06-28T10:46:15Z</time>
      </trkpt>
      <trkpt lat="44.21468" lon="6.81785">
        <ele>2578.87</ele>
        <time>2015-06-28T10:46:28Z</time>
      </trkpt>
      <trkpt lat="44.21466" lon="6.81785">
        <ele>2578.87</ele>
        <time>2015-06-28T10:46:50Z</time>
      </trkpt>
      <trkpt lat="44.21464" lon="6.81784">
        <ele>2578.87</ele>
        <time>2015-06-28T10:47:09Z</time>
      </trkpt>
      <trkpt lat="44.21463" lon="6.81787">
        <ele>2578.87</ele>
        <time>2015-06-28T10:47:27Z</time>
      </trkpt>
      <trkpt lat="44.21458" lon="6.81785">
        <ele>2578.87</ele>
        <time>2015-06-28T10:47:54Z</time>
      </trkpt>
      <trkpt lat="44.21457" lon="6.81782">
        <ele>2578.87</ele>
        <time>2015-06-28T10:48:26Z</time>
      </trkpt>
      <trkpt lat="44.21455" lon="6.8179">
        <ele>2578.87</ele>
        <time>2015-06-28T10:48:45Z</time>
      </trkpt>
      <trkpt lat="44.21456" lon="6.81791">
        <ele>2578.87</ele>
        <time>2015-06-28T10:49:05Z</time>
      </trkpt>
      <trkpt lat="44.21453" lon="6.81788">
        <ele>2580.32</ele>
        <time>2015-06-28T10:49:29Z</time>
      </trkpt>
      <trkpt lat="44.21453" lon="6.81786">
        <ele>2580.32</ele>
        <time>2015-06-28T10:50:00Z</time>
      </trkpt>
      <trkpt lat="44.21457" lon="6.81789">
        <ele>2580.32</ele>
        <time>2015-06-28T10:50:24Z</time>
      </trkpt>
      <trkpt lat="44.21458" lon="6.81793">
        <ele>2580.32</ele>
        <time>2015-06-28T10:50:46Z</time>
      </trkpt>
      <trkpt lat="44.21458" lon="6.8179">
        <ele>2580.32</ele>
        <time>2015-06-28T10:50:59Z</time>
      </trkpt>
      <trkpt lat="44.21457" lon="6.81795">
        <ele>2580.32</ele>
        <time>2015-06-28T10:51:14Z</time>
      </trkpt>
      <trkpt lat="44.21453" lon="6.81807">
        <ele>2580.32</ele>
        <time>2015-06-28T10:51:26Z</time>
      </trkpt>
      <trkpt lat="44.21453" lon="6.81809">
        <ele>2580.32</ele>
        <time>2015-06-28T10:51:27Z</time>
      </trkpt>
      <trkpt lat="44.21452" lon="6.8181">
        <ele>2580.32</ele>
        <time>2015-06-28T10:51:28Z</time>
      </trkpt>
      <trkpt lat="44.21452" lon="6.81813">
        <ele>2580.32</ele>
        <time>2015-06-28T10:51:31Z</time>
      </trkpt>
      <trkpt lat="44.21451" lon="6.81817">
        <ele>2580.32</ele>
        <time>2015-06-28T10:51:34Z</time>
      </trkpt>
      <trkpt lat="44.21451" lon="6.81825">
        <ele>2580.32</ele>
        <time>2015-06-28T10:51:40Z</time>
      </trkpt>
      <trkpt lat="44.21451" lon="6.81827">
        <ele>2580.32</ele>
        <time>2015-06-28T10:51:41Z</time>
      </trkpt>
      <trkpt lat="44.21444" lon="6.81841">
        <ele>2580.32</ele>
        <time>2015-06-28T10:51:54Z</time>
      </trkpt>
      <trkpt lat="44.2144" lon="6.81847">
        <ele>2580.32</ele>
        <time>2015-06-28T10:52:07Z</time>
      </trkpt>
      <trkpt lat="44.21433" lon="6.81854">
        <ele>2580.32</ele>
        <time>2015-06-28T10:52:19Z</time>
      </trkpt>
      <trkpt lat="44.21429" lon="6.8186">
        <ele>2580.32</ele>
        <time>2015-06-28T10:52:37Z</time>
      </trkpt>
      <trkpt lat="44.21425" lon="6.81868">
        <ele>2581.76</ele>
        <time>2015-06-28T10:52:47Z</time>
      </trkpt>
      <trkpt lat="44.21424" lon="6.81871">
        <ele>2581.76</ele>
        <time>2015-06-28T10:52:49Z</time>
      </trkpt>
      <trkpt lat="44.21416" lon="6.81879">
        <ele>2582.72</ele>
        <time>2015-06-28T10:53:01Z</time>
      </trkpt>
      <trkpt lat="44.2141" lon="6.81887">
        <ele>2584.16</ele>
        <time>2015-06-28T10:53:12Z</time>
      </trkpt>
      <trkpt lat="44.21402" lon="6.8189">
        <ele>2586.08</ele>
        <time>2015-06-28T10:53:23Z</time>
      </trkpt>
      <trkpt lat="44.21401" lon="6.8189">
        <ele>2586.08</ele>
        <time>2015-06-28T10:53:24Z</time>
      </trkpt>
      <trkpt lat="44.21394" lon="6.81895">
        <ele>2588.49</ele>
        <time>2015-06-28T10:53:36Z</time>
      </trkpt>
      <trkpt lat="44.2139" lon="6.81896">
        <ele>2588.97</ele>
        <time>2015-06-28T10:53:40Z</time>
      </trkpt>
      <trkpt lat="44.2138" lon="6.819">
        <ele>2590.41</ele>
        <time>2015-06-28T10:53:52Z</time>
      </trkpt>
      <trkpt lat="44.21374" lon="6.81908">
        <ele>2591.85</ele>
        <time>2015-06-28T10:54:05Z</time>
      </trkpt>
      <trkpt lat="44.21371" lon="6.81911">
        <ele>2593.29</ele>
        <time>2015-06-28T10:54:11Z</time>
      </trkpt>
      <trkpt lat="44.21362" lon="6.81914">
        <ele>2594.74</ele>
        <time>2015-06-28T10:54:25Z</time>
      </trkpt>
      <trkpt lat="44.2136" lon="6.81915">
        <ele>2595.22</ele>
        <time>2015-06-28T10:54:27Z</time>
      </trkpt>
      <trkpt lat="44.21358" lon="6.81916">
        <ele>2596.18</ele>
        <time>2015-06-28T10:54:30Z</time>
      </trkpt>
      <trkpt lat="44.21356" lon="6.81917">
        <ele>2596.18</ele>
        <time>2015-06-28T10:54:32Z</time>
      </trkpt>
      <trkpt lat="44.21354" lon="6.81917">
        <ele>2596.18</ele>
        <time>2015-06-28T10:54:35Z</time>
      </trkpt>
      <trkpt lat="44.2135" lon="6.81915">
        <ele>2597.62</ele>
        <time>2015-06-28T10:54:40Z</time>
      </trkpt>
      <trkpt lat="44.21347" lon="6.81916">
        <ele>2599.06</ele>
        <time>2015-06-28T10:54:44Z</time>
      </trkpt>
      <trkpt lat="44.21335" lon="6.8192">
        <ele>2601.46</ele>
        <time>2015-06-28T10:54:59Z</time>
      </trkpt>
      <trkpt lat="44.21326" lon="6.81925">
        <ele>2603.87</ele>
        <time>2015-06-28T10:55:12Z</time>
      </trkpt>
      <trkpt lat="44.21318" lon="6.81933">
        <ele>2606.75</ele>
        <time>2015-06-28T10:55:26Z</time>
      </trkpt>
      <trkpt lat="44.21313" lon="6.81939">
        <ele>2609.16</ele>
        <time>2015-06-28T10:55:38Z</time>
      </trkpt>
      <trkpt lat="44.21308" lon="6.81944">
        <ele>2610.6</ele>
        <time>2015-06-28T10:55:50Z</time>
      </trkpt>
      <trkpt lat="44.21303" lon="6.81956">
        <ele>2613</ele>
        <time>2015-06-28T10:56:06Z</time>
      </trkpt>
      <trkpt lat="44.213" lon="6.81963">
        <ele>2613.96</ele>
        <time>2015-06-28T10:56:23Z</time>
      </trkpt>
      <trkpt lat="44.21301" lon="6.8197">
        <ele>2615.4</ele>
        <time>2015-06-28T10:56:39Z</time>
      </trkpt>
      <trkpt lat="44.213" lon="6.81974">
        <ele>2615.4</ele>
        <time>2015-06-28T10:56:52Z</time>
      </trkpt>
      <trkpt lat="44.21299" lon="6.81977">
        <ele>2616.37</ele>
        <time>2015-06-28T10:57:12Z</time>
      </trkpt>
      <trkpt lat="44.21293" lon="6.81983">
        <ele>2617.33</ele>
        <time>2015-06-28T10:57:21Z</time>
      </trkpt>
      <trkpt lat="44.21293" lon="6.81992">
        <ele>2618.29</ele>
        <time>2015-06-28T10:57:33Z</time>
      </trkpt>
      <trkpt lat="44.21294" lon="6.81989">
        <ele>2618.29</ele>
        <time>2015-06-28T10:57:55Z</time>
      </trkpt>
      <trkpt lat="44.21292" lon="6.81991">
        <ele>2618.29</ele>
        <time>2015-06-28T10:57:58Z</time>
      </trkpt>
      <trkpt lat="44.2129" lon="6.81999">
        <ele>2618.77</ele>
        <time>2015-06-28T10:58:10Z</time>
      </trkpt>
      <trkpt lat="44.21286" lon="6.82005">
        <ele>2619.25</ele>
        <time>2015-06-28T10:58:18Z</time>
      </trkpt>
      <trkpt lat="44.21285" lon="6.82007">
        <ele>2619.25</ele>
        <time>2015-06-28T10:58:21Z</time>
      </trkpt>
      <trkpt lat="44.21277" lon="6.82022">
        <ele>2621.65</ele>
        <time>2015-06-28T10:58:35Z</time>
      </trkpt>
      <trkpt lat="44.21277" lon="6.82024">
        <ele>2621.65</ele>
        <time>2015-06-28T10:58:37Z</time>
      </trkpt>
      <trkpt lat="44.21273" lon="6.82028">
        <ele>2622.61</ele>
        <time>2015-06-28T10:58:42Z</time>
      </trkpt>
      <trkpt lat="44.21265" lon="6.82041">
        <ele>2623.58</ele>
        <time>2015-06-28T10:58:56Z</time>
      </trkpt>
      <trkpt lat="44.21263" lon="6.82047">
        <ele>2624.06</ele>
        <time>2015-06-28T10:59:02Z</time>
      </trkpt>
      <trkpt lat="44.21261" lon="6.82049">
        <ele>2624.54</ele>
        <time>2015-06-28T10:59:04Z</time>
      </trkpt>
      <trkpt lat="44.21259" lon="6.82052">
        <ele>2625.02</ele>
        <time>2015-06-28T10:59:08Z</time>
      </trkpt>
      <trkpt lat="44.21258" lon="6.82056">
        <ele>2625.5</ele>
        <time>2015-06-28T10:59:12Z</time>
      </trkpt>
      <trkpt lat="44.21258" lon="6.82064">
        <ele>2626.94</ele>
        <time>2015-06-28T10:59:18Z</time>
      </trkpt>
      <trkpt lat="44.21257" lon="6.82067">
        <ele>2627.9</ele>
        <time>2015-06-28T10:59:21Z</time>
      </trkpt>
      <trkpt lat="44.21259" lon="6.82073">
        <ele>2628.86</ele>
        <time>2015-06-28T10:59:34Z</time>
      </trkpt>
      <trkpt lat="44.21259" lon="6.82074">
        <ele>2628.86</ele>
        <time>2015-06-28T10:59:37Z</time>
      </trkpt>
      <trkpt lat="44.21255" lon="6.82089">
        <ele>2630.3</ele>
        <time>2015-06-28T10:59:52Z</time>
      </trkpt>
      <trkpt lat="44.21256" lon="6.82093">
        <ele>2630.79</ele>
        <time>2015-06-28T10:59:56Z</time>
      </trkpt>
      <trkpt lat="44.21255" lon="6.82098">
        <ele>2630.79</ele>
        <time>2015-06-28T11:00:00Z</time>
      </trkpt>
      <trkpt lat="44.21252" lon="6.82113">
        <ele>2632.23</ele>
        <time>2015-06-28T11:00:16Z</time>
      </trkpt>
      <trkpt lat="44.21252" lon="6.8212">
        <ele>2633.19</ele>
        <time>2015-06-28T11:00:22Z</time>
      </trkpt>
      <trkpt lat="44.21252" lon="6.82137">
        <ele>2634.15</ele>
        <time>2015-06-28T11:00:37Z</time>
      </trkpt>
      <trkpt lat="44.21255" lon="6.82147">
        <ele>2636.07</ele>
        <time>2015-06-28T11:00:51Z</time>
      </trkpt>
      <trkpt lat="44.21256" lon="6.82148">
        <ele>2636.55</ele>
        <time>2015-06-28T11:01:03Z</time>
      </trkpt>
      <trkpt lat="44.21256" lon="6.82149">
        <ele>2637.51</ele>
        <time>2015-06-28T11:01:25Z</time>
      </trkpt>
      <trkpt lat="44.21255" lon="6.82158">
        <ele>2638.96</ele>
        <time>2015-06-28T11:01:36Z</time>
      </trkpt>
      <trkpt lat="44.21256" lon="6.82168">
        <ele>2641.36</ele>
        <time>2015-06-28T11:01:49Z</time>
      </trkpt>
      <trkpt lat="44.21255" lon="6.82177">
        <ele>2643.28</ele>
        <time>2015-06-28T11:02:01Z</time>
      </trkpt>
      <trkpt lat="44.21257" lon="6.82193">
        <ele>2644.72</ele>
        <time>2015-06-28T11:02:16Z</time>
      </trkpt>
      <trkpt lat="44.21257" lon="6.82199">
        <ele>2646.17</ele>
        <time>2015-06-28T11:02:29Z</time>
      </trkpt>
      <trkpt lat="44.21257" lon="6.822">
        <ele>2646.17</ele>
        <time>2015-06-28T11:02:54Z</time>
      </trkpt>
      <trkpt lat="44.21257" lon="6.82212">
        <ele>2646.17</ele>
        <time>2015-06-28T11:03:06Z</time>
      </trkpt>
      <trkpt lat="44.21254" lon="6.82218">
        <ele>2646.65</ele>
        <time>2015-06-28T11:03:14Z</time>
      </trkpt>
      <trkpt lat="44.21257" lon="6.82226">
        <ele>2649.53</ele>
        <time>2015-06-28T11:03:27Z</time>
      </trkpt>
      <trkpt lat="44.21259" lon="6.82233">
        <ele>2651.93</ele>
        <time>2015-06-28T11:03:41Z</time>
      </trkpt>
      <trkpt lat="44.21262" lon="6.82237">
        <ele>2653.86</ele>
        <time>2015-06-28T11:03:58Z</time>
      </trkpt>
      <trkpt lat="44.21262" lon="6.82243">
        <ele>2655.3</ele>
        <time>2015-06-28T11:04:14Z</time>
      </trkpt>
      <trkpt lat="44.21265" lon="6.82249">
        <ele>2658.66</ele>
        <time>2015-06-28T11:04:27Z</time>
      </trkpt>
      <trkpt lat="44.21267" lon="6.82255">
        <ele>2661.07</ele>
        <time>2015-06-28T11:04:40Z</time>
      </trkpt>
      <trkpt lat="44.21271" lon="6.82259">
        <ele>2664.43</ele>
        <time>2015-06-28T11:04:51Z</time>
      </trkpt>
      <trkpt lat="44.21273" lon="6.8226">
        <ele>2665.87</ele>
        <time>2015-06-28T11:04:56Z</time>
      </trkpt>
      <trkpt lat="44.21277" lon="6.82263">
        <ele>2668.76</ele>
        <time>2015-06-28T11:05:11Z</time>
      </trkpt>
      <trkpt lat="44.21283" lon="6.82265">
        <ele>2670.68</ele>
        <time>2015-06-28T11:05:27Z</time>
      </trkpt>
      <trkpt lat="44.21287" lon="6.82269">
        <ele>2672.6</ele>
        <time>2015-06-28T11:05:40Z</time>
      </trkpt>
      <trkpt lat="44.21287" lon="6.82271">
        <ele>2671.64</ele>
        <time>2015-06-28T11:05:53Z</time>
      </trkpt>
      <trkpt lat="44.21289" lon="6.82268">
        <ele>2671.16</ele>
        <time>2015-06-28T11:06:23Z</time>
      </trkpt>
      <trkpt lat="44.21288" lon="6.82272">
        <ele>2673.08</ele>
        <time>2015-06-28T11:06:42Z</time>
      </trkpt>
      <trkpt lat="44.21286" lon="6.82281">
        <ele>2674.52</ele>
        <time>2015-06-28T11:06:58Z</time>
      </trkpt>
      <trkpt lat="44.21284" lon="6.82291">
        <ele>2675.49</ele>
        <time>2015-06-28T11:07:11Z</time>
      </trkpt>
      <trkpt lat="44.2128" lon="6.823">
        <ele>2676.93</ele>
        <time>2015-06-28T11:07:25Z</time>
      </trkpt>
      <trkpt lat="44.21281" lon="6.82303">
        <ele>2676.93</ele>
        <time>2015-06-28T11:07:50Z</time>
      </trkpt>
      <trkpt lat="44.21281" lon="6.82304">
        <ele>2676.93</ele>
        <time>2015-06-28T11:07:54Z</time>
      </trkpt>
      <trkpt lat="44.2128" lon="6.82308">
        <ele>2676.93</ele>
        <time>2015-06-28T11:07:57Z</time>
      </trkpt>
      <trkpt lat="44.21276" lon="6.82319">
        <ele>2677.41</ele>
        <time>2015-06-28T11:08:13Z</time>
      </trkpt>
      <trkpt lat="44.21276" lon="6.8233">
        <ele>2678.85</ele>
        <time>2015-06-28T11:08:32Z</time>
      </trkpt>
      <trkpt lat="44.21276" lon="6.82332">
        <ele>2678.85</ele>
        <time>2015-06-28T11:08:34Z</time>
      </trkpt>
      <trkpt lat="44.21273" lon="6.82352">
        <ele>2680.77</ele>
        <time>2015-06-28T11:08:49Z</time>
      </trkpt>
      <trkpt lat="44.21271" lon="6.82362">
        <ele>2681.73</ele>
        <time>2015-06-28T11:08:59Z</time>
      </trkpt>
      <trkpt lat="44.2127" lon="6.82376">
        <ele>2684.14</ele>
        <time>2015-06-28T11:09:12Z</time>
      </trkpt>
      <trkpt lat="44.2127" lon="6.82377">
        <ele>2684.62</ele>
        <time>2015-06-28T11:09:23Z</time>
      </trkpt>
      <trkpt lat="44.21266" lon="6.82391">
        <ele>2685.1</ele>
        <time>2015-06-28T11:09:35Z</time>
      </trkpt>
      <trkpt lat="44.21264" lon="6.82398">
        <ele>2685.1</ele>
        <time>2015-06-28T11:09:40Z</time>
      </trkpt>
      <trkpt lat="44.2126" lon="6.82409">
        <ele>2683.66</ele>
        <time>2015-06-28T11:09:53Z</time>
      </trkpt>
      <trkpt lat="44.2126" lon="6.82409">
        <ele>2683.66</ele>
        <time>2015-06-28T11:10:13Z</time>
      </trkpt>
      <trkpt lat="44.21259" lon="6.8241">
        <ele>2683.18</ele>
        <time>2015-06-28T11:10:17Z</time>
      </trkpt>
      <trkpt lat="44.21256" lon="6.82413">
        <ele>2682.7</ele>
        <time>2015-06-28T11:10:22Z</time>
      </trkpt>
      <trkpt lat="44.21246" lon="6.82422">
        <ele>2680.77</ele>
        <time>2015-06-28T11:10:36Z</time>
      </trkpt>
      <trkpt lat="44.21238" lon="6.82429">
        <ele>2680.29</ele>
        <time>2015-06-28T11:10:47Z</time>
      </trkpt>
      <trkpt lat="44.21238" lon="6.82429">
        <ele>2680.29</ele>
        <time>2015-06-28T11:11:01Z</time>
      </trkpt>
      <trkpt lat="44.21239" lon="6.82434">
        <ele>2681.25</ele>
        <time>2015-06-28T11:11:13Z</time>
      </trkpt>
      <trkpt lat="44.21239" lon="6.82434">
        <ele>2679.81</ele>
        <time>2015-06-28T11:11:16Z</time>
      </trkpt>
      <trkpt lat="44.21238" lon="6.82435">
        <ele>2679.33</ele>
        <time>2015-06-28T11:11:28Z</time>
      </trkpt>
      <trkpt lat="44.21224" lon="6.82433">
        <ele>2678.37</ele>
        <time>2015-06-28T11:11:42Z</time>
      </trkpt>
      <trkpt lat="44.21208" lon="6.82441">
        <ele>2676.93</ele>
        <time>2015-06-28T11:11:57Z</time>
      </trkpt>
      <trkpt lat="44.21192" lon="6.82445">
        <ele>2676.93</ele>
        <time>2015-06-28T11:12:11Z</time>
      </trkpt>
      <trkpt lat="44.21176" lon="6.82453">
        <ele>2676.93</ele>
        <time>2015-06-28T11:12:24Z</time>
      </trkpt>
      <trkpt lat="44.21168" lon="6.82458">
        <ele>2678.37</ele>
        <time>2015-06-28T11:12:32Z</time>
      </trkpt>
      <trkpt lat="44.21166" lon="6.82459">
        <ele>2678.37</ele>
        <time>2015-06-28T11:12:35Z</time>
      </trkpt>
      <trkpt lat="44.21162" lon="6.82462">
        <ele>2679.81</ele>
        <time>2015-06-28T11:12:48Z</time>
      </trkpt>
      <trkpt lat="44.21161" lon="6.82462">
        <ele>2679.81</ele>
        <time>2015-06-28T11:12:51Z</time>
      </trkpt>
      <trkpt lat="44.21151" lon="6.82462">
        <ele>2679.81</ele>
        <time>2015-06-28T11:13:01Z</time>
      </trkpt>
      <trkpt lat="44.21146" lon="6.82463">
        <ele>2678.37</ele>
        <time>2015-06-28T11:13:05Z</time>
      </trkpt>
      <trkpt lat="44.21131" lon="6.82465">
        <ele>2675.97</ele>
        <time>2015-06-28T11:13:20Z</time>
      </trkpt>
      <trkpt lat="44.21127" lon="6.82467">
        <ele>2675.97</ele>
        <time>2015-06-28T11:13:35Z</time>
      </trkpt>
      <trkpt lat="44.21123" lon="6.82471">
        <ele>2675.49</ele>
        <time>2015-06-28T11:13:47Z</time>
      </trkpt>
      <trkpt lat="44.21121" lon="6.82475">
        <ele>2676.93</ele>
        <time>2015-06-28T11:14:09Z</time>
      </trkpt>
      <trkpt lat="44.21119" lon="6.82477">
        <ele>2676.93</ele>
        <time>2015-06-28T11:14:24Z</time>
      </trkpt>
      <trkpt lat="44.21107" lon="6.82486">
        <ele>2677.41</ele>
        <time>2015-06-28T11:14:37Z</time>
      </trkpt>
      <trkpt lat="44.211" lon="6.82492">
        <ele>2678.85</ele>
        <time>2015-06-28T11:14:46Z</time>
      </trkpt>
      <trkpt lat="44.21096" lon="6.82493">
        <ele>2680.29</ele>
        <time>2015-06-28T11:14:59Z</time>
      </trkpt>
      <trkpt lat="44.21098" lon="6.82492">
        <ele>2682.7</ele>
        <time>2015-06-28T11:15:01Z</time>
      </trkpt>
      <trkpt lat="44.21097" lon="6.82493">
        <ele>2679.33</ele>
        <time>2015-06-28T11:15:04Z</time>
      </trkpt>
      <trkpt lat="44.21096" lon="6.82494">
        <ele>2679.33</ele>
        <time>2015-06-28T11:15:05Z</time>
      </trkpt>
      <trkpt lat="44.21095" lon="6.82495">
        <ele>2681.25</ele>
        <time>2015-06-28T11:15:08Z</time>
      </trkpt>
      <trkpt lat="44.21094" lon="6.82496">
        <ele>2681.25</ele>
        <time>2015-06-28T11:15:10Z</time>
      </trkpt>
      <trkpt lat="44.21086" lon="6.82505">
        <ele>2682.22</ele>
        <time>2015-06-28T11:15:24Z</time>
      </trkpt>
      <trkpt lat="44.21087" lon="6.82503">
        <ele>2682.7</ele>
        <time>2015-06-28T11:15:37Z</time>
      </trkpt>
      <trkpt lat="44.21084" lon="6.82505">
        <ele>2682.7</ele>
        <time>2015-06-28T11:15:40Z</time>
      </trkpt>
      <trkpt lat="44.21073" lon="6.82513">
        <ele>2683.66</ele>
        <time>2015-06-28T11:15:53Z</time>
      </trkpt>
      <trkpt lat="44.21064" lon="6.8252">
        <ele>2685.1</ele>
        <time>2015-06-28T11:16:04Z</time>
      </trkpt>
      <trkpt lat="44.21061" lon="6.82522">
        <ele>2685.1</ele>
        <time>2015-06-28T11:16:17Z</time>
      </trkpt>
      <trkpt lat="44.21059" lon="6.82525">
        <ele>2685.1</ele>
        <time>2015-06-28T11:16:23Z</time>
      </trkpt>
      <trkpt lat="44.21048" lon="6.82533">
        <ele>2687.02</ele>
        <time>2015-06-28T11:16:35Z</time>
      </trkpt>
      <trkpt lat="44.21037" lon="6.82545">
        <ele>2687.98</ele>
        <time>2015-06-28T11:16:49Z</time>
      </trkpt>
      <trkpt lat="44.2103" lon="6.82555">
        <ele>2688.94</ele>
        <time>2015-06-28T11:16:59Z</time>
      </trkpt>
      <trkpt lat="44.21026" lon="6.82561">
        <ele>2689.91</ele>
        <time>2015-06-28T11:17:05Z</time>
      </trkpt>
      <trkpt lat="44.21017" lon="6.82572">
        <ele>2691.35</ele>
        <time>2015-06-28T11:17:17Z</time>
      </trkpt>
      <trkpt lat="44.21012" lon="6.82581">
        <ele>2692.31</ele>
        <time>2015-06-28T11:17:26Z</time>
      </trkpt>
      <trkpt lat="44.21009" lon="6.82587">
        <ele>2693.27</ele>
        <time>2015-06-28T11:17:32Z</time>
      </trkpt>
      <trkpt lat="44.21009" lon="6.8259">
        <ele>2693.75</ele>
        <time>2015-06-28T11:17:46Z</time>
      </trkpt>
      <trkpt lat="44.21008" lon="6.82591">
        <ele>2693.75</ele>
        <time>2015-06-28T11:17:49Z</time>
      </trkpt>
      <trkpt lat="44.20998" lon="6.82597">
        <ele>2694.71</ele>
        <time>2015-06-28T11:18:01Z</time>
      </trkpt>
      <trkpt lat="44.20997" lon="6.82598">
        <ele>2695.19</ele>
        <time>2015-06-28T11:18:02Z</time>
      </trkpt>
      <trkpt lat="44.20989" lon="6.82605">
        <ele>2697.12</ele>
        <time>2015-06-28T11:18:13Z</time>
      </trkpt>
      <trkpt lat="44.20985" lon="6.82609">
        <ele>2698.08</ele>
        <time>2015-06-28T11:18:19Z</time>
      </trkpt>
      <trkpt lat="44.20982" lon="6.8261">
        <ele>2698.56</ele>
        <time>2015-06-28T11:18:23Z</time>
      </trkpt>
      <trkpt lat="44.20978" lon="6.82612">
        <ele>2700</ele>
        <time>2015-06-28T11:18:28Z</time>
      </trkpt>
      <trkpt lat="44.20971" lon="6.82623">
        <ele>2701.44</ele>
        <time>2015-06-28T11:18:42Z</time>
      </trkpt>
      <trkpt lat="44.20971" lon="6.82632">
        <ele>2701.92</ele>
        <time>2015-06-28T11:18:55Z</time>
      </trkpt>
      <trkpt lat="44.20966" lon="6.82639">
        <ele>2702.88</ele>
        <time>2015-06-28T11:19:06Z</time>
      </trkpt>
      <trkpt lat="44.20965" lon="6.82641">
        <ele>2703.85</ele>
        <time>2015-06-28T11:19:09Z</time>
      </trkpt>
      <trkpt lat="44.20966" lon="6.82642">
        <ele>2702.88</ele>
        <time>2015-06-28T11:19:12Z</time>
      </trkpt>
      <trkpt lat="44.20961" lon="6.82644">
        <ele>2703.85</ele>
        <time>2015-06-28T11:19:27Z</time>
      </trkpt>
      <trkpt lat="44.2096" lon="6.82644">
        <ele>2703.85</ele>
        <time>2015-06-28T11:19:28Z</time>
      </trkpt>
      <trkpt lat="44.20956" lon="6.82645">
        <ele>2704.81</ele>
        <time>2015-06-28T11:19:33Z</time>
      </trkpt>
      <trkpt lat="44.2095" lon="6.82652">
        <ele>2706.73</ele>
        <time>2015-06-28T11:19:43Z</time>
      </trkpt>
      <trkpt lat="44.20942" lon="6.82661">
        <ele>2708.65</ele>
        <time>2015-06-28T11:19:56Z</time>
      </trkpt>
      <trkpt lat="44.20942" lon="6.82661">
        <ele>2707.69</ele>
        <time>2015-06-28T11:20:08Z</time>
      </trkpt>
      <trkpt lat="44.20941" lon="6.82666">
        <ele>2709.13</ele>
        <time>2015-06-28T11:20:25Z</time>
      </trkpt>
      <trkpt lat="44.20933" lon="6.82674">
        <ele>2712.02</ele>
        <time>2015-06-28T11:20:39Z</time>
      </trkpt>
      <trkpt lat="44.20931" lon="6.82676">
        <ele>2712.5</ele>
        <time>2015-06-28T11:20:42Z</time>
      </trkpt>
      <trkpt lat="44.20925" lon="6.82684">
        <ele>2714.9</ele>
        <time>2015-06-28T11:20:54Z</time>
      </trkpt>
      <trkpt lat="44.20919" lon="6.8269">
        <ele>2716.82</ele>
        <time>2015-06-28T11:21:06Z</time>
      </trkpt>
      <trkpt lat="44.20912" lon="6.82695">
        <ele>2718.75</ele>
        <time>2015-06-28T11:21:17Z</time>
      </trkpt>
      <trkpt lat="44.20911" lon="6.82695">
        <ele>2719.23</ele>
        <time>2015-06-28T11:21:19Z</time>
      </trkpt>
      <trkpt lat="44.20902" lon="6.82702">
        <ele>2721.15</ele>
        <time>2015-06-28T11:21:34Z</time>
      </trkpt>
      <trkpt lat="44.20895" lon="6.82706">
        <ele>2722.59</ele>
        <time>2015-06-28T11:21:47Z</time>
      </trkpt>
      <trkpt lat="44.20887" lon="6.82709">
        <ele>2725.48</ele>
        <time>2015-06-28T11:22:01Z</time>
      </trkpt>
      <trkpt lat="44.20881" lon="6.82716">
        <ele>2727.4</ele>
        <time>2015-06-28T11:22:15Z</time>
      </trkpt>
      <trkpt lat="44.20882" lon="6.82718">
        <ele>2727.88</ele>
        <time>2015-06-28T11:22:30Z</time>
      </trkpt>
      <trkpt lat="44.20878" lon="6.82719">
        <ele>2729.32</ele>
        <time>2015-06-28T11:22:45Z</time>
      </trkpt>
      <trkpt lat="44.2087" lon="6.82722">
        <ele>2732.2</ele>
        <time>2015-06-28T11:22:58Z</time>
      </trkpt>
      <trkpt lat="44.20869" lon="6.82723">
        <ele>2732.2</ele>
        <time>2015-06-28T11:23:05Z</time>
      </trkpt>
      <trkpt lat="44.20863" lon="6.82727">
        <ele>2733.65</ele>
        <time>2015-06-28T11:23:16Z</time>
      </trkpt>
      <trkpt lat="44.20854" lon="6.82731">
        <ele>2735.57</ele>
        <time>2015-06-28T11:23:31Z</time>
      </trkpt>
      <trkpt lat="44.20846" lon="6.82736">
        <ele>2737.01</ele>
        <time>2015-06-28T11:23:46Z</time>
      </trkpt>
      <trkpt lat="44.20843" lon="6.82736">
        <ele>2738.45</ele>
        <time>2015-06-28T11:23:51Z</time>
      </trkpt>
      <trkpt lat="44.20835" lon="6.82741">
        <ele>2740.38</ele>
        <time>2015-06-28T11:24:05Z</time>
      </trkpt>
      <trkpt lat="44.20832" lon="6.82742">
        <ele>2740.86</ele>
        <time>2015-06-28T11:24:09Z</time>
      </trkpt>
      <trkpt lat="44.2083" lon="6.82742">
        <ele>2742.3</ele>
        <time>2015-06-28T11:24:12Z</time>
      </trkpt>
      <trkpt lat="44.20828" lon="6.82742">
        <ele>2742.78</ele>
        <time>2015-06-28T11:24:14Z</time>
      </trkpt>
      <trkpt lat="44.2082" lon="6.82745">
        <ele>2743.74</ele>
        <time>2015-06-28T11:24:27Z</time>
      </trkpt>
      <trkpt lat="44.20814" lon="6.82746">
        <ele>2745.66</ele>
        <time>2015-06-28T11:24:43Z</time>
      </trkpt>
      <trkpt lat="44.20805" lon="6.82747">
        <ele>2748.07</ele>
        <time>2015-06-28T11:25:01Z</time>
      </trkpt>
      <trkpt lat="44.20797" lon="6.82751">
        <ele>2749.51</ele>
        <time>2015-06-28T11:25:17Z</time>
      </trkpt>
      <trkpt lat="44.20788" lon="6.8275">
        <ele>2750.95</ele>
        <time>2015-06-28T11:25:31Z</time>
      </trkpt>
      <trkpt lat="44.20779" lon="6.8275">
        <ele>2751.91</ele>
        <time>2015-06-28T11:25:45Z</time>
      </trkpt>
      <trkpt lat="44.20774" lon="6.82752">
        <ele>2754.31</ele>
        <time>2015-06-28T11:26:00Z</time>
      </trkpt>
      <trkpt lat="44.20771" lon="6.82752">
        <ele>2755.76</ele>
        <time>2015-06-28T11:26:06Z</time>
      </trkpt>
      <trkpt lat="44.20765" lon="6.82756">
        <ele>2757.68</ele>
        <time>2015-06-28T11:26:21Z</time>
      </trkpt>
      <trkpt lat="44.20757" lon="6.82758">
        <ele>2760.08</ele>
        <time>2015-06-28T11:26:34Z</time>
      </trkpt>
      <trkpt lat="44.20749" lon="6.82757">
        <ele>2761.04</ele>
        <time>2015-06-28T11:26:48Z</time>
      </trkpt>
      <trkpt lat="44.20741" lon="6.82756">
        <ele>2762.49</ele>
        <time>2015-06-28T11:27:01Z</time>
      </trkpt>
      <trkpt lat="44.20734" lon="6.82759">
        <ele>2764.41</ele>
        <time>2015-06-28T11:27:16Z</time>
      </trkpt>
      <trkpt lat="44.20726" lon="6.82756">
        <ele>2767.29</ele>
        <time>2015-06-28T11:27:31Z</time>
      </trkpt>
      <trkpt lat="44.20718" lon="6.82756">
        <ele>2767.77</ele>
        <time>2015-06-28T11:27:43Z</time>
      </trkpt>
      <trkpt lat="44.20712" lon="6.82755">
        <ele>2769.21</ele>
        <time>2015-06-28T11:27:55Z</time>
      </trkpt>
      <trkpt lat="44.20706" lon="6.82755">
        <ele>2770.66</ele>
        <time>2015-06-28T11:28:06Z</time>
      </trkpt>
      <trkpt lat="44.20703" lon="6.82757">
        <ele>2774.5</ele>
        <time>2015-06-28T11:28:17Z</time>
      </trkpt>
      <trkpt lat="44.207" lon="6.82761">
        <ele>2775.46</ele>
        <time>2015-06-28T11:28:31Z</time>
      </trkpt>
      <trkpt lat="44.20699" lon="6.82762">
        <ele>2775.94</ele>
        <time>2015-06-28T11:28:52Z</time>
      </trkpt>
      <trkpt lat="44.20694" lon="6.82758">
        <ele>2776.91</ele>
        <time>2015-06-28T11:29:04Z</time>
      </trkpt>
      <trkpt lat="44.20689" lon="6.82763">
        <ele>2780.27</ele>
        <time>2015-06-28T11:29:17Z</time>
      </trkpt>
      <trkpt lat="44.20683" lon="6.82766">
        <ele>2782.19</ele>
        <time>2015-06-28T11:29:31Z</time>
      </trkpt>
      <trkpt lat="44.20676" lon="6.82769">
        <ele>2786.04</ele>
        <time>2015-06-28T11:29:45Z</time>
      </trkpt>
      <trkpt lat="44.2067" lon="6.8277">
        <ele>2787.96</ele>
        <time>2015-06-28T11:30:00Z</time>
      </trkpt>
      <trkpt lat="44.20667" lon="6.82771">
        <ele>2789.88</ele>
        <time>2015-06-28T11:30:15Z</time>
      </trkpt>
      <trkpt lat="44.2066" lon="6.82772">
        <ele>2792.29</ele>
        <time>2015-06-28T11:30:31Z</time>
      </trkpt>
      <trkpt lat="44.20658" lon="6.82776">
        <ele>2795.17</ele>
        <time>2015-06-28T11:30:46Z</time>
      </trkpt>
      <trkpt lat="44.20654" lon="6.82777">
        <ele>2798.05</ele>
        <time>2015-06-28T11:30:58Z</time>
      </trkpt>
      <trkpt lat="44.20653" lon="6.82781">
        <ele>2799.02</ele>
        <time>2015-06-28T11:31:10Z</time>
      </trkpt>
      <trkpt lat="44.20647" lon="6.82779">
        <ele>2799.98</ele>
        <time>2015-06-28T11:31:27Z</time>
      </trkpt>
      <trkpt lat="44.2064" lon="6.82779">
        <ele>2801.9</ele>
        <time>2015-06-28T11:31:41Z</time>
      </trkpt>
      <trkpt lat="44.20633" lon="6.8278">
        <ele>2803.34</ele>
        <time>2015-06-28T11:31:57Z</time>
      </trkpt>
      <trkpt lat="44.20629" lon="6.82783">
        <ele>2805.26</ele>
        <time>2015-06-28T11:32:10Z</time>
      </trkpt>
      <trkpt lat="44.20623" lon="6.82788">
        <ele>2808.63</ele>
        <time>2015-06-28T11:32:23Z</time>
      </trkpt>
      <trkpt lat="44.20616" lon="6.82788">
        <ele>2811.99</ele>
        <time>2015-06-28T11:32:34Z</time>
      </trkpt>
      <trkpt lat="44.2061" lon="6.82792">
        <ele>2813.44</ele>
        <time>2015-06-28T11:32:47Z</time>
      </trkpt>
      <trkpt lat="44.20606" lon="6.82794">
        <ele>2814.4</ele>
        <time>2015-06-28T11:32:55Z</time>
      </trkpt>
      <trkpt lat="44.20604" lon="6.82797">
        <ele>2813.92</ele>
        <time>2015-06-28T11:33:11Z</time>
      </trkpt>
      <trkpt lat="44.20601" lon="6.82796">
        <ele>2813.92</ele>
        <time>2015-06-28T11:33:23Z</time>
      </trkpt>
      <trkpt lat="44.20601" lon="6.82796">
        <ele>2815.36</ele>
        <time>2015-06-28T11:33:29Z</time>
      </trkpt>
      <trkpt lat="44.20601" lon="6.82796">
        <ele>2813.92</ele>
        <time>2015-06-28T11:33:37Z</time>
      </trkpt>
      <trkpt lat="44.20602" lon="6.82796">
        <ele>2813.92</ele>
        <time>2015-06-28T11:34:04Z</time>
      </trkpt>
      <trkpt lat="44.20602" lon="6.82792">
        <ele>2815.36</ele>
        <time>2015-06-28T11:34:36Z</time>
      </trkpt>
      <trkpt lat="44.20602" lon="6.82793">
        <ele>2815.36</ele>
        <time>2015-06-28T11:35:01Z</time>
      </trkpt>
      <trkpt lat="44.20603" lon="6.82799">
        <ele>2816.32</ele>
        <time>2015-06-28T11:35:17Z</time>
      </trkpt>
      <trkpt lat="44.20602" lon="6.82798">
        <ele>2816.32</ele>
        <time>2015-06-28T11:35:36Z</time>
      </trkpt>
      <trkpt lat="44.20603" lon="6.82796">
        <ele>2815.36</ele>
        <time>2015-06-28T11:35:40Z</time>
      </trkpt>
      <trkpt lat="44.20601" lon="6.82797">
        <ele>2816.32</ele>
        <time>2015-06-28T11:35:47Z</time>
      </trkpt>
      <trkpt lat="44.20599" lon="6.82797">
        <ele>2815.36</ele>
        <time>2015-06-28T11:36:09Z</time>
      </trkpt>
      <trkpt lat="44.20599" lon="6.82797">
        <ele>2817.28</ele>
        <time>2015-06-28T11:36:38Z</time>
      </trkpt>
      <trkpt lat="44.20599" lon="6.82797">
        <ele>2817.28</ele>
        <time>2015-06-28T11:37:07Z</time>
      </trkpt>
      <trkpt lat="44.20599" lon="6.82799">
        <ele>2817.28</ele>
        <time>2015-06-28T11:37:36Z</time>
      </trkpt>
      <trkpt lat="44.20599" lon="6.82799">
        <ele>2817.28</ele>
        <time>2015-06-28T11:37:58Z</time>
      </trkpt>
      <trkpt lat="44.20599" lon="6.82799">
        <ele>2815.84</ele>
        <time>2015-06-28T11:38:05Z</time>
      </trkpt>
      <trkpt lat="44.20599" lon="6.82798">
        <ele>2817.28</ele>
        <time>2015-06-28T11:38:12Z</time>
      </trkpt>
      <trkpt lat="44.20598" lon="6.82797">
        <ele>2816.32</ele>
        <time>2015-06-28T11:38:37Z</time>
      </trkpt>
      <trkpt lat="44.20597" lon="6.82798">
        <ele>2815.84</ele>
        <time>2015-06-28T11:38:51Z</time>
      </trkpt>
      <trkpt lat="44.20598" lon="6.82799">
        <ele>2815.84</ele>
        <time>2015-06-28T11:39:10Z</time>
      </trkpt>
      <trkpt lat="44.20599" lon="6.82799">
        <ele>2815.84</ele>
        <time>2015-06-28T11:39:30Z</time>
      </trkpt>
      <trkpt lat="44.206" lon="6.82797">
        <ele>2816.8</ele>
        <time>2015-06-28T11:40:04Z</time>
      </trkpt>
      <trkpt lat="44.206" lon="6.82797">
        <ele>2815.84</ele>
        <time>2015-06-28T11:40:06Z</time>
      </trkpt>
      <trkpt lat="44.20599" lon="6.82798">
        <ele>2815.36</ele>
        <time>2015-06-28T11:40:26Z</time>
      </trkpt>
      <trkpt lat="44.20598" lon="6.82799">
        <ele>2815.36</ele>
        <time>2015-06-28T11:40:52Z</time>
      </trkpt>
      <trkpt lat="44.20598" lon="6.82798">
        <ele>2815.36</ele>
        <time>2015-06-28T11:41:25Z</time>
      </trkpt>
      <trkpt lat="44.20597" lon="6.82798">
        <ele>2815.36</ele>
        <time>2015-06-28T11:41:53Z</time>
      </trkpt>
      <trkpt lat="44.20597" lon="6.82798">
        <ele>2815.36</ele>
        <time>2015-06-28T11:42:25Z</time>
      </trkpt>
      <trkpt lat="44.20597" lon="6.82798">
        <ele>2815.84</ele>
        <time>2015-06-28T11:42:50Z</time>
      </trkpt>
      <trkpt lat="44.20598" lon="6.82798">
        <ele>2815.84</ele>
        <time>2015-06-28T11:43:14Z</time>
      </trkpt>
      <trkpt lat="44.20598" lon="6.82799">
        <ele>2817.76</ele>
        <time>2015-06-28T11:43:28Z</time>
      </trkpt>
      <trkpt lat="44.20598" lon="6.828">
        <ele>2816.32</ele>
        <time>2015-06-28T11:43:30Z</time>
      </trkpt>
      <trkpt lat="44.206" lon="6.828">
        <ele>2815.84</ele>
        <time>2015-06-28T11:43:57Z</time>
      </trkpt>
      <trkpt lat="44.206" lon="6.82798">
        <ele>2815.84</ele>
        <time>2015-06-28T11:44:19Z</time>
      </trkpt>
      <trkpt lat="44.206" lon="6.82797">
        <ele>2819.68</ele>
        <time>2015-06-28T11:44:30Z</time>
      </trkpt>
      <trkpt lat="44.206" lon="6.82797">
        <ele>2816.8</ele>
        <time>2015-06-28T11:44:31Z</time>
      </trkpt>
      <trkpt lat="44.20601" lon="6.82797">
        <ele>2818.72</ele>
        <time>2015-06-28T11:44:57Z</time>
      </trkpt>
      <trkpt lat="44.20601" lon="6.82797">
        <ele>2816.8</ele>
        <time>2015-06-28T11:44:59Z</time>
      </trkpt>
      <trkpt lat="44.206" lon="6.82798">
        <ele>2817.76</ele>
        <time>2015-06-28T11:45:07Z</time>
      </trkpt>
      <trkpt lat="44.206" lon="6.82797">
        <ele>2814.4</ele>
        <time>2015-06-28T11:45:34Z</time>
      </trkpt>
      <trkpt lat="44.206" lon="6.82797">
        <ele>2820.65</ele>
        <time>2015-06-28T11:45:35Z</time>
      </trkpt>
      <trkpt lat="44.20601" lon="6.82797">
        <ele>2816.8</ele>
        <time>2015-06-28T11:45:36Z</time>
      </trkpt>
      <trkpt lat="44.20599" lon="6.82799">
        <ele>2816.32</ele>
        <time>2015-06-28T11:45:56Z</time>
      </trkpt>
      <trkpt lat="44.206" lon="6.828">
        <ele>2816.32</ele>
        <time>2015-06-28T11:46:17Z</time>
      </trkpt>
      <trkpt lat="44.206" lon="6.828">
        <ele>2816.32</ele>
        <time>2015-06-28T11:46:37Z</time>
      </trkpt>
      <trkpt lat="44.206" lon="6.82799">
        <ele>2816.32</ele>
        <time>2015-06-28T11:46:58Z</time>
      </trkpt>
      <trkpt lat="44.20599" lon="6.82799">
        <ele>2817.76</ele>
        <time>2015-06-28T11:47:12Z</time>
      </trkpt>
      <trkpt lat="44.206" lon="6.82801">
        <ele>2817.76</ele>
        <time>2015-06-28T11:47:45Z</time>
      </trkpt>
      <trkpt lat="44.206" lon="6.82801">
        <ele>2817.28</ele>
        <time>2015-06-28T11:48:04Z</time>
      </trkpt>
      <trkpt lat="44.20599" lon="6.82801">
        <ele>2816.8</ele>
        <time>2015-06-28T11:48:28Z</time>
      </trkpt>
      <trkpt lat="44.20599" lon="6.828">
        <ele>2816.8</ele>
        <time>2015-06-28T11:48:48Z</time>
      </trkpt>
      <trkpt lat="44.20601" lon="6.82801">
        <ele>2816.8</ele>
        <time>2015-06-28T11:49:17Z</time>
      </trkpt>
      <trkpt lat="44.20602" lon="6.82801">
        <ele>2816.8</ele>
        <time>2015-06-28T11:49:38Z</time>
      </trkpt>
      <trkpt lat="44.20601" lon="6.82801">
        <ele>2816.8</ele>
        <time>2015-06-28T11:50:10Z</time>
      </trkpt>
      <trkpt lat="44.20601" lon="6.828">
        <ele>2816.8</ele>
        <time>2015-06-28T11:50:34Z</time>
      </trkpt>
      <trkpt lat="44.20602" lon="6.828">
        <ele>2816.8</ele>
        <time>2015-06-28T11:50:55Z</time>
      </trkpt>
      <trkpt lat="44.20601" lon="6.828">
        <ele>2816.8</ele>
        <time>2015-06-28T11:51:25Z</time>
      </trkpt>
      <trkpt lat="44.20601" lon="6.82801">
        <ele>2815.36</ele>
        <time>2015-06-28T11:51:59Z</time>
      </trkpt>
      <trkpt lat="44.20601" lon="6.82802">
        <ele>2815.36</ele>
        <time>2015-06-28T11:52:22Z</time>
      </trkpt>
      <trkpt lat="44.20604" lon="6.82804">
        <ele>2816.8</ele>
        <time>2015-06-28T11:52:49Z</time>
      </trkpt>
      <trkpt lat="44.20603" lon="6.82803">
        <ele>2816.8</ele>
        <time>2015-06-28T11:53:09Z</time>
      </trkpt>
      <trkpt lat="44.20603" lon="6.82803">
        <ele>2815.84</ele>
        <time>2015-06-28T11:53:34Z</time>
      </trkpt>
      <trkpt lat="44.20603" lon="6.82805">
        <ele>2815.84</ele>
        <time>2015-06-28T11:53:59Z</time>
      </trkpt>
      <trkpt lat="44.20602" lon="6.82801">
        <ele>2815.84</ele>
        <time>2015-06-28T11:54:31Z</time>
      </trkpt>
      <trkpt lat="44.206" lon="6.82801">
        <ele>2815.36</ele>
        <time>2015-06-28T11:55:01Z</time>
      </trkpt>
      <trkpt lat="44.20601" lon="6.82802">
        <ele>2816.8</ele>
        <time>2015-06-28T11:55:32Z</time>
      </trkpt>
      <trkpt lat="44.20601" lon="6.82802">
        <ele>2815.36</ele>
        <time>2015-06-28T11:55:54Z</time>
      </trkpt>
      <trkpt lat="44.20601" lon="6.82802">
        <ele>2817.28</ele>
        <time>2015-06-28T11:55:56Z</time>
      </trkpt>
      <trkpt lat="44.20601" lon="6.82802">
        <ele>2815.84</ele>
        <time>2015-06-28T11:55:58Z</time>
      </trkpt>
      <trkpt lat="44.20601" lon="6.828">
        <ele>2817.28</ele>
        <time>2015-06-28T11:56:33Z</time>
      </trkpt>
      <trkpt lat="44.20602" lon="6.828">
        <ele>2815.84</ele>
        <time>2015-06-28T11:56:56Z</time>
      </trkpt>
      <trkpt lat="44.20602" lon="6.828">
        <ele>2817.28</ele>
        <time>2015-06-28T11:57:16Z</time>
      </trkpt>
      <trkpt lat="44.20601" lon="6.828">
        <ele>2817.28</ele>
        <time>2015-06-28T11:57:42Z</time>
      </trkpt>
      <trkpt lat="44.206" lon="6.828">
        <ele>2816.8</ele>
        <time>2015-06-28T11:58:09Z</time>
      </trkpt>
      <trkpt lat="44.20601" lon="6.828">
        <ele>2815.36</ele>
        <time>2015-06-28T11:58:30Z</time>
      </trkpt>
      <trkpt lat="44.20602" lon="6.82799">
        <ele>2815.36</ele>
        <time>2015-06-28T11:59:03Z</time>
      </trkpt>
      <trkpt lat="44.206" lon="6.82799">
        <ele>2815.36</ele>
        <time>2015-06-28T11:59:28Z</time>
      </trkpt>
      <trkpt lat="44.20601" lon="6.82798">
        <ele>2815.36</ele>
        <time>2015-06-28T11:59:56Z</time>
      </trkpt>
      <trkpt lat="44.206" lon="6.82799">
        <ele>2815.36</ele>
        <time>2015-06-28T12:00:20Z</time>
      </trkpt>
      <trkpt lat="44.206" lon="6.82798">
        <ele>2815.36</ele>
        <time>2015-06-28T12:00:45Z</time>
      </trkpt>
      <trkpt lat="44.20601" lon="6.82798">
        <ele>2815.36</ele>
        <time>2015-06-28T12:01:09Z</time>
      </trkpt>
      <trkpt lat="44.20602" lon="6.828">
        <ele>2815.36</ele>
        <time>2015-06-28T12:01:32Z</time>
      </trkpt>
      <trkpt lat="44.20602" lon="6.82799">
        <ele>2815.36</ele>
        <time>2015-06-28T12:02:02Z</time>
      </trkpt>
      <trkpt lat="44.20602" lon="6.828">
        <ele>2815.36</ele>
        <time>2015-06-28T12:02:31Z</time>
      </trkpt>
      <trkpt lat="44.20603" lon="6.82802">
        <ele>2815.36</ele>
        <time>2015-06-28T12:02:59Z</time>
      </trkpt>
      <trkpt lat="44.20601" lon="6.82799">
        <ele>2815.36</ele>
        <time>2015-06-28T12:03:25Z</time>
      </trkpt>
      <trkpt lat="44.20602" lon="6.82799">
        <ele>2815.36</ele>
        <time>2015-06-28T12:03:53Z</time>
      </trkpt>
      <trkpt lat="44.20602" lon="6.82799">
        <ele>2815.36</ele>
        <time>2015-06-28T12:04:19Z</time>
      </trkpt>
      <trkpt lat="44.20601" lon="6.82799">
        <ele>2815.36</ele>
        <time>2015-06-28T12:04:45Z</time>
      </trkpt>
      <trkpt lat="44.20601" lon="6.82799">
        <ele>2815.36</ele>
        <time>2015-06-28T12:05:13Z</time>
      </trkpt>
      <trkpt lat="44.206" lon="6.828">
        <ele>2815.36</ele>
        <time>2015-06-28T12:05:39Z</time>
      </trkpt>
      <trkpt lat="44.20599" lon="6.82799">
        <ele>2815.36</ele>
        <time>2015-06-28T12:06:11Z</time>
      </trkpt>
      <trkpt lat="44.20599" lon="6.82798">
        <ele>2817.28</ele>
        <time>2015-06-28T12:06:36Z</time>
      </trkpt>
      <trkpt lat="44.20602" lon="6.828">
        <ele>2815.84</ele>
        <time>2015-06-28T12:06:41Z</time>
      </trkpt>
      <trkpt lat="44.20603" lon="6.828">
        <ele>2815.36</ele>
        <time>2015-06-28T12:06:56Z</time>
      </trkpt>
      <trkpt lat="44.20603" lon="6.828">
        <ele>2815.36</ele>
        <time>2015-06-28T12:07:14Z</time>
      </trkpt>
      <trkpt lat="44.20602" lon="6.82799">
        <ele>2815.36</ele>
        <time>2015-06-28T12:07:33Z</time>
      </trkpt>
      <trkpt lat="44.206" lon="6.82798">
        <ele>2815.36</ele>
        <time>2015-06-28T12:07:53Z</time>
      </trkpt>
      <trkpt lat="44.206" lon="6.82797">
        <ele>2809.11</ele>
        <time>2015-06-28T12:08:04Z</time>
      </trkpt>
      <trkpt lat="44.206" lon="6.82797">
        <ele>2822.09</ele>
        <time>2015-06-28T12:08:05Z</time>
      </trkpt>
      <trkpt lat="44.206" lon="6.82798">
        <ele>2816.32</ele>
        <time>2015-06-28T12:08:06Z</time>
      </trkpt>
      <trkpt lat="44.20601" lon="6.828">
        <ele>2815.36</ele>
        <time>2015-06-28T12:08:23Z</time>
      </trkpt>
      <trkpt lat="44.206" lon="6.828">
        <ele>2815.36</ele>
        <time>2015-06-28T12:08:44Z</time>
      </trkpt>
      <trkpt lat="44.20603" lon="6.82801">
        <ele>2815.36</ele>
        <time>2015-06-28T12:09:15Z</time>
      </trkpt>
      <trkpt lat="44.20601" lon="6.828">
        <ele>2815.36</ele>
        <time>2015-06-28T12:09:42Z</time>
      </trkpt>
      <trkpt lat="44.20601" lon="6.82799">
        <ele>2815.36</ele>
        <time>2015-06-28T12:10:07Z</time>
      </trkpt>
      <trkpt lat="44.206" lon="6.82799">
        <ele>2815.36</ele>
        <time>2015-06-28T12:10:30Z</time>
      </trkpt>
      <trkpt lat="44.20601" lon="6.828">
        <ele>2815.36</ele>
        <time>2015-06-28T12:10:59Z</time>
      </trkpt>
      <trkpt lat="44.20601" lon="6.82799">
        <ele>2815.36</ele>
        <time>2015-06-28T12:11:33Z</time>
      </trkpt>
      <trkpt lat="44.206" lon="6.82799">
        <ele>2816.8</ele>
        <time>2015-06-28T12:11:49Z</time>
      </trkpt>
      <trkpt lat="44.206" lon="6.82799">
        <ele>2815.36</ele>
        <time>2015-06-28T12:11:51Z</time>
      </trkpt>
      <trkpt lat="44.206" lon="6.82799">
        <ele>2814.88</ele>
        <time>2015-06-28T12:12:24Z</time>
      </trkpt>
      <trkpt lat="44.20601" lon="6.82799">
        <ele>2814.4</ele>
        <time>2015-06-28T12:12:46Z</time>
      </trkpt>
      <trkpt lat="44.206" lon="6.82799">
        <ele>2814.4</ele>
        <time>2015-06-28T12:13:14Z</time>
      </trkpt>
      <trkpt lat="44.206" lon="6.82797">
        <ele>2814.4</ele>
        <time>2015-06-28T12:13:49Z</time>
      </trkpt>
      <trkpt lat="44.206" lon="6.82797">
        <ele>2815.84</ele>
        <time>2015-06-28T12:13:54Z</time>
      </trkpt>
      <trkpt lat="44.206" lon="6.82798">
        <ele>2815.84</ele>
        <time>2015-06-28T12:14:34Z</time>
      </trkpt>
      <trkpt lat="44.206" lon="6.82798">
        <ele>2815.84</ele>
        <time>2015-06-28T12:15:05Z</time>
      </trkpt>
      <trkpt lat="44.20602" lon="6.82797">
        <ele>2816.8</ele>
        <time>2015-06-28T12:15:23Z</time>
      </trkpt>
      <trkpt lat="44.20604" lon="6.82798">
        <ele>2815.84</ele>
        <time>2015-06-28T12:15:28Z</time>
      </trkpt>
      <trkpt lat="44.20608" lon="6.82796">
        <ele>2816.32</ele>
        <time>2015-06-28T12:15:46Z</time>
      </trkpt>
      <trkpt lat="44.20602" lon="6.82797">
        <ele>2816.32</ele>
        <time>2015-06-28T12:15:59Z</time>
      </trkpt>
      <trkpt lat="44.20604" lon="6.828">
        <ele>2813.44</ele>
        <time>2015-06-28T12:16:17Z</time>
      </trkpt>
      <trkpt lat="44.20604" lon="6.82801">
        <ele>2814.88</ele>
        <time>2015-06-28T12:16:21Z</time>
      </trkpt>
      <trkpt lat="44.20601" lon="6.82798">
        <ele>2816.32</ele>
        <time>2015-06-28T12:16:53Z</time>
      </trkpt>
      <trkpt lat="44.20601" lon="6.82797">
        <ele>2815.84</ele>
        <time>2015-06-28T12:17:00Z</time>
      </trkpt>
      <trkpt lat="44.20601" lon="6.82797">
        <ele>2816.32</ele>
        <time>2015-06-28T12:17:10Z</time>
      </trkpt>
      <trkpt lat="44.206" lon="6.828">
        <ele>2815.36</ele>
        <time>2015-06-28T12:17:25Z</time>
      </trkpt>
      <trkpt lat="44.20599" lon="6.82799">
        <ele>2811.03</ele>
        <time>2015-06-28T12:17:59Z</time>
      </trkpt>
      <trkpt lat="44.20599" lon="6.82799">
        <ele>2819.68</ele>
        <time>2015-06-28T12:18:00Z</time>
      </trkpt>
      <trkpt lat="44.20599" lon="6.82799">
        <ele>2815.84</ele>
        <time>2015-06-28T12:18:01Z</time>
      </trkpt>
      <trkpt lat="44.20598" lon="6.82801">
        <ele>2812.47</ele>
        <time>2015-06-28T12:18:18Z</time>
      </trkpt>
      <trkpt lat="44.20598" lon="6.82801">
        <ele>2819.68</ele>
        <time>2015-06-28T12:18:19Z</time>
      </trkpt>
      <trkpt lat="44.20598" lon="6.82801">
        <ele>2815.84</ele>
        <time>2015-06-28T12:18:20Z</time>
      </trkpt>
      <trkpt lat="44.20593" lon="6.82798">
        <ele>2814.4</ele>
        <time>2015-06-28T12:18:34Z</time>
      </trkpt>
      <trkpt lat="44.20594" lon="6.82799">
        <ele>2814.88</ele>
        <time>2015-06-28T12:18:49Z</time>
      </trkpt>
      <trkpt lat="44.20593" lon="6.82802">
        <ele>2814.4</ele>
        <time>2015-06-28T12:19:19Z</time>
      </trkpt>
      <trkpt lat="44.20591" lon="6.82803">
        <ele>2813.92</ele>
        <time>2015-06-28T12:19:38Z</time>
      </trkpt>
      <trkpt lat="44.20591" lon="6.828">
        <ele>2814.88</ele>
        <time>2015-06-28T12:19:52Z</time>
      </trkpt>
      <trkpt lat="44.20591" lon="6.82799">
        <ele>2815.84</ele>
        <time>2015-06-28T12:20:05Z</time>
      </trkpt>
      <trkpt lat="44.20592" lon="6.82799">
        <ele>2814.88</ele>
        <time>2015-06-28T12:20:13Z</time>
      </trkpt>
      <trkpt lat="44.20596" lon="6.82798">
        <ele>2816.32</ele>
        <time>2015-06-28T12:20:17Z</time>
      </trkpt>
      <trkpt lat="44.206" lon="6.82798">
        <ele>2817.28</ele>
        <time>2015-06-28T12:20:24Z</time>
      </trkpt>
      <trkpt lat="44.20602" lon="6.828">
        <ele>2811.99</ele>
        <time>2015-06-28T12:20:26Z</time>
      </trkpt>
      <trkpt lat="44.20602" lon="6.82801">
        <ele>2818.24</ele>
        <time>2015-06-28T12:20:27Z</time>
      </trkpt>
      <trkpt lat="44.20602" lon="6.82801">
        <ele>2814.88</ele>
        <time>2015-06-28T12:20:38Z</time>
      </trkpt>
      <trkpt lat="44.20602" lon="6.82801">
        <ele>2818.24</ele>
        <time>2015-06-28T12:20:39Z</time>
      </trkpt>
      <trkpt lat="44.20602" lon="6.82801">
        <ele>2818.24</ele>
        <time>2015-06-28T12:20:40Z</time>
      </trkpt>
      <trkpt lat="44.20601" lon="6.828">
        <ele>2816.8</ele>
        <time>2015-06-28T12:20:42Z</time>
      </trkpt>
      <trkpt lat="44.20601" lon="6.828">
        <ele>2815.84</ele>
        <time>2015-06-28T12:20:50Z</time>
      </trkpt>
      <trkpt lat="44.20599" lon="6.82798">
        <ele>2814.4</ele>
        <time>2015-06-28T12:21:11Z</time>
      </trkpt>
      <trkpt lat="44.20599" lon="6.82799">
        <ele>2814.4</ele>
        <time>2015-06-28T12:21:36Z</time>
      </trkpt>
      <trkpt lat="44.20599" lon="6.82798">
        <ele>2814.4</ele>
        <time>2015-06-28T12:22:10Z</time>
      </trkpt>
      <trkpt lat="44.20599" lon="6.82797">
        <ele>2814.88</ele>
        <time>2015-06-28T12:22:44Z</time>
      </trkpt>
      <trkpt lat="44.20599" lon="6.82797">
        <ele>2814.88</ele>
        <time>2015-06-28T12:23:25Z</time>
      </trkpt>
      <trkpt lat="44.20599" lon="6.82796">
        <ele>2814.88</ele>
        <time>2015-06-28T12:24:04Z</time>
      </trkpt>
      <trkpt lat="44.20599" lon="6.82796">
        <ele>2814.88</ele>
        <time>2015-06-28T12:24:38Z</time>
      </trkpt>
      <trkpt lat="44.20601" lon="6.82797">
        <ele>2814.88</ele>
        <time>2015-06-28T12:25:06Z</time>
      </trkpt>
      <trkpt lat="44.20602" lon="6.82797">
        <ele>2812.96</ele>
        <time>2015-06-28T12:25:34Z</time>
      </trkpt>
      <trkpt lat="44.20602" lon="6.82797">
        <ele>2816.32</ele>
        <time>2015-06-28T12:25:36Z</time>
      </trkpt>
      <trkpt lat="44.20602" lon="6.82797">
        <ele>2815.36</ele>
        <time>2015-06-28T12:25:37Z</time>
      </trkpt>
      <trkpt lat="44.206" lon="6.82797">
        <ele>2816.8</ele>
        <time>2015-06-28T12:25:41Z</time>
      </trkpt>
      <trkpt lat="44.20599" lon="6.82796">
        <ele>2814.88</ele>
        <time>2015-06-28T12:25:43Z</time>
      </trkpt>
      <trkpt lat="44.20598" lon="6.82796">
        <ele>2814.4</ele>
        <time>2015-06-28T12:25:50Z</time>
      </trkpt>
      <trkpt lat="44.20601" lon="6.82798">
        <ele>2815.84</ele>
        <time>2015-06-28T12:26:12Z</time>
      </trkpt>
      <trkpt lat="44.20602" lon="6.82797">
        <ele>2814.88</ele>
        <time>2015-06-28T12:26:24Z</time>
      </trkpt>
      <trkpt lat="44.20601" lon="6.82797">
        <ele>2814.88</ele>
        <time>2015-06-28T12:27:05Z</time>
      </trkpt>
      <trkpt lat="44.20599" lon="6.82797">
        <ele>2814.88</ele>
        <time>2015-06-28T12:27:32Z</time>
      </trkpt>
      <trkpt lat="44.20599" lon="6.82796">
        <ele>2815.36</ele>
        <time>2015-06-28T12:28:00Z</time>
      </trkpt>
      <trkpt lat="44.206" lon="6.82796">
        <ele>2815.36</ele>
        <time>2015-06-28T12:28:35Z</time>
      </trkpt>
      <trkpt lat="44.206" lon="6.82796">
        <ele>2815.36</ele>
        <time>2015-06-28T12:28:52Z</time>
      </trkpt>
      <trkpt lat="44.20604" lon="6.82798">
        <ele>2815.36</ele>
        <time>2015-06-28T12:29:08Z</time>
      </trkpt>
      <trkpt lat="44.20606" lon="6.82801">
        <ele>2816.32</ele>
        <time>2015-06-28T12:29:28Z</time>
      </trkpt>
      <trkpt lat="44.20605" lon="6.82802">
        <ele>2814.88</ele>
        <time>2015-06-28T12:29:35Z</time>
      </trkpt>
      <trkpt lat="44.20606" lon="6.82801">
        <ele>2814.88</ele>
        <time>2015-06-28T12:30:02Z</time>
      </trkpt>
      <trkpt lat="44.20604" lon="6.828">
        <ele>2814.88</ele>
        <time>2015-06-28T12:30:22Z</time>
      </trkpt>
      <trkpt lat="44.20599" lon="6.82804">
        <ele>2814.88</ele>
        <time>2015-06-28T12:30:36Z</time>
      </trkpt>
      <trkpt lat="44.20602" lon="6.82799">
        <ele>2815.36</ele>
        <time>2015-06-28T12:30:58Z</time>
      </trkpt>
      <trkpt lat="44.20601" lon="6.82796">
        <ele>2816.8</ele>
        <time>2015-06-28T12:31:36Z</time>
      </trkpt>
      <trkpt lat="44.20602" lon="6.82798">
        <ele>2815.36</ele>
        <time>2015-06-28T12:32:00Z</time>
      </trkpt>
      <trkpt lat="44.20602" lon="6.82795">
        <ele>2815.36</ele>
        <time>2015-06-28T12:32:20Z</time>
      </trkpt>
      <trkpt lat="44.20602" lon="6.82795">
        <ele>2816.8</ele>
        <time>2015-06-28T12:32:30Z</time>
      </trkpt>
      <trkpt lat="44.206" lon="6.82796">
        <ele>2813.44</ele>
        <time>2015-06-28T12:32:38Z</time>
      </trkpt>
      <trkpt lat="44.20599" lon="6.82794">
        <ele>2818.24</ele>
        <time>2015-06-28T12:32:40Z</time>
      </trkpt>
      <trkpt lat="44.20599" lon="6.82794">
        <ele>2816.8</ele>
        <time>2015-06-28T12:32:42Z</time>
      </trkpt>
      <trkpt lat="44.20599" lon="6.82797">
        <ele>2815.84</ele>
        <time>2015-06-28T12:33:04Z</time>
      </trkpt>
      <trkpt lat="44.206" lon="6.82797">
        <ele>2817.28</ele>
        <time>2015-06-28T12:33:13Z</time>
      </trkpt>
      <trkpt lat="44.206" lon="6.82797">
        <ele>2814.88</ele>
        <time>2015-06-28T12:33:20Z</time>
      </trkpt>
      <trkpt lat="44.206" lon="6.82797">
        <ele>2816.32</ele>
        <time>2015-06-28T12:33:22Z</time>
      </trkpt>
      <trkpt lat="44.206" lon="6.82796">
        <ele>2815.84</ele>
        <time>2015-06-28T12:33:48Z</time>
      </trkpt>
      <trkpt lat="44.206" lon="6.82797">
        <ele>2812.47</ele>
        <time>2015-06-28T12:34:10Z</time>
      </trkpt>
      <trkpt lat="44.206" lon="6.82797">
        <ele>2816.32</ele>
        <time>2015-06-28T12:34:11Z</time>
      </trkpt>
      <trkpt lat="44.206" lon="6.82797">
        <ele>2820.16</ele>
        <time>2015-06-28T12:34:12Z</time>
      </trkpt>
      <trkpt lat="44.206" lon="6.82797">
        <ele>2816.8</ele>
        <time>2015-06-28T12:34:13Z</time>
      </trkpt>
      <trkpt lat="44.20601" lon="6.82797">
        <ele>2816.32</ele>
        <time>2015-06-28T12:34:31Z</time>
      </trkpt>
      <trkpt lat="44.20601" lon="6.82797">
        <ele>2817.76</ele>
        <time>2015-06-28T12:34:39Z</time>
      </trkpt>
      <trkpt lat="44.206" lon="6.82797">
        <ele>2816.32</ele>
        <time>2015-06-28T12:34:52Z</time>
      </trkpt>
      <trkpt lat="44.206" lon="6.82797">
        <ele>2816.32</ele>
        <time>2015-06-28T12:35:12Z</time>
      </trkpt>
      <trkpt lat="44.206" lon="6.82797">
        <ele>2815.84</ele>
        <time>2015-06-28T12:35:36Z</time>
      </trkpt>
      <trkpt lat="44.206" lon="6.82797">
        <ele>2817.28</ele>
        <time>2015-06-28T12:36:06Z</time>
      </trkpt>
      <trkpt lat="44.20602" lon="6.828">
        <ele>2815.84</ele>
        <time>2015-06-28T12:36:22Z</time>
      </trkpt>
      <trkpt lat="44.20602" lon="6.82801">
        <ele>2815.84</ele>
        <time>2015-06-28T12:36:56Z</time>
      </trkpt>
      <trkpt lat="44.20604" lon="6.82797">
        <ele>2815.84</ele>
        <time>2015-06-28T12:37:13Z</time>
      </trkpt>
      <trkpt lat="44.20604" lon="6.82799">
        <ele>2817.28</ele>
        <time>2015-06-28T12:37:37Z</time>
      </trkpt>
      <trkpt lat="44.20604" lon="6.82799">
        <ele>2815.84</ele>
        <time>2015-06-28T12:37:46Z</time>
      </trkpt>
      <trkpt lat="44.20605" lon="6.82798">
        <ele>2815.84</ele>
        <time>2015-06-28T12:38:04Z</time>
      </trkpt>
      <trkpt lat="44.20605" lon="6.82797">
        <ele>2815.36</ele>
        <time>2015-06-28T12:38:23Z</time>
      </trkpt>
      <trkpt lat="44.20612" lon="6.82793">
        <ele>2814.88</ele>
        <time>2015-06-28T12:38:36Z</time>
      </trkpt>
      <trkpt lat="44.2062" lon="6.82787">
        <ele>2811.03</ele>
        <time>2015-06-28T12:38:47Z</time>
      </trkpt>
      <trkpt lat="44.20627" lon="6.82783">
        <ele>2808.15</ele>
        <time>2015-06-28T12:38:58Z</time>
      </trkpt>
      <trkpt lat="44.20627" lon="6.82782">
        <ele>2807.19</ele>
        <time>2015-06-28T12:39:00Z</time>
      </trkpt>
      <trkpt lat="44.20631" lon="6.82776">
        <ele>2805.26</ele>
        <time>2015-06-28T12:39:11Z</time>
      </trkpt>
      <trkpt lat="44.20638" lon="6.82773">
        <ele>2802.86</ele>
        <time>2015-06-28T12:39:26Z</time>
      </trkpt>
      <trkpt lat="44.2064" lon="6.82772">
        <ele>2801.42</ele>
        <time>2015-06-28T12:39:40Z</time>
      </trkpt>
      <trkpt lat="44.20642" lon="6.8277">
        <ele>2800.94</ele>
        <time>2015-06-28T12:39:45Z</time>
      </trkpt>
      <trkpt lat="44.20651" lon="6.82768">
        <ele>2797.09</ele>
        <time>2015-06-28T12:39:57Z</time>
      </trkpt>
      <trkpt lat="44.2066" lon="6.82766">
        <ele>2794.21</ele>
        <time>2015-06-28T12:40:13Z</time>
      </trkpt>
      <trkpt lat="44.20663" lon="6.82763">
        <ele>2792.77</ele>
        <time>2015-06-28T12:40:30Z</time>
      </trkpt>
      <trkpt lat="44.20666" lon="6.82758">
        <ele>2788.92</ele>
        <time>2015-06-28T12:40:43Z</time>
      </trkpt>
      <trkpt lat="44.20674" lon="6.82756">
        <ele>2786.52</ele>
        <time>2015-06-28T12:40:57Z</time>
      </trkpt>
      <trkpt lat="44.2068" lon="6.82753">
        <ele>2784.12</ele>
        <time>2015-06-28T12:41:09Z</time>
      </trkpt>
      <trkpt lat="44.20682" lon="6.82746">
        <ele>2782.19</ele>
        <time>2015-06-28T12:41:22Z</time>
      </trkpt>
      <trkpt lat="44.20687" lon="6.82745">
        <ele>2780.27</ele>
        <time>2015-06-28T12:41:35Z</time>
      </trkpt>
      <trkpt lat="44.20689" lon="6.82746">
        <ele>2779.79</ele>
        <time>2015-06-28T12:41:55Z</time>
      </trkpt>
      <trkpt lat="44.20701" lon="6.82749">
        <ele>2776.91</ele>
        <time>2015-06-28T12:42:10Z</time>
      </trkpt>
      <trkpt lat="44.20711" lon="6.8275">
        <ele>2774.5</ele>
        <time>2015-06-28T12:42:23Z</time>
      </trkpt>
      <trkpt lat="44.20719" lon="6.82753">
        <ele>2772.58</ele>
        <time>2015-06-28T12:42:36Z</time>
      </trkpt>
      <trkpt lat="44.20727" lon="6.82753">
        <ele>2770.18</ele>
        <time>2015-06-28T12:42:48Z</time>
      </trkpt>
      <trkpt lat="44.20736" lon="6.82755">
        <ele>2768.73</ele>
        <time>2015-06-28T12:43:00Z</time>
      </trkpt>
      <trkpt lat="44.20745" lon="6.82754">
        <ele>2766.33</ele>
        <time>2015-06-28T12:43:14Z</time>
      </trkpt>
      <trkpt lat="44.20758" lon="6.82753">
        <ele>2764.41</ele>
        <time>2015-06-28T12:43:30Z</time>
      </trkpt>
      <trkpt lat="44.20767" lon="6.8275">
        <ele>2762.49</ele>
        <time>2015-06-28T12:43:43Z</time>
      </trkpt>
      <trkpt lat="44.20775" lon="6.8275">
        <ele>2759.6</ele>
        <time>2015-06-28T12:43:56Z</time>
      </trkpt>
      <trkpt lat="44.20781" lon="6.82752">
        <ele>2759.6</ele>
        <time>2015-06-28T12:44:10Z</time>
      </trkpt>
      <trkpt lat="44.20782" lon="6.82747">
        <ele>2758.64</ele>
        <time>2015-06-28T12:44:26Z</time>
      </trkpt>
      <trkpt lat="44.2078" lon="6.82744">
        <ele>2756.72</ele>
        <time>2015-06-28T12:44:44Z</time>
      </trkpt>
      <trkpt lat="44.20783" lon="6.82747">
        <ele>2755.76</ele>
        <time>2015-06-28T12:45:01Z</time>
      </trkpt>
      <trkpt lat="44.20784" lon="6.82747">
        <ele>2755.76</ele>
        <time>2015-06-28T12:45:25Z</time>
      </trkpt>
      <trkpt lat="44.20783" lon="6.82747">
        <ele>2755.28</ele>
        <time>2015-06-28T12:45:49Z</time>
      </trkpt>
      <trkpt lat="44.20791" lon="6.82747">
        <ele>2754.31</ele>
        <time>2015-06-28T12:46:07Z</time>
      </trkpt>
      <trkpt lat="44.20798" lon="6.82745">
        <ele>2753.35</ele>
        <time>2015-06-28T12:46:21Z</time>
      </trkpt>
      <trkpt lat="44.20804" lon="6.8274">
        <ele>2750.47</ele>
        <time>2015-06-28T12:46:36Z</time>
      </trkpt>
      <trkpt lat="44.20807" lon="6.82739">
        <ele>2749.51</ele>
        <time>2015-06-28T12:46:49Z</time>
      </trkpt>
      <trkpt lat="44.20816" lon="6.82737">
        <ele>2747.1</ele>
        <time>2015-06-28T12:47:04Z</time>
      </trkpt>
      <trkpt lat="44.20818" lon="6.82736">
        <ele>2746.62</ele>
        <time>2015-06-28T12:47:07Z</time>
      </trkpt>
      <trkpt lat="44.20825" lon="6.82735">
        <ele>2745.18</ele>
        <time>2015-06-28T12:47:17Z</time>
      </trkpt>
      <trkpt lat="44.20828" lon="6.82736">
        <ele>2745.18</ele>
        <time>2015-06-28T12:47:26Z</time>
      </trkpt>
      <trkpt lat="44.20832" lon="6.82734">
        <ele>2744.7</ele>
        <time>2015-06-28T12:47:48Z</time>
      </trkpt>
      <trkpt lat="44.20843" lon="6.82731">
        <ele>2742.3</ele>
        <time>2015-06-28T12:48:00Z</time>
      </trkpt>
      <trkpt lat="44.20849" lon="6.82729">
        <ele>2738.93</ele>
        <time>2015-06-28T12:48:10Z</time>
      </trkpt>
      <trkpt lat="44.2085" lon="6.82726">
        <ele>2737.97</ele>
        <time>2015-06-28T12:48:21Z</time>
      </trkpt>
      <trkpt lat="44.20856" lon="6.82718">
        <ele>2735.09</ele>
        <time>2015-06-28T12:48:32Z</time>
      </trkpt>
      <trkpt lat="44.20858" lon="6.82717">
        <ele>2734.61</ele>
        <time>2015-06-28T12:48:34Z</time>
      </trkpt>
      <trkpt lat="44.20862" lon="6.82717">
        <ele>2733.65</ele>
        <time>2015-06-28T12:48:49Z</time>
      </trkpt>
      <trkpt lat="44.20863" lon="6.82717">
        <ele>2733.65</ele>
        <time>2015-06-28T12:48:50Z</time>
      </trkpt>
      <trkpt lat="44.20867" lon="6.82709">
        <ele>2731.72</ele>
        <time>2015-06-28T12:48:55Z</time>
      </trkpt>
      <trkpt lat="44.20879" lon="6.82704">
        <ele>2728.84</ele>
        <time>2015-06-28T12:49:09Z</time>
      </trkpt>
      <trkpt lat="44.20882" lon="6.82704">
        <ele>2728.36</ele>
        <time>2015-06-28T12:49:12Z</time>
      </trkpt>
      <trkpt lat="44.20895" lon="6.82704">
        <ele>2726.92</ele>
        <time>2015-06-28T12:49:27Z</time>
      </trkpt>
      <trkpt lat="44.20899" lon="6.827">
        <ele>2725.48</ele>
        <time>2015-06-28T12:49:46Z</time>
      </trkpt>
      <trkpt lat="44.20906" lon="6.82694">
        <ele>2723.55</ele>
        <time>2015-06-28T12:49:59Z</time>
      </trkpt>
      <trkpt lat="44.20908" lon="6.82693">
        <ele>2723.07</ele>
        <time>2015-06-28T12:50:02Z</time>
      </trkpt>
      <trkpt lat="44.2091" lon="6.82693">
        <ele>2722.59</ele>
        <time>2015-06-28T12:50:16Z</time>
      </trkpt>
      <trkpt lat="44.20915" lon="6.82691">
        <ele>2721.15</ele>
        <time>2015-06-28T12:50:24Z</time>
      </trkpt>
      <trkpt lat="44.20921" lon="6.82683">
        <ele>2719.23</ele>
        <time>2015-06-28T12:50:36Z</time>
      </trkpt>
      <trkpt lat="44.20927" lon="6.82673">
        <ele>2716.34</ele>
        <time>2015-06-28T12:50:50Z</time>
      </trkpt>
      <trkpt lat="44.20928" lon="6.82672">
        <ele>2715.86</ele>
        <time>2015-06-28T12:50:52Z</time>
      </trkpt>
      <trkpt lat="44.20936" lon="6.82661">
        <ele>2713.94</ele>
        <time>2015-06-28T12:51:06Z</time>
      </trkpt>
      <trkpt lat="44.20938" lon="6.82656">
        <ele>2712.02</ele>
        <time>2015-06-28T12:51:11Z</time>
      </trkpt>
      <trkpt lat="44.20941" lon="6.82653">
        <ele>2711.06</ele>
        <time>2015-06-28T12:51:24Z</time>
      </trkpt>
      <trkpt lat="44.20944" lon="6.82652">
        <ele>2710.57</ele>
        <time>2015-06-28T12:51:34Z</time>
      </trkpt>
      <trkpt lat="44.20948" lon="6.82646">
        <ele>2709.61</ele>
        <time>2015-06-28T12:51:47Z</time>
      </trkpt>
      <trkpt lat="44.20952" lon="6.8264">
        <ele>2708.65</ele>
        <time>2015-06-28T12:52:02Z</time>
      </trkpt>
      <trkpt lat="44.20961" lon="6.82633">
        <ele>2707.21</ele>
        <time>2015-06-28T12:52:15Z</time>
      </trkpt>
      <trkpt lat="44.20969" lon="6.82621">
        <ele>2705.77</ele>
        <time>2015-06-28T12:52:28Z</time>
      </trkpt>
      <trkpt lat="44.20972" lon="6.82616">
        <ele>2704.33</ele>
        <time>2015-06-28T12:52:42Z</time>
      </trkpt>
      <trkpt lat="44.20973" lon="6.82614">
        <ele>2704.33</ele>
        <time>2015-06-28T12:52:45Z</time>
      </trkpt>
      <trkpt lat="44.2098" lon="6.8262">
        <ele>2702.4</ele>
        <time>2015-06-28T12:52:58Z</time>
      </trkpt>
      <trkpt lat="44.20981" lon="6.82619">
        <ele>2702.88</ele>
        <time>2015-06-28T12:53:09Z</time>
      </trkpt>
      <trkpt lat="44.20988" lon="6.82603">
        <ele>2701.92</ele>
        <time>2015-06-28T12:53:21Z</time>
      </trkpt>
      <trkpt lat="44.2099" lon="6.82597">
        <ele>2700.96</ele>
        <time>2015-06-28T12:53:25Z</time>
      </trkpt>
      <trkpt lat="44.20992" lon="6.82592">
        <ele>2699.04</ele>
        <time>2015-06-28T12:53:29Z</time>
      </trkpt>
      <trkpt lat="44.20993" lon="6.82591">
        <ele>2698.08</ele>
        <time>2015-06-28T12:53:30Z</time>
      </trkpt>
      <trkpt lat="44.21004" lon="6.82577">
        <ele>2695.67</ele>
        <time>2015-06-28T12:53:44Z</time>
      </trkpt>
      <trkpt lat="44.21011" lon="6.8257">
        <ele>2694.23</ele>
        <time>2015-06-28T12:53:56Z</time>
      </trkpt>
      <trkpt lat="44.21015" lon="6.82567">
        <ele>2694.23</ele>
        <time>2015-06-28T12:54:23Z</time>
      </trkpt>
      <trkpt lat="44.21026" lon="6.82553">
        <ele>2691.83</ele>
        <time>2015-06-28T12:54:38Z</time>
      </trkpt>
      <trkpt lat="44.21026" lon="6.82553">
        <ele>2691.83</ele>
        <time>2015-06-28T12:54:39Z</time>
      </trkpt>
      <trkpt lat="44.21034" lon="6.82543">
        <ele>2691.35</ele>
        <time>2015-06-28T12:54:48Z</time>
      </trkpt>
      <trkpt lat="44.21035" lon="6.82541">
        <ele>2690.87</ele>
        <time>2015-06-28T12:54:50Z</time>
      </trkpt>
      <trkpt lat="44.21039" lon="6.82537">
        <ele>2690.39</ele>
        <time>2015-06-28T12:54:54Z</time>
      </trkpt>
      <trkpt lat="44.2105" lon="6.82526">
        <ele>2689.43</ele>
        <time>2015-06-28T12:55:08Z</time>
      </trkpt>
      <trkpt lat="44.21061" lon="6.82516">
        <ele>2687.5</ele>
        <time>2015-06-28T12:55:21Z</time>
      </trkpt>
      <trkpt lat="44.21063" lon="6.82514">
        <ele>2686.54</ele>
        <time>2015-06-28T12:55:24Z</time>
      </trkpt>
      <trkpt lat="44.21073" lon="6.82506">
        <ele>2684.62</ele>
        <time>2015-06-28T12:55:36Z</time>
      </trkpt>
      <trkpt lat="44.21075" lon="6.82504">
        <ele>2684.14</ele>
        <time>2015-06-28T12:55:39Z</time>
      </trkpt>
      <trkpt lat="44.21076" lon="6.82502">
        <ele>2684.14</ele>
        <time>2015-06-28T12:55:41Z</time>
      </trkpt>
      <trkpt lat="44.21079" lon="6.82499">
        <ele>2683.66</ele>
        <time>2015-06-28T12:55:45Z</time>
      </trkpt>
      <trkpt lat="44.21081" lon="6.82498">
        <ele>2683.18</ele>
        <time>2015-06-28T12:55:47Z</time>
      </trkpt>
      <trkpt lat="44.21089" lon="6.8249">
        <ele>2682.22</ele>
        <time>2015-06-28T12:55:57Z</time>
      </trkpt>
      <trkpt lat="44.21091" lon="6.82488">
        <ele>2681.25</ele>
        <time>2015-06-28T12:56:00Z</time>
      </trkpt>
      <trkpt lat="44.21098" lon="6.82483">
        <ele>2680.29</ele>
        <time>2015-06-28T12:56:17Z</time>
      </trkpt>
      <trkpt lat="44.21099" lon="6.82481">
        <ele>2680.29</ele>
        <time>2015-06-28T12:56:35Z</time>
      </trkpt>
      <trkpt lat="44.21105" lon="6.82476">
        <ele>2678.85</ele>
        <time>2015-06-28T12:56:42Z</time>
      </trkpt>
      <trkpt lat="44.2112" lon="6.82466">
        <ele>2676.93</ele>
        <time>2015-06-28T12:56:58Z</time>
      </trkpt>
      <trkpt lat="44.21131" lon="6.82455">
        <ele>2676.45</ele>
        <time>2015-06-28T12:57:13Z</time>
      </trkpt>
      <trkpt lat="44.21135" lon="6.82452">
        <ele>2675.97</ele>
        <time>2015-06-28T12:57:18Z</time>
      </trkpt>
      <trkpt lat="44.21136" lon="6.82449">
        <ele>2675.97</ele>
        <time>2015-06-28T12:57:21Z</time>
      </trkpt>
      <trkpt lat="44.21139" lon="6.82448">
        <ele>2675.97</ele>
        <time>2015-06-28T12:57:25Z</time>
      </trkpt>
      <trkpt lat="44.21142" lon="6.82446">
        <ele>2675.97</ele>
        <time>2015-06-28T12:57:28Z</time>
      </trkpt>
      <trkpt lat="44.21151" lon="6.82439">
        <ele>2675.49</ele>
        <time>2015-06-28T12:57:39Z</time>
      </trkpt>
      <trkpt lat="44.21164" lon="6.82434">
        <ele>2675.49</ele>
        <time>2015-06-28T12:57:53Z</time>
      </trkpt>
      <trkpt lat="44.21169" lon="6.82432">
        <ele>2675.49</ele>
        <time>2015-06-28T12:57:58Z</time>
      </trkpt>
      <trkpt lat="44.21173" lon="6.82429">
        <ele>2675.49</ele>
        <time>2015-06-28T12:58:03Z</time>
      </trkpt>
      <trkpt lat="44.21187" lon="6.82424">
        <ele>2675.01</ele>
        <time>2015-06-28T12:58:17Z</time>
      </trkpt>
      <trkpt lat="44.212" lon="6.82416">
        <ele>2675.97</ele>
        <time>2015-06-28T12:58:31Z</time>
      </trkpt>
      <trkpt lat="44.21212" lon="6.82407">
        <ele>2675.01</ele>
        <time>2015-06-28T12:58:45Z</time>
      </trkpt>
      <trkpt lat="44.21217" lon="6.82404">
        <ele>2674.52</ele>
        <time>2015-06-28T12:58:51Z</time>
      </trkpt>
      <trkpt lat="44.2122" lon="6.824">
        <ele>2674.52</ele>
        <time>2015-06-28T12:58:55Z</time>
      </trkpt>
      <trkpt lat="44.21226" lon="6.8239">
        <ele>2674.52</ele>
        <time>2015-06-28T12:59:04Z</time>
      </trkpt>
      <trkpt lat="44.2123" lon="6.82383">
        <ele>2675.49</ele>
        <time>2015-06-28T12:59:10Z</time>
      </trkpt>
      <trkpt lat="44.21231" lon="6.82381">
        <ele>2675.49</ele>
        <time>2015-06-28T12:59:12Z</time>
      </trkpt>
      <trkpt lat="44.2124" lon="6.82371">
        <ele>2675.49</ele>
        <time>2015-06-28T12:59:24Z</time>
      </trkpt>
      <trkpt lat="44.21244" lon="6.82365">
        <ele>2675.97</ele>
        <time>2015-06-28T12:59:31Z</time>
      </trkpt>
      <trkpt lat="44.21251" lon="6.82351">
        <ele>2675.97</ele>
        <time>2015-06-28T12:59:44Z</time>
      </trkpt>
      <trkpt lat="44.2126" lon="6.82337">
        <ele>2675.97</ele>
        <time>2015-06-28T12:59:59Z</time>
      </trkpt>
      <trkpt lat="44.21266" lon="6.82335">
        <ele>2674.52</ele>
        <time>2015-06-28T13:00:08Z</time>
      </trkpt>
      <trkpt lat="44.21269" lon="6.82321">
        <ele>2675.97</ele>
        <time>2015-06-28T13:00:21Z</time>
      </trkpt>
      <trkpt lat="44.2127" lon="6.82319">
        <ele>2674.52</ele>
        <time>2015-06-28T13:00:24Z</time>
      </trkpt>
      <trkpt lat="44.21271" lon="6.82316">
        <ele>2674.04</ele>
        <time>2015-06-28T13:00:26Z</time>
      </trkpt>
      <trkpt lat="44.2127" lon="6.82311">
        <ele>2673.56</ele>
        <time>2015-06-28T13:00:38Z</time>
      </trkpt>
      <trkpt lat="44.21272" lon="6.82302">
        <ele>2673.08</ele>
        <time>2015-06-28T13:00:46Z</time>
      </trkpt>
      <trkpt lat="44.21277" lon="6.82287">
        <ele>2670.68</ele>
        <time>2015-06-28T13:01:00Z</time>
      </trkpt>
      <trkpt lat="44.21278" lon="6.82276">
        <ele>2670.68</ele>
        <time>2015-06-28T13:01:11Z</time>
      </trkpt>
      <trkpt lat="44.21281" lon="6.82271">
        <ele>2668.28</ele>
        <time>2015-06-28T13:01:23Z</time>
      </trkpt>
      <trkpt lat="44.21282" lon="6.82265">
        <ele>2666.83</ele>
        <time>2015-06-28T13:01:37Z</time>
      </trkpt>
      <trkpt lat="44.2128" lon="6.82262">
        <ele>2668.28</ele>
        <time>2015-06-28T13:01:44Z</time>
      </trkpt>
      <trkpt lat="44.21281" lon="6.82254">
        <ele>2668.28</ele>
        <time>2015-06-28T13:01:50Z</time>
      </trkpt>
      <trkpt lat="44.21285" lon="6.82241">
        <ele>2667.31</ele>
        <time>2015-06-28T13:02:05Z</time>
      </trkpt>
      <trkpt lat="44.21288" lon="6.82236">
        <ele>2665.39</ele>
        <time>2015-06-28T13:02:11Z</time>
      </trkpt>
      <trkpt lat="44.2129" lon="6.82228">
        <ele>2663.95</ele>
        <time>2015-06-28T13:02:19Z</time>
      </trkpt>
      <trkpt lat="44.21291" lon="6.82224">
        <ele>2663.95</ele>
        <time>2015-06-28T13:02:24Z</time>
      </trkpt>
      <trkpt lat="44.21292" lon="6.82216">
        <ele>2661.07</ele>
        <time>2015-06-28T13:02:30Z</time>
      </trkpt>
      <trkpt lat="44.21292" lon="6.82203">
        <ele>2658.66</ele>
        <time>2015-06-28T13:02:42Z</time>
      </trkpt>
      <trkpt lat="44.21295" lon="6.82192">
        <ele>2657.7</ele>
        <time>2015-06-28T13:02:53Z</time>
      </trkpt>
      <trkpt lat="44.21294" lon="6.82177">
        <ele>2654.82</ele>
        <time>2015-06-28T13:03:06Z</time>
      </trkpt>
      <trkpt lat="44.21292" lon="6.82169">
        <ele>2653.38</ele>
        <time>2015-06-28T13:03:21Z</time>
      </trkpt>
      <trkpt lat="44.21292" lon="6.82164">
        <ele>2651.93</ele>
        <time>2015-06-28T13:03:27Z</time>
      </trkpt>
      <trkpt lat="44.21291" lon="6.82155">
        <ele>2650.01</ele>
        <time>2015-06-28T13:03:35Z</time>
      </trkpt>
      <trkpt lat="44.21289" lon="6.82144">
        <ele>2647.61</ele>
        <time>2015-06-28T13:03:46Z</time>
      </trkpt>
      <trkpt lat="44.21286" lon="6.82134">
        <ele>2643.76</ele>
        <time>2015-06-28T13:03:58Z</time>
      </trkpt>
      <trkpt lat="44.21287" lon="6.82133">
        <ele>2642.8</ele>
        <time>2015-06-28T13:04:03Z</time>
      </trkpt>
      <trkpt lat="44.21291" lon="6.82134">
        <ele>2639.92</ele>
        <time>2015-06-28T13:04:05Z</time>
      </trkpt>
      <trkpt lat="44.21292" lon="6.82133">
        <ele>2650.97</ele>
        <time>2015-06-28T13:04:06Z</time>
      </trkpt>
      <trkpt lat="44.21293" lon="6.82133">
        <ele>2643.76</ele>
        <time>2015-06-28T13:04:07Z</time>
      </trkpt>
      <trkpt lat="44.21286" lon="6.82129">
        <ele>2642.8</ele>
        <time>2015-06-28T13:04:18Z</time>
      </trkpt>
      <trkpt lat="44.21279" lon="6.82121">
        <ele>2640.88</ele>
        <time>2015-06-28T13:04:31Z</time>
      </trkpt>
      <trkpt lat="44.21279" lon="6.8212">
        <ele>2640.4</ele>
        <time>2015-06-28T13:04:32Z</time>
      </trkpt>
      <trkpt lat="44.21275" lon="6.82111">
        <ele>2637.51</ele>
        <time>2015-06-28T13:04:43Z</time>
      </trkpt>
      <trkpt lat="44.21276" lon="6.82107">
        <ele>2637.03</ele>
        <time>2015-06-28T13:04:57Z</time>
      </trkpt>
      <trkpt lat="44.21278" lon="6.82106">
        <ele>2636.55</ele>
        <time>2015-06-28T13:05:23Z</time>
      </trkpt>
      <trkpt lat="44.2128" lon="6.82096">
        <ele>2636.07</ele>
        <time>2015-06-28T13:05:38Z</time>
      </trkpt>
      <trkpt lat="44.21281" lon="6.82094">
        <ele>2635.11</ele>
        <time>2015-06-28T13:05:57Z</time>
      </trkpt>
      <trkpt lat="44.21281" lon="6.82094">
        <ele>2635.11</ele>
        <time>2015-06-28T13:06:24Z</time>
      </trkpt>
      <trkpt lat="44.21282" lon="6.82093">
        <ele>2634.63</ele>
        <time>2015-06-28T13:06:43Z</time>
      </trkpt>
      <trkpt lat="44.21281" lon="6.82092">
        <ele>2636.07</ele>
        <time>2015-06-28T13:06:53Z</time>
      </trkpt>
      <trkpt lat="44.21282" lon="6.82093">
        <ele>2634.63</ele>
        <time>2015-06-28T13:07:14Z</time>
      </trkpt>
      <trkpt lat="44.21281" lon="6.82092">
        <ele>2635.59</ele>
        <time>2015-06-28T13:07:40Z</time>
      </trkpt>
      <trkpt lat="44.2128" lon="6.82093">
        <ele>2634.15</ele>
        <time>2015-06-28T13:07:58Z</time>
      </trkpt>
      <trkpt lat="44.21279" lon="6.82092">
        <ele>2634.15</ele>
        <time>2015-06-28T13:08:19Z</time>
      </trkpt>
      <trkpt lat="44.21279" lon="6.82093">
        <ele>2634.15</ele>
        <time>2015-06-28T13:08:43Z</time>
      </trkpt>
      <trkpt lat="44.2128" lon="6.82092">
        <ele>2634.15</ele>
        <time>2015-06-28T13:09:06Z</time>
      </trkpt>
      <trkpt lat="44.21282" lon="6.8209">
        <ele>2635.11</ele>
        <time>2015-06-28T13:09:24Z</time>
      </trkpt>
      <trkpt lat="44.21282" lon="6.82089">
        <ele>2635.11</ele>
        <time>2015-06-28T13:09:25Z</time>
      </trkpt>
      <trkpt lat="44.21286" lon="6.82077">
        <ele>2631.75</ele>
        <time>2015-06-28T13:09:40Z</time>
      </trkpt>
      <trkpt lat="44.21283" lon="6.82069">
        <ele>2630.3</ele>
        <time>2015-06-28T13:09:52Z</time>
      </trkpt>
      <trkpt lat="44.21281" lon="6.82059">
        <ele>2628.38</ele>
        <time>2015-06-28T13:10:04Z</time>
      </trkpt>
      <trkpt lat="44.21285" lon="6.82049">
        <ele>2625.98</ele>
        <time>2015-06-28T13:10:17Z</time>
      </trkpt>
      <trkpt lat="44.21286" lon="6.82041">
        <ele>2624.54</ele>
        <time>2015-06-28T13:10:24Z</time>
      </trkpt>
      <trkpt lat="44.21288" lon="6.82025">
        <ele>2622.61</ele>
        <time>2015-06-28T13:10:40Z</time>
      </trkpt>
      <trkpt lat="44.21288" lon="6.82021">
        <ele>2621.65</ele>
        <time>2015-06-28T13:10:43Z</time>
      </trkpt>
      <trkpt lat="44.21291" lon="6.82013">
        <ele>2620.69</ele>
        <time>2015-06-28T13:10:51Z</time>
      </trkpt>
      <trkpt lat="44.21293" lon="6.81996">
        <ele>2620.21</ele>
        <time>2015-06-28T13:11:04Z</time>
      </trkpt>
      <trkpt lat="44.21294" lon="6.81993">
        <ele>2619.73</ele>
        <time>2015-06-28T13:11:06Z</time>
      </trkpt>
      <trkpt lat="44.21298" lon="6.81984">
        <ele>2619.25</ele>
        <time>2015-06-28T13:11:19Z</time>
      </trkpt>
      <trkpt lat="44.21303" lon="6.81968">
        <ele>2618.77</ele>
        <time>2015-06-28T13:11:34Z</time>
      </trkpt>
      <trkpt lat="44.2131" lon="6.81959">
        <ele>2615.88</ele>
        <time>2015-06-28T13:11:48Z</time>
      </trkpt>
      <trkpt lat="44.21317" lon="6.81951">
        <ele>2613.48</ele>
        <time>2015-06-28T13:12:02Z</time>
      </trkpt>
      <trkpt lat="44.21324" lon="6.81945">
        <ele>2613</ele>
        <time>2015-06-28T13:12:16Z</time>
      </trkpt>
      <trkpt lat="44.21326" lon="6.81943">
        <ele>2612.52</ele>
        <time>2015-06-28T13:12:20Z</time>
      </trkpt>
      <trkpt lat="44.21337" lon="6.81939">
        <ele>2609.64</ele>
        <time>2015-06-28T13:12:35Z</time>
      </trkpt>
      <trkpt lat="44.21335" lon="6.81931">
        <ele>2607.71</ele>
        <time>2015-06-28T13:12:46Z</time>
      </trkpt>
      <trkpt lat="44.21335" lon="6.81928">
        <ele>2606.75</ele>
        <time>2015-06-28T13:12:48Z</time>
      </trkpt>
      <trkpt lat="44.21337" lon="6.8192">
        <ele>2603.87</ele>
        <time>2015-06-28T13:12:57Z</time>
      </trkpt>
      <trkpt lat="44.2134" lon="6.81918">
        <ele>2603.39</ele>
        <time>2015-06-28T13:13:10Z</time>
      </trkpt>
      <trkpt lat="44.21352" lon="6.81916">
        <ele>2600.5</ele>
        <time>2015-06-28T13:13:26Z</time>
      </trkpt>
      <trkpt lat="44.21359" lon="6.81918">
        <ele>2598.58</ele>
        <time>2015-06-28T13:13:33Z</time>
      </trkpt>
      <trkpt lat="44.21364" lon="6.81919">
        <ele>2598.1</ele>
        <time>2015-06-28T13:13:37Z</time>
      </trkpt>
      <trkpt lat="44.21378" lon="6.81914">
        <ele>2594.74</ele>
        <time>2015-06-28T13:13:53Z</time>
      </trkpt>
      <trkpt lat="44.21385" lon="6.81907">
        <ele>2593.29</ele>
        <time>2015-06-28T13:14:06Z</time>
      </trkpt>
      <trkpt lat="44.2139" lon="6.81904">
        <ele>2591.85</ele>
        <time>2015-06-28T13:14:12Z</time>
      </trkpt>
      <trkpt lat="44.21393" lon="6.81903">
        <ele>2591.37</ele>
        <time>2015-06-28T13:14:16Z</time>
      </trkpt>
      <trkpt lat="44.21407" lon="6.81898">
        <ele>2588.49</ele>
        <time>2015-06-28T13:14:32Z</time>
      </trkpt>
      <trkpt lat="44.21416" lon="6.81891">
        <ele>2585.12</ele>
        <time>2015-06-28T13:14:47Z</time>
      </trkpt>
      <trkpt lat="44.21423" lon="6.81889">
        <ele>2584.64</ele>
        <time>2015-06-28T13:14:56Z</time>
      </trkpt>
      <trkpt lat="44.21432" lon="6.81878">
        <ele>2582.24</ele>
        <time>2015-06-28T13:15:10Z</time>
      </trkpt>
      <trkpt lat="44.21437" lon="6.81866">
        <ele>2581.76</ele>
        <time>2015-06-28T13:15:24Z</time>
      </trkpt>
      <trkpt lat="44.21441" lon="6.81855">
        <ele>2580.32</ele>
        <time>2015-06-28T13:15:35Z</time>
      </trkpt>
      <trkpt lat="44.2144" lon="6.81854">
        <ele>2580.8</ele>
        <time>2015-06-28T13:15:40Z</time>
      </trkpt>
      <trkpt lat="44.21445" lon="6.81848">
        <ele>2580.8</ele>
        <time>2015-06-28T13:15:49Z</time>
      </trkpt>
      <trkpt lat="44.21447" lon="6.81844">
        <ele>2579.35</ele>
        <time>2015-06-28T13:15:53Z</time>
      </trkpt>
      <trkpt lat="44.21455" lon="6.81832">
        <ele>2579.35</ele>
        <time>2015-06-28T13:16:06Z</time>
      </trkpt>
      <trkpt lat="44.21457" lon="6.81827">
        <ele>2579.35</ele>
        <time>2015-06-28T13:16:10Z</time>
      </trkpt>
      <trkpt lat="44.21458" lon="6.81813">
        <ele>2579.35</ele>
        <time>2015-06-28T13:16:20Z</time>
      </trkpt>
      <trkpt lat="44.21457" lon="6.81807">
        <ele>2579.35</ele>
        <time>2015-06-28T13:16:36Z</time>
      </trkpt>
      <trkpt lat="44.21458" lon="6.81803">
        <ele>2579.35</ele>
        <time>2015-06-28T13:17:00Z</time>
      </trkpt>
      <trkpt lat="44.21463" lon="6.81791">
        <ele>2579.35</ele>
        <time>2015-06-28T13:17:18Z</time>
      </trkpt>
      <trkpt lat="44.21472" lon="6.81778">
        <ele>2578.39</ele>
        <time>2015-06-28T13:17:31Z</time>
      </trkpt>
      <trkpt lat="44.21473" lon="6.81775">
        <ele>2579.84</ele>
        <time>2015-06-28T13:17:35Z</time>
      </trkpt>
      <trkpt lat="44.21472" lon="6.81768">
        <ele>2579.84</ele>
        <time>2015-06-28T13:17:43Z</time>
      </trkpt>
      <trkpt lat="44.21471" lon="6.81754">
        <ele>2581.28</ele>
        <time>2015-06-28T13:17:57Z</time>
      </trkpt>
      <trkpt lat="44.21471" lon="6.81753">
        <ele>2581.28</ele>
        <time>2015-06-28T13:17:58Z</time>
      </trkpt>
      <trkpt lat="44.21474" lon="6.81747">
        <ele>2582.24</ele>
        <time>2015-06-28T13:18:09Z</time>
      </trkpt>
      <trkpt lat="44.21474" lon="6.81745">
        <ele>2582.24</ele>
        <time>2015-06-28T13:18:22Z</time>
      </trkpt>
      <trkpt lat="44.21475" lon="6.81735">
        <ele>2583.2</ele>
        <time>2015-06-28T13:18:37Z</time>
      </trkpt>
      <trkpt lat="44.21477" lon="6.81725">
        <ele>2584.64</ele>
        <time>2015-06-28T13:18:47Z</time>
      </trkpt>
      <trkpt lat="44.21479" lon="6.81712">
        <ele>2585.6</ele>
        <time>2015-06-28T13:18:58Z</time>
      </trkpt>
      <trkpt lat="44.2148" lon="6.8171">
        <ele>2585.6</ele>
        <time>2015-06-28T13:19:00Z</time>
      </trkpt>
      <trkpt lat="44.21482" lon="6.81708">
        <ele>2586.08</ele>
        <time>2015-06-28T13:19:03Z</time>
      </trkpt>
      <trkpt lat="44.21483" lon="6.81695">
        <ele>2587.53</ele>
        <time>2015-06-28T13:19:16Z</time>
      </trkpt>
      <trkpt lat="44.21483" lon="6.81693">
        <ele>2587.04</ele>
        <time>2015-06-28T13:19:18Z</time>
      </trkpt>
      <trkpt lat="44.21487" lon="6.81683">
        <ele>2590.41</ele>
        <time>2015-06-28T13:19:32Z</time>
      </trkpt>
      <trkpt lat="44.21487" lon="6.8168">
        <ele>2590.89</ele>
        <time>2015-06-28T13:19:35Z</time>
      </trkpt>
      <trkpt lat="44.2149" lon="6.81676">
        <ele>2591.85</ele>
        <time>2015-06-28T13:19:42Z</time>
      </trkpt>
      <trkpt lat="44.21493" lon="6.81666">
        <ele>2593.29</ele>
        <time>2015-06-28T13:19:53Z</time>
      </trkpt>
      <trkpt lat="44.21493" lon="6.81657">
        <ele>2594.25</ele>
        <time>2015-06-28T13:20:04Z</time>
      </trkpt>
      <trkpt lat="44.2149" lon="6.81653">
        <ele>2595.22</ele>
        <time>2015-06-28T13:20:18Z</time>
      </trkpt>
      <trkpt lat="44.21489" lon="6.81652">
        <ele>2595.7</ele>
        <time>2015-06-28T13:20:33Z</time>
      </trkpt>
      <trkpt lat="44.21488" lon="6.81642">
        <ele>2596.18</ele>
        <time>2015-06-28T13:20:46Z</time>
      </trkpt>
      <trkpt lat="44.21487" lon="6.81628">
        <ele>2598.58</ele>
        <time>2015-06-28T13:21:00Z</time>
      </trkpt>
      <trkpt lat="44.21485" lon="6.81616">
        <ele>2600.02</ele>
        <time>2015-06-28T13:21:12Z</time>
      </trkpt>
      <trkpt lat="44.21483" lon="6.81616">
        <ele>2600.02</ele>
        <time>2015-06-28T13:21:24Z</time>
      </trkpt>
      <trkpt lat="44.21482" lon="6.81606">
        <ele>2600.98</ele>
        <time>2015-06-28T13:21:36Z</time>
      </trkpt>
      <trkpt lat="44.21482" lon="6.81597">
        <ele>2602.43</ele>
        <time>2015-06-28T13:21:48Z</time>
      </trkpt>
      <trkpt lat="44.21482" lon="6.81589">
        <ele>2603.87</ele>
        <time>2015-06-28T13:22:02Z</time>
      </trkpt>
      <trkpt lat="44.21482" lon="6.81582">
        <ele>2604.35</ele>
        <time>2015-06-28T13:22:17Z</time>
      </trkpt>
      <trkpt lat="44.21484" lon="6.81571">
        <ele>2605.79</ele>
        <time>2015-06-28T13:22:28Z</time>
      </trkpt>
      <trkpt lat="44.21487" lon="6.81558">
        <ele>2608.19</ele>
        <time>2015-06-28T13:22:40Z</time>
      </trkpt>
      <trkpt lat="44.21489" lon="6.81547">
        <ele>2609.16</ele>
        <time>2015-06-28T13:22:50Z</time>
      </trkpt>
      <trkpt lat="44.21492" lon="6.81534">
        <ele>2610.6</ele>
        <time>2015-06-28T13:23:03Z</time>
      </trkpt>
      <trkpt lat="44.21494" lon="6.81518">
        <ele>2612.52</ele>
        <time>2015-06-28T13:23:18Z</time>
      </trkpt>
      <trkpt lat="44.21494" lon="6.81515">
        <ele>2612.52</ele>
        <time>2015-06-28T13:23:21Z</time>
      </trkpt>
      <trkpt lat="44.21496" lon="6.81504">
        <ele>2614.44</ele>
        <time>2015-06-28T13:23:32Z</time>
      </trkpt>
      <trkpt lat="44.21495" lon="6.81496">
        <ele>2615.4</ele>
        <time>2015-06-28T13:23:40Z</time>
      </trkpt>
      <trkpt lat="44.21492" lon="6.81487">
        <ele>2616.37</ele>
        <time>2015-06-28T13:23:46Z</time>
      </trkpt>
      <trkpt lat="44.21492" lon="6.81471">
        <ele>2618.29</ele>
        <time>2015-06-28T13:23:59Z</time>
      </trkpt>
      <trkpt lat="44.21489" lon="6.81455">
        <ele>2619.73</ele>
        <time>2015-06-28T13:24:12Z</time>
      </trkpt>
      <trkpt lat="44.21489" lon="6.81452">
        <ele>2620.21</ele>
        <time>2015-06-28T13:24:15Z</time>
      </trkpt>
      <trkpt lat="44.21486" lon="6.81437">
        <ele>2622.13</ele>
        <time>2015-06-28T13:24:28Z</time>
      </trkpt>
      <trkpt lat="44.21485" lon="6.81429">
        <ele>2623.09</ele>
        <time>2015-06-28T13:24:35Z</time>
      </trkpt>
      <trkpt lat="44.21484" lon="6.81415">
        <ele>2624.54</ele>
        <time>2015-06-28T13:24:46Z</time>
      </trkpt>
      <trkpt lat="44.21485" lon="6.81398">
        <ele>2626.46</ele>
        <time>2015-06-28T13:25:00Z</time>
      </trkpt>
      <trkpt lat="44.21478" lon="6.81388">
        <ele>2627.42</ele>
        <time>2015-06-28T13:25:15Z</time>
      </trkpt>
      <trkpt lat="44.21477" lon="6.81383">
        <ele>2628.86</ele>
        <time>2015-06-28T13:25:30Z</time>
      </trkpt>
      <trkpt lat="44.21476" lon="6.8138">
        <ele>2628.86</ele>
        <time>2015-06-28T13:25:42Z</time>
      </trkpt>
      <trkpt lat="44.21477" lon="6.81377">
        <ele>2628.86</ele>
        <time>2015-06-28T13:26:00Z</time>
      </trkpt>
      <trkpt lat="44.21478" lon="6.81374">
        <ele>2629.34</ele>
        <time>2015-06-28T13:26:21Z</time>
      </trkpt>
      <trkpt lat="44.21478" lon="6.81371">
        <ele>2629.82</ele>
        <time>2015-06-28T13:26:37Z</time>
      </trkpt>
      <trkpt lat="44.21477" lon="6.81371">
        <ele>2629.82</ele>
        <time>2015-06-28T13:26:58Z</time>
      </trkpt>
      <trkpt lat="44.21481" lon="6.81372">
        <ele>2629.82</ele>
        <time>2015-06-28T13:27:24Z</time>
      </trkpt>
      <trkpt lat="44.21483" lon="6.81371">
        <ele>2630.79</ele>
        <time>2015-06-28T13:27:35Z</time>
      </trkpt>
      <trkpt lat="44.21483" lon="6.81374">
        <ele>2631.27</ele>
        <time>2015-06-28T13:27:54Z</time>
      </trkpt>
      <trkpt lat="44.21482" lon="6.81375">
        <ele>2630.3</ele>
        <time>2015-06-28T13:28:00Z</time>
      </trkpt>
      <trkpt lat="44.2148" lon="6.81374">
        <ele>2630.3</ele>
        <time>2015-06-28T13:28:15Z</time>
      </trkpt>
      <trkpt lat="44.2148" lon="6.8137">
        <ele>2630.3</ele>
        <time>2015-06-28T13:28:31Z</time>
      </trkpt>
      <trkpt lat="44.21478" lon="6.81369">
        <ele>2630.3</ele>
        <time>2015-06-28T13:28:53Z</time>
      </trkpt>
      <trkpt lat="44.21481" lon="6.81364">
        <ele>2630.3</ele>
        <time>2015-06-28T13:29:05Z</time>
      </trkpt>
      <trkpt lat="44.21481" lon="6.81362">
        <ele>2630.3</ele>
        <time>2015-06-28T13:29:07Z</time>
      </trkpt>
      <trkpt lat="44.2148" lon="6.81355">
        <ele>2629.34</ele>
        <time>2015-06-28T13:29:23Z</time>
      </trkpt>
      <trkpt lat="44.2148" lon="6.81356">
        <ele>2629.34</ele>
        <time>2015-06-28T13:29:55Z</time>
      </trkpt>
      <trkpt lat="44.21481" lon="6.81354">
        <ele>2629.34</ele>
        <time>2015-06-28T13:30:13Z</time>
      </trkpt>
      <trkpt lat="44.2148" lon="6.81354">
        <ele>2630.79</ele>
        <time>2015-06-28T13:30:32Z</time>
      </trkpt>
      <trkpt lat="44.21482" lon="6.81354">
        <ele>2631.27</ele>
        <time>2015-06-28T13:30:50Z</time>
      </trkpt>
      <trkpt lat="44.21482" lon="6.81353">
        <ele>2631.27</ele>
        <time>2015-06-28T13:31:17Z</time>
      </trkpt>
      <trkpt lat="44.2148" lon="6.81355">
        <ele>2631.27</ele>
        <time>2015-06-28T13:31:36Z</time>
      </trkpt>
      <trkpt lat="44.21479" lon="6.81357">
        <ele>2630.79</ele>
        <time>2015-06-28T13:31:48Z</time>
      </trkpt>
      <trkpt lat="44.21482" lon="6.81351">
        <ele>2629.34</ele>
        <time>2015-06-28T13:31:55Z</time>
      </trkpt>
      <trkpt lat="44.21485" lon="6.81344">
        <ele>2628.38</ele>
        <time>2015-06-28T13:32:08Z</time>
      </trkpt>
      <trkpt lat="44.21485" lon="6.81343">
        <ele>2628.38</ele>
        <time>2015-06-28T13:32:29Z</time>
      </trkpt>
      <trkpt lat="44.21487" lon="6.81341">
        <ele>2627.9</ele>
        <time>2015-06-28T13:32:49Z</time>
      </trkpt>
      <trkpt lat="44.21489" lon="6.81338">
        <ele>2626.94</ele>
        <time>2015-06-28T13:33:01Z</time>
      </trkpt>
      <trkpt lat="44.21491" lon="6.81335">
        <ele>2626.46</ele>
        <time>2015-06-28T13:33:20Z</time>
      </trkpt>
      <trkpt lat="44.21493" lon="6.81334">
        <ele>2625.5</ele>
        <time>2015-06-28T13:33:37Z</time>
      </trkpt>
      <trkpt lat="44.21495" lon="6.81334">
        <ele>2625.5</ele>
        <time>2015-06-28T13:33:56Z</time>
      </trkpt>
      <trkpt lat="44.21499" lon="6.81327">
        <ele>2624.54</ele>
        <time>2015-06-28T13:34:08Z</time>
      </trkpt>
      <trkpt lat="44.215" lon="6.81325">
        <ele>2623.58</ele>
        <time>2015-06-28T13:34:23Z</time>
      </trkpt>
      <trkpt lat="44.21496" lon="6.81325">
        <ele>2623.58</ele>
        <time>2015-06-28T13:34:51Z</time>
      </trkpt>
      <trkpt lat="44.21499" lon="6.81323">
        <ele>2623.58</ele>
        <time>2015-06-28T13:35:12Z</time>
      </trkpt>
      <trkpt lat="44.21501" lon="6.8132">
        <ele>2623.58</ele>
        <time>2015-06-28T13:35:20Z</time>
      </trkpt>
      <trkpt lat="44.21507" lon="6.81313">
        <ele>2621.17</ele>
        <time>2015-06-28T13:35:33Z</time>
      </trkpt>
      <trkpt lat="44.21507" lon="6.81313">
        <ele>2624.06</ele>
        <time>2015-06-28T13:35:57Z</time>
      </trkpt>
      <trkpt lat="44.21507" lon="6.81313">
        <ele>2622.13</ele>
        <time>2015-06-28T13:36:00Z</time>
      </trkpt>
      <trkpt lat="44.21507" lon="6.81312">
        <ele>2620.69</ele>
        <time>2015-06-28T13:36:14Z</time>
      </trkpt>
      <trkpt lat="44.21508" lon="6.81309">
        <ele>2620.69</ele>
        <time>2015-06-28T13:36:26Z</time>
      </trkpt>
      <trkpt lat="44.21511" lon="6.813">
        <ele>2619.25</ele>
        <time>2015-06-28T13:36:48Z</time>
      </trkpt>
      <trkpt lat="44.21516" lon="6.81295">
        <ele>2617.81</ele>
        <time>2015-06-28T13:36:56Z</time>
      </trkpt>
      <trkpt lat="44.21522" lon="6.81283">
        <ele>2614.92</ele>
        <time>2015-06-28T13:37:10Z</time>
      </trkpt>
      <trkpt lat="44.21523" lon="6.81278">
        <ele>2613.48</ele>
        <time>2015-06-28T13:37:21Z</time>
      </trkpt>
      <trkpt lat="44.21525" lon="6.81273">
        <ele>2612.04</ele>
        <time>2015-06-28T13:37:33Z</time>
      </trkpt>
      <trkpt lat="44.21528" lon="6.8127">
        <ele>2611.56</ele>
        <time>2015-06-28T13:37:54Z</time>
      </trkpt>
      <trkpt lat="44.21529" lon="6.81263">
        <ele>2610.6</ele>
        <time>2015-06-28T13:38:11Z</time>
      </trkpt>
      <trkpt lat="44.21531" lon="6.81262">
        <ele>2610.12</ele>
        <time>2015-06-28T13:38:22Z</time>
      </trkpt>
      <trkpt lat="44.21535" lon="6.81253">
        <ele>2606.75</ele>
        <time>2015-06-28T13:38:35Z</time>
      </trkpt>
      <trkpt lat="44.21539" lon="6.81245">
        <ele>2604.35</ele>
        <time>2015-06-28T13:38:45Z</time>
      </trkpt>
      <trkpt lat="44.21539" lon="6.81242">
        <ele>2603.87</ele>
        <time>2015-06-28T13:38:47Z</time>
      </trkpt>
      <trkpt lat="44.21544" lon="6.81232">
        <ele>2601.95</ele>
        <time>2015-06-28T13:38:56Z</time>
      </trkpt>
      <trkpt lat="44.21545" lon="6.81222">
        <ele>2600.5</ele>
        <time>2015-06-28T13:39:08Z</time>
      </trkpt>
      <trkpt lat="44.21542" lon="6.81213">
        <ele>2600.02</ele>
        <time>2015-06-28T13:39:21Z</time>
      </trkpt>
      <trkpt lat="44.21542" lon="6.81208">
        <ele>2600.02</ele>
        <time>2015-06-28T13:39:36Z</time>
      </trkpt>
      <trkpt lat="44.21543" lon="6.81207">
        <ele>2600.02</ele>
        <time>2015-06-28T13:39:37Z</time>
      </trkpt>
      <trkpt lat="44.21546" lon="6.81203">
        <ele>2599.06</ele>
        <time>2015-06-28T13:39:45Z</time>
      </trkpt>
      <trkpt lat="44.2155" lon="6.81187">
        <ele>2596.66</ele>
        <time>2015-06-28T13:39:58Z</time>
      </trkpt>
      <trkpt lat="44.21551" lon="6.81183">
        <ele>2595.7</ele>
        <time>2015-06-28T13:40:02Z</time>
      </trkpt>
      <trkpt lat="44.21553" lon="6.81177">
        <ele>2593.29</ele>
        <time>2015-06-28T13:40:14Z</time>
      </trkpt>
      <trkpt lat="44.21555" lon="6.81175">
        <ele>2592.33</ele>
        <time>2015-06-28T13:40:22Z</time>
      </trkpt>
      <trkpt lat="44.21557" lon="6.81167">
        <ele>2588.97</ele>
        <time>2015-06-28T13:40:33Z</time>
      </trkpt>
      <trkpt lat="44.21561" lon="6.8116">
        <ele>2586.56</ele>
        <time>2015-06-28T13:40:45Z</time>
      </trkpt>
      <trkpt lat="44.21562" lon="6.81154">
        <ele>2585.12</ele>
        <time>2015-06-28T13:41:02Z</time>
      </trkpt>
      <trkpt lat="44.21561" lon="6.81147">
        <ele>2584.64</ele>
        <time>2015-06-28T13:41:15Z</time>
      </trkpt>
      <trkpt lat="44.21561" lon="6.81145">
        <ele>2583.68</ele>
        <time>2015-06-28T13:41:32Z</time>
      </trkpt>
      <trkpt lat="44.21559" lon="6.81142">
        <ele>2583.68</ele>
        <time>2015-06-28T13:42:03Z</time>
      </trkpt>
      <trkpt lat="44.21561" lon="6.8114">
        <ele>2583.68</ele>
        <time>2015-06-28T13:42:26Z</time>
      </trkpt>
      <trkpt lat="44.2156" lon="6.81139">
        <ele>2583.2</ele>
        <time>2015-06-28T13:42:52Z</time>
      </trkpt>
      <trkpt lat="44.21562" lon="6.81129">
        <ele>2580.32</ele>
        <time>2015-06-28T13:43:00Z</time>
      </trkpt>
      <trkpt lat="44.21569" lon="6.81126">
        <ele>2578.39</ele>
        <time>2015-06-28T13:43:09Z</time>
      </trkpt>
      <trkpt lat="44.21573" lon="6.81116">
        <ele>2574.55</ele>
        <time>2015-06-28T13:43:20Z</time>
      </trkpt>
      <trkpt lat="44.21575" lon="6.81106">
        <ele>2572.14</ele>
        <time>2015-06-28T13:43:28Z</time>
      </trkpt>
      <trkpt lat="44.21574" lon="6.81094">
        <ele>2568.3</ele>
        <time>2015-06-28T13:43:41Z</time>
      </trkpt>
      <trkpt lat="44.2157" lon="6.81085">
        <ele>2567.34</ele>
        <time>2015-06-28T13:43:56Z</time>
      </trkpt>
      <trkpt lat="44.2157" lon="6.81085">
        <ele>2567.34</ele>
        <time>2015-06-28T13:44:02Z</time>
      </trkpt>
      <trkpt lat="44.21571" lon="6.81083">
        <ele>2566.86</ele>
        <time>2015-06-28T13:44:15Z</time>
      </trkpt>
      <trkpt lat="44.21569" lon="6.81064">
        <ele>2566.38</ele>
        <time>2015-06-28T13:44:29Z</time>
      </trkpt>
      <trkpt lat="44.21569" lon="6.81058">
        <ele>2564.93</ele>
        <time>2015-06-28T13:44:47Z</time>
      </trkpt>
      <trkpt lat="44.21569" lon="6.8106">
        <ele>2564.93</ele>
        <time>2015-06-28T13:45:09Z</time>
      </trkpt>
      <trkpt lat="44.2157" lon="6.81047">
        <ele>2563.49</ele>
        <time>2015-06-28T13:45:27Z</time>
      </trkpt>
      <trkpt lat="44.2157" lon="6.81046">
        <ele>2563.49</ele>
        <time>2015-06-28T13:45:28Z</time>
      </trkpt>
      <trkpt lat="44.21575" lon="6.81031">
        <ele>2562.53</ele>
        <time>2015-06-28T13:45:43Z</time>
      </trkpt>
      <trkpt lat="44.21574" lon="6.81021">
        <ele>2561.57</ele>
        <time>2015-06-28T13:45:58Z</time>
      </trkpt>
      <trkpt lat="44.21574" lon="6.81016">
        <ele>2560.61</ele>
        <time>2015-06-28T13:46:08Z</time>
      </trkpt>
      <trkpt lat="44.21576" lon="6.81009">
        <ele>2559.17</ele>
        <time>2015-06-28T13:46:14Z</time>
      </trkpt>
      <trkpt lat="44.21576" lon="6.81003">
        <ele>2557.73</ele>
        <time>2015-06-28T13:46:19Z</time>
      </trkpt>
      <trkpt lat="44.21576" lon="6.80994">
        <ele>2555.32</ele>
        <time>2015-06-28T13:46:27Z</time>
      </trkpt>
      <trkpt lat="44.21575" lon="6.80983">
        <ele>2553.88</ele>
        <time>2015-06-28T13:46:35Z</time>
      </trkpt>
      <trkpt lat="44.21575" lon="6.80963">
        <ele>2551.96</ele>
        <time>2015-06-28T13:46:47Z</time>
      </trkpt>
      <trkpt lat="44.21572" lon="6.80945">
        <ele>2550.03</ele>
        <time>2015-06-28T13:47:00Z</time>
      </trkpt>
      <trkpt lat="44.21567" lon="6.80933">
        <ele>2547.63</ele>
        <time>2015-06-28T13:47:10Z</time>
      </trkpt>
      <trkpt lat="44.21565" lon="6.80923">
        <ele>2544.75</ele>
        <time>2015-06-28T13:47:18Z</time>
      </trkpt>
      <trkpt lat="44.21563" lon="6.80911">
        <ele>2542.34</ele>
        <time>2015-06-28T13:47:31Z</time>
      </trkpt>
      <trkpt lat="44.21564" lon="6.80905">
        <ele>2541.86</ele>
        <time>2015-06-28T13:47:43Z</time>
      </trkpt>
      <trkpt lat="44.21565" lon="6.80895">
        <ele>2540.9</ele>
        <time>2015-06-28T13:48:01Z</time>
      </trkpt>
      <trkpt lat="44.21564" lon="6.80894">
        <ele>2540.9</ele>
        <time>2015-06-28T13:48:02Z</time>
      </trkpt>
      <trkpt lat="44.21561" lon="6.80885">
        <ele>2539.94</ele>
        <time>2015-06-28T13:48:07Z</time>
      </trkpt>
      <trkpt lat="44.21562" lon="6.80871">
        <ele>2538.5</ele>
        <time>2015-06-28T13:48:19Z</time>
      </trkpt>
      <trkpt lat="44.21564" lon="6.80851">
        <ele>2538.5</ele>
        <time>2015-06-28T13:48:35Z</time>
      </trkpt>
      <trkpt lat="44.21561" lon="6.80834">
        <ele>2537.54</ele>
        <time>2015-06-28T13:48:47Z</time>
      </trkpt>
      <trkpt lat="44.21561" lon="6.80821">
        <ele>2537.06</ele>
        <time>2015-06-28T13:49:02Z</time>
      </trkpt>
      <trkpt lat="44.21561" lon="6.80811">
        <ele>2536.1</ele>
        <time>2015-06-28T13:49:22Z</time>
      </trkpt>
      <trkpt lat="44.21565" lon="6.80806">
        <ele>2534.17</ele>
        <time>2015-06-28T13:49:30Z</time>
      </trkpt>
      <trkpt lat="44.21558" lon="6.80796">
        <ele>2530.81</ele>
        <time>2015-06-28T13:49:43Z</time>
      </trkpt>
      <trkpt lat="44.21556" lon="6.80791">
        <ele>2530.33</ele>
        <time>2015-06-28T13:49:47Z</time>
      </trkpt>
      <trkpt lat="44.21558" lon="6.80776">
        <ele>2527.92</ele>
        <time>2015-06-28T13:50:00Z</time>
      </trkpt>
      <trkpt lat="44.2156" lon="6.80768">
        <ele>2524.56</ele>
        <time>2015-06-28T13:50:10Z</time>
      </trkpt>
      <trkpt lat="44.21561" lon="6.80761">
        <ele>2522.64</ele>
        <time>2015-06-28T13:50:17Z</time>
      </trkpt>
      <trkpt lat="44.21563" lon="6.80754">
        <ele>2519.75</ele>
        <time>2015-06-28T13:50:30Z</time>
      </trkpt>
      <trkpt lat="44.21562" lon="6.80749">
        <ele>2518.31</ele>
        <time>2015-06-28T13:50:37Z</time>
      </trkpt>
      <trkpt lat="44.21562" lon="6.80746">
        <ele>2518.31</ele>
        <time>2015-06-28T13:50:39Z</time>
      </trkpt>
      <trkpt lat="44.21562" lon="6.80735">
        <ele>2518.31</ele>
        <time>2015-06-28T13:50:47Z</time>
      </trkpt>
      <trkpt lat="44.21562" lon="6.80726">
        <ele>2516.87</ele>
        <time>2015-06-28T13:51:01Z</time>
      </trkpt>
      <trkpt lat="44.21562" lon="6.80725">
        <ele>2516.87</ele>
        <time>2015-06-28T13:51:08Z</time>
      </trkpt>
      <trkpt lat="44.2156" lon="6.80712">
        <ele>2515.43</ele>
        <time>2015-06-28T13:51:21Z</time>
      </trkpt>
      <trkpt lat="44.21558" lon="6.80706">
        <ele>2514.95</ele>
        <time>2015-06-28T13:51:38Z</time>
      </trkpt>
      <trkpt lat="44.21557" lon="6.80708">
        <ele>2514.47</ele>
        <time>2015-06-28T13:51:53Z</time>
      </trkpt>
      <trkpt lat="44.21564" lon="6.807">
        <ele>2512.06</ele>
        <time>2015-06-28T13:52:06Z</time>
      </trkpt>
      <trkpt lat="44.21565" lon="6.80699">
        <ele>2512.06</ele>
        <time>2015-06-28T13:52:07Z</time>
      </trkpt>
      <trkpt lat="44.21569" lon="6.80692">
        <ele>2510.14</ele>
        <time>2015-06-28T13:52:15Z</time>
      </trkpt>
      <trkpt lat="44.21574" lon="6.80685">
        <ele>2506.77</ele>
        <time>2015-06-28T13:52:27Z</time>
      </trkpt>
      <trkpt lat="44.21579" lon="6.80673">
        <ele>2504.37</ele>
        <time>2015-06-28T13:52:38Z</time>
      </trkpt>
      <trkpt lat="44.21583" lon="6.80668">
        <ele>2502.93</ele>
        <time>2015-06-28T13:52:46Z</time>
      </trkpt>
      <trkpt lat="44.21591" lon="6.80659">
        <ele>2500.53</ele>
        <time>2015-06-28T13:52:58Z</time>
      </trkpt>
      <trkpt lat="44.21599" lon="6.80647">
        <ele>2498.12</ele>
        <time>2015-06-28T13:53:10Z</time>
      </trkpt>
      <trkpt lat="44.21601" lon="6.80645">
        <ele>2497.64</ele>
        <time>2015-06-28T13:53:12Z</time>
      </trkpt>
      <trkpt lat="44.21602" lon="6.80643">
        <ele>2497.16</ele>
        <time>2015-06-28T13:53:14Z</time>
      </trkpt>
      <trkpt lat="44.21608" lon="6.80637">
        <ele>2495.72</ele>
        <time>2015-06-28T13:53:28Z</time>
      </trkpt>
      <trkpt lat="44.2161" lon="6.80632">
        <ele>2495.24</ele>
        <time>2015-06-28T13:53:36Z</time>
      </trkpt>
      <trkpt lat="44.21611" lon="6.80627">
        <ele>2492.84</ele>
        <time>2015-06-28T13:53:46Z</time>
      </trkpt>
      <trkpt lat="44.21614" lon="6.80618">
        <ele>2489.95</ele>
        <time>2015-06-28T13:53:58Z</time>
      </trkpt>
      <trkpt lat="44.21609" lon="6.80615">
        <ele>2488.99</ele>
        <time>2015-06-28T13:54:12Z</time>
      </trkpt>
      <trkpt lat="44.21608" lon="6.80615">
        <ele>2488.51</ele>
        <time>2015-06-28T13:54:15Z</time>
      </trkpt>
      <trkpt lat="44.21601" lon="6.80619">
        <ele>2488.51</ele>
        <time>2015-06-28T13:54:27Z</time>
      </trkpt>
      <trkpt lat="44.21599" lon="6.80613">
        <ele>2486.11</ele>
        <time>2015-06-28T13:54:38Z</time>
      </trkpt>
      <trkpt lat="44.21604" lon="6.80607">
        <ele>2484.18</ele>
        <time>2015-06-28T13:54:58Z</time>
      </trkpt>
      <trkpt lat="44.21607" lon="6.806">
        <ele>2483.22</ele>
        <time>2015-06-28T13:55:11Z</time>
      </trkpt>
      <trkpt lat="44.21609" lon="6.80595">
        <ele>2481.3</ele>
        <time>2015-06-28T13:55:23Z</time>
      </trkpt>
      <trkpt lat="44.21611" lon="6.80594">
        <ele>2480.82</ele>
        <time>2015-06-28T13:55:26Z</time>
      </trkpt>
      <trkpt lat="44.21617" lon="6.80578">
        <ele>2478.9</ele>
        <time>2015-06-28T13:55:39Z</time>
      </trkpt>
      <trkpt lat="44.21618" lon="6.80572">
        <ele>2477.45</ele>
        <time>2015-06-28T13:55:52Z</time>
      </trkpt>
      <trkpt lat="44.21623" lon="6.80565">
        <ele>2476.49</ele>
        <time>2015-06-28T13:56:11Z</time>
      </trkpt>
      <trkpt lat="44.21626" lon="6.80561">
        <ele>2475.05</ele>
        <time>2015-06-28T13:56:16Z</time>
      </trkpt>
      <trkpt lat="44.21629" lon="6.80555">
        <ele>2474.09</ele>
        <time>2015-06-28T13:56:21Z</time>
      </trkpt>
      <trkpt lat="44.21631" lon="6.80552">
        <ele>2473.61</ele>
        <time>2015-06-28T13:56:26Z</time>
      </trkpt>
      <trkpt lat="44.21637" lon="6.80545">
        <ele>2471.69</ele>
        <time>2015-06-28T13:56:41Z</time>
      </trkpt>
      <trkpt lat="44.2164" lon="6.80539">
        <ele>2470.24</ele>
        <time>2015-06-28T13:56:48Z</time>
      </trkpt>
      <trkpt lat="44.21639" lon="6.80528">
        <ele>2467.36</ele>
        <time>2015-06-28T13:56:57Z</time>
      </trkpt>
      <trkpt lat="44.2164" lon="6.80516">
        <ele>2464</ele>
        <time>2015-06-28T13:57:09Z</time>
      </trkpt>
      <trkpt lat="44.21639" lon="6.8051">
        <ele>2462.07</ele>
        <time>2015-06-28T13:57:17Z</time>
      </trkpt>
      <trkpt lat="44.21644" lon="6.80501">
        <ele>2458.71</ele>
        <time>2015-06-28T13:57:30Z</time>
      </trkpt>
      <trkpt lat="44.21641" lon="6.80496">
        <ele>2455.82</ele>
        <time>2015-06-28T13:57:41Z</time>
      </trkpt>
      <trkpt lat="44.21636" lon="6.80498">
        <ele>2452.94</ele>
        <time>2015-06-28T13:57:51Z</time>
      </trkpt>
      <trkpt lat="44.21632" lon="6.80494">
        <ele>2451.02</ele>
        <time>2015-06-28T13:57:59Z</time>
      </trkpt>
      <trkpt lat="44.21628" lon="6.8049">
        <ele>2449.1</ele>
        <time>2015-06-28T13:58:04Z</time>
      </trkpt>
      <trkpt lat="44.21627" lon="6.80485">
        <ele>2447.65</ele>
        <time>2015-06-28T13:58:08Z</time>
      </trkpt>
      <trkpt lat="44.21623" lon="6.80476">
        <ele>2444.29</ele>
        <time>2015-06-28T13:58:19Z</time>
      </trkpt>
      <trkpt lat="44.21624" lon="6.80476">
        <ele>2444.29</ele>
        <time>2015-06-28T13:58:20Z</time>
      </trkpt>
      <trkpt lat="44.21624" lon="6.80474">
        <ele>2443.81</ele>
        <time>2015-06-28T13:58:22Z</time>
      </trkpt>
      <trkpt lat="44.21625" lon="6.80471">
        <ele>2443.33</ele>
        <time>2015-06-28T13:58:24Z</time>
      </trkpt>
      <trkpt lat="44.21624" lon="6.80463">
        <ele>2439.48</ele>
        <time>2015-06-28T13:58:34Z</time>
      </trkpt>
      <trkpt lat="44.21623" lon="6.80464">
        <ele>2439.48</ele>
        <time>2015-06-28T13:58:35Z</time>
      </trkpt>
      <trkpt lat="44.21621" lon="6.80464">
        <ele>2439</ele>
        <time>2015-06-28T13:58:37Z</time>
      </trkpt>
      <trkpt lat="44.21613" lon="6.80457">
        <ele>2435.16</ele>
        <time>2015-06-28T13:58:47Z</time>
      </trkpt>
      <trkpt lat="44.21615" lon="6.80445">
        <ele>2433.23</ele>
        <time>2015-06-28T13:58:59Z</time>
      </trkpt>
      <trkpt lat="44.21619" lon="6.8044">
        <ele>2431.79</ele>
        <time>2015-06-28T13:59:13Z</time>
      </trkpt>
      <trkpt lat="44.21621" lon="6.80442">
        <ele>2431.31</ele>
        <time>2015-06-28T13:59:33Z</time>
      </trkpt>
      <trkpt lat="44.21621" lon="6.80444">
        <ele>2431.31</ele>
        <time>2015-06-28T13:59:56Z</time>
      </trkpt>
      <trkpt lat="44.21619" lon="6.80438">
        <ele>2431.31</ele>
        <time>2015-06-28T14:00:19Z</time>
      </trkpt>
      <trkpt lat="44.2162" lon="6.80439">
        <ele>2432.75</ele>
        <time>2015-06-28T14:00:31Z</time>
      </trkpt>
      <trkpt lat="44.2162" lon="6.8044">
        <ele>2431.31</ele>
        <time>2015-06-28T14:00:49Z</time>
      </trkpt>
      <trkpt lat="44.21619" lon="6.8043">
        <ele>2431.79</ele>
        <time>2015-06-28T14:01:08Z</time>
      </trkpt>
      <trkpt lat="44.21616" lon="6.80422">
        <ele>2427.95</ele>
        <time>2015-06-28T14:01:18Z</time>
      </trkpt>
      <trkpt lat="44.21611" lon="6.80413">
        <ele>2426.5</ele>
        <time>2015-06-28T14:01:30Z</time>
      </trkpt>
      <trkpt lat="44.2161" lon="6.80414">
        <ele>2424.58</ele>
        <time>2015-06-28T14:01:46Z</time>
      </trkpt>
      <trkpt lat="44.21609" lon="6.80411">
        <ele>2424.1</ele>
        <time>2015-06-28T14:01:50Z</time>
      </trkpt>
      <trkpt lat="44.2161" lon="6.8041">
        <ele>2421.7</ele>
        <time>2015-06-28T14:01:54Z</time>
      </trkpt>
      <trkpt lat="44.21608" lon="6.80405">
        <ele>2421.22</ele>
        <time>2015-06-28T14:02:04Z</time>
      </trkpt>
      <trkpt lat="44.21608" lon="6.80398">
        <ele>2420.26</ele>
        <time>2015-06-28T14:02:10Z</time>
      </trkpt>
      <trkpt lat="44.21605" lon="6.80391">
        <ele>2418.81</ele>
        <time>2015-06-28T14:02:16Z</time>
      </trkpt>
      <trkpt lat="44.21604" lon="6.80384">
        <ele>2417.37</ele>
        <time>2015-06-28T14:02:23Z</time>
      </trkpt>
      <trkpt lat="44.21609" lon="6.8037">
        <ele>2415.93</ele>
        <time>2015-06-28T14:02:37Z</time>
      </trkpt>
      <trkpt lat="44.21611" lon="6.80366">
        <ele>2415.45</ele>
        <time>2015-06-28T14:02:53Z</time>
      </trkpt>
      <trkpt lat="44.21613" lon="6.80357">
        <ele>2415.45</ele>
        <time>2015-06-28T14:03:07Z</time>
      </trkpt>
      <trkpt lat="44.21618" lon="6.80349">
        <ele>2414.97</ele>
        <time>2015-06-28T14:03:17Z</time>
      </trkpt>
      <trkpt lat="44.21621" lon="6.80347">
        <ele>2414.97</ele>
        <time>2015-06-28T14:03:32Z</time>
      </trkpt>
      <trkpt lat="44.21628" lon="6.80346">
        <ele>2414.49</ele>
        <time>2015-06-28T14:03:39Z</time>
      </trkpt>
      <trkpt lat="44.21639" lon="6.80333">
        <ele>2414.01</ele>
        <time>2015-06-28T14:03:53Z</time>
      </trkpt>
      <trkpt lat="44.21648" lon="6.80324">
        <ele>2414.01</ele>
        <time>2015-06-28T14:04:05Z</time>
      </trkpt>
      <trkpt lat="44.21654" lon="6.80306">
        <ele>2413.53</ele>
        <time>2015-06-28T14:04:19Z</time>
      </trkpt>
      <trkpt lat="44.21653" lon="6.80304">
        <ele>2413.53</ele>
        <time>2015-06-28T14:04:20Z</time>
      </trkpt>
      <trkpt lat="44.21651" lon="6.80296">
        <ele>2413.53</ele>
        <time>2015-06-28T14:04:26Z</time>
      </trkpt>
      <trkpt lat="44.21653" lon="6.80275">
        <ele>2413.05</ele>
        <time>2015-06-28T14:04:41Z</time>
      </trkpt>
      <trkpt lat="44.21654" lon="6.8027">
        <ele>2413.05</ele>
        <time>2015-06-28T14:04:45Z</time>
      </trkpt>
      <trkpt lat="44.21655" lon="6.80258">
        <ele>2413.05</ele>
        <time>2015-06-28T14:04:54Z</time>
      </trkpt>
      <trkpt lat="44.21655" lon="6.80255">
        <ele>2413.05</ele>
        <time>2015-06-28T14:04:56Z</time>
      </trkpt>
      <trkpt lat="44.21654" lon="6.8025">
        <ele>2413.05</ele>
        <time>2015-06-28T14:05:00Z</time>
      </trkpt>
      <trkpt lat="44.21653" lon="6.80243">
        <ele>2412.57</ele>
        <time>2015-06-28T14:05:13Z</time>
      </trkpt>
      <trkpt lat="44.2165" lon="6.80229">
        <ele>2412.57</ele>
        <time>2015-06-28T14:05:26Z</time>
      </trkpt>
      <trkpt lat="44.21646" lon="6.80216">
        <ele>2412.57</ele>
        <time>2015-06-28T14:05:38Z</time>
      </trkpt>
      <trkpt lat="44.21644" lon="6.80211">
        <ele>2412.57</ele>
        <time>2015-06-28T14:05:51Z</time>
      </trkpt>
      <trkpt lat="44.21644" lon="6.80205">
        <ele>2412.57</ele>
        <time>2015-06-28T14:06:16Z</time>
      </trkpt>
      <trkpt lat="44.21645" lon="6.80201">
        <ele>2412.57</ele>
        <time>2015-06-28T14:06:36Z</time>
      </trkpt>
      <trkpt lat="44.21639" lon="6.8021">
        <ele>2412.57</ele>
        <time>2015-06-28T14:06:57Z</time>
      </trkpt>
      <trkpt lat="44.21644" lon="6.80208">
        <ele>2412.57</ele>
        <time>2015-06-28T14:07:13Z</time>
      </trkpt>
      <trkpt lat="44.21644" lon="6.80208">
        <ele>2412.09</ele>
        <time>2015-06-28T14:07:29Z</time>
      </trkpt>
      <trkpt lat="44.21644" lon="6.80206">
        <ele>2406.8</ele>
        <time>2015-06-28T14:07:40Z</time>
      </trkpt>
      <trkpt lat="44.21644" lon="6.80206">
        <ele>2410.16</ele>
        <time>2015-06-28T14:07:41Z</time>
      </trkpt>
      <trkpt lat="44.21644" lon="6.80206">
        <ele>2414.49</ele>
        <time>2015-06-28T14:07:42Z</time>
      </trkpt>
      <trkpt lat="44.21645" lon="6.80206">
        <ele>2409.2</ele>
        <time>2015-06-28T14:07:43Z</time>
      </trkpt>
      <trkpt lat="44.21645" lon="6.80206">
        <ele>2412.09</ele>
        <time>2015-06-28T14:07:44Z</time>
      </trkpt>
      <trkpt lat="44.21651" lon="6.80208">
        <ele>2415.93</ele>
        <time>2015-06-28T14:08:01Z</time>
      </trkpt>
      <trkpt lat="44.21649" lon="6.80208">
        <ele>2412.57</ele>
        <time>2015-06-28T14:08:02Z</time>
      </trkpt>
      <trkpt lat="44.21647" lon="6.80207">
        <ele>2410.64</ele>
        <time>2015-06-28T14:08:07Z</time>
      </trkpt>
      <trkpt lat="44.21646" lon="6.80208">
        <ele>2417.37</ele>
        <time>2015-06-28T14:08:11Z</time>
      </trkpt>
      <trkpt lat="44.21648" lon="6.80207">
        <ele>2412.57</ele>
        <time>2015-06-28T14:08:12Z</time>
      </trkpt>
      <trkpt lat="44.21646" lon="6.80199">
        <ele>2412.09</ele>
        <time>2015-06-28T14:08:29Z</time>
      </trkpt>
      <trkpt lat="44.21647" lon="6.802">
        <ele>2412.09</ele>
        <time>2015-06-28T14:08:38Z</time>
      </trkpt>
      <trkpt lat="44.21652" lon="6.80191">
        <ele>2412.09</ele>
        <time>2015-06-28T14:08:51Z</time>
      </trkpt>
      <trkpt lat="44.21655" lon="6.80186">
        <ele>2412.09</ele>
        <time>2015-06-28T14:08:56Z</time>
      </trkpt>
      <trkpt lat="44.21663" lon="6.80173">
        <ele>2412.09</ele>
        <time>2015-06-28T14:09:11Z</time>
      </trkpt>
      <trkpt lat="44.21667" lon="6.80162">
        <ele>2412.09</ele>
        <time>2015-06-28T14:09:23Z</time>
      </trkpt>
      <trkpt lat="44.21669" lon="6.80151">
        <ele>2411.6</ele>
        <time>2015-06-28T14:09:35Z</time>
      </trkpt>
      <trkpt lat="44.21675" lon="6.80142">
        <ele>2411.6</ele>
        <time>2015-06-28T14:09:48Z</time>
      </trkpt>
      <trkpt lat="44.21681" lon="6.80136">
        <ele>2411.6</ele>
        <time>2015-06-28T14:10:00Z</time>
      </trkpt>
      <trkpt lat="44.21686" lon="6.80131">
        <ele>2411.6</ele>
        <time>2015-06-28T14:10:12Z</time>
      </trkpt>
      <trkpt lat="44.21691" lon="6.80126">
        <ele>2411.6</ele>
        <time>2015-06-28T14:10:19Z</time>
      </trkpt>
      <trkpt lat="44.21698" lon="6.80122">
        <ele>2411.6</ele>
        <time>2015-06-28T14:10:29Z</time>
      </trkpt>
      <trkpt lat="44.21701" lon="6.8011">
        <ele>2411.6</ele>
        <time>2015-06-28T14:10:43Z</time>
      </trkpt>
      <trkpt lat="44.21709" lon="6.80103">
        <ele>2411.12</ele>
        <time>2015-06-28T14:10:58Z</time>
      </trkpt>
      <trkpt lat="44.21712" lon="6.801">
        <ele>2410.64</ele>
        <time>2015-06-28T14:11:09Z</time>
      </trkpt>
      <trkpt lat="44.21713" lon="6.801">
        <ele>2410.64</ele>
        <time>2015-06-28T14:11:29Z</time>
      </trkpt>
      <trkpt lat="44.21715" lon="6.80098">
        <ele>2410.64</ele>
        <time>2015-06-28T14:11:50Z</time>
      </trkpt>
      <trkpt lat="44.21717" lon="6.80098">
        <ele>2410.16</ele>
        <time>2015-06-28T14:11:54Z</time>
      </trkpt>
      <trkpt lat="44.21719" lon="6.80097">
        <ele>2410.16</ele>
        <time>2015-06-28T14:11:57Z</time>
      </trkpt>
      <trkpt lat="44.21727" lon="6.80091">
        <ele>2410.16</ele>
        <time>2015-06-28T14:12:10Z</time>
      </trkpt>
      <trkpt lat="44.21729" lon="6.80089">
        <ele>2410.16</ele>
        <time>2015-06-28T14:12:26Z</time>
      </trkpt>
      <trkpt lat="44.2173" lon="6.80087">
        <ele>2410.16</ele>
        <time>2015-06-28T14:12:28Z</time>
      </trkpt>
      <trkpt lat="44.21737" lon="6.80078">
        <ele>2410.16</ele>
        <time>2015-06-28T14:12:39Z</time>
      </trkpt>
      <trkpt lat="44.21745" lon="6.80066">
        <ele>2410.16</ele>
        <time>2015-06-28T14:12:53Z</time>
      </trkpt>
      <trkpt lat="44.2175" lon="6.80067">
        <ele>2410.16</ele>
        <time>2015-06-28T14:13:04Z</time>
      </trkpt>
      <trkpt lat="44.21751" lon="6.80067">
        <ele>2410.16</ele>
        <time>2015-06-28T14:13:05Z</time>
      </trkpt>
      <trkpt lat="44.2176" lon="6.80064">
        <ele>2410.16</ele>
        <time>2015-06-28T14:13:16Z</time>
      </trkpt>
      <trkpt lat="44.21765" lon="6.80066">
        <ele>2410.16</ele>
        <time>2015-06-28T14:13:29Z</time>
      </trkpt>
      <trkpt lat="44.2177" lon="6.80066">
        <ele>2411.12</ele>
        <time>2015-06-28T14:13:41Z</time>
      </trkpt>
      <trkpt lat="44.21774" lon="6.80057">
        <ele>2411.12</ele>
        <time>2015-06-28T14:13:55Z</time>
      </trkpt>
      <trkpt lat="44.21775" lon="6.80053">
        <ele>2411.6</ele>
        <time>2015-06-28T14:14:00Z</time>
      </trkpt>
      <trkpt lat="44.21776" lon="6.80047">
        <ele>2412.57</ele>
        <time>2015-06-28T14:14:06Z</time>
      </trkpt>
      <trkpt lat="44.21783" lon="6.80038">
        <ele>2413.53</ele>
        <time>2015-06-28T14:14:17Z</time>
      </trkpt>
      <trkpt lat="44.21784" lon="6.80036">
        <ele>2413.53</ele>
        <time>2015-06-28T14:14:22Z</time>
      </trkpt>
      <trkpt lat="44.21784" lon="6.80031">
        <ele>2413.53</ele>
        <time>2015-06-28T14:14:26Z</time>
      </trkpt>
      <trkpt lat="44.21787" lon="6.80025">
        <ele>2414.49</ele>
        <time>2015-06-28T14:14:34Z</time>
      </trkpt>
      <trkpt lat="44.21794" lon="6.80018">
        <ele>2414.97</ele>
        <time>2015-06-28T14:14:42Z</time>
      </trkpt>
      <trkpt lat="44.21797" lon="6.8001">
        <ele>2415.45</ele>
        <time>2015-06-28T14:14:50Z</time>
      </trkpt>
      <trkpt lat="44.21806" lon="6.79996">
        <ele>2415.93</ele>
        <time>2015-06-28T14:15:04Z</time>
      </trkpt>
      <trkpt lat="44.21807" lon="6.79993">
        <ele>2415.93</ele>
        <time>2015-06-28T14:15:06Z</time>
      </trkpt>
      <trkpt lat="44.21808" lon="6.79991">
        <ele>2415.93</ele>
        <time>2015-06-28T14:15:08Z</time>
      </trkpt>
      <trkpt lat="44.21811" lon="6.79987">
        <ele>2415.93</ele>
        <time>2015-06-28T14:15:12Z</time>
      </trkpt>
      <trkpt lat="44.21818" lon="6.79979">
        <ele>2415.93</ele>
        <time>2015-06-28T14:15:20Z</time>
      </trkpt>
      <trkpt lat="44.21828" lon="6.79962">
        <ele>2417.37</ele>
        <time>2015-06-28T14:15:35Z</time>
      </trkpt>
      <trkpt lat="44.21828" lon="6.79958">
        <ele>2417.37</ele>
        <time>2015-06-28T14:15:38Z</time>
      </trkpt>
      <trkpt lat="44.21836" lon="6.79948">
        <ele>2419.3</ele>
        <time>2015-06-28T14:15:50Z</time>
      </trkpt>
      <trkpt lat="44.21841" lon="6.79944">
        <ele>2419.3</ele>
        <time>2015-06-28T14:16:02Z</time>
      </trkpt>
      <trkpt lat="44.2184" lon="6.79942">
        <ele>2419.3</ele>
        <time>2015-06-28T14:16:04Z</time>
      </trkpt>
      <trkpt lat="44.2184" lon="6.79938">
        <ele>2419.3</ele>
        <time>2015-06-28T14:16:07Z</time>
      </trkpt>
      <trkpt lat="44.21847" lon="6.79927">
        <ele>2417.85</ele>
        <time>2015-06-28T14:16:17Z</time>
      </trkpt>
      <trkpt lat="44.21856" lon="6.79908">
        <ele>2416.41</ele>
        <time>2015-06-28T14:16:31Z</time>
      </trkpt>
      <trkpt lat="44.21863" lon="6.79895">
        <ele>2415.93</ele>
        <time>2015-06-28T14:16:42Z</time>
      </trkpt>
      <trkpt lat="44.21867" lon="6.79891">
        <ele>2414.97</ele>
        <time>2015-06-28T14:16:56Z</time>
      </trkpt>
      <trkpt lat="44.21876" lon="6.79878">
        <ele>2414.01</ele>
        <time>2015-06-28T14:17:07Z</time>
      </trkpt>
      <trkpt lat="44.21889" lon="6.79865">
        <ele>2412.09</ele>
        <time>2015-06-28T14:17:21Z</time>
      </trkpt>
      <trkpt lat="44.21891" lon="6.79864">
        <ele>2412.09</ele>
        <time>2015-06-28T14:17:23Z</time>
      </trkpt>
      <trkpt lat="44.21897" lon="6.79861">
        <ele>2412.09</ele>
        <time>2015-06-28T14:17:37Z</time>
      </trkpt>
      <trkpt lat="44.21899" lon="6.79856">
        <ele>2411.6</ele>
        <time>2015-06-28T14:17:50Z</time>
      </trkpt>
      <trkpt lat="44.21913" lon="6.79844">
        <ele>2408.72</ele>
        <time>2015-06-28T14:18:04Z</time>
      </trkpt>
      <trkpt lat="44.21925" lon="6.79836">
        <ele>2407.28</ele>
        <time>2015-06-28T14:18:18Z</time>
      </trkpt>
      <trkpt lat="44.21938" lon="6.79825">
        <ele>2404.88</ele>
        <time>2015-06-28T14:18:30Z</time>
      </trkpt>
      <trkpt lat="44.2194" lon="6.79821">
        <ele>2404.39</ele>
        <time>2015-06-28T14:18:33Z</time>
      </trkpt>
      <trkpt lat="44.21958" lon="6.79806">
        <ele>2403.43</ele>
        <time>2015-06-28T14:18:50Z</time>
      </trkpt>
      <trkpt lat="44.21965" lon="6.79807">
        <ele>2403.43</ele>
        <time>2015-06-28T14:18:55Z</time>
      </trkpt>
      <trkpt lat="44.2198" lon="6.79802">
        <ele>2402.47</ele>
        <time>2015-06-28T14:19:09Z</time>
      </trkpt>
      <trkpt lat="44.21993" lon="6.79794">
        <ele>2401.51</ele>
        <time>2015-06-28T14:19:22Z</time>
      </trkpt>
      <trkpt lat="44.21993" lon="6.79793">
        <ele>2401.51</ele>
        <time>2015-06-28T14:19:30Z</time>
      </trkpt>
      <trkpt lat="44.21992" lon="6.79785">
        <ele>2401.51</ele>
        <time>2015-06-28T14:19:45Z</time>
      </trkpt>
      <trkpt lat="44.21992" lon="6.79773">
        <ele>2401.03</ele>
        <time>2015-06-28T14:19:57Z</time>
      </trkpt>
      <trkpt lat="44.21993" lon="6.79765">
        <ele>2401.03</ele>
        <time>2015-06-28T14:20:05Z</time>
      </trkpt>
      <trkpt lat="44.21994" lon="6.79757">
        <ele>2401.03</ele>
        <time>2015-06-28T14:20:19Z</time>
      </trkpt>
      <trkpt lat="44.21994" lon="6.79757">
        <ele>2401.99</ele>
        <time>2015-06-28T14:20:34Z</time>
      </trkpt>
      <trkpt lat="44.21997" lon="6.79754">
        <ele>2401.99</ele>
        <time>2015-06-28T14:20:38Z</time>
      </trkpt>
      <trkpt lat="44.21998" lon="6.79749">
        <ele>2402.47</ele>
        <time>2015-06-28T14:20:51Z</time>
      </trkpt>
      <trkpt lat="44.22004" lon="6.79743">
        <ele>2402.95</ele>
        <time>2015-06-28T14:21:11Z</time>
      </trkpt>
      <trkpt lat="44.2201" lon="6.79734">
        <ele>2402.95</ele>
        <time>2015-06-28T14:21:23Z</time>
      </trkpt>
      <trkpt lat="44.22011" lon="6.79733">
        <ele>2401.51</ele>
        <time>2015-06-28T14:21:42Z</time>
      </trkpt>
      <trkpt lat="44.22011" lon="6.79733">
        <ele>2401.51</ele>
        <time>2015-06-28T14:21:43Z</time>
      </trkpt>
      <trkpt lat="44.2201" lon="6.79734">
        <ele>2401.51</ele>
        <time>2015-06-28T14:22:10Z</time>
      </trkpt>
      <trkpt lat="44.22013" lon="6.79733">
        <ele>2402.95</ele>
        <time>2015-06-28T14:22:34Z</time>
      </trkpt>
      <trkpt lat="44.22013" lon="6.79733">
        <ele>2401.51</ele>
        <time>2015-06-28T14:22:36Z</time>
      </trkpt>
      <trkpt lat="44.22013" lon="6.79732">
        <ele>2402.95</ele>
        <time>2015-06-28T14:22:38Z</time>
      </trkpt>
      <trkpt lat="44.22011" lon="6.79733">
        <ele>2402.95</ele>
        <time>2015-06-28T14:23:05Z</time>
      </trkpt>
      <trkpt lat="44.22011" lon="6.79733">
        <ele>2397.67</ele>
        <time>2015-06-28T14:23:08Z</time>
      </trkpt>
      <trkpt lat="44.22012" lon="6.79733">
        <ele>2404.88</ele>
        <time>2015-06-28T14:23:09Z</time>
      </trkpt>
      <trkpt lat="44.22012" lon="6.79733">
        <ele>2400.55</ele>
        <time>2015-06-28T14:23:10Z</time>
      </trkpt>
      <trkpt lat="44.22012" lon="6.79732">
        <ele>2402.95</ele>
        <time>2015-06-28T14:23:13Z</time>
      </trkpt>
      <trkpt lat="44.22012" lon="6.79731">
        <ele>2401.99</ele>
        <time>2015-06-28T14:23:21Z</time>
      </trkpt>
      <trkpt lat="44.22014" lon="6.79733">
        <ele>2401.51</ele>
        <time>2015-06-28T14:23:54Z</time>
      </trkpt>
      <trkpt lat="44.2201" lon="6.79733">
        <ele>2401.51</ele>
        <time>2015-06-28T14:24:26Z</time>
      </trkpt>
      <trkpt lat="44.22011" lon="6.79733">
        <ele>2400.55</ele>
        <time>2015-06-28T14:24:52Z</time>
      </trkpt>
      <trkpt lat="44.22012" lon="6.79733">
        <ele>2402.95</ele>
        <time>2015-06-28T14:25:23Z</time>
      </trkpt>
      <trkpt lat="44.2201" lon="6.79736">
        <ele>2402.95</ele>
        <time>2015-06-28T14:25:55Z</time>
      </trkpt>
      <trkpt lat="44.2201" lon="6.79734">
        <ele>2402.95</ele>
        <time>2015-06-28T14:26:27Z</time>
      </trkpt>
      <trkpt lat="44.2201" lon="6.79734">
        <ele>2401.51</ele>
        <time>2015-06-28T14:26:54Z</time>
      </trkpt>
      <trkpt lat="44.22009" lon="6.79734">
        <ele>2399.59</ele>
        <time>2015-06-28T14:26:56Z</time>
      </trkpt>
      <trkpt lat="44.22009" lon="6.79734">
        <ele>2403.91</ele>
        <time>2015-06-28T14:26:57Z</time>
      </trkpt>
      <trkpt lat="44.22009" lon="6.79734">
        <ele>2401.99</ele>
        <time>2015-06-28T14:26:58Z</time>
      </trkpt>
      <trkpt lat="44.22009" lon="6.79732">
        <ele>2401.99</ele>
        <time>2015-06-28T14:27:35Z</time>
      </trkpt>
      <trkpt lat="44.22014" lon="6.79731">
        <ele>2401.51</ele>
        <time>2015-06-28T14:28:09Z</time>
      </trkpt>
      <trkpt lat="44.22014" lon="6.7973">
        <ele>2402.95</ele>
        <time>2015-06-28T14:28:13Z</time>
      </trkpt>
      <trkpt lat="44.22007" lon="6.79732">
        <ele>2401.51</ele>
        <time>2015-06-28T14:28:31Z</time>
      </trkpt>
      <trkpt lat="44.22013" lon="6.79734">
        <ele>2404.88</ele>
        <time>2015-06-28T14:28:49Z</time>
      </trkpt>
      <trkpt lat="44.22011" lon="6.79735">
        <ele>2401.99</ele>
        <time>2015-06-28T14:29:02Z</time>
      </trkpt>
      <trkpt lat="44.22011" lon="6.79732">
        <ele>2402.47</ele>
        <time>2015-06-28T14:29:21Z</time>
      </trkpt>
      <trkpt lat="44.22014" lon="6.79726">
        <ele>2402.47</ele>
        <time>2015-06-28T14:29:27Z</time>
      </trkpt>
      <trkpt lat="44.22015" lon="6.79724">
        <ele>2402.47</ele>
        <time>2015-06-28T14:29:30Z</time>
      </trkpt>
      <trkpt lat="44.22016" lon="6.79722">
        <ele>2402.47</ele>
        <time>2015-06-28T14:29:32Z</time>
      </trkpt>
      <trkpt lat="44.22017" lon="6.7972">
        <ele>2402.47</ele>
        <time>2015-06-28T14:29:34Z</time>
      </trkpt>
      <trkpt lat="44.22021" lon="6.79712">
        <ele>2401.99</ele>
        <time>2015-06-28T14:29:41Z</time>
      </trkpt>
      <trkpt lat="44.22024" lon="6.79692">
        <ele>2401.99</ele>
        <time>2015-06-28T14:29:55Z</time>
      </trkpt>
      <trkpt lat="44.22025" lon="6.79685">
        <ele>2401.99</ele>
        <time>2015-06-28T14:30:00Z</time>
      </trkpt>
      <trkpt lat="44.22029" lon="6.79669">
        <ele>2401.99</ele>
        <time>2015-06-28T14:30:12Z</time>
      </trkpt>
      <trkpt lat="44.2203" lon="6.79664">
        <ele>2401.99</ele>
        <time>2015-06-28T14:30:15Z</time>
      </trkpt>
      <trkpt lat="44.22038" lon="6.79651">
        <ele>2401.99</ele>
        <time>2015-06-28T14:30:28Z</time>
      </trkpt>
      <trkpt lat="44.22043" lon="6.79647">
        <ele>2403.43</ele>
        <time>2015-06-28T14:30:33Z</time>
      </trkpt>
      <trkpt lat="44.22043" lon="6.79641">
        <ele>2403.43</ele>
        <time>2015-06-28T14:30:46Z</time>
      </trkpt>
      <trkpt lat="44.22046" lon="6.79635">
        <ele>2403.43</ele>
        <time>2015-06-28T14:30:56Z</time>
      </trkpt>
      <trkpt lat="44.22049" lon="6.79616">
        <ele>2401.99</ele>
        <time>2015-06-28T14:31:08Z</time>
      </trkpt>
      <trkpt lat="44.2205" lon="6.79614">
        <ele>2401.99</ele>
        <time>2015-06-28T14:31:09Z</time>
      </trkpt>
      <trkpt lat="44.22053" lon="6.79595">
        <ele>2401.03</ele>
        <time>2015-06-28T14:31:22Z</time>
      </trkpt>
      <trkpt lat="44.22053" lon="6.79594">
        <ele>2401.03</ele>
        <time>2015-06-28T14:31:24Z</time>
      </trkpt>
      <trkpt lat="44.22053" lon="6.79591">
        <ele>2401.03</ele>
        <time>2015-06-28T14:31:26Z</time>
      </trkpt>
      <trkpt lat="44.22052" lon="6.79585">
        <ele>2400.55</ele>
        <time>2015-06-28T14:31:30Z</time>
      </trkpt>
      <trkpt lat="44.22052" lon="6.79583">
        <ele>2400.55</ele>
        <time>2015-06-28T14:31:32Z</time>
      </trkpt>
      <trkpt lat="44.22052" lon="6.7958">
        <ele>2400.07</ele>
        <time>2015-06-28T14:31:34Z</time>
      </trkpt>
      <trkpt lat="44.22053" lon="6.79578">
        <ele>2400.07</ele>
        <time>2015-06-28T14:31:36Z</time>
      </trkpt>
      <trkpt lat="44.22052" lon="6.79573">
        <ele>2399.59</ele>
        <time>2015-06-28T14:31:41Z</time>
      </trkpt>
      <trkpt lat="44.22054" lon="6.79571">
        <ele>2399.11</ele>
        <time>2015-06-28T14:31:44Z</time>
      </trkpt>
      <trkpt lat="44.22056" lon="6.79566">
        <ele>2398.15</ele>
        <time>2015-06-28T14:31:50Z</time>
      </trkpt>
      <trkpt lat="44.22052" lon="6.79547">
        <ele>2397.67</ele>
        <time>2015-06-28T14:32:03Z</time>
      </trkpt>
      <trkpt lat="44.22051" lon="6.79532">
        <ele>2397.67</ele>
        <time>2015-06-28T14:32:16Z</time>
      </trkpt>
      <trkpt lat="44.22047" lon="6.79511">
        <ele>2397.67</ele>
        <time>2015-06-28T14:32:31Z</time>
      </trkpt>
      <trkpt lat="44.22048" lon="6.79503">
        <ele>2397.67</ele>
        <time>2015-06-28T14:32:39Z</time>
      </trkpt>
      <trkpt lat="44.22048" lon="6.79501">
        <ele>2397.18</ele>
        <time>2015-06-28T14:32:42Z</time>
      </trkpt>
      <trkpt lat="44.22049" lon="6.79488">
        <ele>2395.26</ele>
        <time>2015-06-28T14:32:54Z</time>
      </trkpt>
      <trkpt lat="44.22049" lon="6.79482">
        <ele>2394.78</ele>
        <time>2015-06-28T14:33:00Z</time>
      </trkpt>
      <trkpt lat="44.22049" lon="6.79469">
        <ele>2392.38</ele>
        <time>2015-06-28T14:33:12Z</time>
      </trkpt>
      <trkpt lat="44.22048" lon="6.79467">
        <ele>2391.9</ele>
        <time>2015-06-28T14:33:15Z</time>
      </trkpt>
      <trkpt lat="44.22049" lon="6.79459">
        <ele>2390.46</ele>
        <time>2015-06-28T14:33:27Z</time>
      </trkpt>
      <trkpt lat="44.22049" lon="6.79454">
        <ele>2389.49</ele>
        <time>2015-06-28T14:33:42Z</time>
      </trkpt>
      <trkpt lat="44.22054" lon="6.79446">
        <ele>2388.53</ele>
        <time>2015-06-28T14:33:57Z</time>
      </trkpt>
      <trkpt lat="44.22055" lon="6.79447">
        <ele>2388.05</ele>
        <time>2015-06-28T14:33:59Z</time>
      </trkpt>
      <trkpt lat="44.2206" lon="6.79446">
        <ele>2388.05</ele>
        <time>2015-06-28T14:34:03Z</time>
      </trkpt>
      <trkpt lat="44.22065" lon="6.79435">
        <ele>2386.61</ele>
        <time>2015-06-28T14:34:11Z</time>
      </trkpt>
      <trkpt lat="44.22069" lon="6.79427">
        <ele>2385.65</ele>
        <time>2015-06-28T14:34:17Z</time>
      </trkpt>
      <trkpt lat="44.22071" lon="6.79415">
        <ele>2385.17</ele>
        <time>2015-06-28T14:34:25Z</time>
      </trkpt>
      <trkpt lat="44.22072" lon="6.79406">
        <ele>2384.21</ele>
        <time>2015-06-28T14:34:31Z</time>
      </trkpt>
      <trkpt lat="44.22073" lon="6.79403">
        <ele>2383.73</ele>
        <time>2015-06-28T14:34:33Z</time>
      </trkpt>
      <trkpt lat="44.22079" lon="6.79384">
        <ele>2382.28</ele>
        <time>2015-06-28T14:34:50Z</time>
      </trkpt>
      <trkpt lat="44.22081" lon="6.79381">
        <ele>2382.28</ele>
        <time>2015-06-28T14:34:53Z</time>
      </trkpt>
      <trkpt lat="44.22085" lon="6.79377">
        <ele>2382.28</ele>
        <time>2015-06-28T14:35:08Z</time>
      </trkpt>
      <trkpt lat="44.22086" lon="6.79376">
        <ele>2381.8</ele>
        <time>2015-06-28T14:35:21Z</time>
      </trkpt>
      <trkpt lat="44.22087" lon="6.79375">
        <ele>2381.8</ele>
        <time>2015-06-28T14:35:36Z</time>
      </trkpt>
      <trkpt lat="44.22088" lon="6.79376">
        <ele>2381.8</ele>
        <time>2015-06-28T14:35:58Z</time>
      </trkpt>
      <trkpt lat="44.22088" lon="6.79375">
        <ele>2381.8</ele>
        <time>2015-06-28T14:36:12Z</time>
      </trkpt>
      <trkpt lat="44.22088" lon="6.79374">
        <ele>2381.8</ele>
        <time>2015-06-28T14:36:25Z</time>
      </trkpt>
      <trkpt lat="44.22091" lon="6.79368">
        <ele>2382.76</ele>
        <time>2015-06-28T14:36:34Z</time>
      </trkpt>
      <trkpt lat="44.22092" lon="6.79364">
        <ele>2382.76</ele>
        <time>2015-06-28T14:36:37Z</time>
      </trkpt>
      <trkpt lat="44.22094" lon="6.79361">
        <ele>2381.8</ele>
        <time>2015-06-28T14:36:40Z</time>
      </trkpt>
      <trkpt lat="44.22096" lon="6.79359">
        <ele>2380.36</ele>
        <time>2015-06-28T14:36:43Z</time>
      </trkpt>
      <trkpt lat="44.22097" lon="6.79351">
        <ele>2380.36</ele>
        <time>2015-06-28T14:36:49Z</time>
      </trkpt>
      <trkpt lat="44.22098" lon="6.79345">
        <ele>2379.4</ele>
        <time>2015-06-28T14:36:54Z</time>
      </trkpt>
      <trkpt lat="44.22098" lon="6.7934">
        <ele>2378.92</ele>
        <time>2015-06-28T14:36:58Z</time>
      </trkpt>
      <trkpt lat="44.22102" lon="6.79332">
        <ele>2378.44</ele>
        <time>2015-06-28T14:37:05Z</time>
      </trkpt>
      <trkpt lat="44.22106" lon="6.79316">
        <ele>2377.48</ele>
        <time>2015-06-28T14:37:16Z</time>
      </trkpt>
      <trkpt lat="44.22115" lon="6.79302">
        <ele>2376.04</ele>
        <time>2015-06-28T14:37:28Z</time>
      </trkpt>
      <trkpt lat="44.22123" lon="6.79285">
        <ele>2375.55</ele>
        <time>2015-06-28T14:37:40Z</time>
      </trkpt>
      <trkpt lat="44.22129" lon="6.79269">
        <ele>2375.55</ele>
        <time>2015-06-28T14:37:52Z</time>
      </trkpt>
      <trkpt lat="44.22139" lon="6.79251">
        <ele>2374.11</ele>
        <time>2015-06-28T14:38:07Z</time>
      </trkpt>
      <trkpt lat="44.22148" lon="6.79237">
        <ele>2374.11</ele>
        <time>2015-06-28T14:38:18Z</time>
      </trkpt>
      <trkpt lat="44.22153" lon="6.7923">
        <ele>2374.11</ele>
        <time>2015-06-28T14:38:25Z</time>
      </trkpt>
      <trkpt lat="44.22161" lon="6.79214">
        <ele>2374.11</ele>
        <time>2015-06-28T14:38:38Z</time>
      </trkpt>
      <trkpt lat="44.22163" lon="6.79209">
        <ele>2374.11</ele>
        <time>2015-06-28T14:38:43Z</time>
      </trkpt>
      <trkpt lat="44.22167" lon="6.79204">
        <ele>2374.11</ele>
        <time>2015-06-28T14:38:48Z</time>
      </trkpt>
      <trkpt lat="44.22174" lon="6.79192">
        <ele>2374.11</ele>
        <time>2015-06-28T14:39:00Z</time>
      </trkpt>
      <trkpt lat="44.22181" lon="6.79177">
        <ele>2373.63</ele>
        <time>2015-06-28T14:39:12Z</time>
      </trkpt>
      <trkpt lat="44.22185" lon="6.79167">
        <ele>2373.63</ele>
        <time>2015-06-28T14:39:22Z</time>
      </trkpt>
      <trkpt lat="44.22193" lon="6.79155">
        <ele>2373.63</ele>
        <time>2015-06-28T14:39:34Z</time>
      </trkpt>
      <trkpt lat="44.22194" lon="6.79153">
        <ele>2373.63</ele>
        <time>2015-06-28T14:39:36Z</time>
      </trkpt>
      <trkpt lat="44.22199" lon="6.79145">
        <ele>2373.15</ele>
        <time>2015-06-28T14:39:43Z</time>
      </trkpt>
      <trkpt lat="44.22202" lon="6.79141">
        <ele>2373.15</ele>
        <time>2015-06-28T14:39:49Z</time>
      </trkpt>
      <trkpt lat="44.22208" lon="6.79124">
        <ele>2372.67</ele>
        <time>2015-06-28T14:40:04Z</time>
      </trkpt>
      <trkpt lat="44.2221" lon="6.7912">
        <ele>2372.19</ele>
        <time>2015-06-28T14:40:08Z</time>
      </trkpt>
      <trkpt lat="44.22216" lon="6.79107">
        <ele>2374.11</ele>
        <time>2015-06-28T14:40:18Z</time>
      </trkpt>
      <trkpt lat="44.22224" lon="6.79094">
        <ele>2372.67</ele>
        <time>2015-06-28T14:40:33Z</time>
      </trkpt>
      <trkpt lat="44.22233" lon="6.79084">
        <ele>2370.75</ele>
        <time>2015-06-28T14:40:46Z</time>
      </trkpt>
      <trkpt lat="44.22243" lon="6.7907">
        <ele>2371.23</ele>
        <time>2015-06-28T14:41:00Z</time>
      </trkpt>
      <trkpt lat="44.22257" lon="6.79051">
        <ele>2370.27</ele>
        <time>2015-06-28T14:41:18Z</time>
      </trkpt>
      <trkpt lat="44.22259" lon="6.79046">
        <ele>2370.27</ele>
        <time>2015-06-28T14:41:22Z</time>
      </trkpt>
      <trkpt lat="44.22261" lon="6.79044">
        <ele>2370.27</ele>
        <time>2015-06-28T14:41:24Z</time>
      </trkpt>
      <trkpt lat="44.22267" lon="6.79026">
        <ele>2370.27</ele>
        <time>2015-06-28T14:41:39Z</time>
      </trkpt>
      <trkpt lat="44.22269" lon="6.79023">
        <ele>2369.79</ele>
        <time>2015-06-28T14:41:41Z</time>
      </trkpt>
      <trkpt lat="44.22272" lon="6.79007">
        <ele>2369.31</ele>
        <time>2015-06-28T14:41:55Z</time>
      </trkpt>
      <trkpt lat="44.22272" lon="6.79005">
        <ele>2368.35</ele>
        <time>2015-06-28T14:42:07Z</time>
      </trkpt>
      <trkpt lat="44.22275" lon="6.78996">
        <ele>2368.35</ele>
        <time>2015-06-28T14:42:15Z</time>
      </trkpt>
      <trkpt lat="44.22276" lon="6.78978">
        <ele>2367.38</ele>
        <time>2015-06-28T14:42:27Z</time>
      </trkpt>
      <trkpt lat="44.22276" lon="6.78977">
        <ele>2367.38</ele>
        <time>2015-06-28T14:42:28Z</time>
      </trkpt>
      <trkpt lat="44.22275" lon="6.78966">
        <ele>2367.38</ele>
        <time>2015-06-28T14:42:36Z</time>
      </trkpt>
      <trkpt lat="44.22282" lon="6.78958">
        <ele>2367.38</ele>
        <time>2015-06-28T14:42:44Z</time>
      </trkpt>
      <trkpt lat="44.22282" lon="6.78953">
        <ele>2366.9</ele>
        <time>2015-06-28T14:42:48Z</time>
      </trkpt>
      <trkpt lat="44.22279" lon="6.78932">
        <ele>2366.9</ele>
        <time>2015-06-28T14:43:01Z</time>
      </trkpt>
      <trkpt lat="44.22279" lon="6.78913">
        <ele>2366.42</ele>
        <time>2015-06-28T14:43:14Z</time>
      </trkpt>
      <trkpt lat="44.22278" lon="6.78895">
        <ele>2366.42</ele>
        <time>2015-06-28T14:43:27Z</time>
      </trkpt>
      <trkpt lat="44.22279" lon="6.78887">
        <ele>2365.46</ele>
        <time>2015-06-28T14:43:33Z</time>
      </trkpt>
      <trkpt lat="44.22281" lon="6.78875">
        <ele>2364.98</ele>
        <time>2015-06-28T14:43:45Z</time>
      </trkpt>
      <trkpt lat="44.22281" lon="6.78866">
        <ele>2364.5</ele>
        <time>2015-06-28T14:43:55Z</time>
      </trkpt>
      <trkpt lat="44.22281" lon="6.78864">
        <ele>2364.5</ele>
        <time>2015-06-28T14:43:57Z</time>
      </trkpt>
      <trkpt lat="44.22284" lon="6.78856">
        <ele>2363.54</ele>
        <time>2015-06-28T14:44:10Z</time>
      </trkpt>
      <trkpt lat="44.22285" lon="6.78855">
        <ele>2363.54</ele>
        <time>2015-06-28T14:44:15Z</time>
      </trkpt>
      <trkpt lat="44.22286" lon="6.78852">
        <ele>2363.54</ele>
        <time>2015-06-28T14:44:18Z</time>
      </trkpt>
      <trkpt lat="44.22295" lon="6.78842">
        <ele>2363.54</ele>
        <time>2015-06-28T14:44:31Z</time>
      </trkpt>
      <trkpt lat="44.22295" lon="6.78839">
        <ele>2363.06</ele>
        <time>2015-06-28T14:44:33Z</time>
      </trkpt>
      <trkpt lat="44.22301" lon="6.78818">
        <ele>2359.69</ele>
        <time>2015-06-28T14:44:48Z</time>
      </trkpt>
      <trkpt lat="44.22305" lon="6.78804">
        <ele>2358.25</ele>
        <time>2015-06-28T14:45:00Z</time>
      </trkpt>
      <trkpt lat="44.22306" lon="6.78801">
        <ele>2357.77</ele>
        <time>2015-06-28T14:45:03Z</time>
      </trkpt>
      <trkpt lat="44.22305" lon="6.78798">
        <ele>2357.77</ele>
        <time>2015-06-28T14:45:17Z</time>
      </trkpt>
      <trkpt lat="44.22305" lon="6.78793">
        <ele>2356.81</ele>
        <time>2015-06-28T14:45:20Z</time>
      </trkpt>
      <trkpt lat="44.22307" lon="6.7879">
        <ele>2356.33</ele>
        <time>2015-06-28T14:45:23Z</time>
      </trkpt>
      <trkpt lat="44.22311" lon="6.78783">
        <ele>2354.89</ele>
        <time>2015-06-28T14:45:35Z</time>
      </trkpt>
      <trkpt lat="44.22313" lon="6.78779">
        <ele>2354.41</ele>
        <time>2015-06-28T14:45:38Z</time>
      </trkpt>
      <trkpt lat="44.22322" lon="6.78766">
        <ele>2351.04</ele>
        <time>2015-06-28T14:45:53Z</time>
      </trkpt>
      <trkpt lat="44.22324" lon="6.78757">
        <ele>2349.12</ele>
        <time>2015-06-28T14:46:03Z</time>
      </trkpt>
      <trkpt lat="44.22327" lon="6.78756">
        <ele>2349.12</ele>
        <time>2015-06-28T14:46:06Z</time>
      </trkpt>
      <trkpt lat="44.2233" lon="6.78753">
        <ele>2348.16</ele>
        <time>2015-06-28T14:46:09Z</time>
      </trkpt>
      <trkpt lat="44.22329" lon="6.78744">
        <ele>2346.72</ele>
        <time>2015-06-28T14:46:15Z</time>
      </trkpt>
      <trkpt lat="44.22322" lon="6.78731">
        <ele>2343.35</ele>
        <time>2015-06-28T14:46:29Z</time>
      </trkpt>
      <trkpt lat="44.22323" lon="6.78729">
        <ele>2343.35</ele>
        <time>2015-06-28T14:46:31Z</time>
      </trkpt>
      <trkpt lat="44.22329" lon="6.78715">
        <ele>2340.95</ele>
        <time>2015-06-28T14:46:44Z</time>
      </trkpt>
      <trkpt lat="44.22331" lon="6.78715">
        <ele>2340.95</ele>
        <time>2015-06-28T14:46:46Z</time>
      </trkpt>
      <trkpt lat="44.22341" lon="6.78706">
        <ele>2338.54</ele>
        <time>2015-06-28T14:46:59Z</time>
      </trkpt>
      <trkpt lat="44.22347" lon="6.78698">
        <ele>2337.58</ele>
        <time>2015-06-28T14:47:10Z</time>
      </trkpt>
      <trkpt lat="44.2235" lon="6.7869">
        <ele>2337.1</ele>
        <time>2015-06-28T14:47:23Z</time>
      </trkpt>
      <trkpt lat="44.2235" lon="6.78692">
        <ele>2337.1</ele>
        <time>2015-06-28T14:47:25Z</time>
      </trkpt>
      <trkpt lat="44.22358" lon="6.78687">
        <ele>2336.62</ele>
        <time>2015-06-28T14:47:33Z</time>
      </trkpt>
      <trkpt lat="44.22366" lon="6.78676">
        <ele>2336.14</ele>
        <time>2015-06-28T14:47:46Z</time>
      </trkpt>
      <trkpt lat="44.22374" lon="6.78668">
        <ele>2336.14</ele>
        <time>2015-06-28T14:47:57Z</time>
      </trkpt>
      <trkpt lat="44.22383" lon="6.78655">
        <ele>2336.14</ele>
        <time>2015-06-28T14:48:11Z</time>
      </trkpt>
      <trkpt lat="44.22385" lon="6.7865">
        <ele>2335.66</ele>
        <time>2015-06-28T14:48:23Z</time>
      </trkpt>
      <trkpt lat="44.22385" lon="6.78643">
        <ele>2335.66</ele>
        <time>2015-06-28T14:48:28Z</time>
      </trkpt>
      <trkpt lat="44.2239" lon="6.78629">
        <ele>2335.18</ele>
        <time>2015-06-28T14:48:40Z</time>
      </trkpt>
      <trkpt lat="44.22394" lon="6.78628">
        <ele>2334.7</ele>
        <time>2015-06-28T14:48:55Z</time>
      </trkpt>
      <trkpt lat="44.22397" lon="6.78613">
        <ele>2334.7</ele>
        <time>2015-06-28T14:49:07Z</time>
      </trkpt>
      <trkpt lat="44.22399" lon="6.78607">
        <ele>2334.7</ele>
        <time>2015-06-28T14:49:13Z</time>
      </trkpt>
      <trkpt lat="44.22402" lon="6.7859">
        <ele>2334.22</ele>
        <time>2015-06-28T14:49:26Z</time>
      </trkpt>
      <trkpt lat="44.22402" lon="6.78579">
        <ele>2333.74</ele>
        <time>2015-06-28T14:49:39Z</time>
      </trkpt>
      <trkpt lat="44.22406" lon="6.78567">
        <ele>2333.74</ele>
        <time>2015-06-28T14:49:48Z</time>
      </trkpt>
      <trkpt lat="44.22409" lon="6.78551">
        <ele>2331.33</ele>
        <time>2015-06-28T14:50:03Z</time>
      </trkpt>
      <trkpt lat="44.22413" lon="6.7854">
        <ele>2329.89</ele>
        <time>2015-06-28T14:50:15Z</time>
      </trkpt>
      <trkpt lat="44.22415" lon="6.78535">
        <ele>2328.45</ele>
        <time>2015-06-28T14:50:20Z</time>
      </trkpt>
      <trkpt lat="44.22418" lon="6.78532">
        <ele>2328.45</ele>
        <time>2015-06-28T14:50:23Z</time>
      </trkpt>
      <trkpt lat="44.22422" lon="6.78521">
        <ele>2326.53</ele>
        <time>2015-06-28T14:50:37Z</time>
      </trkpt>
      <trkpt lat="44.22422" lon="6.78508">
        <ele>2323.16</ele>
        <time>2015-06-28T14:50:51Z</time>
      </trkpt>
      <trkpt lat="44.22424" lon="6.78496">
        <ele>2321.24</ele>
        <time>2015-06-28T14:51:04Z</time>
      </trkpt>
      <trkpt lat="44.22421" lon="6.78484">
        <ele>2319.32</ele>
        <time>2015-06-28T14:51:16Z</time>
      </trkpt>
      <trkpt lat="44.22421" lon="6.78479">
        <ele>2318.36</ele>
        <time>2015-06-28T14:51:20Z</time>
      </trkpt>
      <trkpt lat="44.22418" lon="6.7847">
        <ele>2314.99</ele>
        <time>2015-06-28T14:51:32Z</time>
      </trkpt>
      <trkpt lat="44.22414" lon="6.78457">
        <ele>2313.07</ele>
        <time>2015-06-28T14:51:45Z</time>
      </trkpt>
      <trkpt lat="44.22414" lon="6.78455">
        <ele>2312.59</ele>
        <time>2015-06-28T14:51:48Z</time>
      </trkpt>
      <trkpt lat="44.22414" lon="6.7845">
        <ele>2312.11</ele>
        <time>2015-06-28T14:51:54Z</time>
      </trkpt>
      <trkpt lat="44.22413" lon="6.78444">
        <ele>2310.67</ele>
        <time>2015-06-28T14:52:11Z</time>
      </trkpt>
      <trkpt lat="44.22413" lon="6.78439">
        <ele>2309.7</ele>
        <time>2015-06-28T14:52:29Z</time>
      </trkpt>
      <trkpt lat="44.22414" lon="6.78437">
        <ele>2309.7</ele>
        <time>2015-06-28T14:52:32Z</time>
      </trkpt>
      <trkpt lat="44.22414" lon="6.78427">
        <ele>2308.26</ele>
        <time>2015-06-28T14:52:41Z</time>
      </trkpt>
      <trkpt lat="44.22415" lon="6.78418">
        <ele>2306.82</ele>
        <time>2015-06-28T14:52:50Z</time>
      </trkpt>
      <trkpt lat="44.22413" lon="6.78416">
        <ele>2306.34</ele>
        <time>2015-06-28T14:52:52Z</time>
      </trkpt>
      <trkpt lat="44.22414" lon="6.78411">
        <ele>2305.86</ele>
        <time>2015-06-28T14:52:57Z</time>
      </trkpt>
      <trkpt lat="44.22416" lon="6.78403">
        <ele>2304.9</ele>
        <time>2015-06-28T14:53:02Z</time>
      </trkpt>
      <trkpt lat="44.22415" lon="6.784">
        <ele>2304.42</ele>
        <time>2015-06-28T14:53:04Z</time>
      </trkpt>
      <trkpt lat="44.22404" lon="6.78391">
        <ele>2302.98</ele>
        <time>2015-06-28T14:53:18Z</time>
      </trkpt>
      <trkpt lat="44.22403" lon="6.7839">
        <ele>2302.98</ele>
        <time>2015-06-28T14:53:20Z</time>
      </trkpt>
      <trkpt lat="44.22402" lon="6.78388">
        <ele>2302.49</ele>
        <time>2015-06-28T14:53:26Z</time>
      </trkpt>
      <trkpt lat="44.224" lon="6.78381">
        <ele>2300.57</ele>
        <time>2015-06-28T14:53:39Z</time>
      </trkpt>
      <trkpt lat="44.22395" lon="6.78377">
        <ele>2300.57</ele>
        <time>2015-06-28T14:53:51Z</time>
      </trkpt>
      <trkpt lat="44.22396" lon="6.78377">
        <ele>2300.09</ele>
        <time>2015-06-28T14:54:03Z</time>
      </trkpt>
      <trkpt lat="44.22394" lon="6.78371">
        <ele>2300.09</ele>
        <time>2015-06-28T14:54:13Z</time>
      </trkpt>
      <trkpt lat="44.22391" lon="6.78362">
        <ele>2297.69</ele>
        <time>2015-06-28T14:54:27Z</time>
      </trkpt>
      <trkpt lat="44.2239" lon="6.78362">
        <ele>2297.69</ele>
        <time>2015-06-28T14:54:28Z</time>
      </trkpt>
      <trkpt lat="44.22388" lon="6.78367">
        <ele>2296.73</ele>
        <time>2015-06-28T14:54:35Z</time>
      </trkpt>
      <trkpt lat="44.22385" lon="6.78378">
        <ele>2294.8</ele>
        <time>2015-06-28T14:54:46Z</time>
      </trkpt>
      <trkpt lat="44.22381" lon="6.78377">
        <ele>2293.36</ele>
        <time>2015-06-28T14:54:52Z</time>
      </trkpt>
      <trkpt lat="44.22377" lon="6.78371">
        <ele>2291.44</ele>
        <time>2015-06-28T14:55:03Z</time>
      </trkpt>
      <trkpt lat="44.2237" lon="6.78379">
        <ele>2290</ele>
        <time>2015-06-28T14:55:16Z</time>
      </trkpt>
      <trkpt lat="44.22369" lon="6.78372">
        <ele>2288.08</ele>
        <time>2015-06-28T14:55:26Z</time>
      </trkpt>
      <trkpt lat="44.22366" lon="6.78359">
        <ele>2286.63</ele>
        <time>2015-06-28T14:55:38Z</time>
      </trkpt>
      <trkpt lat="44.22363" lon="6.78359">
        <ele>2285.67</ele>
        <time>2015-06-28T14:55:43Z</time>
      </trkpt>
      <trkpt lat="44.22361" lon="6.78365">
        <ele>2284.71</ele>
        <time>2015-06-28T14:55:58Z</time>
      </trkpt>
      <trkpt lat="44.22361" lon="6.78365">
        <ele>2284.23</ele>
        <time>2015-06-28T14:56:03Z</time>
      </trkpt>
      <trkpt lat="44.2236" lon="6.78368">
        <ele>2284.23</ele>
        <time>2015-06-28T14:56:06Z</time>
      </trkpt>
      <trkpt lat="44.22359" lon="6.78382">
        <ele>2282.31</ele>
        <time>2015-06-28T14:56:19Z</time>
      </trkpt>
      <trkpt lat="44.22359" lon="6.78382">
        <ele>2283.27</ele>
        <time>2015-06-28T14:56:27Z</time>
      </trkpt>
      <trkpt lat="44.22354" lon="6.78379">
        <ele>2281.83</ele>
        <time>2015-06-28T14:56:34Z</time>
      </trkpt>
      <trkpt lat="44.22348" lon="6.78359">
        <ele>2278.94</ele>
        <time>2015-06-28T14:56:48Z</time>
      </trkpt>
      <trkpt lat="44.22347" lon="6.78339">
        <ele>2276.54</ele>
        <time>2015-06-28T14:57:03Z</time>
      </trkpt>
      <trkpt lat="44.22349" lon="6.78335">
        <ele>2275.1</ele>
        <time>2015-06-28T14:57:07Z</time>
      </trkpt>
      <trkpt lat="44.2235" lon="6.78332">
        <ele>2275.1</ele>
        <time>2015-06-28T14:57:11Z</time>
      </trkpt>
      <trkpt lat="44.22343" lon="6.7833">
        <ele>2272.69</ele>
        <time>2015-06-28T14:57:22Z</time>
      </trkpt>
      <trkpt lat="44.22343" lon="6.78329">
        <ele>2272.69</ele>
        <time>2015-06-28T14:57:23Z</time>
      </trkpt>
      <trkpt lat="44.22349" lon="6.78316">
        <ele>2270.29</ele>
        <time>2015-06-28T14:57:37Z</time>
      </trkpt>
      <trkpt lat="44.22348" lon="6.78314">
        <ele>2269.81</ele>
        <time>2015-06-28T14:57:39Z</time>
      </trkpt>
      <trkpt lat="44.22342" lon="6.78301">
        <ele>2267.89</ele>
        <time>2015-06-28T14:57:52Z</time>
      </trkpt>
      <trkpt lat="44.22339" lon="6.78302">
        <ele>2267.41</ele>
        <time>2015-06-28T14:58:05Z</time>
      </trkpt>
      <trkpt lat="44.22337" lon="6.78299">
        <ele>2266.45</ele>
        <time>2015-06-28T14:58:09Z</time>
      </trkpt>
      <trkpt lat="44.22333" lon="6.78299">
        <ele>2265.48</ele>
        <time>2015-06-28T14:58:14Z</time>
      </trkpt>
      <trkpt lat="44.22332" lon="6.78301">
        <ele>2265.48</ele>
        <time>2015-06-28T14:58:16Z</time>
      </trkpt>
      <trkpt lat="44.22328" lon="6.78309">
        <ele>2263.56</ele>
        <time>2015-06-28T14:58:25Z</time>
      </trkpt>
      <trkpt lat="44.22322" lon="6.78318">
        <ele>2262.6</ele>
        <time>2015-06-28T14:58:34Z</time>
      </trkpt>
      <trkpt lat="44.22314" lon="6.78327">
        <ele>2260.68</ele>
        <time>2015-06-28T14:58:48Z</time>
      </trkpt>
      <trkpt lat="44.22315" lon="6.7833">
        <ele>2260.68</ele>
        <time>2015-06-28T14:59:01Z</time>
      </trkpt>
      <trkpt lat="44.22309" lon="6.78333">
        <ele>2259.24</ele>
        <time>2015-06-28T14:59:10Z</time>
      </trkpt>
      <trkpt lat="44.22304" lon="6.78324">
        <ele>2255.39</ele>
        <time>2015-06-28T14:59:21Z</time>
      </trkpt>
      <trkpt lat="44.22299" lon="6.78316">
        <ele>2252.51</ele>
        <time>2015-06-28T14:59:33Z</time>
      </trkpt>
      <trkpt lat="44.22299" lon="6.78316">
        <ele>2251.54</ele>
        <time>2015-06-28T14:59:48Z</time>
      </trkpt>
      <trkpt lat="44.22298" lon="6.78317">
        <ele>2251.06</ele>
        <time>2015-06-28T15:00:07Z</time>
      </trkpt>
      <trkpt lat="44.22297" lon="6.78316">
        <ele>2252.51</ele>
        <time>2015-06-28T15:00:32Z</time>
      </trkpt>
      <trkpt lat="44.22296" lon="6.78314">
        <ele>2250.58</ele>
        <time>2015-06-28T15:00:36Z</time>
      </trkpt>
      <trkpt lat="44.22297" lon="6.78311">
        <ele>2250.58</ele>
        <time>2015-06-28T15:00:42Z</time>
      </trkpt>
      <trkpt lat="44.22295" lon="6.78299">
        <ele>2250.1</ele>
        <time>2015-06-28T15:00:52Z</time>
      </trkpt>
      <trkpt lat="44.22295" lon="6.78286">
        <ele>2247.7</ele>
        <time>2015-06-28T15:01:06Z</time>
      </trkpt>
      <trkpt lat="44.22295" lon="6.78281">
        <ele>2246.74</ele>
        <time>2015-06-28T15:01:12Z</time>
      </trkpt>
      <trkpt lat="44.22293" lon="6.78271">
        <ele>2244.82</ele>
        <time>2015-06-28T15:01:25Z</time>
      </trkpt>
      <trkpt lat="44.22291" lon="6.7826">
        <ele>2242.89</ele>
        <time>2015-06-28T15:01:38Z</time>
      </trkpt>
      <trkpt lat="44.22293" lon="6.78259">
        <ele>2242.41</ele>
        <time>2015-06-28T15:02:03Z</time>
      </trkpt>
      <trkpt lat="44.22289" lon="6.78251">
        <ele>2240.97</ele>
        <time>2015-06-28T15:02:14Z</time>
      </trkpt>
      <trkpt lat="44.22284" lon="6.78229">
        <ele>2239.53</ele>
        <time>2015-06-28T15:02:28Z</time>
      </trkpt>
      <trkpt lat="44.22276" lon="6.78218">
        <ele>2239.53</ele>
        <time>2015-06-28T15:02:38Z</time>
      </trkpt>
      <trkpt lat="44.22275" lon="6.78214">
        <ele>2239.53</ele>
        <time>2015-06-28T15:02:41Z</time>
      </trkpt>
      <trkpt lat="44.22275" lon="6.78211">
        <ele>2239.53</ele>
        <time>2015-06-28T15:02:43Z</time>
      </trkpt>
      <trkpt lat="44.22287" lon="6.78197">
        <ele>2239.05</ele>
        <time>2015-06-28T15:02:57Z</time>
      </trkpt>
      <trkpt lat="44.22292" lon="6.78192">
        <ele>2240.49</ele>
        <time>2015-06-28T15:03:03Z</time>
      </trkpt>
      <trkpt lat="44.22295" lon="6.78191">
        <ele>2240.97</ele>
        <time>2015-06-28T15:03:06Z</time>
      </trkpt>
      <trkpt lat="44.22299" lon="6.78185">
        <ele>2241.45</ele>
        <time>2015-06-28T15:03:12Z</time>
      </trkpt>
      <trkpt lat="44.2231" lon="6.78172">
        <ele>2242.41</ele>
        <time>2015-06-28T15:03:26Z</time>
      </trkpt>
      <trkpt lat="44.22311" lon="6.78169">
        <ele>2242.41</ele>
        <time>2015-06-28T15:03:28Z</time>
      </trkpt>
      <trkpt lat="44.22318" lon="6.7816">
        <ele>2242.89</ele>
        <time>2015-06-28T15:03:40Z</time>
      </trkpt>
      <trkpt lat="44.2232" lon="6.78152">
        <ele>2244.33</ele>
        <time>2015-06-28T15:03:51Z</time>
      </trkpt>
      <trkpt lat="44.22325" lon="6.78146">
        <ele>2245.3</ele>
        <time>2015-06-28T15:04:03Z</time>
      </trkpt>
      <trkpt lat="44.22329" lon="6.78144">
        <ele>2246.74</ele>
        <time>2015-06-28T15:04:08Z</time>
      </trkpt>
      <trkpt lat="44.22331" lon="6.78144">
        <ele>2246.74</ele>
        <time>2015-06-28T15:04:10Z</time>
      </trkpt>
      <trkpt lat="44.2234" lon="6.78144">
        <ele>2245.3</ele>
        <time>2015-06-28T15:04:20Z</time>
      </trkpt>
      <trkpt lat="44.2235" lon="6.78133">
        <ele>2242.89</ele>
        <time>2015-06-28T15:04:33Z</time>
      </trkpt>
      <trkpt lat="44.22351" lon="6.78123">
        <ele>2240.97</ele>
        <time>2015-06-28T15:04:48Z</time>
      </trkpt>
      <trkpt lat="44.22353" lon="6.7812">
        <ele>2240.49</ele>
        <time>2015-06-28T15:04:52Z</time>
      </trkpt>
      <trkpt lat="44.2236" lon="6.7811">
        <ele>2239.53</ele>
        <time>2015-06-28T15:05:08Z</time>
      </trkpt>
      <trkpt lat="44.22359" lon="6.78109">
        <ele>2239.05</ele>
        <time>2015-06-28T15:05:41Z</time>
      </trkpt>
      <trkpt lat="44.22364" lon="6.78107">
        <ele>2238.57</ele>
        <time>2015-06-28T15:06:08Z</time>
      </trkpt>
      <trkpt lat="44.22369" lon="6.78095">
        <ele>2238.57</ele>
        <time>2015-06-28T15:06:21Z</time>
      </trkpt>
      <trkpt lat="44.2237" lon="6.78092">
        <ele>2237.61</ele>
        <time>2015-06-28T15:06:25Z</time>
      </trkpt>
      <trkpt lat="44.22372" lon="6.7809">
        <ele>2237.61</ele>
        <time>2015-06-28T15:06:28Z</time>
      </trkpt>
      <trkpt lat="44.22382" lon="6.78079">
        <ele>2236.16</ele>
        <time>2015-06-28T15:06:43Z</time>
      </trkpt>
      <trkpt lat="44.2239" lon="6.78072">
        <ele>2233.28</ele>
        <time>2015-06-28T15:06:57Z</time>
      </trkpt>
      <trkpt lat="44.22394" lon="6.78062">
        <ele>2230.88</ele>
        <time>2015-06-28T15:07:11Z</time>
      </trkpt>
      <trkpt lat="44.22403" lon="6.78052">
        <ele>2228.47</ele>
        <time>2015-06-28T15:07:25Z</time>
      </trkpt>
      <trkpt lat="44.2241" lon="6.78045">
        <ele>2227.03</ele>
        <time>2015-06-28T15:07:35Z</time>
      </trkpt>
      <trkpt lat="44.22418" lon="6.78039">
        <ele>2225.11</ele>
        <time>2015-06-28T15:07:48Z</time>
      </trkpt>
      <trkpt lat="44.22423" lon="6.78032">
        <ele>2223.19</ele>
        <time>2015-06-28T15:08:01Z</time>
      </trkpt>
      <trkpt lat="44.22431" lon="6.78029">
        <ele>2220.78</ele>
        <time>2015-06-28T15:08:15Z</time>
      </trkpt>
      <trkpt lat="44.22434" lon="6.78018">
        <ele>2217.9</ele>
        <time>2015-06-28T15:08:31Z</time>
      </trkpt>
      <trkpt lat="44.2244" lon="6.78014">
        <ele>2215.5</ele>
        <time>2015-06-28T15:08:44Z</time>
      </trkpt>
      <trkpt lat="44.22445" lon="6.78013">
        <ele>2214.53</ele>
        <time>2015-06-28T15:09:00Z</time>
      </trkpt>
      <trkpt lat="44.22453" lon="6.78004">
        <ele>2211.17</ele>
        <time>2015-06-28T15:09:14Z</time>
      </trkpt>
      <trkpt lat="44.22455" lon="6.77998">
        <ele>2210.21</ele>
        <time>2015-06-28T15:09:21Z</time>
      </trkpt>
      <trkpt lat="44.22461" lon="6.77987">
        <ele>2207.32</ele>
        <time>2015-06-28T15:09:34Z</time>
      </trkpt>
      <trkpt lat="44.22467" lon="6.77976">
        <ele>2204.92</ele>
        <time>2015-06-28T15:09:48Z</time>
      </trkpt>
      <trkpt lat="44.22468" lon="6.77975">
        <ele>2204.92</ele>
        <time>2015-06-28T15:09:49Z</time>
      </trkpt>
      <trkpt lat="44.22472" lon="6.77968">
        <ele>2203.48</ele>
        <time>2015-06-28T15:09:56Z</time>
      </trkpt>
      <trkpt lat="44.22473" lon="6.7796">
        <ele>2202.04</ele>
        <time>2015-06-28T15:10:03Z</time>
      </trkpt>
      <trkpt lat="44.2248" lon="6.77957">
        <ele>2199.15</ele>
        <time>2015-06-28T15:10:16Z</time>
      </trkpt>
      <trkpt lat="44.22491" lon="6.77953">
        <ele>2196.75</ele>
        <time>2015-06-28T15:10:30Z</time>
      </trkpt>
      <trkpt lat="44.22504" lon="6.77948">
        <ele>2193.87</ele>
        <time>2015-06-28T15:10:46Z</time>
      </trkpt>
      <trkpt lat="44.2251" lon="6.77945">
        <ele>2192.9</ele>
        <time>2015-06-28T15:10:52Z</time>
      </trkpt>
      <trkpt lat="44.22506" lon="6.77939">
        <ele>2192.42</ele>
        <time>2015-06-28T15:11:03Z</time>
      </trkpt>
      <trkpt lat="44.22505" lon="6.77937">
        <ele>2191.94</ele>
        <time>2015-06-28T15:11:31Z</time>
      </trkpt>
      <trkpt lat="44.22505" lon="6.77937">
        <ele>2191.46</ele>
        <time>2015-06-28T15:11:34Z</time>
      </trkpt>
      <trkpt lat="44.22503" lon="6.77934">
        <ele>2196.75</ele>
        <time>2015-06-28T15:11:41Z</time>
      </trkpt>
      <trkpt lat="44.22503" lon="6.77935">
        <ele>2192.9</ele>
        <time>2015-06-28T15:11:42Z</time>
      </trkpt>
      <trkpt lat="44.22511" lon="6.7794">
        <ele>2191.94</ele>
        <time>2015-06-28T15:11:55Z</time>
      </trkpt>
      <trkpt lat="44.2251" lon="6.77938">
        <ele>2190.5</ele>
        <time>2015-06-28T15:12:08Z</time>
      </trkpt>
      <trkpt lat="44.22513" lon="6.77935">
        <ele>2190.5</ele>
        <time>2015-06-28T15:12:11Z</time>
      </trkpt>
      <trkpt lat="44.22516" lon="6.7793">
        <ele>2190.02</ele>
        <time>2015-06-28T15:12:15Z</time>
      </trkpt>
      <trkpt lat="44.22518" lon="6.77924">
        <ele>2188.58</ele>
        <time>2015-06-28T15:12:19Z</time>
      </trkpt>
      <trkpt lat="44.22521" lon="6.77917">
        <ele>2187.62</ele>
        <time>2015-06-28T15:12:32Z</time>
      </trkpt>
      <trkpt lat="44.22521" lon="6.77918">
        <ele>2187.62</ele>
        <time>2015-06-28T15:12:34Z</time>
      </trkpt>
      <trkpt lat="44.22521" lon="6.77915">
        <ele>2187.62</ele>
        <time>2015-06-28T15:12:37Z</time>
      </trkpt>
      <trkpt lat="44.22525" lon="6.77912">
        <ele>2187.62</ele>
        <time>2015-06-28T15:12:42Z</time>
      </trkpt>
      <trkpt lat="44.22528" lon="6.77908">
        <ele>2187.14</ele>
        <time>2015-06-28T15:12:46Z</time>
      </trkpt>
      <trkpt lat="44.22534" lon="6.77899">
        <ele>2184.73</ele>
        <time>2015-06-28T15:12:53Z</time>
      </trkpt>
      <trkpt lat="44.22538" lon="6.77897">
        <ele>2183.29</ele>
        <time>2015-06-28T15:12:57Z</time>
      </trkpt>
      <trkpt lat="44.22541" lon="6.77887">
        <ele>2182.33</ele>
        <time>2015-06-28T15:13:03Z</time>
      </trkpt>
      <trkpt lat="44.2254" lon="6.77875">
        <ele>2179.93</ele>
        <time>2015-06-28T15:13:12Z</time>
      </trkpt>
      <trkpt lat="44.22544" lon="6.77868">
        <ele>2178</ele>
        <time>2015-06-28T15:13:20Z</time>
      </trkpt>
      <trkpt lat="44.22545" lon="6.77862">
        <ele>2176.56</ele>
        <time>2015-06-28T15:13:26Z</time>
      </trkpt>
      <trkpt lat="44.22556" lon="6.77865">
        <ele>2174.16</ele>
        <time>2015-06-28T15:13:37Z</time>
      </trkpt>
      <trkpt lat="44.22564" lon="6.77867">
        <ele>2170.79</ele>
        <time>2015-06-28T15:13:50Z</time>
      </trkpt>
      <trkpt lat="44.22575" lon="6.77872">
        <ele>2167.43</ele>
        <time>2015-06-28T15:14:03Z</time>
      </trkpt>
      <trkpt lat="44.22571" lon="6.7786">
        <ele>2165.03</ele>
        <time>2015-06-28T15:14:15Z</time>
      </trkpt>
      <trkpt lat="44.22571" lon="6.77849">
        <ele>2162.62</ele>
        <time>2015-06-28T15:14:28Z</time>
      </trkpt>
      <trkpt lat="44.22573" lon="6.77848">
        <ele>2161.66</ele>
        <time>2015-06-28T15:14:30Z</time>
      </trkpt>
      <trkpt lat="44.22581" lon="6.77848">
        <ele>2160.22</ele>
        <time>2015-06-28T15:14:37Z</time>
      </trkpt>
      <trkpt lat="44.22593" lon="6.77853">
        <ele>2157.34</ele>
        <time>2015-06-28T15:14:50Z</time>
      </trkpt>
      <trkpt lat="44.22593" lon="6.77843">
        <ele>2154.93</ele>
        <time>2015-06-28T15:15:03Z</time>
      </trkpt>
      <trkpt lat="44.22591" lon="6.77841">
        <ele>2153.97</ele>
        <time>2015-06-28T15:15:07Z</time>
      </trkpt>
      <trkpt lat="44.226" lon="6.77839">
        <ele>2150.61</ele>
        <time>2015-06-28T15:15:19Z</time>
      </trkpt>
      <trkpt lat="44.22605" lon="6.7783">
        <ele>2148.68</ele>
        <time>2015-06-28T15:15:28Z</time>
      </trkpt>
      <trkpt lat="44.22606" lon="6.77823">
        <ele>2147.72</ele>
        <time>2015-06-28T15:15:34Z</time>
      </trkpt>
      <trkpt lat="44.22608" lon="6.77814">
        <ele>2147.72</ele>
        <time>2015-06-28T15:15:47Z</time>
      </trkpt>
      <trkpt lat="44.22608" lon="6.77813">
        <ele>2147.72</ele>
        <time>2015-06-28T15:15:50Z</time>
      </trkpt>
      <trkpt lat="44.22607" lon="6.77802">
        <ele>2147.24</ele>
        <time>2015-06-28T15:15:58Z</time>
      </trkpt>
      <trkpt lat="44.22611" lon="6.77795">
        <ele>2146.76</ele>
        <time>2015-06-28T15:16:04Z</time>
      </trkpt>
      <trkpt lat="44.22609" lon="6.77778">
        <ele>2146.76</ele>
        <time>2015-06-28T15:16:15Z</time>
      </trkpt>
      <trkpt lat="44.22603" lon="6.77759">
        <ele>2143.4</ele>
        <time>2015-06-28T15:16:28Z</time>
      </trkpt>
      <trkpt lat="44.22603" lon="6.77757">
        <ele>2142.92</ele>
        <time>2015-06-28T15:16:29Z</time>
      </trkpt>
      <trkpt lat="44.22604" lon="6.77753">
        <ele>2142.44</ele>
        <time>2015-06-28T15:16:31Z</time>
      </trkpt>
      <trkpt lat="44.22602" lon="6.77729">
        <ele>2140.51</ele>
        <time>2015-06-28T15:16:46Z</time>
      </trkpt>
      <trkpt lat="44.22601" lon="6.77708">
        <ele>2139.55</ele>
        <time>2015-06-28T15:16:59Z</time>
      </trkpt>
      <trkpt lat="44.22602" lon="6.77707">
        <ele>2139.55</ele>
        <time>2015-06-28T15:17:00Z</time>
      </trkpt>
      <trkpt lat="44.22611" lon="6.77689">
        <ele>2138.59</ele>
        <time>2015-06-28T15:17:15Z</time>
      </trkpt>
      <trkpt lat="44.22619" lon="6.77675">
        <ele>2138.11</ele>
        <time>2015-06-28T15:17:27Z</time>
      </trkpt>
      <trkpt lat="44.22631" lon="6.77655">
        <ele>2136.67</ele>
        <time>2015-06-28T15:17:43Z</time>
      </trkpt>
      <trkpt lat="44.22634" lon="6.77645">
        <ele>2136.67</ele>
        <time>2015-06-28T15:17:49Z</time>
      </trkpt>
      <trkpt lat="44.22638" lon="6.7764">
        <ele>2136.19</ele>
        <time>2015-06-28T15:17:54Z</time>
      </trkpt>
      <trkpt lat="44.22644" lon="6.77621">
        <ele>2134.26</ele>
        <time>2015-06-28T15:18:08Z</time>
      </trkpt>
      <trkpt lat="44.22648" lon="6.77605">
        <ele>2134.26</ele>
        <time>2015-06-28T15:18:19Z</time>
      </trkpt>
      <trkpt lat="44.22653" lon="6.776">
        <ele>2133.3</ele>
        <time>2015-06-28T15:18:33Z</time>
      </trkpt>
      <trkpt lat="44.22658" lon="6.77594">
        <ele>2132.34</ele>
        <time>2015-06-28T15:18:47Z</time>
      </trkpt>
      <trkpt lat="44.2266" lon="6.7759">
        <ele>2131.86</ele>
        <time>2015-06-28T15:18:51Z</time>
      </trkpt>
      <trkpt lat="44.22663" lon="6.77582">
        <ele>2131.38</ele>
        <time>2015-06-28T15:18:58Z</time>
      </trkpt>
      <trkpt lat="44.22666" lon="6.77572">
        <ele>2130.42</ele>
        <time>2015-06-28T15:19:12Z</time>
      </trkpt>
      <trkpt lat="44.22668" lon="6.77572">
        <ele>2130.42</ele>
        <time>2015-06-28T15:19:40Z</time>
      </trkpt>
      <trkpt lat="44.22677" lon="6.77556">
        <ele>2129.46</ele>
        <time>2015-06-28T15:19:54Z</time>
      </trkpt>
      <trkpt lat="44.22678" lon="6.77556">
        <ele>2128.98</ele>
        <time>2015-06-28T15:19:55Z</time>
      </trkpt>
      <trkpt lat="44.22685" lon="6.77551">
        <ele>2128.5</ele>
        <time>2015-06-28T15:20:02Z</time>
      </trkpt>
      <trkpt lat="44.22687" lon="6.7755">
        <ele>2128.02</ele>
        <time>2015-06-28T15:20:14Z</time>
      </trkpt>
      <trkpt lat="44.22687" lon="6.77547">
        <ele>2128.02</ele>
        <time>2015-06-28T15:20:18Z</time>
      </trkpt>
      <trkpt lat="44.22689" lon="6.77546">
        <ele>2128.02</ele>
        <time>2015-06-28T15:20:20Z</time>
      </trkpt>
      <trkpt lat="44.2269" lon="6.77539">
        <ele>2127.05</ele>
        <time>2015-06-28T15:20:34Z</time>
      </trkpt>
      <trkpt lat="44.2269" lon="6.77537">
        <ele>2127.05</ele>
        <time>2015-06-28T15:20:56Z</time>
      </trkpt>
      <trkpt lat="44.2269" lon="6.77537">
        <ele>2127.05</ele>
        <time>2015-06-28T15:21:10Z</time>
      </trkpt>
      <trkpt lat="44.22692" lon="6.77537">
        <ele>2127.05</ele>
        <time>2015-06-28T15:21:35Z</time>
      </trkpt>
      <trkpt lat="44.22692" lon="6.77524">
        <ele>2125.61</ele>
        <time>2015-06-28T15:21:53Z</time>
      </trkpt>
      <trkpt lat="44.22693" lon="6.77516">
        <ele>2125.13</ele>
        <time>2015-06-28T15:21:59Z</time>
      </trkpt>
      <trkpt lat="44.22696" lon="6.77509">
        <ele>2124.65</ele>
        <time>2015-06-28T15:22:05Z</time>
      </trkpt>
      <trkpt lat="44.22701" lon="6.77503">
        <ele>2124.65</ele>
        <time>2015-06-28T15:22:11Z</time>
      </trkpt>
      <trkpt lat="44.22708" lon="6.77494">
        <ele>2123.69</ele>
        <time>2015-06-28T15:22:21Z</time>
      </trkpt>
      <trkpt lat="44.2271" lon="6.7749">
        <ele>2122.73</ele>
        <time>2015-06-28T15:22:24Z</time>
      </trkpt>
      <trkpt lat="44.2271" lon="6.77486">
        <ele>2122.73</ele>
        <time>2015-06-28T15:22:27Z</time>
      </trkpt>
      <trkpt lat="44.22714" lon="6.77472">
        <ele>2121.29</ele>
        <time>2015-06-28T15:22:37Z</time>
      </trkpt>
      <trkpt lat="44.22717" lon="6.77456">
        <ele>2120.32</ele>
        <time>2015-06-28T15:22:46Z</time>
      </trkpt>
      <trkpt lat="44.22717" lon="6.7745">
        <ele>2120.32</ele>
        <time>2015-06-28T15:22:50Z</time>
      </trkpt>
      <trkpt lat="44.22715" lon="6.7743">
        <ele>2118.4</ele>
        <time>2015-06-28T15:23:03Z</time>
      </trkpt>
      <trkpt lat="44.22713" lon="6.77413">
        <ele>2116.96</ele>
        <time>2015-06-28T15:23:15Z</time>
      </trkpt>
      <trkpt lat="44.22714" lon="6.77404">
        <ele>2116.48</ele>
        <time>2015-06-28T15:23:20Z</time>
      </trkpt>
      <trkpt lat="44.22715" lon="6.77393">
        <ele>2115.52</ele>
        <time>2015-06-28T15:23:26Z</time>
      </trkpt>
      <trkpt lat="44.22721" lon="6.77377">
        <ele>2114.56</ele>
        <time>2015-06-28T15:23:38Z</time>
      </trkpt>
      <trkpt lat="44.22724" lon="6.77364">
        <ele>2113.12</ele>
        <time>2015-06-28T15:23:47Z</time>
      </trkpt>
      <trkpt lat="44.22724" lon="6.77361">
        <ele>2112.63</ele>
        <time>2015-06-28T15:23:49Z</time>
      </trkpt>
      <trkpt lat="44.22724" lon="6.77358">
        <ele>2112.63</ele>
        <time>2015-06-28T15:23:51Z</time>
      </trkpt>
      <trkpt lat="44.22725" lon="6.77351">
        <ele>2112.63</ele>
        <time>2015-06-28T15:23:55Z</time>
      </trkpt>
      <trkpt lat="44.22727" lon="6.77344">
        <ele>2112.15</ele>
        <time>2015-06-28T15:23:59Z</time>
      </trkpt>
      <trkpt lat="44.22728" lon="6.77342">
        <ele>2112.15</ele>
        <time>2015-06-28T15:24:01Z</time>
      </trkpt>
      <trkpt lat="44.22732" lon="6.77337">
        <ele>2112.15</ele>
        <time>2015-06-28T15:24:05Z</time>
      </trkpt>
      <trkpt lat="44.22733" lon="6.77332">
        <ele>2111.67</ele>
        <time>2015-06-28T15:24:08Z</time>
      </trkpt>
      <trkpt lat="44.22735" lon="6.77322">
        <ele>2111.19</ele>
        <time>2015-06-28T15:24:14Z</time>
      </trkpt>
      <trkpt lat="44.22738" lon="6.77312">
        <ele>2109.75</ele>
        <time>2015-06-28T15:24:20Z</time>
      </trkpt>
      <trkpt lat="44.22738" lon="6.77306">
        <ele>2109.27</ele>
        <time>2015-06-28T15:24:24Z</time>
      </trkpt>
      <trkpt lat="44.22742" lon="6.77303">
        <ele>2109.27</ele>
        <time>2015-06-28T15:24:29Z</time>
      </trkpt>
      <trkpt lat="44.22747" lon="6.77301">
        <ele>2108.31</ele>
        <time>2015-06-28T15:24:49Z</time>
      </trkpt>
      <trkpt lat="44.22746" lon="6.77296">
        <ele>2108.31</ele>
        <time>2015-06-28T15:25:05Z</time>
      </trkpt>
      <trkpt lat="44.22739" lon="6.77287">
        <ele>2107.83</ele>
        <time>2015-06-28T15:25:15Z</time>
      </trkpt>
      <trkpt lat="44.22744" lon="6.77278">
        <ele>2107.35</ele>
        <time>2015-06-28T15:25:23Z</time>
      </trkpt>
      <trkpt lat="44.22746" lon="6.77272">
        <ele>2106.87</ele>
        <time>2015-06-28T15:25:29Z</time>
      </trkpt>
      <trkpt lat="44.22749" lon="6.77262">
        <ele>2106.39</ele>
        <time>2015-06-28T15:25:41Z</time>
      </trkpt>
      <trkpt lat="44.2275" lon="6.77262">
        <ele>2106.39</ele>
        <time>2015-06-28T15:25:51Z</time>
      </trkpt>
      <trkpt lat="44.22757" lon="6.77244">
        <ele>2105.42</ele>
        <time>2015-06-28T15:26:04Z</time>
      </trkpt>
      <trkpt lat="44.22762" lon="6.77234">
        <ele>2104.46</ele>
        <time>2015-06-28T15:26:11Z</time>
      </trkpt>
      <trkpt lat="44.22773" lon="6.77226">
        <ele>2104.46</ele>
        <time>2015-06-28T15:26:23Z</time>
      </trkpt>
      <trkpt lat="44.22776" lon="6.77222">
        <ele>2105.91</ele>
        <time>2015-06-28T15:26:27Z</time>
      </trkpt>
      <trkpt lat="44.22787" lon="6.77212">
        <ele>2105.91</ele>
        <time>2015-06-28T15:26:40Z</time>
      </trkpt>
      <trkpt lat="44.22798" lon="6.77202">
        <ele>2103.98</ele>
        <time>2015-06-28T15:26:52Z</time>
      </trkpt>
      <trkpt lat="44.22802" lon="6.77193">
        <ele>2103.5</ele>
        <time>2015-06-28T15:26:59Z</time>
      </trkpt>
      <trkpt lat="44.22801" lon="6.77174">
        <ele>2103.02</ele>
        <time>2015-06-28T15:27:11Z</time>
      </trkpt>
      <trkpt lat="44.22801" lon="6.77171">
        <ele>2103.5</ele>
        <time>2015-06-28T15:27:22Z</time>
      </trkpt>
      <trkpt lat="44.22801" lon="6.77172">
        <ele>2103.5</ele>
        <time>2015-06-28T15:27:26Z</time>
      </trkpt>
      <trkpt lat="44.22803" lon="6.7717">
        <ele>2107.83</ele>
        <time>2015-06-28T15:27:28Z</time>
      </trkpt>
      <trkpt lat="44.22803" lon="6.77169">
        <ele>2103.02</ele>
        <time>2015-06-28T15:27:29Z</time>
      </trkpt>
      <trkpt lat="44.22803" lon="6.77166">
        <ele>2102.54</ele>
        <time>2015-06-28T15:27:33Z</time>
      </trkpt>
      <trkpt lat="44.22805" lon="6.77164">
        <ele>2102.06</ele>
        <time>2015-06-28T15:27:35Z</time>
      </trkpt>
      <trkpt lat="44.2281" lon="6.77146">
        <ele>2099.18</ele>
        <time>2015-06-28T15:27:48Z</time>
      </trkpt>
      <trkpt lat="44.22813" lon="6.77142">
        <ele>2098.7</ele>
        <time>2015-06-28T15:27:52Z</time>
      </trkpt>
      <trkpt lat="44.22819" lon="6.77143">
        <ele>2097.73</ele>
        <time>2015-06-28T15:27:57Z</time>
      </trkpt>
      <trkpt lat="44.22821" lon="6.77141">
        <ele>2096.77</ele>
        <time>2015-06-28T15:27:59Z</time>
      </trkpt>
      <trkpt lat="44.22828" lon="6.77135">
        <ele>2094.37</ele>
        <time>2015-06-28T15:28:11Z</time>
      </trkpt>
      <trkpt lat="44.22829" lon="6.77128">
        <ele>2092.45</ele>
        <time>2015-06-28T15:28:20Z</time>
      </trkpt>
      <trkpt lat="44.22826" lon="6.77121">
        <ele>2091.97</ele>
        <time>2015-06-28T15:28:24Z</time>
      </trkpt>
      <trkpt lat="44.22824" lon="6.77119">
        <ele>2091.97</ele>
        <time>2015-06-28T15:28:26Z</time>
      </trkpt>
      <trkpt lat="44.22822" lon="6.77118">
        <ele>2091.97</ele>
        <time>2015-06-28T15:28:28Z</time>
      </trkpt>
      <trkpt lat="44.22818" lon="6.77115">
        <ele>2091</ele>
        <time>2015-06-28T15:28:32Z</time>
      </trkpt>
      <trkpt lat="44.22817" lon="6.77096">
        <ele>2090.52</ele>
        <time>2015-06-28T15:28:43Z</time>
      </trkpt>
      <trkpt lat="44.22818" lon="6.77088">
        <ele>2090.04</ele>
        <time>2015-06-28T15:28:48Z</time>
      </trkpt>
      <trkpt lat="44.2282" lon="6.77083">
        <ele>2089.56</ele>
        <time>2015-06-28T15:28:52Z</time>
      </trkpt>
      <trkpt lat="44.22826" lon="6.77084">
        <ele>2087.64</ele>
        <time>2015-06-28T15:29:01Z</time>
      </trkpt>
      <trkpt lat="44.22833" lon="6.77092">
        <ele>2084.76</ele>
        <time>2015-06-28T15:29:14Z</time>
      </trkpt>
      <trkpt lat="44.22841" lon="6.77089">
        <ele>2082.35</ele>
        <time>2015-06-28T15:29:26Z</time>
      </trkpt>
      <trkpt lat="44.22848" lon="6.77093">
        <ele>2078.99</ele>
        <time>2015-06-28T15:29:39Z</time>
      </trkpt>
      <trkpt lat="44.22849" lon="6.77094">
        <ele>2078.99</ele>
        <time>2015-06-28T15:29:40Z</time>
      </trkpt>
      <trkpt lat="44.22858" lon="6.77098">
        <ele>2077.55</ele>
        <time>2015-06-28T15:29:52Z</time>
      </trkpt>
      <trkpt lat="44.2286" lon="6.77092">
        <ele>2076.1</ele>
        <time>2015-06-28T15:29:59Z</time>
      </trkpt>
      <trkpt lat="44.22866" lon="6.77095">
        <ele>2074.18</ele>
        <time>2015-06-28T15:30:08Z</time>
      </trkpt>
      <trkpt lat="44.22869" lon="6.77094">
        <ele>2073.7</ele>
        <time>2015-06-28T15:30:11Z</time>
      </trkpt>
      <trkpt lat="44.22869" lon="6.77091">
        <ele>2072.74</ele>
        <time>2015-06-28T15:30:14Z</time>
      </trkpt>
      <trkpt lat="44.22866" lon="6.77088">
        <ele>2071.78</ele>
        <time>2015-06-28T15:30:22Z</time>
      </trkpt>
      <trkpt lat="44.22869" lon="6.77073">
        <ele>2069.38</ele>
        <time>2015-06-28T15:30:35Z</time>
      </trkpt>
      <trkpt lat="44.2287" lon="6.77072">
        <ele>2068.89</ele>
        <time>2015-06-28T15:30:37Z</time>
      </trkpt>
      <trkpt lat="44.22873" lon="6.77072">
        <ele>2068.89</ele>
        <time>2015-06-28T15:30:39Z</time>
      </trkpt>
      <trkpt lat="44.22877" lon="6.7707">
        <ele>2067.93</ele>
        <time>2015-06-28T15:30:44Z</time>
      </trkpt>
      <trkpt lat="44.22884" lon="6.77069">
        <ele>2066.49</ele>
        <time>2015-06-28T15:30:52Z</time>
      </trkpt>
      <trkpt lat="44.22887" lon="6.77078">
        <ele>2064.57</ele>
        <time>2015-06-28T15:31:04Z</time>
      </trkpt>
      <trkpt lat="44.22893" lon="6.77081">
        <ele>2063.13</ele>
        <time>2015-06-28T15:31:14Z</time>
      </trkpt>
      <trkpt lat="44.229" lon="6.77081">
        <ele>2060.24</ele>
        <time>2015-06-28T15:31:27Z</time>
      </trkpt>
      <trkpt lat="44.2291" lon="6.77078">
        <ele>2057.36</ele>
        <time>2015-06-28T15:31:40Z</time>
      </trkpt>
      <trkpt lat="44.22914" lon="6.77073">
        <ele>2055.44</ele>
        <time>2015-06-28T15:31:52Z</time>
      </trkpt>
      <trkpt lat="44.22912" lon="6.77066">
        <ele>2053.99</ele>
        <time>2015-06-28T15:31:59Z</time>
      </trkpt>
      <trkpt lat="44.2291" lon="6.77059">
        <ele>2052.55</ele>
        <time>2015-06-28T15:32:06Z</time>
      </trkpt>
      <trkpt lat="44.2291" lon="6.77048">
        <ele>2049.67</ele>
        <time>2015-06-28T15:32:18Z</time>
      </trkpt>
      <trkpt lat="44.22914" lon="6.77043">
        <ele>2047.75</ele>
        <time>2015-06-28T15:32:27Z</time>
      </trkpt>
      <trkpt lat="44.22916" lon="6.77032">
        <ele>2045.34</ele>
        <time>2015-06-28T15:32:38Z</time>
      </trkpt>
      <trkpt lat="44.22918" lon="6.7702">
        <ele>2043.42</ele>
        <time>2015-06-28T15:32:48Z</time>
      </trkpt>
      <trkpt lat="44.22925" lon="6.77015">
        <ele>2041.98</ele>
        <time>2015-06-28T15:32:56Z</time>
      </trkpt>
      <trkpt lat="44.22932" lon="6.77024">
        <ele>2039.09</ele>
        <time>2015-06-28T15:33:09Z</time>
      </trkpt>
      <trkpt lat="44.22941" lon="6.77025">
        <ele>2037.17</ele>
        <time>2015-06-28T15:33:20Z</time>
      </trkpt>
      <trkpt lat="44.22947" lon="6.77029">
        <ele>2035.73</ele>
        <time>2015-06-28T15:33:28Z</time>
      </trkpt>
      <trkpt lat="44.2295" lon="6.77016">
        <ele>2032.84</ele>
        <time>2015-06-28T15:33:40Z</time>
      </trkpt>
      <trkpt lat="44.2295" lon="6.77015">
        <ele>2032.84</ele>
        <time>2015-06-28T15:33:41Z</time>
      </trkpt>
      <trkpt lat="44.22955" lon="6.77001">
        <ele>2031.88</ele>
        <time>2015-06-28T15:33:50Z</time>
      </trkpt>
      <trkpt lat="44.22962" lon="6.76988">
        <ele>2030.92</ele>
        <time>2015-06-28T15:34:02Z</time>
      </trkpt>
      <trkpt lat="44.22968" lon="6.7698">
        <ele>2028.52</ele>
        <time>2015-06-28T15:34:15Z</time>
      </trkpt>
      <trkpt lat="44.22973" lon="6.76967">
        <ele>2026.6</ele>
        <time>2015-06-28T15:34:28Z</time>
      </trkpt>
      <trkpt lat="44.22978" lon="6.76964">
        <ele>2025.15</ele>
        <time>2015-06-28T15:34:34Z</time>
      </trkpt>
      <trkpt lat="44.22982" lon="6.76961">
        <ele>2024.67</ele>
        <time>2015-06-28T15:34:46Z</time>
      </trkpt>
      <trkpt lat="44.22983" lon="6.76961">
        <ele>2024.67</ele>
        <time>2015-06-28T15:34:48Z</time>
      </trkpt>
      <trkpt lat="44.22992" lon="6.76946">
        <ele>2022.75</ele>
        <time>2015-06-28T15:35:01Z</time>
      </trkpt>
      <trkpt lat="44.22994" lon="6.76946">
        <ele>2022.75</ele>
        <time>2015-06-28T15:35:04Z</time>
      </trkpt>
      <trkpt lat="44.22997" lon="6.76944">
        <ele>2022.27</ele>
        <time>2015-06-28T15:35:14Z</time>
      </trkpt>
      <trkpt lat="44.22998" lon="6.76931">
        <ele>2021.31</ele>
        <time>2015-06-28T15:35:23Z</time>
      </trkpt>
      <trkpt lat="44.23009" lon="6.76922">
        <ele>2019.87</ele>
        <time>2015-06-28T15:35:36Z</time>
      </trkpt>
      <trkpt lat="44.2302" lon="6.7692">
        <ele>2017.46</ele>
        <time>2015-06-28T15:35:49Z</time>
      </trkpt>
      <trkpt lat="44.23022" lon="6.76919">
        <ele>2016.5</ele>
        <time>2015-06-28T15:35:53Z</time>
      </trkpt>
      <trkpt lat="44.23028" lon="6.76901">
        <ele>2013.62</ele>
        <time>2015-06-28T15:36:06Z</time>
      </trkpt>
      <trkpt lat="44.23029" lon="6.76896">
        <ele>2013.62</ele>
        <time>2015-06-28T15:36:09Z</time>
      </trkpt>
      <trkpt lat="44.23031" lon="6.76871">
        <ele>2012.66</ele>
        <time>2015-06-28T15:36:25Z</time>
      </trkpt>
      <trkpt lat="44.23029" lon="6.7686">
        <ele>2011.22</ele>
        <time>2015-06-28T15:36:33Z</time>
      </trkpt>
      <trkpt lat="44.23036" lon="6.76846">
        <ele>2008.33</ele>
        <time>2015-06-28T15:36:50Z</time>
      </trkpt>
      <trkpt lat="44.23039" lon="6.7683">
        <ele>2005.45</ele>
        <time>2015-06-28T15:37:04Z</time>
      </trkpt>
      <trkpt lat="44.23042" lon="6.76821">
        <ele>2004.01</ele>
        <time>2015-06-28T15:37:12Z</time>
      </trkpt>
      <trkpt lat="44.23047" lon="6.7681">
        <ele>2002.08</ele>
        <time>2015-06-28T15:37:19Z</time>
      </trkpt>
      <trkpt lat="44.23051" lon="6.76806">
        <ele>2000.64</ele>
        <time>2015-06-28T15:37:23Z</time>
      </trkpt>
      <trkpt lat="44.23054" lon="6.768">
        <ele>1999.68</ele>
        <time>2015-06-28T15:37:28Z</time>
      </trkpt>
      <trkpt lat="44.23056" lon="6.76793">
        <ele>1997.76</ele>
        <time>2015-06-28T15:37:39Z</time>
      </trkpt>
      <trkpt lat="44.23054" lon="6.76788">
        <ele>1997.28</ele>
        <time>2015-06-28T15:37:54Z</time>
      </trkpt>
      <trkpt lat="44.23057" lon="6.7678">
        <ele>1995.83</ele>
        <time>2015-06-28T15:38:08Z</time>
      </trkpt>
      <trkpt lat="44.23067" lon="6.76783">
        <ele>1993.43</ele>
        <time>2015-06-28T15:38:18Z</time>
      </trkpt>
      <trkpt lat="44.23072" lon="6.76781">
        <ele>1991.99</ele>
        <time>2015-06-28T15:38:22Z</time>
      </trkpt>
      <trkpt lat="44.2307" lon="6.7677">
        <ele>1991.03</ele>
        <time>2015-06-28T15:38:30Z</time>
      </trkpt>
      <trkpt lat="44.23067" lon="6.76753">
        <ele>1988.62</ele>
        <time>2015-06-28T15:38:41Z</time>
      </trkpt>
      <trkpt lat="44.23065" lon="6.76737">
        <ele>1986.7</ele>
        <time>2015-06-28T15:38:53Z</time>
      </trkpt>
      <trkpt lat="44.23062" lon="6.76725">
        <ele>1984.78</ele>
        <time>2015-06-28T15:39:00Z</time>
      </trkpt>
      <trkpt lat="44.23064" lon="6.76714">
        <ele>1984.3</ele>
        <time>2015-06-28T15:39:15Z</time>
      </trkpt>
      <trkpt lat="44.23058" lon="6.76707">
        <ele>1983.34</ele>
        <time>2015-06-28T15:39:35Z</time>
      </trkpt>
      <trkpt lat="44.23055" lon="6.76701">
        <ele>1982.38</ele>
        <time>2015-06-28T15:39:40Z</time>
      </trkpt>
      <trkpt lat="44.23047" lon="6.76689">
        <ele>1979.97</ele>
        <time>2015-06-28T15:39:54Z</time>
      </trkpt>
      <trkpt lat="44.23045" lon="6.76691">
        <ele>1978.53</ele>
        <time>2015-06-28T15:40:21Z</time>
      </trkpt>
      <trkpt lat="44.23041" lon="6.76682">
        <ele>1978.05</ele>
        <time>2015-06-28T15:40:28Z</time>
      </trkpt>
      <trkpt lat="44.23038" lon="6.76678">
        <ele>1977.09</ele>
        <time>2015-06-28T15:40:32Z</time>
      </trkpt>
      <trkpt lat="44.23035" lon="6.76666">
        <ele>1976.13</ele>
        <time>2015-06-28T15:40:38Z</time>
      </trkpt>
      <trkpt lat="44.23035" lon="6.76657">
        <ele>1975.17</ele>
        <time>2015-06-28T15:40:52Z</time>
      </trkpt>
      <trkpt lat="44.23032" lon="6.76642">
        <ele>1974.2</ele>
        <time>2015-06-28T15:41:03Z</time>
      </trkpt>
      <trkpt lat="44.23028" lon="6.7662">
        <ele>1970.84</ele>
        <time>2015-06-28T15:41:16Z</time>
      </trkpt>
      <trkpt lat="44.23028" lon="6.76614">
        <ele>1970.36</ele>
        <time>2015-06-28T15:41:19Z</time>
      </trkpt>
      <trkpt lat="44.23028" lon="6.76603">
        <ele>1968.92</ele>
        <time>2015-06-28T15:41:30Z</time>
      </trkpt>
      <trkpt lat="44.23027" lon="6.76597">
        <ele>1968.44</ele>
        <time>2015-06-28T15:41:40Z</time>
      </trkpt>
      <trkpt lat="44.23025" lon="6.76573">
        <ele>1965.55</ele>
        <time>2015-06-28T15:41:55Z</time>
      </trkpt>
      <trkpt lat="44.23025" lon="6.76571">
        <ele>1965.07</ele>
        <time>2015-06-28T15:41:57Z</time>
      </trkpt>
      <trkpt lat="44.23024" lon="6.76564">
        <ele>1963.63</ele>
        <time>2015-06-28T15:42:03Z</time>
      </trkpt>
      <trkpt lat="44.23016" lon="6.76539">
        <ele>1961.23</ele>
        <time>2015-06-28T15:42:19Z</time>
      </trkpt>
      <trkpt lat="44.23003" lon="6.7652">
        <ele>1958.34</ele>
        <time>2015-06-28T15:42:34Z</time>
      </trkpt>
      <trkpt lat="44.22999" lon="6.76514">
        <ele>1956.9</ele>
        <time>2015-06-28T15:42:48Z</time>
      </trkpt>
      <trkpt lat="44.2299" lon="6.76507">
        <ele>1955.46</ele>
        <time>2015-06-28T15:43:11Z</time>
      </trkpt>
      <trkpt lat="44.22983" lon="6.76502">
        <ele>1954.02</ele>
        <time>2015-06-28T15:43:24Z</time>
      </trkpt>
      <trkpt lat="44.22982" lon="6.76502">
        <ele>1953.54</ele>
        <time>2015-06-28T15:43:29Z</time>
      </trkpt>
      <trkpt lat="44.22979" lon="6.76501">
        <ele>1953.54</ele>
        <time>2015-06-28T15:43:32Z</time>
      </trkpt>
      <trkpt lat="44.22966" lon="6.76491">
        <ele>1950.17</ele>
        <time>2015-06-28T15:43:44Z</time>
      </trkpt>
      <trkpt lat="44.22958" lon="6.76488">
        <ele>1949.21</ele>
        <time>2015-06-28T15:43:57Z</time>
      </trkpt>
      <trkpt lat="44.22956" lon="6.76489">
        <ele>1949.21</ele>
        <time>2015-06-28T15:44:11Z</time>
      </trkpt>
      <trkpt lat="44.22944" lon="6.76477">
        <ele>1946.81</ele>
        <time>2015-06-28T15:44:24Z</time>
      </trkpt>
      <trkpt lat="44.22931" lon="6.7646">
        <ele>1944.4</ele>
        <time>2015-06-28T15:44:37Z</time>
      </trkpt>
      <trkpt lat="44.22922" lon="6.76447">
        <ele>1942</ele>
        <time>2015-06-28T15:44:48Z</time>
      </trkpt>
      <trkpt lat="44.22916" lon="6.76433">
        <ele>1940.08</ele>
        <time>2015-06-28T15:44:59Z</time>
      </trkpt>
      <trkpt lat="44.22916" lon="6.76433">
        <ele>1939.6</ele>
        <time>2015-06-28T15:45:13Z</time>
      </trkpt>
      <trkpt lat="44.22912" lon="6.76427">
        <ele>1938.64</ele>
        <time>2015-06-28T15:45:27Z</time>
      </trkpt>
      <trkpt lat="44.22904" lon="6.76411">
        <ele>1936.23</ele>
        <time>2015-06-28T15:45:42Z</time>
      </trkpt>
      <trkpt lat="44.22898" lon="6.76399">
        <ele>1934.79</ele>
        <time>2015-06-28T15:45:51Z</time>
      </trkpt>
      <trkpt lat="44.22889" lon="6.76388">
        <ele>1933.35</ele>
        <time>2015-06-28T15:46:03Z</time>
      </trkpt>
      <trkpt lat="44.22886" lon="6.76385">
        <ele>1933.35</ele>
        <time>2015-06-28T15:46:07Z</time>
      </trkpt>
      <trkpt lat="44.22882" lon="6.76379">
        <ele>1931.91</ele>
        <time>2015-06-28T15:46:13Z</time>
      </trkpt>
      <trkpt lat="44.22877" lon="6.76376">
        <ele>1930.95</ele>
        <time>2015-06-28T15:46:17Z</time>
      </trkpt>
      <trkpt lat="44.22868" lon="6.76364">
        <ele>1929.98</ele>
        <time>2015-06-28T15:46:30Z</time>
      </trkpt>
      <trkpt lat="44.22864" lon="6.76357">
        <ele>1929.02</ele>
        <time>2015-06-28T15:46:35Z</time>
      </trkpt>
      <trkpt lat="44.22856" lon="6.76348">
        <ele>1927.1</ele>
        <time>2015-06-28T15:46:44Z</time>
      </trkpt>
      <trkpt lat="44.22854" lon="6.76347">
        <ele>1926.62</ele>
        <time>2015-06-28T15:46:46Z</time>
      </trkpt>
      <trkpt lat="44.22841" lon="6.76333">
        <ele>1923.74</ele>
        <time>2015-06-28T15:46:59Z</time>
      </trkpt>
      <trkpt lat="44.22831" lon="6.7632">
        <ele>1921.33</ele>
        <time>2015-06-28T15:47:11Z</time>
      </trkpt>
      <trkpt lat="44.22823" lon="6.76309">
        <ele>1918.93</ele>
        <time>2015-06-28T15:47:22Z</time>
      </trkpt>
      <trkpt lat="44.22814" lon="6.76295">
        <ele>1917.49</ele>
        <time>2015-06-28T15:47:34Z</time>
      </trkpt>
      <trkpt lat="44.22817" lon="6.76299">
        <ele>1916.53</ele>
        <time>2015-06-28T15:47:51Z</time>
      </trkpt>
      <trkpt lat="44.22811" lon="6.76292">
        <ele>1915.56</ele>
        <time>2015-06-28T15:48:17Z</time>
      </trkpt>
      <trkpt lat="44.22801" lon="6.76274">
        <ele>1914.12</ele>
        <time>2015-06-28T15:48:30Z</time>
      </trkpt>
      <trkpt lat="44.2279" lon="6.76258">
        <ele>1911.72</ele>
        <time>2015-06-28T15:48:43Z</time>
      </trkpt>
      <trkpt lat="44.22788" lon="6.76256">
        <ele>1911.72</ele>
        <time>2015-06-28T15:48:45Z</time>
      </trkpt>
      <trkpt lat="44.2278" lon="6.76243">
        <ele>1909.32</ele>
        <time>2015-06-28T15:49:00Z</time>
      </trkpt>
      <trkpt lat="44.22776" lon="6.76239">
        <ele>1908.83</ele>
        <time>2015-06-28T15:49:06Z</time>
      </trkpt>
      <trkpt lat="44.22776" lon="6.76239">
        <ele>1907.39</ele>
        <time>2015-06-28T15:49:20Z</time>
      </trkpt>
      <trkpt lat="44.2278" lon="6.76238">
        <ele>1906.91</ele>
        <time>2015-06-28T15:49:49Z</time>
      </trkpt>
      <trkpt lat="44.22785" lon="6.7624">
        <ele>1905.47</ele>
        <time>2015-06-28T15:50:06Z</time>
      </trkpt>
      <trkpt lat="44.22786" lon="6.7624">
        <ele>1905.47</ele>
        <time>2015-06-28T15:50:12Z</time>
      </trkpt>
      <trkpt lat="44.22789" lon="6.76242">
        <ele>1904.51</ele>
        <time>2015-06-28T15:50:15Z</time>
      </trkpt>
      <trkpt lat="44.22794" lon="6.76243">
        <ele>1904.03</ele>
        <time>2015-06-28T15:50:19Z</time>
      </trkpt>
      <trkpt lat="44.22806" lon="6.76251">
        <ele>1902.11</ele>
        <time>2015-06-28T15:50:32Z</time>
      </trkpt>
      <trkpt lat="44.22817" lon="6.7626">
        <ele>1899.7</ele>
        <time>2015-06-28T15:50:46Z</time>
      </trkpt>
      <trkpt lat="44.2283" lon="6.76269">
        <ele>1897.78</ele>
        <time>2015-06-28T15:50:59Z</time>
      </trkpt>
      <trkpt lat="44.22846" lon="6.76275">
        <ele>1894.9</ele>
        <time>2015-06-28T15:51:13Z</time>
      </trkpt>
      <trkpt lat="44.22849" lon="6.76277">
        <ele>1894.9</ele>
        <time>2015-06-28T15:51:16Z</time>
      </trkpt>
      <trkpt lat="44.22866" lon="6.7628">
        <ele>1892.49</ele>
        <time>2015-06-28T15:51:34Z</time>
      </trkpt>
      <trkpt lat="44.22881" lon="6.76286">
        <ele>1890.57</ele>
        <time>2015-06-28T15:51:48Z</time>
      </trkpt>
      <trkpt lat="44.22898" lon="6.76294">
        <ele>1887.21</ele>
        <time>2015-06-28T15:52:05Z</time>
      </trkpt>
      <trkpt lat="44.22909" lon="6.76297">
        <ele>1885.28</ele>
        <time>2015-06-28T15:52:17Z</time>
      </trkpt>
      <trkpt lat="44.22919" lon="6.763">
        <ele>1883.36</ele>
        <time>2015-06-28T15:52:24Z</time>
      </trkpt>
      <trkpt lat="44.22925" lon="6.76304">
        <ele>1882.88</ele>
        <time>2015-06-28T15:52:30Z</time>
      </trkpt>
      <trkpt lat="44.2294" lon="6.7631">
        <ele>1880.96</ele>
        <time>2015-06-28T15:52:44Z</time>
      </trkpt>
      <trkpt lat="44.22951" lon="6.76313">
        <ele>1878.07</ele>
        <time>2015-06-28T15:52:57Z</time>
      </trkpt>
      <trkpt lat="44.2296" lon="6.76317">
        <ele>1877.11</ele>
        <time>2015-06-28T15:53:07Z</time>
      </trkpt>
      <trkpt lat="44.22967" lon="6.7632">
        <ele>1875.67</ele>
        <time>2015-06-28T15:53:14Z</time>
      </trkpt>
      <trkpt lat="44.22982" lon="6.76329">
        <ele>1873.75</ele>
        <time>2015-06-28T15:53:28Z</time>
      </trkpt>
      <trkpt lat="44.22996" lon="6.76338">
        <ele>1871.34</ele>
        <time>2015-06-28T15:53:43Z</time>
      </trkpt>
      <trkpt lat="44.23001" lon="6.76341">
        <ele>1871.34</ele>
        <time>2015-06-28T15:53:49Z</time>
      </trkpt>
      <trkpt lat="44.23013" lon="6.76346">
        <ele>1870.38</ele>
        <time>2015-06-28T15:54:01Z</time>
      </trkpt>
      <trkpt lat="44.23016" lon="6.76346">
        <ele>1869.9</ele>
        <time>2015-06-28T15:54:05Z</time>
      </trkpt>
      <trkpt lat="44.23028" lon="6.76346">
        <ele>1867.02</ele>
        <time>2015-06-28T15:54:17Z</time>
      </trkpt>
      <trkpt lat="44.23041" lon="6.76348">
        <ele>1865.09</ele>
        <time>2015-06-28T15:54:29Z</time>
      </trkpt>
      <trkpt lat="44.23057" lon="6.76352">
        <ele>1862.69</ele>
        <time>2015-06-28T15:54:45Z</time>
      </trkpt>
      <trkpt lat="44.23073" lon="6.76353">
        <ele>1859.81</ele>
        <time>2015-06-28T15:55:00Z</time>
      </trkpt>
      <trkpt lat="44.23087" lon="6.76357">
        <ele>1857.4</ele>
        <time>2015-06-28T15:55:15Z</time>
      </trkpt>
      <trkpt lat="44.23102" lon="6.76363">
        <ele>1855.48</ele>
        <time>2015-06-28T15:55:30Z</time>
      </trkpt>
      <trkpt lat="44.23114" lon="6.76367">
        <ele>1853.56</ele>
        <time>2015-06-28T15:55:41Z</time>
      </trkpt>
      <trkpt lat="44.23129" lon="6.76369">
        <ele>1851.64</ele>
        <time>2015-06-28T15:55:55Z</time>
      </trkpt>
      <trkpt lat="44.23137" lon="6.76373">
        <ele>1850.19</ele>
        <time>2015-06-28T15:56:05Z</time>
      </trkpt>
      <trkpt lat="44.23145" lon="6.76361">
        <ele>1850.19</ele>
        <time>2015-06-28T15:56:17Z</time>
      </trkpt>
      <trkpt lat="44.23147" lon="6.76354">
        <ele>1849.23</ele>
        <time>2015-06-28T15:56:22Z</time>
      </trkpt>
      <trkpt lat="44.23155" lon="6.76344">
        <ele>1848.27</ele>
        <time>2015-06-28T15:56:36Z</time>
      </trkpt>
      <trkpt lat="44.23166" lon="6.76339">
        <ele>1847.79</ele>
        <time>2015-06-28T15:56:48Z</time>
      </trkpt>
      <trkpt lat="44.2318" lon="6.76324">
        <ele>1845.87</ele>
        <time>2015-06-28T15:57:03Z</time>
      </trkpt>
      <trkpt lat="44.23195" lon="6.76314">
        <ele>1844.43</ele>
        <time>2015-06-28T15:57:16Z</time>
      </trkpt>
      <trkpt lat="44.23199" lon="6.76302">
        <ele>1844.43</ele>
        <time>2015-06-28T15:57:24Z</time>
      </trkpt>
      <trkpt lat="44.23207" lon="6.76281">
        <ele>1842.98</ele>
        <time>2015-06-28T15:57:36Z</time>
      </trkpt>
      <trkpt lat="44.23211" lon="6.7626">
        <ele>1842.5</ele>
        <time>2015-06-28T15:57:49Z</time>
      </trkpt>
      <trkpt lat="44.23211" lon="6.76259">
        <ele>1842.5</ele>
        <time>2015-06-28T15:57:50Z</time>
      </trkpt>
      <trkpt lat="44.23213" lon="6.76255">
        <ele>1842.5</ele>
        <time>2015-06-28T15:57:52Z</time>
      </trkpt>
      <trkpt lat="44.23217" lon="6.76244">
        <ele>1841.54</ele>
        <time>2015-06-28T15:57:59Z</time>
      </trkpt>
      <trkpt lat="44.23218" lon="6.76233">
        <ele>1841.54</ele>
        <time>2015-06-28T15:58:06Z</time>
      </trkpt>
      <trkpt lat="44.23208" lon="6.76218">
        <ele>1840.58</ele>
        <time>2015-06-28T15:58:20Z</time>
      </trkpt>
      <trkpt lat="44.23204" lon="6.76218">
        <ele>1840.58</ele>
        <time>2015-06-28T15:58:41Z</time>
      </trkpt>
      <trkpt lat="44.23205" lon="6.76218">
        <ele>1840.58</ele>
        <time>2015-06-28T15:58:59Z</time>
      </trkpt>
      <trkpt lat="44.23201" lon="6.76212">
        <ele>1840.58</ele>
        <time>2015-06-28T15:59:12Z</time>
      </trkpt>
      <trkpt lat="44.23191" lon="6.76198">
        <ele>1839.62</ele>
        <time>2015-06-28T15:59:24Z</time>
      </trkpt>
      <trkpt lat="44.2318" lon="6.7618">
        <ele>1838.66</ele>
        <time>2015-06-28T15:59:37Z</time>
      </trkpt>
      <trkpt lat="44.23169" lon="6.76158">
        <ele>1836.74</ele>
        <time>2015-06-28T15:59:53Z</time>
      </trkpt>
      <trkpt lat="44.23161" lon="6.76139">
        <ele>1835.77</ele>
        <time>2015-06-28T16:00:08Z</time>
      </trkpt>
      <trkpt lat="44.23153" lon="6.76114">
        <ele>1834.81</ele>
        <time>2015-06-28T16:00:27Z</time>
      </trkpt>
      <trkpt lat="44.23152" lon="6.76106">
        <ele>1834.81</ele>
        <time>2015-06-28T16:00:32Z</time>
      </trkpt>
      <trkpt lat="44.23158" lon="6.76082">
        <ele>1833.37</ele>
        <time>2015-06-28T16:00:47Z</time>
      </trkpt>
      <trkpt lat="44.23163" lon="6.76073">
        <ele>1833.37</ele>
        <time>2015-06-28T16:00:54Z</time>
      </trkpt>
      <trkpt lat="44.23165" lon="6.7607">
        <ele>1833.37</ele>
        <time>2015-06-28T16:00:57Z</time>
      </trkpt>
      <trkpt lat="44.23166" lon="6.76065">
        <ele>1832.41</ele>
        <time>2015-06-28T16:01:00Z</time>
      </trkpt>
      <trkpt lat="44.23171" lon="6.76054">
        <ele>1832.41</ele>
        <time>2015-06-28T16:01:08Z</time>
      </trkpt>
      <trkpt lat="44.23183" lon="6.76034">
        <ele>1831.45</ele>
        <time>2015-06-28T16:01:24Z</time>
      </trkpt>
      <trkpt lat="44.2319" lon="6.76027">
        <ele>1831.45</ele>
        <time>2015-06-28T16:01:31Z</time>
      </trkpt>
      <trkpt lat="44.23194" lon="6.76024">
        <ele>1830.97</ele>
        <time>2015-06-28T16:01:35Z</time>
      </trkpt>
      <trkpt lat="44.23204" lon="6.76018">
        <ele>1830.97</ele>
        <time>2015-06-28T16:01:43Z</time>
      </trkpt>
      <trkpt lat="44.23216" lon="6.76003">
        <ele>1830.01</ele>
        <time>2015-06-28T16:01:57Z</time>
      </trkpt>
      <trkpt lat="44.23222" lon="6.75996">
        <ele>1829.53</ele>
        <time>2015-06-28T16:02:04Z</time>
      </trkpt>
      <trkpt lat="44.23236" lon="6.75984">
        <ele>1829.05</ele>
        <time>2015-06-28T16:02:18Z</time>
      </trkpt>
      <trkpt lat="44.23252" lon="6.75973">
        <ele>1827.6</ele>
        <time>2015-06-28T16:02:33Z</time>
      </trkpt>
      <trkpt lat="44.23267" lon="6.7596">
        <ele>1825.2</ele>
        <time>2015-06-28T16:02:47Z</time>
      </trkpt>
      <trkpt lat="44.23279" lon="6.75948">
        <ele>1823.76</ele>
        <time>2015-06-28T16:02:59Z</time>
      </trkpt>
      <trkpt lat="44.23289" lon="6.75937">
        <ele>1822.8</ele>
        <time>2015-06-28T16:03:11Z</time>
      </trkpt>
      <trkpt lat="44.23294" lon="6.75931">
        <ele>1821.84</ele>
        <time>2015-06-28T16:03:17Z</time>
      </trkpt>
      <trkpt lat="44.23306" lon="6.75914">
        <ele>1820.39</ele>
        <time>2015-06-28T16:03:32Z</time>
      </trkpt>
      <trkpt lat="44.23311" lon="6.75907">
        <ele>1819.91</ele>
        <time>2015-06-28T16:03:38Z</time>
      </trkpt>
      <trkpt lat="44.23324" lon="6.7589">
        <ele>1817.51</ele>
        <time>2015-06-28T16:03:53Z</time>
      </trkpt>
      <trkpt lat="44.23334" lon="6.75876">
        <ele>1816.07</ele>
        <time>2015-06-28T16:04:06Z</time>
      </trkpt>
      <trkpt lat="44.23343" lon="6.7586">
        <ele>1814.63</ele>
        <time>2015-06-28T16:04:19Z</time>
      </trkpt>
      <trkpt lat="44.23349" lon="6.75845">
        <ele>1813.18</ele>
        <time>2015-06-28T16:04:31Z</time>
      </trkpt>
      <trkpt lat="44.23351" lon="6.75832">
        <ele>1812.7</ele>
        <time>2015-06-28T16:04:39Z</time>
      </trkpt>
      <trkpt lat="44.23352" lon="6.75828">
        <ele>1812.22</ele>
        <time>2015-06-28T16:04:42Z</time>
      </trkpt>
      <trkpt lat="44.23354" lon="6.7581">
        <ele>1810.78</ele>
        <time>2015-06-28T16:04:55Z</time>
      </trkpt>
      <trkpt lat="44.2336" lon="6.75788">
        <ele>1809.82</ele>
        <time>2015-06-28T16:05:09Z</time>
      </trkpt>
      <trkpt lat="44.2336" lon="6.75785">
        <ele>1809.34</ele>
        <time>2015-06-28T16:05:16Z</time>
      </trkpt>
      <trkpt lat="44.23362" lon="6.75775">
        <ele>1808.38</ele>
        <time>2015-06-28T16:05:21Z</time>
      </trkpt>
      <trkpt lat="44.23367" lon="6.75749">
        <ele>1806.45</ele>
        <time>2015-06-28T16:05:35Z</time>
      </trkpt>
      <trkpt lat="44.23368" lon="6.75742">
        <ele>1805.97</ele>
        <time>2015-06-28T16:05:39Z</time>
      </trkpt>
      <trkpt lat="44.23365" lon="6.75725">
        <ele>1805.01</ele>
        <time>2015-06-28T16:05:52Z</time>
      </trkpt>
      <trkpt lat="44.23364" lon="6.75723">
        <ele>1805.01</ele>
        <time>2015-06-28T16:05:54Z</time>
      </trkpt>
      <trkpt lat="44.23361" lon="6.7572">
        <ele>1805.01</ele>
        <time>2015-06-28T16:05:59Z</time>
      </trkpt>
      <trkpt lat="44.23352" lon="6.75712">
        <ele>1805.01</ele>
        <time>2015-06-28T16:06:08Z</time>
      </trkpt>
      <trkpt lat="44.23342" lon="6.7571">
        <ele>1805.01</ele>
        <time>2015-06-28T16:06:15Z</time>
      </trkpt>
      <trkpt lat="44.23317" lon="6.75707">
        <ele>1803.09</ele>
        <time>2015-06-28T16:06:33Z</time>
      </trkpt>
      <trkpt lat="44.23311" lon="6.75704">
        <ele>1801.17</ele>
        <time>2015-06-28T16:06:39Z</time>
      </trkpt>
      <trkpt lat="44.23302" lon="6.75694">
        <ele>1800.69</ele>
        <time>2015-06-28T16:06:49Z</time>
      </trkpt>
      <trkpt lat="44.23289" lon="6.75685">
        <ele>1799.73</ele>
        <time>2015-06-28T16:07:03Z</time>
      </trkpt>
      <trkpt lat="44.23268" lon="6.75671">
        <ele>1799.24</ele>
        <time>2015-06-28T16:07:17Z</time>
      </trkpt>
      <trkpt lat="44.23263" lon="6.75646">
        <ele>1798.76</ele>
        <time>2015-06-28T16:07:29Z</time>
      </trkpt>
      <trkpt lat="44.2326" lon="6.75625">
        <ele>1799.24</ele>
        <time>2015-06-28T16:07:41Z</time>
      </trkpt>
      <trkpt lat="44.23261" lon="6.75624">
        <ele>1799.24</ele>
        <time>2015-06-28T16:07:42Z</time>
      </trkpt>
      <trkpt lat="44.23261" lon="6.75604">
        <ele>1800.21</ele>
        <time>2015-06-28T16:07:54Z</time>
      </trkpt>
      <trkpt lat="44.23264" lon="6.75588">
        <ele>1801.17</ele>
        <time>2015-06-28T16:08:04Z</time>
      </trkpt>
      <trkpt lat="44.23271" lon="6.75583">
        <ele>1801.65</ele>
        <time>2015-06-28T16:08:19Z</time>
      </trkpt>
      <trkpt lat="44.23279" lon="6.75584">
        <ele>1802.13</ele>
        <time>2015-06-28T16:08:41Z</time>
      </trkpt>
      <trkpt lat="44.23283" lon="6.75583">
        <ele>1802.61</ele>
        <time>2015-06-28T16:08:52Z</time>
      </trkpt>
      <trkpt lat="44.23284" lon="6.75585">
        <ele>1802.61</ele>
        <time>2015-06-28T16:09:13Z</time>
      </trkpt>
      <trkpt lat="44.23286" lon="6.75583">
        <ele>1802.61</ele>
        <time>2015-06-28T16:09:44Z</time>
      </trkpt>
      <trkpt lat="44.23291" lon="6.75582">
        <ele>1802.61</ele>
        <time>2015-06-28T16:09:54Z</time>
      </trkpt>
      <trkpt lat="44.23294" lon="6.75578">
        <ele>1802.61</ele>
        <time>2015-06-28T16:10:12Z</time>
      </trkpt>
      <trkpt lat="44.23296" lon="6.75579">
        <ele>1802.61</ele>
        <time>2015-06-28T16:10:15Z</time>
      </trkpt>
      <trkpt lat="44.23302" lon="6.75581">
        <ele>1802.61</ele>
        <time>2015-06-28T16:10:23Z</time>
      </trkpt>
      <trkpt lat="44.23314" lon="6.75583">
        <ele>1803.09</ele>
        <time>2015-06-28T16:10:33Z</time>
      </trkpt>
      <trkpt lat="44.2332" lon="6.75576">
        <ele>1803.57</ele>
        <time>2015-06-28T16:10:39Z</time>
      </trkpt>
      <trkpt lat="44.23332" lon="6.75557">
        <ele>1804.05</ele>
        <time>2015-06-28T16:10:55Z</time>
      </trkpt>
      <trkpt lat="44.23335" lon="6.75551">
        <ele>1803.57</ele>
        <time>2015-06-28T16:11:09Z</time>
      </trkpt>
      <trkpt lat="44.2335" lon="6.75547">
        <ele>1804.05</ele>
        <time>2015-06-28T16:11:21Z</time>
      </trkpt>
      <trkpt lat="44.23354" lon="6.75551">
        <ele>1804.53</ele>
        <time>2015-06-28T16:11:36Z</time>
      </trkpt>
      <trkpt lat="44.23363" lon="6.75547">
        <ele>1804.53</ele>
        <time>2015-06-28T16:11:46Z</time>
      </trkpt>
      <trkpt lat="44.23377" lon="6.75542">
        <ele>1804.53</ele>
        <time>2015-06-28T16:11:58Z</time>
      </trkpt>
      <trkpt lat="44.23386" lon="6.75537">
        <ele>1804.53</ele>
        <time>2015-06-28T16:12:08Z</time>
      </trkpt>
      <trkpt lat="44.23398" lon="6.75527">
        <ele>1804.53</ele>
        <time>2015-06-28T16:12:22Z</time>
      </trkpt>
      <trkpt lat="44.23401" lon="6.75524">
        <ele>1803.09</ele>
        <time>2015-06-28T16:12:25Z</time>
      </trkpt>
      <trkpt lat="44.23404" lon="6.75519">
        <ele>1803.09</ele>
        <time>2015-06-28T16:12:28Z</time>
      </trkpt>
      <trkpt lat="44.2342" lon="6.75508">
        <ele>1803.09</ele>
        <time>2015-06-28T16:12:41Z</time>
      </trkpt>
      <trkpt lat="44.23439" lon="6.75496">
        <ele>1803.09</ele>
        <time>2015-06-28T16:12:56Z</time>
      </trkpt>
      <trkpt lat="44.23448" lon="6.75489">
        <ele>1803.09</ele>
        <time>2015-06-28T16:13:03Z</time>
      </trkpt>
      <trkpt lat="44.23466" lon="6.75476">
        <ele>1802.61</ele>
        <time>2015-06-28T16:13:16Z</time>
      </trkpt>
      <trkpt lat="44.23477" lon="6.75473">
        <ele>1801.65</ele>
        <time>2015-06-28T16:13:26Z</time>
      </trkpt>
      <trkpt lat="44.23488" lon="6.7546">
        <ele>1801.65</ele>
        <time>2015-06-28T16:13:37Z</time>
      </trkpt>
      <trkpt lat="44.23491" lon="6.75457">
        <ele>1801.17</ele>
        <time>2015-06-28T16:13:52Z</time>
      </trkpt>
      <trkpt lat="44.23488" lon="6.75457">
        <ele>1801.17</ele>
        <time>2015-06-28T16:14:08Z</time>
      </trkpt>
      <trkpt lat="44.23486" lon="6.75456">
        <ele>1802.13</ele>
        <time>2015-06-28T16:14:33Z</time>
      </trkpt>
      <trkpt lat="44.23487" lon="6.75456">
        <ele>1802.13</ele>
        <time>2015-06-28T16:15:08Z</time>
      </trkpt>
      <trkpt lat="44.23487" lon="6.75458">
        <ele>1800.69</ele>
        <time>2015-06-28T16:15:34Z</time>
      </trkpt>
    </trkseg>
  </trk>
</gpx>